<?xml version="1.0" encoding="UTF-8" standalone="no" ?>
<gpx xmlns="http://www.topografix.com/GPX/1/1" xmlns:xsi="http://www.w3.org/2001/XMLSchema-instance" xsi:schemaLocation="http://www.topografix.com/GPX/1/1 http://www.topografix.com/GPX/1/1/gpx.xsd" version="1.1" creator="VisuGPX - https://www.visugpx.com">
  <metadata>
    <name>Demi roche bernard</name>
    <desc><![CDATA[Trace AlpineQuest 23/01/2022 09:55:26]]></desc>
  </metadata>
  <trk>
    <name><![CDATA[Demi roche bernard_1]]></name>
    <trkseg>
      <trkpt lat="44.99621" lon="6.47712">
        <ele>1554.511</ele>
        <time>2022-01-23T08:55:26Z</time>
      </trkpt>
      <trkpt lat="44.99619" lon="6.47713">
        <ele>1551.803</ele>
        <time>2022-01-23T08:55:31Z</time>
      </trkpt>
      <trkpt lat="44.99619" lon="6.47714">
        <ele>1549.64</ele>
        <time>2022-01-23T08:55:36Z</time>
      </trkpt>
      <trkpt lat="44.99619" lon="6.47713">
        <ele>1547.986</ele>
        <time>2022-01-23T08:55:42Z</time>
      </trkpt>
      <trkpt lat="44.99619" lon="6.47714">
        <ele>1546.82</ele>
        <time>2022-01-23T08:55:47Z</time>
      </trkpt>
      <trkpt lat="44.99618" lon="6.47712">
        <ele>1546.412</ele>
        <time>2022-01-23T08:55:52Z</time>
      </trkpt>
      <trkpt lat="44.99617" lon="6.47711">
        <ele>1546.014</ele>
        <time>2022-01-23T08:55:57Z</time>
      </trkpt>
      <trkpt lat="44.99616" lon="6.47711">
        <ele>1547.175</ele>
        <time>2022-01-23T08:56:02Z</time>
      </trkpt>
      <trkpt lat="44.99615" lon="6.4771">
        <ele>1547.148</ele>
        <time>2022-01-23T08:56:07Z</time>
      </trkpt>
      <trkpt lat="44.99615" lon="6.47711">
        <ele>1547.873</ele>
        <time>2022-01-23T08:56:12Z</time>
      </trkpt>
      <trkpt lat="44.99616" lon="6.47711">
        <ele>1547.742</ele>
        <time>2022-01-23T08:56:17Z</time>
      </trkpt>
      <trkpt lat="44.99616" lon="6.47711">
        <ele>1550.027</ele>
        <time>2022-01-23T08:56:22Z</time>
      </trkpt>
      <trkpt lat="44.99616" lon="6.47708">
        <ele>1550.459</ele>
        <time>2022-01-23T08:56:27Z</time>
      </trkpt>
      <trkpt lat="44.99615" lon="6.47709">
        <ele>1549.181</ele>
        <time>2022-01-23T08:56:32Z</time>
      </trkpt>
      <trkpt lat="44.99615" lon="6.4771">
        <ele>1548.335</ele>
        <time>2022-01-23T08:56:37Z</time>
      </trkpt>
      <trkpt lat="44.99616" lon="6.4771">
        <ele>1546.844</ele>
        <time>2022-01-23T08:56:42Z</time>
      </trkpt>
      <trkpt lat="44.99616" lon="6.47711">
        <ele>1546.685</ele>
        <time>2022-01-23T08:56:47Z</time>
      </trkpt>
      <trkpt lat="44.99615" lon="6.47712">
        <ele>1547.146</ele>
        <time>2022-01-23T08:56:52Z</time>
      </trkpt>
      <trkpt lat="44.99616" lon="6.47711">
        <ele>1547.439</ele>
        <time>2022-01-23T08:56:57Z</time>
      </trkpt>
      <trkpt lat="44.99615" lon="6.4771">
        <ele>1547.595</ele>
        <time>2022-01-23T08:57:02Z</time>
      </trkpt>
      <trkpt lat="44.99615" lon="6.47709">
        <ele>1546.31</ele>
        <time>2022-01-23T08:57:07Z</time>
      </trkpt>
      <trkpt lat="44.99616" lon="6.4771">
        <ele>1545.671</ele>
        <time>2022-01-23T08:57:12Z</time>
      </trkpt>
      <trkpt lat="44.99616" lon="6.47711">
        <ele>1546.227</ele>
        <time>2022-01-23T08:57:17Z</time>
      </trkpt>
      <trkpt lat="44.99617" lon="6.47711">
        <ele>1546.447</ele>
        <time>2022-01-23T08:57:22Z</time>
      </trkpt>
      <trkpt lat="44.99617" lon="6.47711">
        <ele>1546.451</ele>
        <time>2022-01-23T08:57:27Z</time>
      </trkpt>
      <trkpt lat="44.99616" lon="6.47712">
        <ele>1546.988</ele>
        <time>2022-01-23T08:57:32Z</time>
      </trkpt>
      <trkpt lat="44.99617" lon="6.47712">
        <ele>1546.873</ele>
        <time>2022-01-23T08:57:37Z</time>
      </trkpt>
      <trkpt lat="44.99617" lon="6.47711">
        <ele>1547.189</ele>
        <time>2022-01-23T08:57:42Z</time>
      </trkpt>
      <trkpt lat="44.99617" lon="6.47711">
        <ele>1547.35</ele>
        <time>2022-01-23T08:57:47Z</time>
      </trkpt>
      <trkpt lat="44.99617" lon="6.47711">
        <ele>1547.362</ele>
        <time>2022-01-23T08:57:52Z</time>
      </trkpt>
      <trkpt lat="44.99617" lon="6.47711">
        <ele>1547.288</ele>
        <time>2022-01-23T08:57:57Z</time>
      </trkpt>
      <trkpt lat="44.99617" lon="6.47711">
        <ele>1547.271</ele>
        <time>2022-01-23T08:58:02Z</time>
      </trkpt>
      <trkpt lat="44.99617" lon="6.47711">
        <ele>1547.318</ele>
        <time>2022-01-23T08:58:07Z</time>
      </trkpt>
      <trkpt lat="44.99617" lon="6.47711">
        <ele>1547.49</ele>
        <time>2022-01-23T08:58:12Z</time>
      </trkpt>
      <trkpt lat="44.99617" lon="6.47712">
        <ele>1547.422</ele>
        <time>2022-01-23T08:58:17Z</time>
      </trkpt>
      <trkpt lat="44.99617" lon="6.47712">
        <ele>1548.086</ele>
        <time>2022-01-23T08:58:22Z</time>
      </trkpt>
      <trkpt lat="44.99618" lon="6.47712">
        <ele>1548.166</ele>
        <time>2022-01-23T08:58:27Z</time>
      </trkpt>
      <trkpt lat="44.99618" lon="6.47712">
        <ele>1548.847</ele>
        <time>2022-01-23T08:58:32Z</time>
      </trkpt>
      <trkpt lat="44.99618" lon="6.47712">
        <ele>1548.871</ele>
        <time>2022-01-23T08:58:37Z</time>
      </trkpt>
      <trkpt lat="44.99617" lon="6.47713">
        <ele>1549.142</ele>
        <time>2022-01-23T08:58:42Z</time>
      </trkpt>
      <trkpt lat="44.99617" lon="6.47713">
        <ele>1549.177</ele>
        <time>2022-01-23T08:58:47Z</time>
      </trkpt>
      <trkpt lat="44.99617" lon="6.47713">
        <ele>1549.244</ele>
        <time>2022-01-23T08:58:52Z</time>
      </trkpt>
      <trkpt lat="44.99617" lon="6.47713">
        <ele>1549.294</ele>
        <time>2022-01-23T08:58:57Z</time>
      </trkpt>
      <trkpt lat="44.99617" lon="6.47712">
        <ele>1549.556</ele>
        <time>2022-01-23T08:59:02Z</time>
      </trkpt>
      <trkpt lat="44.99617" lon="6.47711">
        <ele>1549.984</ele>
        <time>2022-01-23T08:59:07Z</time>
      </trkpt>
      <trkpt lat="44.99618" lon="6.47711">
        <ele>1551.039</ele>
        <time>2022-01-23T08:59:12Z</time>
      </trkpt>
      <trkpt lat="44.99618" lon="6.47711">
        <ele>1551.36</ele>
        <time>2022-01-23T08:59:17Z</time>
      </trkpt>
      <trkpt lat="44.99618" lon="6.47711">
        <ele>1551.346</ele>
        <time>2022-01-23T08:59:22Z</time>
      </trkpt>
      <trkpt lat="44.99618" lon="6.47711">
        <ele>1551.336</ele>
        <time>2022-01-23T08:59:27Z</time>
      </trkpt>
      <trkpt lat="44.99618" lon="6.47711">
        <ele>1551.421</ele>
        <time>2022-01-23T08:59:32Z</time>
      </trkpt>
      <trkpt lat="44.99618" lon="6.47711">
        <ele>1551.423</ele>
        <time>2022-01-23T08:59:37Z</time>
      </trkpt>
      <trkpt lat="44.99618" lon="6.47711">
        <ele>1551.434</ele>
        <time>2022-01-23T08:59:42Z</time>
      </trkpt>
      <trkpt lat="44.99618" lon="6.47711">
        <ele>1551.433</ele>
        <time>2022-01-23T08:59:47Z</time>
      </trkpt>
      <trkpt lat="44.99618" lon="6.47711">
        <ele>1551.444</ele>
        <time>2022-01-23T08:59:52Z</time>
      </trkpt>
      <trkpt lat="44.99618" lon="6.47711">
        <ele>1551.451</ele>
        <time>2022-01-23T08:59:57Z</time>
      </trkpt>
      <trkpt lat="44.99618" lon="6.47711">
        <ele>1551.46</ele>
        <time>2022-01-23T09:00:02Z</time>
      </trkpt>
      <trkpt lat="44.99618" lon="6.47711">
        <ele>1551.457</ele>
        <time>2022-01-23T09:00:07Z</time>
      </trkpt>
      <trkpt lat="44.99618" lon="6.47711">
        <ele>1551.452</ele>
        <time>2022-01-23T09:00:12Z</time>
      </trkpt>
      <trkpt lat="44.99618" lon="6.47711">
        <ele>1551.454</ele>
        <time>2022-01-23T09:00:17Z</time>
      </trkpt>
      <trkpt lat="44.99618" lon="6.47711">
        <ele>1551.453</ele>
        <time>2022-01-23T09:00:22Z</time>
      </trkpt>
      <trkpt lat="44.99618" lon="6.47711">
        <ele>1551.44</ele>
        <time>2022-01-23T09:00:27Z</time>
      </trkpt>
      <trkpt lat="44.99618" lon="6.47711">
        <ele>1551.435</ele>
        <time>2022-01-23T09:00:32Z</time>
      </trkpt>
      <trkpt lat="44.99618" lon="6.47711">
        <ele>1551.443</ele>
        <time>2022-01-23T09:00:37Z</time>
      </trkpt>
      <trkpt lat="44.99618" lon="6.47711">
        <ele>1551.441</ele>
        <time>2022-01-23T09:00:42Z</time>
      </trkpt>
      <trkpt lat="44.99618" lon="6.47711">
        <ele>1551.439</ele>
        <time>2022-01-23T09:00:47Z</time>
      </trkpt>
      <trkpt lat="44.99618" lon="6.47711">
        <ele>1551.455</ele>
        <time>2022-01-23T09:00:52Z</time>
      </trkpt>
      <trkpt lat="44.99618" lon="6.47711">
        <ele>1551.452</ele>
        <time>2022-01-23T09:00:57Z</time>
      </trkpt>
      <trkpt lat="44.99619" lon="6.47711">
        <ele>1550.053</ele>
        <time>2022-01-23T09:01:02Z</time>
      </trkpt>
      <trkpt lat="44.99618" lon="6.4771">
        <ele>1550.685</ele>
        <time>2022-01-23T09:01:07Z</time>
      </trkpt>
      <trkpt lat="44.99618" lon="6.4771">
        <ele>1551.14</ele>
        <time>2022-01-23T09:01:12Z</time>
      </trkpt>
      <trkpt lat="44.99618" lon="6.4771">
        <ele>1550.9</ele>
        <time>2022-01-23T09:01:17Z</time>
      </trkpt>
      <trkpt lat="44.99619" lon="6.4771">
        <ele>1551.269</ele>
        <time>2022-01-23T09:01:22Z</time>
      </trkpt>
      <trkpt lat="44.99619" lon="6.47709">
        <ele>1552.472</ele>
        <time>2022-01-23T09:01:27Z</time>
      </trkpt>
      <trkpt lat="44.9962" lon="6.47709">
        <ele>1553.073</ele>
        <time>2022-01-23T09:01:32Z</time>
      </trkpt>
      <trkpt lat="44.9962" lon="6.47709">
        <ele>1553.147</ele>
        <time>2022-01-23T09:01:37Z</time>
      </trkpt>
      <trkpt lat="44.9962" lon="6.47709">
        <ele>1553.161</ele>
        <time>2022-01-23T09:01:42Z</time>
      </trkpt>
      <trkpt lat="44.9962" lon="6.47709">
        <ele>1552.78</ele>
        <time>2022-01-23T09:01:47Z</time>
      </trkpt>
      <trkpt lat="44.99618" lon="6.4771">
        <ele>1550.388</ele>
        <time>2022-01-23T09:01:52Z</time>
      </trkpt>
      <trkpt lat="44.99617" lon="6.47711">
        <ele>1549.062</ele>
        <time>2022-01-23T09:01:57Z</time>
      </trkpt>
      <trkpt lat="44.99617" lon="6.47711">
        <ele>1548.953</ele>
        <time>2022-01-23T09:02:02Z</time>
      </trkpt>
      <trkpt lat="44.99617" lon="6.47711">
        <ele>1549.131</ele>
        <time>2022-01-23T09:02:07Z</time>
      </trkpt>
      <trkpt lat="44.99617" lon="6.47712">
        <ele>1548.126</ele>
        <time>2022-01-23T09:02:12Z</time>
      </trkpt>
      <trkpt lat="44.99618" lon="6.47713">
        <ele>1548.692</ele>
        <time>2022-01-23T09:02:17Z</time>
      </trkpt>
      <trkpt lat="44.99618" lon="6.47711">
        <ele>1550.329</ele>
        <time>2022-01-23T09:02:22Z</time>
      </trkpt>
      <trkpt lat="44.99619" lon="6.47709">
        <ele>1550.817</ele>
        <time>2022-01-23T09:02:27Z</time>
      </trkpt>
      <trkpt lat="44.99619" lon="6.4771">
        <ele>1552.055</ele>
        <time>2022-01-23T09:02:32Z</time>
      </trkpt>
      <trkpt lat="44.99619" lon="6.47708">
        <ele>1552.496</ele>
        <time>2022-01-23T09:02:37Z</time>
      </trkpt>
      <trkpt lat="44.99623" lon="6.47706">
        <ele>1551.99</ele>
        <time>2022-01-23T09:02:43Z</time>
      </trkpt>
      <trkpt lat="44.99624" lon="6.47708">
        <ele>1551.376</ele>
        <time>2022-01-23T09:02:48Z</time>
      </trkpt>
      <trkpt lat="44.99624" lon="6.4771">
        <ele>1550.752</ele>
        <time>2022-01-23T09:02:53Z</time>
      </trkpt>
      <trkpt lat="44.99625" lon="6.4771">
        <ele>1551.466</ele>
        <time>2022-01-23T09:02:58Z</time>
      </trkpt>
      <trkpt lat="44.99628" lon="6.47709">
        <ele>1552.078</ele>
        <time>2022-01-23T09:03:03Z</time>
      </trkpt>
      <trkpt lat="44.99634" lon="6.47708">
        <ele>1551.688</ele>
        <time>2022-01-23T09:03:08Z</time>
      </trkpt>
      <trkpt lat="44.99639" lon="6.47709">
        <ele>1549.921</ele>
        <time>2022-01-23T09:03:13Z</time>
      </trkpt>
      <trkpt lat="44.99644" lon="6.4771">
        <ele>1549.585</ele>
        <time>2022-01-23T09:03:18Z</time>
      </trkpt>
      <trkpt lat="44.99649" lon="6.47712">
        <ele>1551.3</ele>
        <time>2022-01-23T09:03:23Z</time>
      </trkpt>
      <trkpt lat="44.99653" lon="6.47713">
        <ele>1552.336</ele>
        <time>2022-01-23T09:03:28Z</time>
      </trkpt>
      <trkpt lat="44.99658" lon="6.47714">
        <ele>1551.741</ele>
        <time>2022-01-23T09:03:33Z</time>
      </trkpt>
      <trkpt lat="44.99663" lon="6.47717">
        <ele>1551.277</ele>
        <time>2022-01-23T09:03:38Z</time>
      </trkpt>
      <trkpt lat="44.99669" lon="6.47719">
        <ele>1551.905</ele>
        <time>2022-01-23T09:03:43Z</time>
      </trkpt>
      <trkpt lat="44.99676" lon="6.47721">
        <ele>1551.567</ele>
        <time>2022-01-23T09:03:48Z</time>
      </trkpt>
      <trkpt lat="44.99677" lon="6.47722">
        <ele>1550.444</ele>
        <time>2022-01-23T09:03:53Z</time>
      </trkpt>
      <trkpt lat="44.9968" lon="6.47723">
        <ele>1549.3</ele>
        <time>2022-01-23T09:03:58Z</time>
      </trkpt>
      <trkpt lat="44.99687" lon="6.47725">
        <ele>1548.972</ele>
        <time>2022-01-23T09:04:03Z</time>
      </trkpt>
      <trkpt lat="44.99693" lon="6.47727">
        <ele>1549.145</ele>
        <time>2022-01-23T09:04:08Z</time>
      </trkpt>
      <trkpt lat="44.99699" lon="6.4773">
        <ele>1548.846</ele>
        <time>2022-01-23T09:04:13Z</time>
      </trkpt>
      <trkpt lat="44.99704" lon="6.47734">
        <ele>1548.84</ele>
        <time>2022-01-23T09:04:18Z</time>
      </trkpt>
      <trkpt lat="44.99709" lon="6.47737">
        <ele>1548.909</ele>
        <time>2022-01-23T09:04:23Z</time>
      </trkpt>
      <trkpt lat="44.99714" lon="6.47741">
        <ele>1549.004</ele>
        <time>2022-01-23T09:04:28Z</time>
      </trkpt>
      <trkpt lat="44.99718" lon="6.47746">
        <ele>1550.133</ele>
        <time>2022-01-23T09:04:33Z</time>
      </trkpt>
      <trkpt lat="44.9972" lon="6.47747">
        <ele>1549.807</ele>
        <time>2022-01-23T09:04:38Z</time>
      </trkpt>
      <trkpt lat="44.9972" lon="6.47748">
        <ele>1549.805</ele>
        <time>2022-01-23T09:04:43Z</time>
      </trkpt>
      <trkpt lat="44.99719" lon="6.47748">
        <ele>1549.91</ele>
        <time>2022-01-23T09:04:48Z</time>
      </trkpt>
      <trkpt lat="44.99719" lon="6.47748">
        <ele>1549.894</ele>
        <time>2022-01-23T09:04:53Z</time>
      </trkpt>
      <trkpt lat="44.99719" lon="6.47748">
        <ele>1549.914</ele>
        <time>2022-01-23T09:04:58Z</time>
      </trkpt>
      <trkpt lat="44.99719" lon="6.47748">
        <ele>1549.947</ele>
        <time>2022-01-23T09:05:03Z</time>
      </trkpt>
      <trkpt lat="44.99719" lon="6.47748">
        <ele>1549.941</ele>
        <time>2022-01-23T09:05:08Z</time>
      </trkpt>
      <trkpt lat="44.99719" lon="6.47748">
        <ele>1549.966</ele>
        <time>2022-01-23T09:05:13Z</time>
      </trkpt>
      <trkpt lat="44.99719" lon="6.47748">
        <ele>1549.974</ele>
        <time>2022-01-23T09:05:18Z</time>
      </trkpt>
      <trkpt lat="44.99719" lon="6.47748">
        <ele>1549.994</ele>
        <time>2022-01-23T09:05:23Z</time>
      </trkpt>
      <trkpt lat="44.99719" lon="6.47748">
        <ele>1550.004</ele>
        <time>2022-01-23T09:05:28Z</time>
      </trkpt>
      <trkpt lat="44.99719" lon="6.47748">
        <ele>1550.014</ele>
        <time>2022-01-23T09:05:33Z</time>
      </trkpt>
      <trkpt lat="44.99719" lon="6.47748">
        <ele>1550.021</ele>
        <time>2022-01-23T09:05:38Z</time>
      </trkpt>
      <trkpt lat="44.99719" lon="6.47748">
        <ele>1550.03</ele>
        <time>2022-01-23T09:05:43Z</time>
      </trkpt>
      <trkpt lat="44.99719" lon="6.47748">
        <ele>1550.043</ele>
        <time>2022-01-23T09:05:47Z</time>
      </trkpt>
      <trkpt lat="44.99719" lon="6.47748">
        <ele>1550.06</ele>
        <time>2022-01-23T09:05:53Z</time>
      </trkpt>
      <trkpt lat="44.99719" lon="6.47748">
        <ele>1550.073</ele>
        <time>2022-01-23T09:05:58Z</time>
      </trkpt>
      <trkpt lat="44.99719" lon="6.47748">
        <ele>1550.075</ele>
        <time>2022-01-23T09:06:03Z</time>
      </trkpt>
      <trkpt lat="44.99719" lon="6.47748">
        <ele>1550.085</ele>
        <time>2022-01-23T09:06:08Z</time>
      </trkpt>
      <trkpt lat="44.99719" lon="6.47747">
        <ele>1550.781</ele>
        <time>2022-01-23T09:06:13Z</time>
      </trkpt>
      <trkpt lat="44.99719" lon="6.47747">
        <ele>1551.268</ele>
        <time>2022-01-23T09:06:18Z</time>
      </trkpt>
      <trkpt lat="44.99718" lon="6.47747">
        <ele>1551.608</ele>
        <time>2022-01-23T09:06:23Z</time>
      </trkpt>
      <trkpt lat="44.99718" lon="6.47747">
        <ele>1551.63</ele>
        <time>2022-01-23T09:06:28Z</time>
      </trkpt>
      <trkpt lat="44.99718" lon="6.47747">
        <ele>1551.396</ele>
        <time>2022-01-23T09:06:33Z</time>
      </trkpt>
      <trkpt lat="44.99719" lon="6.47747">
        <ele>1551.487</ele>
        <time>2022-01-23T09:06:38Z</time>
      </trkpt>
      <trkpt lat="44.99719" lon="6.47747">
        <ele>1551.161</ele>
        <time>2022-01-23T09:06:43Z</time>
      </trkpt>
      <trkpt lat="44.99719" lon="6.47747">
        <ele>1551.182</ele>
        <time>2022-01-23T09:06:48Z</time>
      </trkpt>
      <trkpt lat="44.99719" lon="6.47747">
        <ele>1551.184</ele>
        <time>2022-01-23T09:06:53Z</time>
      </trkpt>
      <trkpt lat="44.99719" lon="6.47747">
        <ele>1551.201</ele>
        <time>2022-01-23T09:06:58Z</time>
      </trkpt>
      <trkpt lat="44.99719" lon="6.47747">
        <ele>1551.26</ele>
        <time>2022-01-23T09:07:03Z</time>
      </trkpt>
      <trkpt lat="44.99719" lon="6.47747">
        <ele>1551.292</ele>
        <time>2022-01-23T09:07:08Z</time>
      </trkpt>
      <trkpt lat="44.99719" lon="6.47747">
        <ele>1551.305</ele>
        <time>2022-01-23T09:07:13Z</time>
      </trkpt>
      <trkpt lat="44.99719" lon="6.47747">
        <ele>1551.332</ele>
        <time>2022-01-23T09:07:18Z</time>
      </trkpt>
      <trkpt lat="44.99719" lon="6.47747">
        <ele>1551.359</ele>
        <time>2022-01-23T09:07:23Z</time>
      </trkpt>
      <trkpt lat="44.99719" lon="6.47747">
        <ele>1551.429</ele>
        <time>2022-01-23T09:07:28Z</time>
      </trkpt>
      <trkpt lat="44.99719" lon="6.47747">
        <ele>1551.451</ele>
        <time>2022-01-23T09:07:33Z</time>
      </trkpt>
      <trkpt lat="44.99719" lon="6.47747">
        <ele>1551.508</ele>
        <time>2022-01-23T09:07:38Z</time>
      </trkpt>
      <trkpt lat="44.99719" lon="6.47747">
        <ele>1551.066</ele>
        <time>2022-01-23T09:07:43Z</time>
      </trkpt>
      <trkpt lat="44.9972" lon="6.47747">
        <ele>1551.99</ele>
        <time>2022-01-23T09:07:48Z</time>
      </trkpt>
      <trkpt lat="44.99719" lon="6.47747">
        <ele>1552.256</ele>
        <time>2022-01-23T09:07:53Z</time>
      </trkpt>
      <trkpt lat="44.99724" lon="6.47748">
        <ele>1553.115</ele>
        <time>2022-01-23T09:07:58Z</time>
      </trkpt>
      <trkpt lat="44.9973" lon="6.47745">
        <ele>1554.861</ele>
        <time>2022-01-23T09:08:03Z</time>
      </trkpt>
      <trkpt lat="44.99735" lon="6.47743">
        <ele>1557.261</ele>
        <time>2022-01-23T09:08:08Z</time>
      </trkpt>
      <trkpt lat="44.99739" lon="6.4774">
        <ele>1558.77</ele>
        <time>2022-01-23T09:08:13Z</time>
      </trkpt>
      <trkpt lat="44.99744" lon="6.47736">
        <ele>1559.093</ele>
        <time>2022-01-23T09:08:18Z</time>
      </trkpt>
      <trkpt lat="44.99747" lon="6.47733">
        <ele>1560.119</ele>
        <time>2022-01-23T09:08:23Z</time>
      </trkpt>
      <trkpt lat="44.99751" lon="6.47731">
        <ele>1561.404</ele>
        <time>2022-01-23T09:08:28Z</time>
      </trkpt>
      <trkpt lat="44.99757" lon="6.47726">
        <ele>1564.282</ele>
        <time>2022-01-23T09:08:33Z</time>
      </trkpt>
      <trkpt lat="44.99761" lon="6.47724">
        <ele>1568.802</ele>
        <time>2022-01-23T09:08:38Z</time>
      </trkpt>
      <trkpt lat="44.99764" lon="6.47722">
        <ele>1570.827</ele>
        <time>2022-01-23T09:08:43Z</time>
      </trkpt>
      <trkpt lat="44.99766" lon="6.47719">
        <ele>1570.087</ele>
        <time>2022-01-23T09:08:48Z</time>
      </trkpt>
      <trkpt lat="44.99771" lon="6.47716">
        <ele>1571.805</ele>
        <time>2022-01-23T09:08:53Z</time>
      </trkpt>
      <trkpt lat="44.99772" lon="6.47715">
        <ele>1571.486</ele>
        <time>2022-01-23T09:08:58Z</time>
      </trkpt>
      <trkpt lat="44.9977" lon="6.47715">
        <ele>1569.108</ele>
        <time>2022-01-23T09:09:03Z</time>
      </trkpt>
      <trkpt lat="44.9977" lon="6.47714">
        <ele>1569.431</ele>
        <time>2022-01-23T09:09:08Z</time>
      </trkpt>
      <trkpt lat="44.99769" lon="6.47713">
        <ele>1569.532</ele>
        <time>2022-01-23T09:09:13Z</time>
      </trkpt>
      <trkpt lat="44.99769" lon="6.47713">
        <ele>1569.283</ele>
        <time>2022-01-23T09:09:18Z</time>
      </trkpt>
      <trkpt lat="44.99768" lon="6.47713">
        <ele>1568.211</ele>
        <time>2022-01-23T09:09:23Z</time>
      </trkpt>
      <trkpt lat="44.99768" lon="6.47713">
        <ele>1568.228</ele>
        <time>2022-01-23T09:09:28Z</time>
      </trkpt>
      <trkpt lat="44.99768" lon="6.47713">
        <ele>1568.108</ele>
        <time>2022-01-23T09:09:33Z</time>
      </trkpt>
      <trkpt lat="44.99768" lon="6.47713">
        <ele>1568.1</ele>
        <time>2022-01-23T09:09:38Z</time>
      </trkpt>
      <trkpt lat="44.99768" lon="6.47713">
        <ele>1568.095</ele>
        <time>2022-01-23T09:09:43Z</time>
      </trkpt>
      <trkpt lat="44.99768" lon="6.47713">
        <ele>1568.097</ele>
        <time>2022-01-23T09:09:48Z</time>
      </trkpt>
      <trkpt lat="44.99768" lon="6.47713">
        <ele>1568.095</ele>
        <time>2022-01-23T09:09:53Z</time>
      </trkpt>
      <trkpt lat="44.99768" lon="6.47713">
        <ele>1568.097</ele>
        <time>2022-01-23T09:09:58Z</time>
      </trkpt>
      <trkpt lat="44.99768" lon="6.47713">
        <ele>1568.107</ele>
        <time>2022-01-23T09:10:03Z</time>
      </trkpt>
      <trkpt lat="44.99768" lon="6.47713">
        <ele>1568.052</ele>
        <time>2022-01-23T09:10:08Z</time>
      </trkpt>
      <trkpt lat="44.99768" lon="6.47718">
        <ele>1566.393</ele>
        <time>2022-01-23T09:10:13Z</time>
      </trkpt>
      <trkpt lat="44.99768" lon="6.47717">
        <ele>1567.159</ele>
        <time>2022-01-23T09:10:18Z</time>
      </trkpt>
      <trkpt lat="44.99768" lon="6.47717">
        <ele>1567.358</ele>
        <time>2022-01-23T09:10:23Z</time>
      </trkpt>
      <trkpt lat="44.99768" lon="6.47717">
        <ele>1567.349</ele>
        <time>2022-01-23T09:10:28Z</time>
      </trkpt>
      <trkpt lat="44.99768" lon="6.47717">
        <ele>1567.34</ele>
        <time>2022-01-23T09:10:33Z</time>
      </trkpt>
      <trkpt lat="44.99768" lon="6.47717">
        <ele>1567.348</ele>
        <time>2022-01-23T09:10:38Z</time>
      </trkpt>
      <trkpt lat="44.99768" lon="6.47717">
        <ele>1567.35</ele>
        <time>2022-01-23T09:10:43Z</time>
      </trkpt>
      <trkpt lat="44.99768" lon="6.47717">
        <ele>1567.352</ele>
        <time>2022-01-23T09:10:48Z</time>
      </trkpt>
      <trkpt lat="44.99768" lon="6.47717">
        <ele>1567.354</ele>
        <time>2022-01-23T09:10:53Z</time>
      </trkpt>
      <trkpt lat="44.99768" lon="6.47717">
        <ele>1567.365</ele>
        <time>2022-01-23T09:10:58Z</time>
      </trkpt>
      <trkpt lat="44.99768" lon="6.47717">
        <ele>1567.371</ele>
        <time>2022-01-23T09:11:03Z</time>
      </trkpt>
      <trkpt lat="44.99768" lon="6.47717">
        <ele>1567.367</ele>
        <time>2022-01-23T09:11:08Z</time>
      </trkpt>
      <trkpt lat="44.99768" lon="6.47717">
        <ele>1567.354</ele>
        <time>2022-01-23T09:11:13Z</time>
      </trkpt>
      <trkpt lat="44.99768" lon="6.47717">
        <ele>1567.356</ele>
        <time>2022-01-23T09:11:18Z</time>
      </trkpt>
      <trkpt lat="44.99768" lon="6.47717">
        <ele>1567.368</ele>
        <time>2022-01-23T09:11:23Z</time>
      </trkpt>
      <trkpt lat="44.99768" lon="6.47717">
        <ele>1567.392</ele>
        <time>2022-01-23T09:11:28Z</time>
      </trkpt>
      <trkpt lat="44.99768" lon="6.47717">
        <ele>1567.397</ele>
        <time>2022-01-23T09:11:33Z</time>
      </trkpt>
      <trkpt lat="44.99768" lon="6.47716">
        <ele>1567.394</ele>
        <time>2022-01-23T09:11:38Z</time>
      </trkpt>
      <trkpt lat="44.99768" lon="6.47716">
        <ele>1567.396</ele>
        <time>2022-01-23T09:11:43Z</time>
      </trkpt>
      <trkpt lat="44.99768" lon="6.47716">
        <ele>1567.406</ele>
        <time>2022-01-23T09:11:48Z</time>
      </trkpt>
      <trkpt lat="44.99768" lon="6.47716">
        <ele>1567.402</ele>
        <time>2022-01-23T09:11:53Z</time>
      </trkpt>
      <trkpt lat="44.99768" lon="6.47716">
        <ele>1567.411</ele>
        <time>2022-01-23T09:11:58Z</time>
      </trkpt>
      <trkpt lat="44.99768" lon="6.47716">
        <ele>1567.431</ele>
        <time>2022-01-23T09:12:03Z</time>
      </trkpt>
      <trkpt lat="44.99768" lon="6.47716">
        <ele>1567.445</ele>
        <time>2022-01-23T09:12:08Z</time>
      </trkpt>
      <trkpt lat="44.99768" lon="6.47716">
        <ele>1567.456</ele>
        <time>2022-01-23T09:12:13Z</time>
      </trkpt>
      <trkpt lat="44.99768" lon="6.47716">
        <ele>1567.459</ele>
        <time>2022-01-23T09:12:18Z</time>
      </trkpt>
      <trkpt lat="44.99768" lon="6.47716">
        <ele>1567.471</ele>
        <time>2022-01-23T09:12:23Z</time>
      </trkpt>
      <trkpt lat="44.99768" lon="6.47716">
        <ele>1567.484</ele>
        <time>2022-01-23T09:12:28Z</time>
      </trkpt>
      <trkpt lat="44.99768" lon="6.47716">
        <ele>1567.506</ele>
        <time>2022-01-23T09:12:33Z</time>
      </trkpt>
      <trkpt lat="44.99768" lon="6.47716">
        <ele>1567.516</ele>
        <time>2022-01-23T09:12:38Z</time>
      </trkpt>
      <trkpt lat="44.99768" lon="6.47716">
        <ele>1567.526</ele>
        <time>2022-01-23T09:12:43Z</time>
      </trkpt>
      <trkpt lat="44.99768" lon="6.47716">
        <ele>1567.528</ele>
        <time>2022-01-23T09:12:48Z</time>
      </trkpt>
      <trkpt lat="44.99768" lon="6.47716">
        <ele>1567.525</ele>
        <time>2022-01-23T09:12:53Z</time>
      </trkpt>
      <trkpt lat="44.99768" lon="6.47716">
        <ele>1567.528</ele>
        <time>2022-01-23T09:12:58Z</time>
      </trkpt>
      <trkpt lat="44.99771" lon="6.47714">
        <ele>1568.475</ele>
        <time>2022-01-23T09:13:03Z</time>
      </trkpt>
      <trkpt lat="44.99776" lon="6.47711">
        <ele>1569.275</ele>
        <time>2022-01-23T09:13:08Z</time>
      </trkpt>
      <trkpt lat="44.99781" lon="6.4771">
        <ele>1570.223</ele>
        <time>2022-01-23T09:13:13Z</time>
      </trkpt>
      <trkpt lat="44.99785" lon="6.47708">
        <ele>1567.511</ele>
        <time>2022-01-23T09:13:18Z</time>
      </trkpt>
      <trkpt lat="44.9979" lon="6.47707">
        <ele>1567.606</ele>
        <time>2022-01-23T09:13:23Z</time>
      </trkpt>
      <trkpt lat="44.99795" lon="6.47707">
        <ele>1565.995</ele>
        <time>2022-01-23T09:13:28Z</time>
      </trkpt>
      <trkpt lat="44.99801" lon="6.47707">
        <ele>1564.98</ele>
        <time>2022-01-23T09:13:33Z</time>
      </trkpt>
      <trkpt lat="44.99801" lon="6.47702">
        <ele>1567.711</ele>
        <time>2022-01-23T09:13:38Z</time>
      </trkpt>
      <trkpt lat="44.99801" lon="6.47701">
        <ele>1568.36</ele>
        <time>2022-01-23T09:13:43Z</time>
      </trkpt>
      <trkpt lat="44.99801" lon="6.47702">
        <ele>1568.562</ele>
        <time>2022-01-23T09:13:48Z</time>
      </trkpt>
      <trkpt lat="44.99807" lon="6.47703">
        <ele>1566.089</ele>
        <time>2022-01-23T09:13:53Z</time>
      </trkpt>
      <trkpt lat="44.99814" lon="6.47697">
        <ele>1565.474</ele>
        <time>2022-01-23T09:13:58Z</time>
      </trkpt>
      <trkpt lat="44.99817" lon="6.47682">
        <ele>1565.703</ele>
        <time>2022-01-23T09:14:03Z</time>
      </trkpt>
      <trkpt lat="44.99816" lon="6.47673">
        <ele>1567.715</ele>
        <time>2022-01-23T09:14:08Z</time>
      </trkpt>
      <trkpt lat="44.99816" lon="6.47671">
        <ele>1567.4</ele>
        <time>2022-01-23T09:14:13Z</time>
      </trkpt>
      <trkpt lat="44.99816" lon="6.47664">
        <ele>1569.249</ele>
        <time>2022-01-23T09:14:18Z</time>
      </trkpt>
      <trkpt lat="44.99816" lon="6.47653">
        <ele>1569.477</ele>
        <time>2022-01-23T09:14:23Z</time>
      </trkpt>
      <trkpt lat="44.99817" lon="6.47643">
        <ele>1570.907</ele>
        <time>2022-01-23T09:14:28Z</time>
      </trkpt>
      <trkpt lat="44.99818" lon="6.47636">
        <ele>1571.528</ele>
        <time>2022-01-23T09:14:33Z</time>
      </trkpt>
      <trkpt lat="44.99817" lon="6.47626">
        <ele>1572.679</ele>
        <time>2022-01-23T09:14:38Z</time>
      </trkpt>
      <trkpt lat="44.99817" lon="6.47618">
        <ele>1573.167</ele>
        <time>2022-01-23T09:14:43Z</time>
      </trkpt>
      <trkpt lat="44.99815" lon="6.47612">
        <ele>1572.809</ele>
        <time>2022-01-23T09:14:48Z</time>
      </trkpt>
      <trkpt lat="44.99809" lon="6.47606">
        <ele>1570.345</ele>
        <time>2022-01-23T09:14:53Z</time>
      </trkpt>
      <trkpt lat="44.99803" lon="6.47602">
        <ele>1570.737</ele>
        <time>2022-01-23T09:14:58Z</time>
      </trkpt>
      <trkpt lat="44.99797" lon="6.47602">
        <ele>1571.801</ele>
        <time>2022-01-23T09:15:03Z</time>
      </trkpt>
      <trkpt lat="44.99795" lon="6.47602">
        <ele>1572.294</ele>
        <time>2022-01-23T09:15:08Z</time>
      </trkpt>
      <trkpt lat="44.99794" lon="6.47602">
        <ele>1573.066</ele>
        <time>2022-01-23T09:15:13Z</time>
      </trkpt>
      <trkpt lat="44.99794" lon="6.47604">
        <ele>1572.037</ele>
        <time>2022-01-23T09:15:18Z</time>
      </trkpt>
      <trkpt lat="44.99794" lon="6.47604">
        <ele>1572.994</ele>
        <time>2022-01-23T09:15:23Z</time>
      </trkpt>
      <trkpt lat="44.99794" lon="6.47604">
        <ele>1572.687</ele>
        <time>2022-01-23T09:15:28Z</time>
      </trkpt>
      <trkpt lat="44.99794" lon="6.47604">
        <ele>1572.678</ele>
        <time>2022-01-23T09:15:33Z</time>
      </trkpt>
      <trkpt lat="44.99794" lon="6.47604">
        <ele>1572.671</ele>
        <time>2022-01-23T09:15:38Z</time>
      </trkpt>
      <trkpt lat="44.99794" lon="6.47604">
        <ele>1572.691</ele>
        <time>2022-01-23T09:15:43Z</time>
      </trkpt>
      <trkpt lat="44.99794" lon="6.47604">
        <ele>1572.71</ele>
        <time>2022-01-23T09:15:48Z</time>
      </trkpt>
      <trkpt lat="44.99794" lon="6.47604">
        <ele>1572.719</ele>
        <time>2022-01-23T09:15:53Z</time>
      </trkpt>
      <trkpt lat="44.99794" lon="6.47604">
        <ele>1572.715</ele>
        <time>2022-01-23T09:15:58Z</time>
      </trkpt>
      <trkpt lat="44.99794" lon="6.47604">
        <ele>1572.703</ele>
        <time>2022-01-23T09:16:03Z</time>
      </trkpt>
      <trkpt lat="44.99794" lon="6.47604">
        <ele>1572.688</ele>
        <time>2022-01-23T09:16:08Z</time>
      </trkpt>
      <trkpt lat="44.99794" lon="6.47604">
        <ele>1572.689</ele>
        <time>2022-01-23T09:16:13Z</time>
      </trkpt>
      <trkpt lat="44.99794" lon="6.47604">
        <ele>1572.691</ele>
        <time>2022-01-23T09:16:18Z</time>
      </trkpt>
      <trkpt lat="44.99794" lon="6.47604">
        <ele>1572.674</ele>
        <time>2022-01-23T09:16:23Z</time>
      </trkpt>
      <trkpt lat="44.99792" lon="6.47606">
        <ele>1569.99</ele>
        <time>2022-01-23T09:16:28Z</time>
      </trkpt>
      <trkpt lat="44.99784" lon="6.47615">
        <ele>1567.567</ele>
        <time>2022-01-23T09:16:33Z</time>
      </trkpt>
      <trkpt lat="44.99778" lon="6.4762">
        <ele>1566.985</ele>
        <time>2022-01-23T09:16:38Z</time>
      </trkpt>
      <trkpt lat="44.99771" lon="6.47622">
        <ele>1567.881</ele>
        <time>2022-01-23T09:16:43Z</time>
      </trkpt>
      <trkpt lat="44.99765" lon="6.47623">
        <ele>1567.764</ele>
        <time>2022-01-23T09:16:48Z</time>
      </trkpt>
      <trkpt lat="44.99757" lon="6.47629">
        <ele>1565.446</ele>
        <time>2022-01-23T09:16:53Z</time>
      </trkpt>
      <trkpt lat="44.9975" lon="6.47632">
        <ele>1568.008</ele>
        <time>2022-01-23T09:16:58Z</time>
      </trkpt>
      <trkpt lat="44.99744" lon="6.47635">
        <ele>1569.814</ele>
        <time>2022-01-23T09:17:03Z</time>
      </trkpt>
      <trkpt lat="44.99738" lon="6.47636">
        <ele>1570.211</ele>
        <time>2022-01-23T09:17:08Z</time>
      </trkpt>
      <trkpt lat="44.99732" lon="6.47636">
        <ele>1569.915</ele>
        <time>2022-01-23T09:17:13Z</time>
      </trkpt>
      <trkpt lat="44.99726" lon="6.47637">
        <ele>1571.378</ele>
        <time>2022-01-23T09:17:18Z</time>
      </trkpt>
      <trkpt lat="44.99719" lon="6.47637">
        <ele>1571.679</ele>
        <time>2022-01-23T09:17:23Z</time>
      </trkpt>
      <trkpt lat="44.99714" lon="6.47636">
        <ele>1571.114</ele>
        <time>2022-01-23T09:17:28Z</time>
      </trkpt>
      <trkpt lat="44.99708" lon="6.47635">
        <ele>1569.97</ele>
        <time>2022-01-23T09:17:33Z</time>
      </trkpt>
      <trkpt lat="44.99703" lon="6.47633">
        <ele>1568.898</ele>
        <time>2022-01-23T09:17:38Z</time>
      </trkpt>
      <trkpt lat="44.99697" lon="6.47633">
        <ele>1567.648</ele>
        <time>2022-01-23T09:17:43Z</time>
      </trkpt>
      <trkpt lat="44.99696" lon="6.47634">
        <ele>1568.554</ele>
        <time>2022-01-23T09:17:48Z</time>
      </trkpt>
      <trkpt lat="44.99696" lon="6.47634">
        <ele>1568.473</ele>
        <time>2022-01-23T09:17:53Z</time>
      </trkpt>
      <trkpt lat="44.99696" lon="6.47634">
        <ele>1568.557</ele>
        <time>2022-01-23T09:17:58Z</time>
      </trkpt>
      <trkpt lat="44.99696" lon="6.47634">
        <ele>1568.561</ele>
        <time>2022-01-23T09:18:03Z</time>
      </trkpt>
      <trkpt lat="44.99696" lon="6.47634">
        <ele>1568.56</ele>
        <time>2022-01-23T09:18:08Z</time>
      </trkpt>
      <trkpt lat="44.99696" lon="6.47634">
        <ele>1568.47</ele>
        <time>2022-01-23T09:18:13Z</time>
      </trkpt>
      <trkpt lat="44.99696" lon="6.47635">
        <ele>1568.454</ele>
        <time>2022-01-23T09:18:18Z</time>
      </trkpt>
      <trkpt lat="44.99698" lon="6.47632">
        <ele>1566.899</ele>
        <time>2022-01-23T09:18:23Z</time>
      </trkpt>
      <trkpt lat="44.99698" lon="6.47632">
        <ele>1567.643</ele>
        <time>2022-01-23T09:18:28Z</time>
      </trkpt>
      <trkpt lat="44.99697" lon="6.47631">
        <ele>1568.804</ele>
        <time>2022-01-23T09:18:33Z</time>
      </trkpt>
      <trkpt lat="44.99696" lon="6.47629">
        <ele>1569.327</ele>
        <time>2022-01-23T09:18:38Z</time>
      </trkpt>
      <trkpt lat="44.99697" lon="6.47625">
        <ele>1566.641</ele>
        <time>2022-01-23T09:18:43Z</time>
      </trkpt>
      <trkpt lat="44.99698" lon="6.47619">
        <ele>1567.424</ele>
        <time>2022-01-23T09:18:48Z</time>
      </trkpt>
      <trkpt lat="44.99696" lon="6.47613">
        <ele>1569.067</ele>
        <time>2022-01-23T09:18:53Z</time>
      </trkpt>
      <trkpt lat="44.99695" lon="6.47609">
        <ele>1569.465</ele>
        <time>2022-01-23T09:18:58Z</time>
      </trkpt>
      <trkpt lat="44.99693" lon="6.47609">
        <ele>1567.461</ele>
        <time>2022-01-23T09:19:03Z</time>
      </trkpt>
      <trkpt lat="44.9969" lon="6.47607">
        <ele>1568.437</ele>
        <time>2022-01-23T09:19:08Z</time>
      </trkpt>
      <trkpt lat="44.99689" lon="6.47606">
        <ele>1568.462</ele>
        <time>2022-01-23T09:19:13Z</time>
      </trkpt>
      <trkpt lat="44.99689" lon="6.47605">
        <ele>1570.429</ele>
        <time>2022-01-23T09:19:18Z</time>
      </trkpt>
      <trkpt lat="44.99689" lon="6.47605">
        <ele>1571.073</ele>
        <time>2022-01-23T09:19:23Z</time>
      </trkpt>
      <trkpt lat="44.99688" lon="6.47605">
        <ele>1571.178</ele>
        <time>2022-01-23T09:19:28Z</time>
      </trkpt>
      <trkpt lat="44.9969" lon="6.47605">
        <ele>1569.775</ele>
        <time>2022-01-23T09:19:33Z</time>
      </trkpt>
      <trkpt lat="44.99693" lon="6.47605">
        <ele>1568.742</ele>
        <time>2022-01-23T09:19:38Z</time>
      </trkpt>
      <trkpt lat="44.99693" lon="6.47601">
        <ele>1570.069</ele>
        <time>2022-01-23T09:19:43Z</time>
      </trkpt>
      <trkpt lat="44.99692" lon="6.476">
        <ele>1571.18</ele>
        <time>2022-01-23T09:19:48Z</time>
      </trkpt>
      <trkpt lat="44.99689" lon="6.476">
        <ele>1572.851</ele>
        <time>2022-01-23T09:19:53Z</time>
      </trkpt>
      <trkpt lat="44.99686" lon="6.47596">
        <ele>1573.147</ele>
        <time>2022-01-23T09:19:58Z</time>
      </trkpt>
      <trkpt lat="44.99684" lon="6.4759">
        <ele>1572.128</ele>
        <time>2022-01-23T09:20:03Z</time>
      </trkpt>
      <trkpt lat="44.99681" lon="6.47584">
        <ele>1572.434</ele>
        <time>2022-01-23T09:20:08Z</time>
      </trkpt>
      <trkpt lat="44.9968" lon="6.4758">
        <ele>1572.28</ele>
        <time>2022-01-23T09:20:13Z</time>
      </trkpt>
      <trkpt lat="44.99678" lon="6.47576">
        <ele>1574.027</ele>
        <time>2022-01-23T09:20:18Z</time>
      </trkpt>
      <trkpt lat="44.99675" lon="6.4757">
        <ele>1576.308</ele>
        <time>2022-01-23T09:20:23Z</time>
      </trkpt>
      <trkpt lat="44.99672" lon="6.47566">
        <ele>1576.947</ele>
        <time>2022-01-23T09:20:28Z</time>
      </trkpt>
      <trkpt lat="44.9967" lon="6.47562">
        <ele>1576.808</ele>
        <time>2022-01-23T09:20:33Z</time>
      </trkpt>
      <trkpt lat="44.99667" lon="6.47559">
        <ele>1576.89</ele>
        <time>2022-01-23T09:20:38Z</time>
      </trkpt>
      <trkpt lat="44.99665" lon="6.47555">
        <ele>1578.872</ele>
        <time>2022-01-23T09:20:43Z</time>
      </trkpt>
      <trkpt lat="44.99663" lon="6.4755">
        <ele>1578.939</ele>
        <time>2022-01-23T09:20:48Z</time>
      </trkpt>
      <trkpt lat="44.99661" lon="6.47546">
        <ele>1579.358</ele>
        <time>2022-01-23T09:20:53Z</time>
      </trkpt>
      <trkpt lat="44.99661" lon="6.47542">
        <ele>1579.724</ele>
        <time>2022-01-23T09:20:58Z</time>
      </trkpt>
      <trkpt lat="44.99661" lon="6.47538">
        <ele>1581.689</ele>
        <time>2022-01-23T09:21:03Z</time>
      </trkpt>
      <trkpt lat="44.99661" lon="6.47536">
        <ele>1582.73</ele>
        <time>2022-01-23T09:21:08Z</time>
      </trkpt>
      <trkpt lat="44.99661" lon="6.47531">
        <ele>1584.052</ele>
        <time>2022-01-23T09:21:13Z</time>
      </trkpt>
      <trkpt lat="44.99662" lon="6.47527">
        <ele>1583.181</ele>
        <time>2022-01-23T09:21:18Z</time>
      </trkpt>
      <trkpt lat="44.99665" lon="6.47523">
        <ele>1582.236</ele>
        <time>2022-01-23T09:21:23Z</time>
      </trkpt>
      <trkpt lat="44.99668" lon="6.47518">
        <ele>1581.426</ele>
        <time>2022-01-23T09:21:28Z</time>
      </trkpt>
      <trkpt lat="44.99667" lon="6.47512">
        <ele>1582.519</ele>
        <time>2022-01-23T09:21:33Z</time>
      </trkpt>
      <trkpt lat="44.99666" lon="6.47509">
        <ele>1583.717</ele>
        <time>2022-01-23T09:21:38Z</time>
      </trkpt>
      <trkpt lat="44.99663" lon="6.47506">
        <ele>1585.078</ele>
        <time>2022-01-23T09:21:43Z</time>
      </trkpt>
      <trkpt lat="44.99661" lon="6.47503">
        <ele>1584.869</ele>
        <time>2022-01-23T09:21:48Z</time>
      </trkpt>
      <trkpt lat="44.9966" lon="6.47498">
        <ele>1585.801</ele>
        <time>2022-01-23T09:21:53Z</time>
      </trkpt>
      <trkpt lat="44.9966" lon="6.47496">
        <ele>1586.274</ele>
        <time>2022-01-23T09:21:58Z</time>
      </trkpt>
      <trkpt lat="44.99657" lon="6.4749">
        <ele>1587.276</ele>
        <time>2022-01-23T09:22:03Z</time>
      </trkpt>
      <trkpt lat="44.99655" lon="6.47486">
        <ele>1587.232</ele>
        <time>2022-01-23T09:22:08Z</time>
      </trkpt>
      <trkpt lat="44.99653" lon="6.47481">
        <ele>1587.835</ele>
        <time>2022-01-23T09:22:13Z</time>
      </trkpt>
      <trkpt lat="44.99652" lon="6.47479">
        <ele>1588.517</ele>
        <time>2022-01-23T09:22:18Z</time>
      </trkpt>
      <trkpt lat="44.99652" lon="6.47479">
        <ele>1588.305</ele>
        <time>2022-01-23T09:22:23Z</time>
      </trkpt>
      <trkpt lat="44.99652" lon="6.47477">
        <ele>1589.291</ele>
        <time>2022-01-23T09:22:28Z</time>
      </trkpt>
      <trkpt lat="44.99652" lon="6.47477">
        <ele>1588.568</ele>
        <time>2022-01-23T09:22:33Z</time>
      </trkpt>
      <trkpt lat="44.99652" lon="6.47477">
        <ele>1589.116</ele>
        <time>2022-01-23T09:22:38Z</time>
      </trkpt>
      <trkpt lat="44.99652" lon="6.47477">
        <ele>1588.729</ele>
        <time>2022-01-23T09:22:43Z</time>
      </trkpt>
      <trkpt lat="44.99653" lon="6.47478">
        <ele>1587.713</ele>
        <time>2022-01-23T09:22:48Z</time>
      </trkpt>
      <trkpt lat="44.99654" lon="6.47478">
        <ele>1586.065</ele>
        <time>2022-01-23T09:22:53Z</time>
      </trkpt>
      <trkpt lat="44.99654" lon="6.47478">
        <ele>1585.865</ele>
        <time>2022-01-23T09:22:58Z</time>
      </trkpt>
      <trkpt lat="44.99654" lon="6.47478">
        <ele>1585.841</ele>
        <time>2022-01-23T09:23:03Z</time>
      </trkpt>
      <trkpt lat="44.99654" lon="6.47478">
        <ele>1585.811</ele>
        <time>2022-01-23T09:23:08Z</time>
      </trkpt>
      <trkpt lat="44.99654" lon="6.47478">
        <ele>1585.708</ele>
        <time>2022-01-23T09:23:13Z</time>
      </trkpt>
      <trkpt lat="44.99654" lon="6.47478">
        <ele>1585.584</ele>
        <time>2022-01-23T09:23:18Z</time>
      </trkpt>
      <trkpt lat="44.99654" lon="6.47478">
        <ele>1585.572</ele>
        <time>2022-01-23T09:23:23Z</time>
      </trkpt>
      <trkpt lat="44.99654" lon="6.47479">
        <ele>1585.491</ele>
        <time>2022-01-23T09:23:28Z</time>
      </trkpt>
      <trkpt lat="44.99654" lon="6.47479">
        <ele>1584.904</ele>
        <time>2022-01-23T09:23:33Z</time>
      </trkpt>
      <trkpt lat="44.99654" lon="6.47478">
        <ele>1585.564</ele>
        <time>2022-01-23T09:23:38Z</time>
      </trkpt>
      <trkpt lat="44.99653" lon="6.47477">
        <ele>1587.056</ele>
        <time>2022-01-23T09:23:43Z</time>
      </trkpt>
      <trkpt lat="44.99653" lon="6.47477">
        <ele>1587.66</ele>
        <time>2022-01-23T09:23:48Z</time>
      </trkpt>
      <trkpt lat="44.99653" lon="6.47477">
        <ele>1587.64</ele>
        <time>2022-01-23T09:23:53Z</time>
      </trkpt>
      <trkpt lat="44.99651" lon="6.47476">
        <ele>1587.895</ele>
        <time>2022-01-23T09:23:58Z</time>
      </trkpt>
      <trkpt lat="44.99649" lon="6.47471">
        <ele>1588.262</ele>
        <time>2022-01-23T09:24:03Z</time>
      </trkpt>
      <trkpt lat="44.99648" lon="6.47468">
        <ele>1589.026</ele>
        <time>2022-01-23T09:24:08Z</time>
      </trkpt>
      <trkpt lat="44.99645" lon="6.47463">
        <ele>1590.388</ele>
        <time>2022-01-23T09:24:13Z</time>
      </trkpt>
      <trkpt lat="44.99641" lon="6.47458">
        <ele>1590.834</ele>
        <time>2022-01-23T09:24:18Z</time>
      </trkpt>
      <trkpt lat="44.99639" lon="6.47452">
        <ele>1592.452</ele>
        <time>2022-01-23T09:24:23Z</time>
      </trkpt>
      <trkpt lat="44.99637" lon="6.47446">
        <ele>1594.09</ele>
        <time>2022-01-23T09:24:28Z</time>
      </trkpt>
      <trkpt lat="44.99635" lon="6.47441">
        <ele>1594.599</ele>
        <time>2022-01-23T09:24:33Z</time>
      </trkpt>
      <trkpt lat="44.99634" lon="6.47434">
        <ele>1594.957</ele>
        <time>2022-01-23T09:24:38Z</time>
      </trkpt>
      <trkpt lat="44.99632" lon="6.47429">
        <ele>1596.352</ele>
        <time>2022-01-23T09:24:43Z</time>
      </trkpt>
      <trkpt lat="44.99632" lon="6.47426">
        <ele>1598.03</ele>
        <time>2022-01-23T09:24:48Z</time>
      </trkpt>
      <trkpt lat="44.99633" lon="6.47421">
        <ele>1598.853</ele>
        <time>2022-01-23T09:24:53Z</time>
      </trkpt>
      <trkpt lat="44.99634" lon="6.47414">
        <ele>1599.067</ele>
        <time>2022-01-23T09:24:58Z</time>
      </trkpt>
      <trkpt lat="44.99634" lon="6.47408">
        <ele>1599.835</ele>
        <time>2022-01-23T09:25:03Z</time>
      </trkpt>
      <trkpt lat="44.99633" lon="6.47405">
        <ele>1600.48</ele>
        <time>2022-01-23T09:25:08Z</time>
      </trkpt>
      <trkpt lat="44.99633" lon="6.474">
        <ele>1601.212</ele>
        <time>2022-01-23T09:25:13Z</time>
      </trkpt>
      <trkpt lat="44.99633" lon="6.47394">
        <ele>1602.786</ele>
        <time>2022-01-23T09:25:18Z</time>
      </trkpt>
      <trkpt lat="44.99633" lon="6.4739">
        <ele>1604.003</ele>
        <time>2022-01-23T09:25:23Z</time>
      </trkpt>
      <trkpt lat="44.99635" lon="6.47386">
        <ele>1606.236</ele>
        <time>2022-01-23T09:25:28Z</time>
      </trkpt>
      <trkpt lat="44.99634" lon="6.47381">
        <ele>1605.508</ele>
        <time>2022-01-23T09:25:33Z</time>
      </trkpt>
      <trkpt lat="44.99634" lon="6.47376">
        <ele>1606.18</ele>
        <time>2022-01-23T09:25:38Z</time>
      </trkpt>
      <trkpt lat="44.99635" lon="6.4737">
        <ele>1606.447</ele>
        <time>2022-01-23T09:25:43Z</time>
      </trkpt>
      <trkpt lat="44.99636" lon="6.47365">
        <ele>1606.371</ele>
        <time>2022-01-23T09:25:48Z</time>
      </trkpt>
      <trkpt lat="44.99637" lon="6.47362">
        <ele>1606.779</ele>
        <time>2022-01-23T09:25:53Z</time>
      </trkpt>
      <trkpt lat="44.9964" lon="6.47358">
        <ele>1606.952</ele>
        <time>2022-01-23T09:25:58Z</time>
      </trkpt>
      <trkpt lat="44.99643" lon="6.47355">
        <ele>1607.042</ele>
        <time>2022-01-23T09:26:03Z</time>
      </trkpt>
      <trkpt lat="44.99644" lon="6.47351">
        <ele>1606.538</ele>
        <time>2022-01-23T09:26:08Z</time>
      </trkpt>
      <trkpt lat="44.99644" lon="6.47347">
        <ele>1608.197</ele>
        <time>2022-01-23T09:26:13Z</time>
      </trkpt>
      <trkpt lat="44.99645" lon="6.47342">
        <ele>1609.263</ele>
        <time>2022-01-23T09:26:18Z</time>
      </trkpt>
      <trkpt lat="44.99645" lon="6.47339">
        <ele>1610.855</ele>
        <time>2022-01-23T09:26:23Z</time>
      </trkpt>
      <trkpt lat="44.99645" lon="6.47333">
        <ele>1611.763</ele>
        <time>2022-01-23T09:26:28Z</time>
      </trkpt>
      <trkpt lat="44.99644" lon="6.47329">
        <ele>1612.152</ele>
        <time>2022-01-23T09:26:33Z</time>
      </trkpt>
      <trkpt lat="44.99644" lon="6.47328">
        <ele>1612.718</ele>
        <time>2022-01-23T09:26:38Z</time>
      </trkpt>
      <trkpt lat="44.99644" lon="6.47328">
        <ele>1613.229</ele>
        <time>2022-01-23T09:26:43Z</time>
      </trkpt>
      <trkpt lat="44.99643" lon="6.47326">
        <ele>1613.624</ele>
        <time>2022-01-23T09:26:48Z</time>
      </trkpt>
      <trkpt lat="44.99643" lon="6.47319">
        <ele>1614.488</ele>
        <time>2022-01-23T09:26:53Z</time>
      </trkpt>
      <trkpt lat="44.99642" lon="6.47312">
        <ele>1616.55</ele>
        <time>2022-01-23T09:26:58Z</time>
      </trkpt>
      <trkpt lat="44.99641" lon="6.47308">
        <ele>1617.211</ele>
        <time>2022-01-23T09:27:03Z</time>
      </trkpt>
      <trkpt lat="44.99641" lon="6.47307">
        <ele>1617.033</ele>
        <time>2022-01-23T09:27:08Z</time>
      </trkpt>
      <trkpt lat="44.99642" lon="6.47301">
        <ele>1617.995</ele>
        <time>2022-01-23T09:27:13Z</time>
      </trkpt>
      <trkpt lat="44.99643" lon="6.473">
        <ele>1618.031</ele>
        <time>2022-01-23T09:27:18Z</time>
      </trkpt>
      <trkpt lat="44.99643" lon="6.47294">
        <ele>1618.284</ele>
        <time>2022-01-23T09:27:23Z</time>
      </trkpt>
      <trkpt lat="44.99642" lon="6.47288">
        <ele>1618.806</ele>
        <time>2022-01-23T09:27:28Z</time>
      </trkpt>
      <trkpt lat="44.99641" lon="6.47286">
        <ele>1619.194</ele>
        <time>2022-01-23T09:27:33Z</time>
      </trkpt>
      <trkpt lat="44.9964" lon="6.47284">
        <ele>1619.925</ele>
        <time>2022-01-23T09:27:38Z</time>
      </trkpt>
      <trkpt lat="44.9964" lon="6.4728">
        <ele>1620.569</ele>
        <time>2022-01-23T09:27:43Z</time>
      </trkpt>
      <trkpt lat="44.99639" lon="6.47277">
        <ele>1622.695</ele>
        <time>2022-01-23T09:27:48Z</time>
      </trkpt>
      <trkpt lat="44.9964" lon="6.4727">
        <ele>1624.63</ele>
        <time>2022-01-23T09:27:53Z</time>
      </trkpt>
      <trkpt lat="44.9964" lon="6.47266">
        <ele>1626.709</ele>
        <time>2022-01-23T09:27:58Z</time>
      </trkpt>
      <trkpt lat="44.9964" lon="6.47262">
        <ele>1628.425</ele>
        <time>2022-01-23T09:28:03Z</time>
      </trkpt>
      <trkpt lat="44.99639" lon="6.47259">
        <ele>1630.129</ele>
        <time>2022-01-23T09:28:08Z</time>
      </trkpt>
      <trkpt lat="44.99639" lon="6.47255">
        <ele>1630.661</ele>
        <time>2022-01-23T09:28:13Z</time>
      </trkpt>
      <trkpt lat="44.99639" lon="6.4725">
        <ele>1631.971</ele>
        <time>2022-01-23T09:28:18Z</time>
      </trkpt>
      <trkpt lat="44.9964" lon="6.47244">
        <ele>1634.267</ele>
        <time>2022-01-23T09:28:23Z</time>
      </trkpt>
      <trkpt lat="44.99641" lon="6.47238">
        <ele>1634.502</ele>
        <time>2022-01-23T09:28:28Z</time>
      </trkpt>
      <trkpt lat="44.99642" lon="6.47233">
        <ele>1635.171</ele>
        <time>2022-01-23T09:28:33Z</time>
      </trkpt>
      <trkpt lat="44.99641" lon="6.47228">
        <ele>1634.904</ele>
        <time>2022-01-23T09:28:38Z</time>
      </trkpt>
      <trkpt lat="44.99641" lon="6.47224">
        <ele>1634.49</ele>
        <time>2022-01-23T09:28:43Z</time>
      </trkpt>
      <trkpt lat="44.99642" lon="6.47219">
        <ele>1635.117</ele>
        <time>2022-01-23T09:28:48Z</time>
      </trkpt>
      <trkpt lat="44.99644" lon="6.47215">
        <ele>1635.83</ele>
        <time>2022-01-23T09:28:53Z</time>
      </trkpt>
      <trkpt lat="44.99645" lon="6.47211">
        <ele>1636.572</ele>
        <time>2022-01-23T09:28:58Z</time>
      </trkpt>
      <trkpt lat="44.99646" lon="6.47211">
        <ele>1636.784</ele>
        <time>2022-01-23T09:29:03Z</time>
      </trkpt>
      <trkpt lat="44.99645" lon="6.4721">
        <ele>1637.743</ele>
        <time>2022-01-23T09:29:08Z</time>
      </trkpt>
      <trkpt lat="44.99646" lon="6.4721">
        <ele>1638.884</ele>
        <time>2022-01-23T09:29:13Z</time>
      </trkpt>
      <trkpt lat="44.99646" lon="6.4721">
        <ele>1639.089</ele>
        <time>2022-01-23T09:29:18Z</time>
      </trkpt>
      <trkpt lat="44.99646" lon="6.4721">
        <ele>1639.324</ele>
        <time>2022-01-23T09:29:23Z</time>
      </trkpt>
      <trkpt lat="44.99646" lon="6.4721">
        <ele>1639.327</ele>
        <time>2022-01-23T09:29:28Z</time>
      </trkpt>
      <trkpt lat="44.99646" lon="6.4721">
        <ele>1639.31</ele>
        <time>2022-01-23T09:29:33Z</time>
      </trkpt>
      <trkpt lat="44.99646" lon="6.4721">
        <ele>1639.324</ele>
        <time>2022-01-23T09:29:38Z</time>
      </trkpt>
      <trkpt lat="44.99646" lon="6.4721">
        <ele>1639.281</ele>
        <time>2022-01-23T09:29:43Z</time>
      </trkpt>
      <trkpt lat="44.99646" lon="6.4721">
        <ele>1639.299</ele>
        <time>2022-01-23T09:29:48Z</time>
      </trkpt>
      <trkpt lat="44.99646" lon="6.4721">
        <ele>1639.314</ele>
        <time>2022-01-23T09:29:53Z</time>
      </trkpt>
      <trkpt lat="44.99646" lon="6.4721">
        <ele>1639.296</ele>
        <time>2022-01-23T09:29:58Z</time>
      </trkpt>
      <trkpt lat="44.99646" lon="6.4721">
        <ele>1639.179</ele>
        <time>2022-01-23T09:30:03Z</time>
      </trkpt>
      <trkpt lat="44.99646" lon="6.4721">
        <ele>1639.158</ele>
        <time>2022-01-23T09:30:08Z</time>
      </trkpt>
      <trkpt lat="44.99646" lon="6.4721">
        <ele>1639.131</ele>
        <time>2022-01-23T09:30:13Z</time>
      </trkpt>
      <trkpt lat="44.99646" lon="6.4721">
        <ele>1639.124</ele>
        <time>2022-01-23T09:30:18Z</time>
      </trkpt>
      <trkpt lat="44.99646" lon="6.4721">
        <ele>1639.133</ele>
        <time>2022-01-23T09:30:23Z</time>
      </trkpt>
      <trkpt lat="44.99646" lon="6.4721">
        <ele>1639.118</ele>
        <time>2022-01-23T09:30:28Z</time>
      </trkpt>
      <trkpt lat="44.99646" lon="6.4721">
        <ele>1639.112</ele>
        <time>2022-01-23T09:30:33Z</time>
      </trkpt>
      <trkpt lat="44.99646" lon="6.4721">
        <ele>1639.115</ele>
        <time>2022-01-23T09:30:38Z</time>
      </trkpt>
      <trkpt lat="44.99646" lon="6.4721">
        <ele>1639.101</ele>
        <time>2022-01-23T09:30:43Z</time>
      </trkpt>
      <trkpt lat="44.99646" lon="6.4721">
        <ele>1639.091</ele>
        <time>2022-01-23T09:30:48Z</time>
      </trkpt>
      <trkpt lat="44.99645" lon="6.47207">
        <ele>1639.91</ele>
        <time>2022-01-23T09:30:53Z</time>
      </trkpt>
      <trkpt lat="44.99645" lon="6.47203">
        <ele>1640.375</ele>
        <time>2022-01-23T09:30:58Z</time>
      </trkpt>
      <trkpt lat="44.99646" lon="6.47199">
        <ele>1640.771</ele>
        <time>2022-01-23T09:31:03Z</time>
      </trkpt>
      <trkpt lat="44.99648" lon="6.47194">
        <ele>1640.92</ele>
        <time>2022-01-23T09:31:08Z</time>
      </trkpt>
      <trkpt lat="44.9965" lon="6.4719">
        <ele>1641.081</ele>
        <time>2022-01-23T09:31:13Z</time>
      </trkpt>
      <trkpt lat="44.99651" lon="6.47186">
        <ele>1641.772</ele>
        <time>2022-01-23T09:31:18Z</time>
      </trkpt>
      <trkpt lat="44.99653" lon="6.47182">
        <ele>1641.543</ele>
        <time>2022-01-23T09:31:23Z</time>
      </trkpt>
      <trkpt lat="44.99654" lon="6.47179">
        <ele>1641.185</ele>
        <time>2022-01-23T09:31:28Z</time>
      </trkpt>
      <trkpt lat="44.99655" lon="6.47175">
        <ele>1642.468</ele>
        <time>2022-01-23T09:31:33Z</time>
      </trkpt>
      <trkpt lat="44.99657" lon="6.47172">
        <ele>1643.732</ele>
        <time>2022-01-23T09:31:38Z</time>
      </trkpt>
      <trkpt lat="44.99658" lon="6.47169">
        <ele>1644.424</ele>
        <time>2022-01-23T09:31:43Z</time>
      </trkpt>
      <trkpt lat="44.99659" lon="6.47166">
        <ele>1644.141</ele>
        <time>2022-01-23T09:31:48Z</time>
      </trkpt>
      <trkpt lat="44.99659" lon="6.47163">
        <ele>1644.951</ele>
        <time>2022-01-23T09:31:53Z</time>
      </trkpt>
      <trkpt lat="44.99657" lon="6.47159">
        <ele>1645.601</ele>
        <time>2022-01-23T09:31:58Z</time>
      </trkpt>
      <trkpt lat="44.99655" lon="6.47157">
        <ele>1646.959</ele>
        <time>2022-01-23T09:32:03Z</time>
      </trkpt>
      <trkpt lat="44.99653" lon="6.47154">
        <ele>1647.874</ele>
        <time>2022-01-23T09:32:08Z</time>
      </trkpt>
      <trkpt lat="44.99652" lon="6.47152">
        <ele>1648.62</ele>
        <time>2022-01-23T09:32:13Z</time>
      </trkpt>
      <trkpt lat="44.99651" lon="6.47149">
        <ele>1649.743</ele>
        <time>2022-01-23T09:32:18Z</time>
      </trkpt>
      <trkpt lat="44.99649" lon="6.47145">
        <ele>1651.089</ele>
        <time>2022-01-23T09:32:23Z</time>
      </trkpt>
      <trkpt lat="44.99648" lon="6.47143">
        <ele>1651.935</ele>
        <time>2022-01-23T09:32:28Z</time>
      </trkpt>
      <trkpt lat="44.99648" lon="6.47141">
        <ele>1652.471</ele>
        <time>2022-01-23T09:32:33Z</time>
      </trkpt>
      <trkpt lat="44.99649" lon="6.47136">
        <ele>1652.41</ele>
        <time>2022-01-23T09:32:38Z</time>
      </trkpt>
      <trkpt lat="44.9965" lon="6.47132">
        <ele>1653.138</ele>
        <time>2022-01-23T09:32:43Z</time>
      </trkpt>
      <trkpt lat="44.9965" lon="6.47131">
        <ele>1653.625</ele>
        <time>2022-01-23T09:32:48Z</time>
      </trkpt>
      <trkpt lat="44.9965" lon="6.4713">
        <ele>1654.059</ele>
        <time>2022-01-23T09:32:53Z</time>
      </trkpt>
      <trkpt lat="44.9965" lon="6.47127">
        <ele>1654.531</ele>
        <time>2022-01-23T09:32:58Z</time>
      </trkpt>
      <trkpt lat="44.9965" lon="6.47123">
        <ele>1655.976</ele>
        <time>2022-01-23T09:33:03Z</time>
      </trkpt>
      <trkpt lat="44.99652" lon="6.47118">
        <ele>1656.777</ele>
        <time>2022-01-23T09:33:08Z</time>
      </trkpt>
      <trkpt lat="44.99651" lon="6.47115">
        <ele>1657.126</ele>
        <time>2022-01-23T09:33:13Z</time>
      </trkpt>
      <trkpt lat="44.9965" lon="6.47114">
        <ele>1657.567</ele>
        <time>2022-01-23T09:33:18Z</time>
      </trkpt>
      <trkpt lat="44.9965" lon="6.47112">
        <ele>1658.88</ele>
        <time>2022-01-23T09:33:23Z</time>
      </trkpt>
      <trkpt lat="44.99651" lon="6.47107">
        <ele>1660.027</ele>
        <time>2022-01-23T09:33:28Z</time>
      </trkpt>
      <trkpt lat="44.99652" lon="6.47102">
        <ele>1661.409</ele>
        <time>2022-01-23T09:33:33Z</time>
      </trkpt>
      <trkpt lat="44.99651" lon="6.47099">
        <ele>1661.417</ele>
        <time>2022-01-23T09:33:38Z</time>
      </trkpt>
      <trkpt lat="44.99651" lon="6.47098">
        <ele>1661.519</ele>
        <time>2022-01-23T09:33:43Z</time>
      </trkpt>
      <trkpt lat="44.99651" lon="6.47095">
        <ele>1662.442</ele>
        <time>2022-01-23T09:33:48Z</time>
      </trkpt>
      <trkpt lat="44.99651" lon="6.47092">
        <ele>1663.883</ele>
        <time>2022-01-23T09:33:53Z</time>
      </trkpt>
      <trkpt lat="44.9965" lon="6.47089">
        <ele>1664.817</ele>
        <time>2022-01-23T09:33:58Z</time>
      </trkpt>
      <trkpt lat="44.99649" lon="6.47086">
        <ele>1665.228</ele>
        <time>2022-01-23T09:34:03Z</time>
      </trkpt>
      <trkpt lat="44.99649" lon="6.47082">
        <ele>1666.998</ele>
        <time>2022-01-23T09:34:08Z</time>
      </trkpt>
      <trkpt lat="44.9965" lon="6.47077">
        <ele>1668.023</ele>
        <time>2022-01-23T09:34:13Z</time>
      </trkpt>
      <trkpt lat="44.9965" lon="6.47073">
        <ele>1669.05</ele>
        <time>2022-01-23T09:34:18Z</time>
      </trkpt>
      <trkpt lat="44.99649" lon="6.47071">
        <ele>1669.298</ele>
        <time>2022-01-23T09:34:23Z</time>
      </trkpt>
      <trkpt lat="44.99648" lon="6.47067">
        <ele>1670.819</ele>
        <time>2022-01-23T09:34:28Z</time>
      </trkpt>
      <trkpt lat="44.99646" lon="6.47065">
        <ele>1672.55</ele>
        <time>2022-01-23T09:34:33Z</time>
      </trkpt>
      <trkpt lat="44.99645" lon="6.47063">
        <ele>1673.928</ele>
        <time>2022-01-23T09:34:38Z</time>
      </trkpt>
      <trkpt lat="44.99645" lon="6.4706">
        <ele>1674.974</ele>
        <time>2022-01-23T09:34:43Z</time>
      </trkpt>
      <trkpt lat="44.99645" lon="6.47059">
        <ele>1675.155</ele>
        <time>2022-01-23T09:34:48Z</time>
      </trkpt>
      <trkpt lat="44.99644" lon="6.47057">
        <ele>1676.113</ele>
        <time>2022-01-23T09:34:53Z</time>
      </trkpt>
      <trkpt lat="44.99642" lon="6.47055">
        <ele>1676.754</ele>
        <time>2022-01-23T09:34:58Z</time>
      </trkpt>
      <trkpt lat="44.99642" lon="6.47055">
        <ele>1677.736</ele>
        <time>2022-01-23T09:35:03Z</time>
      </trkpt>
      <trkpt lat="44.99641" lon="6.47052">
        <ele>1678.71</ele>
        <time>2022-01-23T09:35:08Z</time>
      </trkpt>
      <trkpt lat="44.99641" lon="6.4705">
        <ele>1679.477</ele>
        <time>2022-01-23T09:35:13Z</time>
      </trkpt>
      <trkpt lat="44.9964" lon="6.47047">
        <ele>1679.75</ele>
        <time>2022-01-23T09:35:18Z</time>
      </trkpt>
      <trkpt lat="44.9964" lon="6.47046">
        <ele>1679.517</ele>
        <time>2022-01-23T09:35:23Z</time>
      </trkpt>
      <trkpt lat="44.9964" lon="6.47044">
        <ele>1680.591</ele>
        <time>2022-01-23T09:35:28Z</time>
      </trkpt>
      <trkpt lat="44.99641" lon="6.47037">
        <ele>1681.885</ele>
        <time>2022-01-23T09:35:33Z</time>
      </trkpt>
      <trkpt lat="44.99642" lon="6.47031">
        <ele>1682.355</ele>
        <time>2022-01-23T09:35:38Z</time>
      </trkpt>
      <trkpt lat="44.99642" lon="6.47026">
        <ele>1682.868</ele>
        <time>2022-01-23T09:35:43Z</time>
      </trkpt>
      <trkpt lat="44.99639" lon="6.47024">
        <ele>1684.291</ele>
        <time>2022-01-23T09:35:48Z</time>
      </trkpt>
      <trkpt lat="44.99637" lon="6.47022">
        <ele>1685.72</ele>
        <time>2022-01-23T09:35:53Z</time>
      </trkpt>
      <trkpt lat="44.99637" lon="6.47021">
        <ele>1685.52</ele>
        <time>2022-01-23T09:35:58Z</time>
      </trkpt>
      <trkpt lat="44.99636" lon="6.47018">
        <ele>1686.506</ele>
        <time>2022-01-23T09:36:03Z</time>
      </trkpt>
      <trkpt lat="44.99634" lon="6.47015">
        <ele>1687.516</ele>
        <time>2022-01-23T09:36:08Z</time>
      </trkpt>
      <trkpt lat="44.99632" lon="6.47011">
        <ele>1688.487</ele>
        <time>2022-01-23T09:36:13Z</time>
      </trkpt>
      <trkpt lat="44.9963" lon="6.47009">
        <ele>1688.983</ele>
        <time>2022-01-23T09:36:18Z</time>
      </trkpt>
      <trkpt lat="44.99628" lon="6.47005">
        <ele>1691.225</ele>
        <time>2022-01-23T09:36:23Z</time>
      </trkpt>
      <trkpt lat="44.99625" lon="6.47003">
        <ele>1692.891</ele>
        <time>2022-01-23T09:36:28Z</time>
      </trkpt>
      <trkpt lat="44.99622" lon="6.47002">
        <ele>1693.674</ele>
        <time>2022-01-23T09:36:33Z</time>
      </trkpt>
      <trkpt lat="44.9962" lon="6.47">
        <ele>1694.969</ele>
        <time>2022-01-23T09:36:38Z</time>
      </trkpt>
      <trkpt lat="44.99616" lon="6.46997">
        <ele>1697.264</ele>
        <time>2022-01-23T09:36:43Z</time>
      </trkpt>
      <trkpt lat="44.99614" lon="6.46996">
        <ele>1698.666</ele>
        <time>2022-01-23T09:36:48Z</time>
      </trkpt>
      <trkpt lat="44.99613" lon="6.46994">
        <ele>1699.227</ele>
        <time>2022-01-23T09:36:53Z</time>
      </trkpt>
      <trkpt lat="44.99613" lon="6.4699">
        <ele>1701.417</ele>
        <time>2022-01-23T09:36:58Z</time>
      </trkpt>
      <trkpt lat="44.99613" lon="6.46986">
        <ele>1698.632</ele>
        <time>2022-01-23T09:37:03Z</time>
      </trkpt>
      <trkpt lat="44.99615" lon="6.46982">
        <ele>1696.503</ele>
        <time>2022-01-23T09:37:08Z</time>
      </trkpt>
      <trkpt lat="44.99618" lon="6.46978">
        <ele>1695.866</ele>
        <time>2022-01-23T09:37:13Z</time>
      </trkpt>
      <trkpt lat="44.9962" lon="6.46974">
        <ele>1694.472</ele>
        <time>2022-01-23T09:37:18Z</time>
      </trkpt>
      <trkpt lat="44.99622" lon="6.46971">
        <ele>1695.271</ele>
        <time>2022-01-23T09:37:23Z</time>
      </trkpt>
      <trkpt lat="44.99622" lon="6.46967">
        <ele>1695.68</ele>
        <time>2022-01-23T09:37:28Z</time>
      </trkpt>
      <trkpt lat="44.9962" lon="6.46965">
        <ele>1695.829</ele>
        <time>2022-01-23T09:37:33Z</time>
      </trkpt>
      <trkpt lat="44.99619" lon="6.46964">
        <ele>1696.672</ele>
        <time>2022-01-23T09:37:38Z</time>
      </trkpt>
      <trkpt lat="44.9962" lon="6.46961">
        <ele>1697.603</ele>
        <time>2022-01-23T09:37:43Z</time>
      </trkpt>
      <trkpt lat="44.9962" lon="6.46959">
        <ele>1697.893</ele>
        <time>2022-01-23T09:37:48Z</time>
      </trkpt>
      <trkpt lat="44.9962" lon="6.46955">
        <ele>1699.861</ele>
        <time>2022-01-23T09:37:53Z</time>
      </trkpt>
      <trkpt lat="44.9962" lon="6.46951">
        <ele>1700.958</ele>
        <time>2022-01-23T09:37:58Z</time>
      </trkpt>
      <trkpt lat="44.9962" lon="6.46948">
        <ele>1702.265</ele>
        <time>2022-01-23T09:38:03Z</time>
      </trkpt>
      <trkpt lat="44.99619" lon="6.46944">
        <ele>1703.772</ele>
        <time>2022-01-23T09:38:08Z</time>
      </trkpt>
      <trkpt lat="44.99618" lon="6.46941">
        <ele>1703.552</ele>
        <time>2022-01-23T09:38:13Z</time>
      </trkpt>
      <trkpt lat="44.99618" lon="6.46938">
        <ele>1704.458</ele>
        <time>2022-01-23T09:38:18Z</time>
      </trkpt>
      <trkpt lat="44.99618" lon="6.46934">
        <ele>1705.507</ele>
        <time>2022-01-23T09:38:23Z</time>
      </trkpt>
      <trkpt lat="44.99618" lon="6.4693">
        <ele>1706.88</ele>
        <time>2022-01-23T09:38:28Z</time>
      </trkpt>
      <trkpt lat="44.99617" lon="6.46924">
        <ele>1708.96</ele>
        <time>2022-01-23T09:38:33Z</time>
      </trkpt>
      <trkpt lat="44.99617" lon="6.46921">
        <ele>1710.219</ele>
        <time>2022-01-23T09:38:38Z</time>
      </trkpt>
      <trkpt lat="44.99617" lon="6.46919">
        <ele>1710.867</ele>
        <time>2022-01-23T09:38:43Z</time>
      </trkpt>
      <trkpt lat="44.99617" lon="6.46915">
        <ele>1712.451</ele>
        <time>2022-01-23T09:38:48Z</time>
      </trkpt>
      <trkpt lat="44.99619" lon="6.46909">
        <ele>1714.261</ele>
        <time>2022-01-23T09:38:53Z</time>
      </trkpt>
      <trkpt lat="44.99619" lon="6.46905">
        <ele>1715.239</ele>
        <time>2022-01-23T09:38:58Z</time>
      </trkpt>
      <trkpt lat="44.99619" lon="6.46902">
        <ele>1715.734</ele>
        <time>2022-01-23T09:39:03Z</time>
      </trkpt>
      <trkpt lat="44.99619" lon="6.469">
        <ele>1715.602</ele>
        <time>2022-01-23T09:39:08Z</time>
      </trkpt>
      <trkpt lat="44.9962" lon="6.46894">
        <ele>1717.99</ele>
        <time>2022-01-23T09:39:13Z</time>
      </trkpt>
      <trkpt lat="44.99621" lon="6.46889">
        <ele>1716.706</ele>
        <time>2022-01-23T09:39:18Z</time>
      </trkpt>
      <trkpt lat="44.99621" lon="6.46885">
        <ele>1716.718</ele>
        <time>2022-01-23T09:39:23Z</time>
      </trkpt>
      <trkpt lat="44.99623" lon="6.46881">
        <ele>1716.983</ele>
        <time>2022-01-23T09:39:28Z</time>
      </trkpt>
      <trkpt lat="44.99624" lon="6.46879">
        <ele>1717.711</ele>
        <time>2022-01-23T09:39:33Z</time>
      </trkpt>
      <trkpt lat="44.99622" lon="6.46877">
        <ele>1717.982</ele>
        <time>2022-01-23T09:39:38Z</time>
      </trkpt>
      <trkpt lat="44.9962" lon="6.46874">
        <ele>1718.781</ele>
        <time>2022-01-23T09:39:43Z</time>
      </trkpt>
      <trkpt lat="44.99618" lon="6.46871">
        <ele>1718.95</ele>
        <time>2022-01-23T09:39:48Z</time>
      </trkpt>
      <trkpt lat="44.99618" lon="6.46866">
        <ele>1720.288</ele>
        <time>2022-01-23T09:39:53Z</time>
      </trkpt>
      <trkpt lat="44.99619" lon="6.46861">
        <ele>1723.273</ele>
        <time>2022-01-23T09:39:58Z</time>
      </trkpt>
      <trkpt lat="44.9962" lon="6.46857">
        <ele>1722.808</ele>
        <time>2022-01-23T09:40:03Z</time>
      </trkpt>
      <trkpt lat="44.99622" lon="6.46853">
        <ele>1722.361</ele>
        <time>2022-01-23T09:40:08Z</time>
      </trkpt>
      <trkpt lat="44.99624" lon="6.46849">
        <ele>1722.84</ele>
        <time>2022-01-23T09:40:13Z</time>
      </trkpt>
      <trkpt lat="44.99625" lon="6.46845">
        <ele>1722.516</ele>
        <time>2022-01-23T09:40:18Z</time>
      </trkpt>
      <trkpt lat="44.99624" lon="6.46844">
        <ele>1722.956</ele>
        <time>2022-01-23T09:40:23Z</time>
      </trkpt>
      <trkpt lat="44.99624" lon="6.46841">
        <ele>1723.841</ele>
        <time>2022-01-23T09:40:28Z</time>
      </trkpt>
      <trkpt lat="44.99623" lon="6.46839">
        <ele>1724.55</ele>
        <time>2022-01-23T09:40:33Z</time>
      </trkpt>
      <trkpt lat="44.99622" lon="6.46835">
        <ele>1725.69</ele>
        <time>2022-01-23T09:40:38Z</time>
      </trkpt>
      <trkpt lat="44.99622" lon="6.46833">
        <ele>1726.817</ele>
        <time>2022-01-23T09:40:43Z</time>
      </trkpt>
      <trkpt lat="44.99623" lon="6.46827">
        <ele>1729.363</ele>
        <time>2022-01-23T09:40:48Z</time>
      </trkpt>
      <trkpt lat="44.99624" lon="6.46823">
        <ele>1730.587</ele>
        <time>2022-01-23T09:40:53Z</time>
      </trkpt>
      <trkpt lat="44.99626" lon="6.46819">
        <ele>1730.994</ele>
        <time>2022-01-23T09:40:58Z</time>
      </trkpt>
      <trkpt lat="44.99625" lon="6.46815">
        <ele>1731.521</ele>
        <time>2022-01-23T09:41:03Z</time>
      </trkpt>
      <trkpt lat="44.99624" lon="6.46812">
        <ele>1731.725</ele>
        <time>2022-01-23T09:41:08Z</time>
      </trkpt>
      <trkpt lat="44.99623" lon="6.46811">
        <ele>1732.526</ele>
        <time>2022-01-23T09:41:13Z</time>
      </trkpt>
      <trkpt lat="44.99622" lon="6.46805">
        <ele>1732.259</ele>
        <time>2022-01-23T09:41:18Z</time>
      </trkpt>
      <trkpt lat="44.99622" lon="6.46803">
        <ele>1733.017</ele>
        <time>2022-01-23T09:41:23Z</time>
      </trkpt>
      <trkpt lat="44.99623" lon="6.46799">
        <ele>1734.343</ele>
        <time>2022-01-23T09:41:28Z</time>
      </trkpt>
      <trkpt lat="44.99623" lon="6.46797">
        <ele>1734.818</ele>
        <time>2022-01-23T09:41:33Z</time>
      </trkpt>
      <trkpt lat="44.99623" lon="6.46795">
        <ele>1736.255</ele>
        <time>2022-01-23T09:41:38Z</time>
      </trkpt>
      <trkpt lat="44.99626" lon="6.46791">
        <ele>1737.145</ele>
        <time>2022-01-23T09:41:43Z</time>
      </trkpt>
      <trkpt lat="44.99627" lon="6.46788">
        <ele>1739.332</ele>
        <time>2022-01-23T09:41:48Z</time>
      </trkpt>
      <trkpt lat="44.99628" lon="6.46785">
        <ele>1739.931</ele>
        <time>2022-01-23T09:41:53Z</time>
      </trkpt>
      <trkpt lat="44.99627" lon="6.46782">
        <ele>1740.558</ele>
        <time>2022-01-23T09:41:58Z</time>
      </trkpt>
      <trkpt lat="44.99626" lon="6.4678">
        <ele>1741.29</ele>
        <time>2022-01-23T09:42:03Z</time>
      </trkpt>
      <trkpt lat="44.99625" lon="6.46779">
        <ele>1741.062</ele>
        <time>2022-01-23T09:42:08Z</time>
      </trkpt>
      <trkpt lat="44.99624" lon="6.46776">
        <ele>1741.086</ele>
        <time>2022-01-23T09:42:13Z</time>
      </trkpt>
      <trkpt lat="44.99623" lon="6.46772">
        <ele>1741.91</ele>
        <time>2022-01-23T09:42:18Z</time>
      </trkpt>
      <trkpt lat="44.99623" lon="6.46772">
        <ele>1742.056</ele>
        <time>2022-01-23T09:42:23Z</time>
      </trkpt>
      <trkpt lat="44.99623" lon="6.46769">
        <ele>1743.195</ele>
        <time>2022-01-23T09:42:28Z</time>
      </trkpt>
      <trkpt lat="44.99623" lon="6.46765">
        <ele>1744.198</ele>
        <time>2022-01-23T09:42:33Z</time>
      </trkpt>
      <trkpt lat="44.99623" lon="6.46761">
        <ele>1746.034</ele>
        <time>2022-01-23T09:42:38Z</time>
      </trkpt>
      <trkpt lat="44.99624" lon="6.46759">
        <ele>1746.352</ele>
        <time>2022-01-23T09:42:43Z</time>
      </trkpt>
      <trkpt lat="44.99623" lon="6.46755">
        <ele>1745.795</ele>
        <time>2022-01-23T09:42:48Z</time>
      </trkpt>
      <trkpt lat="44.99623" lon="6.46752">
        <ele>1746.177</ele>
        <time>2022-01-23T09:42:53Z</time>
      </trkpt>
      <trkpt lat="44.99624" lon="6.46751">
        <ele>1745.14</ele>
        <time>2022-01-23T09:42:58Z</time>
      </trkpt>
      <trkpt lat="44.99625" lon="6.46749">
        <ele>1745.405</ele>
        <time>2022-01-23T09:43:03Z</time>
      </trkpt>
      <trkpt lat="44.99627" lon="6.46747">
        <ele>1745.324</ele>
        <time>2022-01-23T09:43:08Z</time>
      </trkpt>
      <trkpt lat="44.99628" lon="6.46744">
        <ele>1746.227</ele>
        <time>2022-01-23T09:43:13Z</time>
      </trkpt>
      <trkpt lat="44.9963" lon="6.46742">
        <ele>1746.954</ele>
        <time>2022-01-23T09:43:18Z</time>
      </trkpt>
      <trkpt lat="44.99631" lon="6.4674">
        <ele>1747.228</ele>
        <time>2022-01-23T09:43:23Z</time>
      </trkpt>
      <trkpt lat="44.99632" lon="6.46737">
        <ele>1748.094</ele>
        <time>2022-01-23T09:43:28Z</time>
      </trkpt>
      <trkpt lat="44.9963" lon="6.46735">
        <ele>1749.2</ele>
        <time>2022-01-23T09:43:33Z</time>
      </trkpt>
      <trkpt lat="44.99629" lon="6.46734">
        <ele>1749.101</ele>
        <time>2022-01-23T09:43:38Z</time>
      </trkpt>
      <trkpt lat="44.99627" lon="6.46732">
        <ele>1750.247</ele>
        <time>2022-01-23T09:43:43Z</time>
      </trkpt>
      <trkpt lat="44.99624" lon="6.4673">
        <ele>1752.121</ele>
        <time>2022-01-23T09:43:48Z</time>
      </trkpt>
      <trkpt lat="44.99621" lon="6.46728">
        <ele>1753.351</ele>
        <time>2022-01-23T09:43:53Z</time>
      </trkpt>
      <trkpt lat="44.99621" lon="6.46726">
        <ele>1754.013</ele>
        <time>2022-01-23T09:43:58Z</time>
      </trkpt>
      <trkpt lat="44.99621" lon="6.46723">
        <ele>1753.93</ele>
        <time>2022-01-23T09:44:03Z</time>
      </trkpt>
      <trkpt lat="44.99622" lon="6.46721">
        <ele>1754.741</ele>
        <time>2022-01-23T09:44:08Z</time>
      </trkpt>
      <trkpt lat="44.99622" lon="6.4672">
        <ele>1754.929</ele>
        <time>2022-01-23T09:44:13Z</time>
      </trkpt>
      <trkpt lat="44.99622" lon="6.46717">
        <ele>1756.585</ele>
        <time>2022-01-23T09:44:18Z</time>
      </trkpt>
      <trkpt lat="44.99622" lon="6.46713">
        <ele>1757.697</ele>
        <time>2022-01-23T09:44:23Z</time>
      </trkpt>
      <trkpt lat="44.99624" lon="6.4671">
        <ele>1758.032</ele>
        <time>2022-01-23T09:44:28Z</time>
      </trkpt>
      <trkpt lat="44.99625" lon="6.46708">
        <ele>1758.255</ele>
        <time>2022-01-23T09:44:33Z</time>
      </trkpt>
      <trkpt lat="44.99626" lon="6.46705">
        <ele>1758.611</ele>
        <time>2022-01-23T09:44:38Z</time>
      </trkpt>
      <trkpt lat="44.99628" lon="6.46703">
        <ele>1758.783</ele>
        <time>2022-01-23T09:44:43Z</time>
      </trkpt>
      <trkpt lat="44.99629" lon="6.46701">
        <ele>1759.149</ele>
        <time>2022-01-23T09:44:48Z</time>
      </trkpt>
      <trkpt lat="44.99631" lon="6.46697">
        <ele>1759.492</ele>
        <time>2022-01-23T09:44:53Z</time>
      </trkpt>
      <trkpt lat="44.99633" lon="6.46696">
        <ele>1760.107</ele>
        <time>2022-01-23T09:44:58Z</time>
      </trkpt>
      <trkpt lat="44.99633" lon="6.46694">
        <ele>1760.59</ele>
        <time>2022-01-23T09:45:03Z</time>
      </trkpt>
      <trkpt lat="44.99633" lon="6.46692">
        <ele>1761.57</ele>
        <time>2022-01-23T09:45:08Z</time>
      </trkpt>
      <trkpt lat="44.99632" lon="6.46688">
        <ele>1763.039</ele>
        <time>2022-01-23T09:45:13Z</time>
      </trkpt>
      <trkpt lat="44.99632" lon="6.46687">
        <ele>1762.993</ele>
        <time>2022-01-23T09:45:18Z</time>
      </trkpt>
      <trkpt lat="44.99633" lon="6.46683">
        <ele>1763.904</ele>
        <time>2022-01-23T09:45:23Z</time>
      </trkpt>
      <trkpt lat="44.99634" lon="6.46681">
        <ele>1764.873</ele>
        <time>2022-01-23T09:45:29Z</time>
      </trkpt>
      <trkpt lat="44.99635" lon="6.46679">
        <ele>1766.221</ele>
        <time>2022-01-23T09:45:34Z</time>
      </trkpt>
      <trkpt lat="44.99636" lon="6.46676">
        <ele>1765.643</ele>
        <time>2022-01-23T09:45:39Z</time>
      </trkpt>
      <trkpt lat="44.99636" lon="6.46673">
        <ele>1765.464</ele>
        <time>2022-01-23T09:45:44Z</time>
      </trkpt>
      <trkpt lat="44.99637" lon="6.46671">
        <ele>1767.603</ele>
        <time>2022-01-23T09:45:49Z</time>
      </trkpt>
      <trkpt lat="44.99639" lon="6.46669">
        <ele>1768.834</ele>
        <time>2022-01-23T09:45:54Z</time>
      </trkpt>
      <trkpt lat="44.9964" lon="6.46667">
        <ele>1769.614</ele>
        <time>2022-01-23T09:45:59Z</time>
      </trkpt>
      <trkpt lat="44.99642" lon="6.46664">
        <ele>1770.34</ele>
        <time>2022-01-23T09:46:04Z</time>
      </trkpt>
      <trkpt lat="44.9964" lon="6.46662">
        <ele>1770.605</ele>
        <time>2022-01-23T09:46:09Z</time>
      </trkpt>
      <trkpt lat="44.99641" lon="6.46661">
        <ele>1771.956</ele>
        <time>2022-01-23T09:46:14Z</time>
      </trkpt>
      <trkpt lat="44.99641" lon="6.46657">
        <ele>1771.734</ele>
        <time>2022-01-23T09:46:19Z</time>
      </trkpt>
      <trkpt lat="44.99642" lon="6.46654">
        <ele>1772.74</ele>
        <time>2022-01-23T09:46:24Z</time>
      </trkpt>
      <trkpt lat="44.99642" lon="6.46651">
        <ele>1773.007</ele>
        <time>2022-01-23T09:46:29Z</time>
      </trkpt>
      <trkpt lat="44.99643" lon="6.46648">
        <ele>1774.372</ele>
        <time>2022-01-23T09:46:34Z</time>
      </trkpt>
      <trkpt lat="44.99643" lon="6.46647">
        <ele>1774.687</ele>
        <time>2022-01-23T09:46:39Z</time>
      </trkpt>
      <trkpt lat="44.99643" lon="6.46645">
        <ele>1774.506</ele>
        <time>2022-01-23T09:46:44Z</time>
      </trkpt>
      <trkpt lat="44.99643" lon="6.46641">
        <ele>1775.266</ele>
        <time>2022-01-23T09:46:49Z</time>
      </trkpt>
      <trkpt lat="44.99644" lon="6.46637">
        <ele>1775.885</ele>
        <time>2022-01-23T09:46:54Z</time>
      </trkpt>
      <trkpt lat="44.99645" lon="6.46634">
        <ele>1776.337</ele>
        <time>2022-01-23T09:46:59Z</time>
      </trkpt>
      <trkpt lat="44.99646" lon="6.46631">
        <ele>1778.046</ele>
        <time>2022-01-23T09:47:04Z</time>
      </trkpt>
      <trkpt lat="44.99646" lon="6.46629">
        <ele>1778.705</ele>
        <time>2022-01-23T09:47:09Z</time>
      </trkpt>
      <trkpt lat="44.99646" lon="6.46628">
        <ele>1779.695</ele>
        <time>2022-01-23T09:47:14Z</time>
      </trkpt>
      <trkpt lat="44.99645" lon="6.46626">
        <ele>1780.137</ele>
        <time>2022-01-23T09:47:19Z</time>
      </trkpt>
      <trkpt lat="44.99645" lon="6.46622">
        <ele>1781.189</ele>
        <time>2022-01-23T09:47:24Z</time>
      </trkpt>
      <trkpt lat="44.99646" lon="6.46619">
        <ele>1782.733</ele>
        <time>2022-01-23T09:47:29Z</time>
      </trkpt>
      <trkpt lat="44.99648" lon="6.46617">
        <ele>1785.194</ele>
        <time>2022-01-23T09:47:34Z</time>
      </trkpt>
      <trkpt lat="44.99649" lon="6.46614">
        <ele>1786.106</ele>
        <time>2022-01-23T09:47:39Z</time>
      </trkpt>
      <trkpt lat="44.9965" lon="6.4661">
        <ele>1787.17</ele>
        <time>2022-01-23T09:47:44Z</time>
      </trkpt>
      <trkpt lat="44.99651" lon="6.46608">
        <ele>1788.738</ele>
        <time>2022-01-23T09:47:49Z</time>
      </trkpt>
      <trkpt lat="44.99652" lon="6.46606">
        <ele>1790.19</ele>
        <time>2022-01-23T09:47:54Z</time>
      </trkpt>
      <trkpt lat="44.99653" lon="6.46604">
        <ele>1790.241</ele>
        <time>2022-01-23T09:47:58Z</time>
      </trkpt>
      <trkpt lat="44.99654" lon="6.46601">
        <ele>1789.818</ele>
        <time>2022-01-23T09:48:04Z</time>
      </trkpt>
      <trkpt lat="44.99654" lon="6.46599">
        <ele>1790.222</ele>
        <time>2022-01-23T09:48:09Z</time>
      </trkpt>
      <trkpt lat="44.99654" lon="6.46596">
        <ele>1791.622</ele>
        <time>2022-01-23T09:48:14Z</time>
      </trkpt>
      <trkpt lat="44.99655" lon="6.46595">
        <ele>1791.611</ele>
        <time>2022-01-23T09:48:19Z</time>
      </trkpt>
      <trkpt lat="44.99654" lon="6.46595">
        <ele>1791.6</ele>
        <time>2022-01-23T09:48:24Z</time>
      </trkpt>
      <trkpt lat="44.99653" lon="6.46593">
        <ele>1792.811</ele>
        <time>2022-01-23T09:48:29Z</time>
      </trkpt>
      <trkpt lat="44.99653" lon="6.46592">
        <ele>1792.954</ele>
        <time>2022-01-23T09:48:34Z</time>
      </trkpt>
      <trkpt lat="44.99652" lon="6.46591">
        <ele>1792.711</ele>
        <time>2022-01-23T09:48:39Z</time>
      </trkpt>
      <trkpt lat="44.99651" lon="6.46586">
        <ele>1796.311</ele>
        <time>2022-01-23T09:48:44Z</time>
      </trkpt>
      <trkpt lat="44.99649" lon="6.46584">
        <ele>1798.009</ele>
        <time>2022-01-23T09:48:49Z</time>
      </trkpt>
      <trkpt lat="44.99648" lon="6.46582">
        <ele>1798.87</ele>
        <time>2022-01-23T09:48:54Z</time>
      </trkpt>
      <trkpt lat="44.99648" lon="6.46581">
        <ele>1799.508</ele>
        <time>2022-01-23T09:48:59Z</time>
      </trkpt>
      <trkpt lat="44.99647" lon="6.46577">
        <ele>1800.692</ele>
        <time>2022-01-23T09:49:04Z</time>
      </trkpt>
      <trkpt lat="44.99645" lon="6.46573">
        <ele>1802.45</ele>
        <time>2022-01-23T09:49:09Z</time>
      </trkpt>
      <trkpt lat="44.99645" lon="6.46571">
        <ele>1804.143</ele>
        <time>2022-01-23T09:49:14Z</time>
      </trkpt>
      <trkpt lat="44.99644" lon="6.46567">
        <ele>1806.739</ele>
        <time>2022-01-23T09:49:19Z</time>
      </trkpt>
      <trkpt lat="44.99644" lon="6.46564">
        <ele>1808.086</ele>
        <time>2022-01-23T09:49:24Z</time>
      </trkpt>
      <trkpt lat="44.99645" lon="6.4656">
        <ele>1808.901</ele>
        <time>2022-01-23T09:49:29Z</time>
      </trkpt>
      <trkpt lat="44.99644" lon="6.46556">
        <ele>1807.453</ele>
        <time>2022-01-23T09:49:34Z</time>
      </trkpt>
      <trkpt lat="44.99643" lon="6.46555">
        <ele>1808.358</ele>
        <time>2022-01-23T09:49:39Z</time>
      </trkpt>
      <trkpt lat="44.99643" lon="6.46552">
        <ele>1808.973</ele>
        <time>2022-01-23T09:49:44Z</time>
      </trkpt>
      <trkpt lat="44.99642" lon="6.46552">
        <ele>1809.624</ele>
        <time>2022-01-23T09:49:49Z</time>
      </trkpt>
      <trkpt lat="44.99641" lon="6.46549">
        <ele>1811.608</ele>
        <time>2022-01-23T09:49:54Z</time>
      </trkpt>
      <trkpt lat="44.9964" lon="6.46546">
        <ele>1812.34</ele>
        <time>2022-01-23T09:49:59Z</time>
      </trkpt>
      <trkpt lat="44.99641" lon="6.46543">
        <ele>1813.749</ele>
        <time>2022-01-23T09:50:04Z</time>
      </trkpt>
      <trkpt lat="44.99642" lon="6.4654">
        <ele>1813.9</ele>
        <time>2022-01-23T09:50:09Z</time>
      </trkpt>
      <trkpt lat="44.99641" lon="6.4654">
        <ele>1813.448</ele>
        <time>2022-01-23T09:50:14Z</time>
      </trkpt>
      <trkpt lat="44.9964" lon="6.46536">
        <ele>1814.234</ele>
        <time>2022-01-23T09:50:19Z</time>
      </trkpt>
      <trkpt lat="44.99639" lon="6.46536">
        <ele>1814.031</ele>
        <time>2022-01-23T09:50:24Z</time>
      </trkpt>
      <trkpt lat="44.9964" lon="6.46535">
        <ele>1814.364</ele>
        <time>2022-01-23T09:50:29Z</time>
      </trkpt>
      <trkpt lat="44.9964" lon="6.46532">
        <ele>1814.613</ele>
        <time>2022-01-23T09:50:34Z</time>
      </trkpt>
      <trkpt lat="44.9964" lon="6.4653">
        <ele>1814.664</ele>
        <time>2022-01-23T09:50:39Z</time>
      </trkpt>
      <trkpt lat="44.9964" lon="6.4653">
        <ele>1814.082</ele>
        <time>2022-01-23T09:50:44Z</time>
      </trkpt>
      <trkpt lat="44.9964" lon="6.46529">
        <ele>1814.912</ele>
        <time>2022-01-23T09:50:49Z</time>
      </trkpt>
      <trkpt lat="44.9964" lon="6.46529">
        <ele>1814.656</ele>
        <time>2022-01-23T09:50:54Z</time>
      </trkpt>
      <trkpt lat="44.9964" lon="6.46529">
        <ele>1814.707</ele>
        <time>2022-01-23T09:50:59Z</time>
      </trkpt>
      <trkpt lat="44.9964" lon="6.46529">
        <ele>1814.7</ele>
        <time>2022-01-23T09:51:04Z</time>
      </trkpt>
      <trkpt lat="44.9964" lon="6.46529">
        <ele>1814.053</ele>
        <time>2022-01-23T09:51:09Z</time>
      </trkpt>
      <trkpt lat="44.99641" lon="6.46527">
        <ele>1814.749</ele>
        <time>2022-01-23T09:51:14Z</time>
      </trkpt>
      <trkpt lat="44.99641" lon="6.46524">
        <ele>1815.303</ele>
        <time>2022-01-23T09:51:19Z</time>
      </trkpt>
      <trkpt lat="44.99641" lon="6.46523">
        <ele>1815.72</ele>
        <time>2022-01-23T09:51:24Z</time>
      </trkpt>
      <trkpt lat="44.99638" lon="6.46521">
        <ele>1815.827</ele>
        <time>2022-01-23T09:51:29Z</time>
      </trkpt>
      <trkpt lat="44.99635" lon="6.4652">
        <ele>1818.459</ele>
        <time>2022-01-23T09:51:34Z</time>
      </trkpt>
      <trkpt lat="44.99634" lon="6.46519">
        <ele>1819.668</ele>
        <time>2022-01-23T09:51:39Z</time>
      </trkpt>
      <trkpt lat="44.99635" lon="6.46515">
        <ele>1819.623</ele>
        <time>2022-01-23T09:51:44Z</time>
      </trkpt>
      <trkpt lat="44.99637" lon="6.46512">
        <ele>1821.162</ele>
        <time>2022-01-23T09:51:49Z</time>
      </trkpt>
      <trkpt lat="44.99638" lon="6.46511">
        <ele>1820.783</ele>
        <time>2022-01-23T09:51:54Z</time>
      </trkpt>
      <trkpt lat="44.99637" lon="6.46509">
        <ele>1821.966</ele>
        <time>2022-01-23T09:51:59Z</time>
      </trkpt>
      <trkpt lat="44.99637" lon="6.46507">
        <ele>1822.75</ele>
        <time>2022-01-23T09:52:04Z</time>
      </trkpt>
      <trkpt lat="44.99637" lon="6.46504">
        <ele>1824.357</ele>
        <time>2022-01-23T09:52:09Z</time>
      </trkpt>
      <trkpt lat="44.99636" lon="6.46501">
        <ele>1824.734</ele>
        <time>2022-01-23T09:52:14Z</time>
      </trkpt>
      <trkpt lat="44.99634" lon="6.46499">
        <ele>1826.104</ele>
        <time>2022-01-23T09:52:19Z</time>
      </trkpt>
      <trkpt lat="44.99633" lon="6.46497">
        <ele>1826.277</ele>
        <time>2022-01-23T09:52:24Z</time>
      </trkpt>
      <trkpt lat="44.99632" lon="6.46496">
        <ele>1828.252</ele>
        <time>2022-01-23T09:52:29Z</time>
      </trkpt>
      <trkpt lat="44.99631" lon="6.46492">
        <ele>1829.257</ele>
        <time>2022-01-23T09:52:34Z</time>
      </trkpt>
      <trkpt lat="44.99632" lon="6.46491">
        <ele>1828.766</ele>
        <time>2022-01-23T09:52:39Z</time>
      </trkpt>
      <trkpt lat="44.99632" lon="6.4649">
        <ele>1829.329</ele>
        <time>2022-01-23T09:52:44Z</time>
      </trkpt>
      <trkpt lat="44.99632" lon="6.46487">
        <ele>1829.929</ele>
        <time>2022-01-23T09:52:49Z</time>
      </trkpt>
      <trkpt lat="44.99631" lon="6.46486">
        <ele>1830.204</ele>
        <time>2022-01-23T09:52:54Z</time>
      </trkpt>
      <trkpt lat="44.99631" lon="6.46485">
        <ele>1830.816</ele>
        <time>2022-01-23T09:52:59Z</time>
      </trkpt>
      <trkpt lat="44.9963" lon="6.46481">
        <ele>1834.773</ele>
        <time>2022-01-23T09:53:04Z</time>
      </trkpt>
      <trkpt lat="44.99629" lon="6.4648">
        <ele>1835.29</ele>
        <time>2022-01-23T09:53:09Z</time>
      </trkpt>
      <trkpt lat="44.99628" lon="6.46479">
        <ele>1836.566</ele>
        <time>2022-01-23T09:53:14Z</time>
      </trkpt>
      <trkpt lat="44.99625" lon="6.4648">
        <ele>1836.933</ele>
        <time>2022-01-23T09:53:19Z</time>
      </trkpt>
      <trkpt lat="44.99624" lon="6.46478">
        <ele>1838.665</ele>
        <time>2022-01-23T09:53:24Z</time>
      </trkpt>
      <trkpt lat="44.99623" lon="6.46477">
        <ele>1838.654</ele>
        <time>2022-01-23T09:53:29Z</time>
      </trkpt>
      <trkpt lat="44.99622" lon="6.46477">
        <ele>1838.489</ele>
        <time>2022-01-23T09:53:34Z</time>
      </trkpt>
      <trkpt lat="44.99622" lon="6.46477">
        <ele>1838.502</ele>
        <time>2022-01-23T09:53:39Z</time>
      </trkpt>
      <trkpt lat="44.99623" lon="6.46474">
        <ele>1837.61</ele>
        <time>2022-01-23T09:53:44Z</time>
      </trkpt>
      <trkpt lat="44.99625" lon="6.46472">
        <ele>1837.522</ele>
        <time>2022-01-23T09:53:49Z</time>
      </trkpt>
      <trkpt lat="44.99623" lon="6.46471">
        <ele>1837.164</ele>
        <time>2022-01-23T09:53:54Z</time>
      </trkpt>
      <trkpt lat="44.99621" lon="6.4647">
        <ele>1837.929</ele>
        <time>2022-01-23T09:53:59Z</time>
      </trkpt>
      <trkpt lat="44.9962" lon="6.46469">
        <ele>1838.995</ele>
        <time>2022-01-23T09:54:04Z</time>
      </trkpt>
      <trkpt lat="44.99617" lon="6.46468">
        <ele>1841.434</ele>
        <time>2022-01-23T09:54:09Z</time>
      </trkpt>
      <trkpt lat="44.99615" lon="6.46469">
        <ele>1843.56</ele>
        <time>2022-01-23T09:54:14Z</time>
      </trkpt>
      <trkpt lat="44.99613" lon="6.4647">
        <ele>1845.18</ele>
        <time>2022-01-23T09:54:19Z</time>
      </trkpt>
      <trkpt lat="44.9961" lon="6.46469">
        <ele>1846.203</ele>
        <time>2022-01-23T09:54:24Z</time>
      </trkpt>
      <trkpt lat="44.99609" lon="6.46468">
        <ele>1846.652</ele>
        <time>2022-01-23T09:54:29Z</time>
      </trkpt>
      <trkpt lat="44.99609" lon="6.46469">
        <ele>1845.721</ele>
        <time>2022-01-23T09:54:34Z</time>
      </trkpt>
      <trkpt lat="44.99609" lon="6.46468">
        <ele>1844.924</ele>
        <time>2022-01-23T09:54:39Z</time>
      </trkpt>
      <trkpt lat="44.99609" lon="6.46468">
        <ele>1844.895</ele>
        <time>2022-01-23T09:54:44Z</time>
      </trkpt>
      <trkpt lat="44.99609" lon="6.46468">
        <ele>1844.889</ele>
        <time>2022-01-23T09:54:49Z</time>
      </trkpt>
      <trkpt lat="44.99609" lon="6.46468">
        <ele>1844.876</ele>
        <time>2022-01-23T09:54:54Z</time>
      </trkpt>
      <trkpt lat="44.99609" lon="6.46468">
        <ele>1844.876</ele>
        <time>2022-01-23T09:54:59Z</time>
      </trkpt>
      <trkpt lat="44.99609" lon="6.46468">
        <ele>1844.857</ele>
        <time>2022-01-23T09:55:04Z</time>
      </trkpt>
      <trkpt lat="44.99609" lon="6.46468">
        <ele>1844.856</ele>
        <time>2022-01-23T09:55:09Z</time>
      </trkpt>
      <trkpt lat="44.99608" lon="6.46468">
        <ele>1845.858</ele>
        <time>2022-01-23T09:55:14Z</time>
      </trkpt>
      <trkpt lat="44.99607" lon="6.46469">
        <ele>1846.483</ele>
        <time>2022-01-23T09:55:19Z</time>
      </trkpt>
      <trkpt lat="44.99604" lon="6.4647">
        <ele>1846.402</ele>
        <time>2022-01-23T09:55:24Z</time>
      </trkpt>
      <trkpt lat="44.99601" lon="6.4647">
        <ele>1846.848</ele>
        <time>2022-01-23T09:55:29Z</time>
      </trkpt>
      <trkpt lat="44.996" lon="6.46468">
        <ele>1847.582</ele>
        <time>2022-01-23T09:55:34Z</time>
      </trkpt>
      <trkpt lat="44.99601" lon="6.46467">
        <ele>1846.544</ele>
        <time>2022-01-23T09:55:39Z</time>
      </trkpt>
      <trkpt lat="44.996" lon="6.46467">
        <ele>1845.993</ele>
        <time>2022-01-23T09:55:44Z</time>
      </trkpt>
      <trkpt lat="44.996" lon="6.46467">
        <ele>1845.98</ele>
        <time>2022-01-23T09:55:49Z</time>
      </trkpt>
      <trkpt lat="44.996" lon="6.46467">
        <ele>1846.018</ele>
        <time>2022-01-23T09:55:54Z</time>
      </trkpt>
      <trkpt lat="44.996" lon="6.46467">
        <ele>1845.975</ele>
        <time>2022-01-23T09:55:59Z</time>
      </trkpt>
      <trkpt lat="44.996" lon="6.46467">
        <ele>1845.967</ele>
        <time>2022-01-23T09:56:04Z</time>
      </trkpt>
      <trkpt lat="44.996" lon="6.46466">
        <ele>1845.19</ele>
        <time>2022-01-23T09:56:09Z</time>
      </trkpt>
      <trkpt lat="44.99601" lon="6.46468">
        <ele>1844.249</ele>
        <time>2022-01-23T09:56:14Z</time>
      </trkpt>
      <trkpt lat="44.99602" lon="6.46469">
        <ele>1842.366</ele>
        <time>2022-01-23T09:56:19Z</time>
      </trkpt>
      <trkpt lat="44.99602" lon="6.46469">
        <ele>1842.185</ele>
        <time>2022-01-23T09:56:24Z</time>
      </trkpt>
      <trkpt lat="44.99602" lon="6.46469">
        <ele>1842.28</ele>
        <time>2022-01-23T09:56:29Z</time>
      </trkpt>
      <trkpt lat="44.99602" lon="6.46469">
        <ele>1842.276</ele>
        <time>2022-01-23T09:56:34Z</time>
      </trkpt>
      <trkpt lat="44.99602" lon="6.46469">
        <ele>1842.275</ele>
        <time>2022-01-23T09:56:39Z</time>
      </trkpt>
      <trkpt lat="44.99602" lon="6.46469">
        <ele>1842.266</ele>
        <time>2022-01-23T09:56:44Z</time>
      </trkpt>
      <trkpt lat="44.99602" lon="6.46469">
        <ele>1842.268</ele>
        <time>2022-01-23T09:56:49Z</time>
      </trkpt>
      <trkpt lat="44.99602" lon="6.46469">
        <ele>1842.286</ele>
        <time>2022-01-23T09:56:54Z</time>
      </trkpt>
      <trkpt lat="44.99602" lon="6.46469">
        <ele>1842.293</ele>
        <time>2022-01-23T09:56:59Z</time>
      </trkpt>
      <trkpt lat="44.99602" lon="6.46469">
        <ele>1842.269</ele>
        <time>2022-01-23T09:57:04Z</time>
      </trkpt>
      <trkpt lat="44.99602" lon="6.46469">
        <ele>1842.246</ele>
        <time>2022-01-23T09:57:09Z</time>
      </trkpt>
      <trkpt lat="44.99602" lon="6.46469">
        <ele>1842.218</ele>
        <time>2022-01-23T09:57:14Z</time>
      </trkpt>
      <trkpt lat="44.99602" lon="6.46469">
        <ele>1842.207</ele>
        <time>2022-01-23T09:57:19Z</time>
      </trkpt>
      <trkpt lat="44.99602" lon="6.46469">
        <ele>1842.212</ele>
        <time>2022-01-23T09:57:24Z</time>
      </trkpt>
      <trkpt lat="44.99602" lon="6.46469">
        <ele>1842.2</ele>
        <time>2022-01-23T09:57:29Z</time>
      </trkpt>
      <trkpt lat="44.99602" lon="6.46469">
        <ele>1842.195</ele>
        <time>2022-01-23T09:57:34Z</time>
      </trkpt>
      <trkpt lat="44.99602" lon="6.46469">
        <ele>1842.186</ele>
        <time>2022-01-23T09:57:39Z</time>
      </trkpt>
      <trkpt lat="44.99602" lon="6.46469">
        <ele>1842.173</ele>
        <time>2022-01-23T09:57:44Z</time>
      </trkpt>
      <trkpt lat="44.99602" lon="6.46469">
        <ele>1842.18</ele>
        <time>2022-01-23T09:57:49Z</time>
      </trkpt>
      <trkpt lat="44.99602" lon="6.46469">
        <ele>1842.158</ele>
        <time>2022-01-23T09:57:54Z</time>
      </trkpt>
      <trkpt lat="44.99602" lon="6.46469">
        <ele>1842.146</ele>
        <time>2022-01-23T09:57:59Z</time>
      </trkpt>
      <trkpt lat="44.99602" lon="6.46469">
        <ele>1842.139</ele>
        <time>2022-01-23T09:58:04Z</time>
      </trkpt>
      <trkpt lat="44.99602" lon="6.46469">
        <ele>1842.14</ele>
        <time>2022-01-23T09:58:09Z</time>
      </trkpt>
      <trkpt lat="44.99602" lon="6.46469">
        <ele>1842.115</ele>
        <time>2022-01-23T09:58:14Z</time>
      </trkpt>
      <trkpt lat="44.99602" lon="6.46469">
        <ele>1842.119</ele>
        <time>2022-01-23T09:58:19Z</time>
      </trkpt>
      <trkpt lat="44.99602" lon="6.46469">
        <ele>1842.107</ele>
        <time>2022-01-23T09:58:24Z</time>
      </trkpt>
      <trkpt lat="44.99602" lon="6.46469">
        <ele>1842.079</ele>
        <time>2022-01-23T09:58:29Z</time>
      </trkpt>
      <trkpt lat="44.99602" lon="6.46469">
        <ele>1842.079</ele>
        <time>2022-01-23T09:58:34Z</time>
      </trkpt>
      <trkpt lat="44.99602" lon="6.46469">
        <ele>1842.084</ele>
        <time>2022-01-23T09:58:39Z</time>
      </trkpt>
      <trkpt lat="44.99602" lon="6.46469">
        <ele>1842.096</ele>
        <time>2022-01-23T09:58:44Z</time>
      </trkpt>
      <trkpt lat="44.99602" lon="6.46469">
        <ele>1842.097</ele>
        <time>2022-01-23T09:58:49Z</time>
      </trkpt>
      <trkpt lat="44.99602" lon="6.46469">
        <ele>1842.097</ele>
        <time>2022-01-23T09:58:54Z</time>
      </trkpt>
      <trkpt lat="44.99602" lon="6.46469">
        <ele>1842.092</ele>
        <time>2022-01-23T09:58:59Z</time>
      </trkpt>
      <trkpt lat="44.99602" lon="6.46469">
        <ele>1842.077</ele>
        <time>2022-01-23T09:59:04Z</time>
      </trkpt>
      <trkpt lat="44.99602" lon="6.46469">
        <ele>1842.004</ele>
        <time>2022-01-23T09:59:09Z</time>
      </trkpt>
      <trkpt lat="44.99602" lon="6.46469">
        <ele>1841.977</ele>
        <time>2022-01-23T09:59:14Z</time>
      </trkpt>
      <trkpt lat="44.99602" lon="6.46469">
        <ele>1841.99</ele>
        <time>2022-01-23T09:59:19Z</time>
      </trkpt>
      <trkpt lat="44.99602" lon="6.46469">
        <ele>1841.982</ele>
        <time>2022-01-23T09:59:24Z</time>
      </trkpt>
      <trkpt lat="44.99602" lon="6.46469">
        <ele>1841.959</ele>
        <time>2022-01-23T09:59:29Z</time>
      </trkpt>
      <trkpt lat="44.99602" lon="6.46469">
        <ele>1841.946</ele>
        <time>2022-01-23T09:59:34Z</time>
      </trkpt>
      <trkpt lat="44.99602" lon="6.46469">
        <ele>1841.913</ele>
        <time>2022-01-23T09:59:39Z</time>
      </trkpt>
      <trkpt lat="44.99602" lon="6.46469">
        <ele>1841.904</ele>
        <time>2022-01-23T09:59:44Z</time>
      </trkpt>
      <trkpt lat="44.99602" lon="6.46469">
        <ele>1841.91</ele>
        <time>2022-01-23T09:59:49Z</time>
      </trkpt>
      <trkpt lat="44.99602" lon="6.46469">
        <ele>1841.902</ele>
        <time>2022-01-23T09:59:54Z</time>
      </trkpt>
      <trkpt lat="44.99602" lon="6.46469">
        <ele>1841.914</ele>
        <time>2022-01-23T09:59:59Z</time>
      </trkpt>
      <trkpt lat="44.99602" lon="6.46469">
        <ele>1841.912</ele>
        <time>2022-01-23T10:00:04Z</time>
      </trkpt>
      <trkpt lat="44.99602" lon="6.46469">
        <ele>1841.91</ele>
        <time>2022-01-23T10:00:09Z</time>
      </trkpt>
      <trkpt lat="44.99602" lon="6.46469">
        <ele>1841.893</ele>
        <time>2022-01-23T10:00:14Z</time>
      </trkpt>
      <trkpt lat="44.99602" lon="6.46469">
        <ele>1841.936</ele>
        <time>2022-01-23T10:00:19Z</time>
      </trkpt>
      <trkpt lat="44.99601" lon="6.4647">
        <ele>1840.972</ele>
        <time>2022-01-23T10:00:24Z</time>
      </trkpt>
      <trkpt lat="44.996" lon="6.46469">
        <ele>1840.162</ele>
        <time>2022-01-23T10:00:29Z</time>
      </trkpt>
      <trkpt lat="44.99601" lon="6.46469">
        <ele>1840.218</ele>
        <time>2022-01-23T10:00:34Z</time>
      </trkpt>
      <trkpt lat="44.996" lon="6.46469">
        <ele>1839.811</ele>
        <time>2022-01-23T10:00:39Z</time>
      </trkpt>
      <trkpt lat="44.996" lon="6.46469">
        <ele>1840.363</ele>
        <time>2022-01-23T10:00:44Z</time>
      </trkpt>
      <trkpt lat="44.99599" lon="6.46466">
        <ele>1842.186</ele>
        <time>2022-01-23T10:00:49Z</time>
      </trkpt>
      <trkpt lat="44.99598" lon="6.46465">
        <ele>1842.858</ele>
        <time>2022-01-23T10:00:54Z</time>
      </trkpt>
      <trkpt lat="44.99597" lon="6.46465">
        <ele>1842.846</ele>
        <time>2022-01-23T10:00:59Z</time>
      </trkpt>
      <trkpt lat="44.99595" lon="6.46464">
        <ele>1842.707</ele>
        <time>2022-01-23T10:01:04Z</time>
      </trkpt>
      <trkpt lat="44.99593" lon="6.46463">
        <ele>1843.821</ele>
        <time>2022-01-23T10:01:09Z</time>
      </trkpt>
      <trkpt lat="44.9959" lon="6.46461">
        <ele>1845.332</ele>
        <time>2022-01-23T10:01:14Z</time>
      </trkpt>
      <trkpt lat="44.99588" lon="6.46458">
        <ele>1846.028</ele>
        <time>2022-01-23T10:01:19Z</time>
      </trkpt>
      <trkpt lat="44.99586" lon="6.46455">
        <ele>1846.109</ele>
        <time>2022-01-23T10:01:24Z</time>
      </trkpt>
      <trkpt lat="44.99583" lon="6.46452">
        <ele>1847.689</ele>
        <time>2022-01-23T10:01:29Z</time>
      </trkpt>
      <trkpt lat="44.99581" lon="6.46451">
        <ele>1849.095</ele>
        <time>2022-01-23T10:01:34Z</time>
      </trkpt>
      <trkpt lat="44.99578" lon="6.4645">
        <ele>1849.487</ele>
        <time>2022-01-23T10:01:39Z</time>
      </trkpt>
      <trkpt lat="44.99575" lon="6.46448">
        <ele>1851.06</ele>
        <time>2022-01-23T10:01:44Z</time>
      </trkpt>
      <trkpt lat="44.99572" lon="6.46447">
        <ele>1851.257</ele>
        <time>2022-01-23T10:01:49Z</time>
      </trkpt>
      <trkpt lat="44.9957" lon="6.46444">
        <ele>1853.367</ele>
        <time>2022-01-23T10:01:54Z</time>
      </trkpt>
      <trkpt lat="44.99569" lon="6.46443">
        <ele>1854.402</ele>
        <time>2022-01-23T10:01:59Z</time>
      </trkpt>
      <trkpt lat="44.99568" lon="6.46441">
        <ele>1854.058</ele>
        <time>2022-01-23T10:02:04Z</time>
      </trkpt>
      <trkpt lat="44.99565" lon="6.46439">
        <ele>1856.031</ele>
        <time>2022-01-23T10:02:09Z</time>
      </trkpt>
      <trkpt lat="44.99562" lon="6.46437">
        <ele>1855.805</ele>
        <time>2022-01-23T10:02:14Z</time>
      </trkpt>
      <trkpt lat="44.99562" lon="6.46437">
        <ele>1857.603</ele>
        <time>2022-01-23T10:02:19Z</time>
      </trkpt>
      <trkpt lat="44.99562" lon="6.46436">
        <ele>1857.967</ele>
        <time>2022-01-23T10:02:24Z</time>
      </trkpt>
      <trkpt lat="44.99562" lon="6.46435">
        <ele>1857.987</ele>
        <time>2022-01-23T10:02:29Z</time>
      </trkpt>
      <trkpt lat="44.99561" lon="6.46435">
        <ele>1858.119</ele>
        <time>2022-01-23T10:02:34Z</time>
      </trkpt>
      <trkpt lat="44.99558" lon="6.46435">
        <ele>1857.617</ele>
        <time>2022-01-23T10:02:39Z</time>
      </trkpt>
      <trkpt lat="44.99558" lon="6.46435">
        <ele>1855.811</ele>
        <time>2022-01-23T10:02:44Z</time>
      </trkpt>
      <trkpt lat="44.99556" lon="6.46435">
        <ele>1856.836</ele>
        <time>2022-01-23T10:02:49Z</time>
      </trkpt>
      <trkpt lat="44.99554" lon="6.46432">
        <ele>1856.599</ele>
        <time>2022-01-23T10:02:54Z</time>
      </trkpt>
      <trkpt lat="44.99553" lon="6.4643">
        <ele>1857.415</ele>
        <time>2022-01-23T10:02:59Z</time>
      </trkpt>
      <trkpt lat="44.99553" lon="6.46429">
        <ele>1857.433</ele>
        <time>2022-01-23T10:03:04Z</time>
      </trkpt>
      <trkpt lat="44.99552" lon="6.46428">
        <ele>1857.759</ele>
        <time>2022-01-23T10:03:09Z</time>
      </trkpt>
      <trkpt lat="44.99551" lon="6.46428">
        <ele>1856.153</ele>
        <time>2022-01-23T10:03:14Z</time>
      </trkpt>
      <trkpt lat="44.99552" lon="6.46428">
        <ele>1853.412</ele>
        <time>2022-01-23T10:03:19Z</time>
      </trkpt>
      <trkpt lat="44.99555" lon="6.46426">
        <ele>1855.029</ele>
        <time>2022-01-23T10:03:24Z</time>
      </trkpt>
      <trkpt lat="44.99558" lon="6.46423">
        <ele>1855.637</ele>
        <time>2022-01-23T10:03:29Z</time>
      </trkpt>
      <trkpt lat="44.9956" lon="6.46421">
        <ele>1855.053</ele>
        <time>2022-01-23T10:03:34Z</time>
      </trkpt>
      <trkpt lat="44.9956" lon="6.4642">
        <ele>1856.267</ele>
        <time>2022-01-23T10:03:39Z</time>
      </trkpt>
      <trkpt lat="44.99558" lon="6.46419">
        <ele>1856.176</ele>
        <time>2022-01-23T10:03:44Z</time>
      </trkpt>
      <trkpt lat="44.99556" lon="6.46417">
        <ele>1857.783</ele>
        <time>2022-01-23T10:03:49Z</time>
      </trkpt>
      <trkpt lat="44.99554" lon="6.46416">
        <ele>1858.194</ele>
        <time>2022-01-23T10:03:54Z</time>
      </trkpt>
      <trkpt lat="44.99553" lon="6.46415">
        <ele>1858.39</ele>
        <time>2022-01-23T10:03:59Z</time>
      </trkpt>
      <trkpt lat="44.99554" lon="6.46412">
        <ele>1859.176</ele>
        <time>2022-01-23T10:04:04Z</time>
      </trkpt>
      <trkpt lat="44.99555" lon="6.4641">
        <ele>1860.024</ele>
        <time>2022-01-23T10:04:09Z</time>
      </trkpt>
      <trkpt lat="44.99557" lon="6.46408">
        <ele>1859.013</ele>
        <time>2022-01-23T10:04:14Z</time>
      </trkpt>
      <trkpt lat="44.99558" lon="6.46407">
        <ele>1859.894</ele>
        <time>2022-01-23T10:04:19Z</time>
      </trkpt>
      <trkpt lat="44.99559" lon="6.46406">
        <ele>1860.991</ele>
        <time>2022-01-23T10:04:24Z</time>
      </trkpt>
      <trkpt lat="44.99558" lon="6.46405">
        <ele>1861.199</ele>
        <time>2022-01-23T10:04:29Z</time>
      </trkpt>
      <trkpt lat="44.99557" lon="6.46404">
        <ele>1861.556</ele>
        <time>2022-01-23T10:04:34Z</time>
      </trkpt>
      <trkpt lat="44.99555" lon="6.46403">
        <ele>1862.107</ele>
        <time>2022-01-23T10:04:39Z</time>
      </trkpt>
      <trkpt lat="44.99554" lon="6.46401">
        <ele>1865.303</ele>
        <time>2022-01-23T10:04:44Z</time>
      </trkpt>
      <trkpt lat="44.99553" lon="6.46401">
        <ele>1865.565</ele>
        <time>2022-01-23T10:04:49Z</time>
      </trkpt>
      <trkpt lat="44.99554" lon="6.46399">
        <ele>1866.671</ele>
        <time>2022-01-23T10:04:54Z</time>
      </trkpt>
      <trkpt lat="44.99556" lon="6.46396">
        <ele>1869.19</ele>
        <time>2022-01-23T10:04:59Z</time>
      </trkpt>
      <trkpt lat="44.99557" lon="6.46395">
        <ele>1869.069</ele>
        <time>2022-01-23T10:05:04Z</time>
      </trkpt>
      <trkpt lat="44.99559" lon="6.46393">
        <ele>1870.195</ele>
        <time>2022-01-23T10:05:09Z</time>
      </trkpt>
      <trkpt lat="44.99561" lon="6.4639">
        <ele>1870.083</ele>
        <time>2022-01-23T10:05:14Z</time>
      </trkpt>
      <trkpt lat="44.99562" lon="6.46388">
        <ele>1869.325</ele>
        <time>2022-01-23T10:05:19Z</time>
      </trkpt>
      <trkpt lat="44.99563" lon="6.46386">
        <ele>1869.649</ele>
        <time>2022-01-23T10:05:24Z</time>
      </trkpt>
      <trkpt lat="44.99563" lon="6.46384">
        <ele>1869.702</ele>
        <time>2022-01-23T10:05:29Z</time>
      </trkpt>
      <trkpt lat="44.99562" lon="6.46383">
        <ele>1869.585</ele>
        <time>2022-01-23T10:05:34Z</time>
      </trkpt>
      <trkpt lat="44.99559" lon="6.46382">
        <ele>1870.478</ele>
        <time>2022-01-23T10:05:39Z</time>
      </trkpt>
      <trkpt lat="44.99557" lon="6.46381">
        <ele>1871.604</ele>
        <time>2022-01-23T10:05:44Z</time>
      </trkpt>
      <trkpt lat="44.99555" lon="6.46379">
        <ele>1872.231</ele>
        <time>2022-01-23T10:05:49Z</time>
      </trkpt>
      <trkpt lat="44.99552" lon="6.46376">
        <ele>1873.321</ele>
        <time>2022-01-23T10:05:54Z</time>
      </trkpt>
      <trkpt lat="44.99551" lon="6.46375">
        <ele>1873.373</ele>
        <time>2022-01-23T10:05:59Z</time>
      </trkpt>
      <trkpt lat="44.9955" lon="6.46374">
        <ele>1875.163</ele>
        <time>2022-01-23T10:06:04Z</time>
      </trkpt>
      <trkpt lat="44.99548" lon="6.46373">
        <ele>1877.503</ele>
        <time>2022-01-23T10:06:09Z</time>
      </trkpt>
      <trkpt lat="44.99546" lon="6.46371">
        <ele>1879.942</ele>
        <time>2022-01-23T10:06:14Z</time>
      </trkpt>
      <trkpt lat="44.99545" lon="6.4637">
        <ele>1880.845</ele>
        <time>2022-01-23T10:06:19Z</time>
      </trkpt>
      <trkpt lat="44.99544" lon="6.46369">
        <ele>1882.424</ele>
        <time>2022-01-23T10:06:24Z</time>
      </trkpt>
      <trkpt lat="44.99543" lon="6.46369">
        <ele>1883.411</ele>
        <time>2022-01-23T10:06:29Z</time>
      </trkpt>
      <trkpt lat="44.99542" lon="6.46368">
        <ele>1883.146</ele>
        <time>2022-01-23T10:06:34Z</time>
      </trkpt>
      <trkpt lat="44.99541" lon="6.46368">
        <ele>1882.903</ele>
        <time>2022-01-23T10:06:39Z</time>
      </trkpt>
      <trkpt lat="44.9954" lon="6.46367">
        <ele>1882.274</ele>
        <time>2022-01-23T10:06:44Z</time>
      </trkpt>
      <trkpt lat="44.99542" lon="6.46366">
        <ele>1881.808</ele>
        <time>2022-01-23T10:06:49Z</time>
      </trkpt>
      <trkpt lat="44.99544" lon="6.46364">
        <ele>1881.333</ele>
        <time>2022-01-23T10:06:54Z</time>
      </trkpt>
      <trkpt lat="44.99545" lon="6.46362">
        <ele>1881.855</ele>
        <time>2022-01-23T10:06:59Z</time>
      </trkpt>
      <trkpt lat="44.99547" lon="6.4636">
        <ele>1883.436</ele>
        <time>2022-01-23T10:07:04Z</time>
      </trkpt>
      <trkpt lat="44.99549" lon="6.46359">
        <ele>1882.663</ele>
        <time>2022-01-23T10:07:09Z</time>
      </trkpt>
      <trkpt lat="44.9955" lon="6.46358">
        <ele>1882.302</ele>
        <time>2022-01-23T10:07:14Z</time>
      </trkpt>
      <trkpt lat="44.99552" lon="6.46356">
        <ele>1882.685</ele>
        <time>2022-01-23T10:07:19Z</time>
      </trkpt>
      <trkpt lat="44.99552" lon="6.46355">
        <ele>1882.201</ele>
        <time>2022-01-23T10:07:24Z</time>
      </trkpt>
      <trkpt lat="44.99553" lon="6.46354">
        <ele>1882.616</ele>
        <time>2022-01-23T10:07:29Z</time>
      </trkpt>
      <trkpt lat="44.99553" lon="6.46354">
        <ele>1883.134</ele>
        <time>2022-01-23T10:07:34Z</time>
      </trkpt>
      <trkpt lat="44.99554" lon="6.46353">
        <ele>1884.012</ele>
        <time>2022-01-23T10:07:39Z</time>
      </trkpt>
      <trkpt lat="44.99552" lon="6.46352">
        <ele>1884.716</ele>
        <time>2022-01-23T10:07:44Z</time>
      </trkpt>
      <trkpt lat="44.99551" lon="6.46353">
        <ele>1885.453</ele>
        <time>2022-01-23T10:07:49Z</time>
      </trkpt>
      <trkpt lat="44.99549" lon="6.46352">
        <ele>1886.83</ele>
        <time>2022-01-23T10:07:54Z</time>
      </trkpt>
      <trkpt lat="44.99548" lon="6.46349">
        <ele>1888.319</ele>
        <time>2022-01-23T10:07:59Z</time>
      </trkpt>
      <trkpt lat="44.99547" lon="6.46349">
        <ele>1889.391</ele>
        <time>2022-01-23T10:08:04Z</time>
      </trkpt>
      <trkpt lat="44.99545" lon="6.46346">
        <ele>1889.699</ele>
        <time>2022-01-23T10:08:09Z</time>
      </trkpt>
      <trkpt lat="44.99546" lon="6.46345">
        <ele>1888.962</ele>
        <time>2022-01-23T10:08:14Z</time>
      </trkpt>
      <trkpt lat="44.99548" lon="6.46343">
        <ele>1889.51</ele>
        <time>2022-01-23T10:08:19Z</time>
      </trkpt>
      <trkpt lat="44.99548" lon="6.46343">
        <ele>1889.339</ele>
        <time>2022-01-23T10:08:24Z</time>
      </trkpt>
      <trkpt lat="44.99549" lon="6.46342">
        <ele>1889.024</ele>
        <time>2022-01-23T10:08:29Z</time>
      </trkpt>
      <trkpt lat="44.9955" lon="6.46341">
        <ele>1888.372</ele>
        <time>2022-01-23T10:08:34Z</time>
      </trkpt>
      <trkpt lat="44.99552" lon="6.4634">
        <ele>1889.148</ele>
        <time>2022-01-23T10:08:39Z</time>
      </trkpt>
      <trkpt lat="44.99555" lon="6.46337">
        <ele>1889.638</ele>
        <time>2022-01-23T10:08:44Z</time>
      </trkpt>
      <trkpt lat="44.99555" lon="6.46334">
        <ele>1891.207</ele>
        <time>2022-01-23T10:08:49Z</time>
      </trkpt>
      <trkpt lat="44.99552" lon="6.46333">
        <ele>1890.833</ele>
        <time>2022-01-23T10:08:54Z</time>
      </trkpt>
      <trkpt lat="44.9955" lon="6.46333">
        <ele>1890.637</ele>
        <time>2022-01-23T10:08:59Z</time>
      </trkpt>
      <trkpt lat="44.99548" lon="6.46332">
        <ele>1891.887</ele>
        <time>2022-01-23T10:09:04Z</time>
      </trkpt>
      <trkpt lat="44.99545" lon="6.4633">
        <ele>1894.395</ele>
        <time>2022-01-23T10:09:09Z</time>
      </trkpt>
      <trkpt lat="44.99542" lon="6.46328">
        <ele>1896.341</ele>
        <time>2022-01-23T10:09:14Z</time>
      </trkpt>
      <trkpt lat="44.9954" lon="6.46327">
        <ele>1897.667</ele>
        <time>2022-01-23T10:09:19Z</time>
      </trkpt>
      <trkpt lat="44.99538" lon="6.46328">
        <ele>1899.585</ele>
        <time>2022-01-23T10:09:24Z</time>
      </trkpt>
      <trkpt lat="44.99537" lon="6.46328">
        <ele>1899.69</ele>
        <time>2022-01-23T10:09:29Z</time>
      </trkpt>
      <trkpt lat="44.99537" lon="6.46328">
        <ele>1900.911</ele>
        <time>2022-01-23T10:09:34Z</time>
      </trkpt>
      <trkpt lat="44.99538" lon="6.46327">
        <ele>1899.822</ele>
        <time>2022-01-23T10:09:39Z</time>
      </trkpt>
      <trkpt lat="44.99538" lon="6.46326">
        <ele>1900.131</ele>
        <time>2022-01-23T10:09:44Z</time>
      </trkpt>
      <trkpt lat="44.99537" lon="6.46324">
        <ele>1901.962</ele>
        <time>2022-01-23T10:09:49Z</time>
      </trkpt>
      <trkpt lat="44.99536" lon="6.46322">
        <ele>1902.712</ele>
        <time>2022-01-23T10:09:54Z</time>
      </trkpt>
      <trkpt lat="44.99537" lon="6.4632">
        <ele>1902.675</ele>
        <time>2022-01-23T10:09:59Z</time>
      </trkpt>
      <trkpt lat="44.99538" lon="6.46317">
        <ele>1901.659</ele>
        <time>2022-01-23T10:10:04Z</time>
      </trkpt>
      <trkpt lat="44.99539" lon="6.46315">
        <ele>1902.238</ele>
        <time>2022-01-23T10:10:09Z</time>
      </trkpt>
      <trkpt lat="44.9954" lon="6.46314">
        <ele>1902.289</ele>
        <time>2022-01-23T10:10:14Z</time>
      </trkpt>
      <trkpt lat="44.99541" lon="6.46312">
        <ele>1903.037</ele>
        <time>2022-01-23T10:10:19Z</time>
      </trkpt>
      <trkpt lat="44.99542" lon="6.46311">
        <ele>1903.585</ele>
        <time>2022-01-23T10:10:24Z</time>
      </trkpt>
      <trkpt lat="44.99544" lon="6.4631">
        <ele>1904.924</ele>
        <time>2022-01-23T10:10:29Z</time>
      </trkpt>
      <trkpt lat="44.99545" lon="6.46307">
        <ele>1904.76</ele>
        <time>2022-01-23T10:10:34Z</time>
      </trkpt>
      <trkpt lat="44.99546" lon="6.46305">
        <ele>1904.796</ele>
        <time>2022-01-23T10:10:39Z</time>
      </trkpt>
      <trkpt lat="44.99546" lon="6.46303">
        <ele>1904.323</ele>
        <time>2022-01-23T10:10:44Z</time>
      </trkpt>
      <trkpt lat="44.99546" lon="6.46303">
        <ele>1904.615</ele>
        <time>2022-01-23T10:10:49Z</time>
      </trkpt>
      <trkpt lat="44.99547" lon="6.46302">
        <ele>1905.167</ele>
        <time>2022-01-23T10:10:54Z</time>
      </trkpt>
      <trkpt lat="44.99549" lon="6.463">
        <ele>1905.992</ele>
        <time>2022-01-23T10:10:59Z</time>
      </trkpt>
      <trkpt lat="44.99551" lon="6.46298">
        <ele>1906.586</ele>
        <time>2022-01-23T10:11:04Z</time>
      </trkpt>
      <trkpt lat="44.99549" lon="6.46297">
        <ele>1907.791</ele>
        <time>2022-01-23T10:11:09Z</time>
      </trkpt>
      <trkpt lat="44.99546" lon="6.46297">
        <ele>1906.727</ele>
        <time>2022-01-23T10:11:14Z</time>
      </trkpt>
      <trkpt lat="44.99544" lon="6.46297">
        <ele>1907.691</ele>
        <time>2022-01-23T10:11:19Z</time>
      </trkpt>
      <trkpt lat="44.99542" lon="6.46296">
        <ele>1909.008</ele>
        <time>2022-01-23T10:11:24Z</time>
      </trkpt>
      <trkpt lat="44.9954" lon="6.46295">
        <ele>1909.539</ele>
        <time>2022-01-23T10:11:29Z</time>
      </trkpt>
      <trkpt lat="44.99538" lon="6.46294">
        <ele>1910.323</ele>
        <time>2022-01-23T10:11:34Z</time>
      </trkpt>
      <trkpt lat="44.99536" lon="6.46294">
        <ele>1911.867</ele>
        <time>2022-01-23T10:11:39Z</time>
      </trkpt>
      <trkpt lat="44.99534" lon="6.46294">
        <ele>1913.015</ele>
        <time>2022-01-23T10:11:44Z</time>
      </trkpt>
      <trkpt lat="44.99534" lon="6.46293">
        <ele>1914.302</ele>
        <time>2022-01-23T10:11:49Z</time>
      </trkpt>
      <trkpt lat="44.99532" lon="6.46292">
        <ele>1916.093</ele>
        <time>2022-01-23T10:11:54Z</time>
      </trkpt>
      <trkpt lat="44.99531" lon="6.46293">
        <ele>1915.922</ele>
        <time>2022-01-23T10:11:59Z</time>
      </trkpt>
      <trkpt lat="44.99531" lon="6.46292">
        <ele>1917.027</ele>
        <time>2022-01-23T10:12:04Z</time>
      </trkpt>
      <trkpt lat="44.99532" lon="6.46293">
        <ele>1913.024</ele>
        <time>2022-01-23T10:12:09Z</time>
      </trkpt>
      <trkpt lat="44.99534" lon="6.46291">
        <ele>1914.805</ele>
        <time>2022-01-23T10:12:14Z</time>
      </trkpt>
      <trkpt lat="44.99535" lon="6.46289">
        <ele>1914.924</ele>
        <time>2022-01-23T10:12:19Z</time>
      </trkpt>
      <trkpt lat="44.99537" lon="6.46288">
        <ele>1914.071</ele>
        <time>2022-01-23T10:12:24Z</time>
      </trkpt>
      <trkpt lat="44.99538" lon="6.46286">
        <ele>1915.535</ele>
        <time>2022-01-23T10:12:29Z</time>
      </trkpt>
      <trkpt lat="44.9954" lon="6.46284">
        <ele>1915.958</ele>
        <time>2022-01-23T10:12:34Z</time>
      </trkpt>
      <trkpt lat="44.99542" lon="6.46282">
        <ele>1916.412</ele>
        <time>2022-01-23T10:12:39Z</time>
      </trkpt>
      <trkpt lat="44.99543" lon="6.4628">
        <ele>1917.316</ele>
        <time>2022-01-23T10:12:44Z</time>
      </trkpt>
      <trkpt lat="44.99544" lon="6.46278">
        <ele>1917.958</ele>
        <time>2022-01-23T10:12:49Z</time>
      </trkpt>
      <trkpt lat="44.99545" lon="6.46277">
        <ele>1918.285</ele>
        <time>2022-01-23T10:12:54Z</time>
      </trkpt>
      <trkpt lat="44.99543" lon="6.46276">
        <ele>1919.454</ele>
        <time>2022-01-23T10:12:59Z</time>
      </trkpt>
      <trkpt lat="44.9954" lon="6.46276">
        <ele>1920.152</ele>
        <time>2022-01-23T10:13:04Z</time>
      </trkpt>
      <trkpt lat="44.99537" lon="6.46276">
        <ele>1920.888</ele>
        <time>2022-01-23T10:13:09Z</time>
      </trkpt>
      <trkpt lat="44.99535" lon="6.46276">
        <ele>1921.977</ele>
        <time>2022-01-23T10:13:14Z</time>
      </trkpt>
      <trkpt lat="44.99533" lon="6.46276">
        <ele>1922.015</ele>
        <time>2022-01-23T10:13:19Z</time>
      </trkpt>
      <trkpt lat="44.99531" lon="6.46276">
        <ele>1922.059</ele>
        <time>2022-01-23T10:13:24Z</time>
      </trkpt>
      <trkpt lat="44.99529" lon="6.46276">
        <ele>1922.976</ele>
        <time>2022-01-23T10:13:29Z</time>
      </trkpt>
      <trkpt lat="44.99528" lon="6.46275">
        <ele>1923.691</ele>
        <time>2022-01-23T10:13:34Z</time>
      </trkpt>
      <trkpt lat="44.99526" lon="6.46275">
        <ele>1924.138</ele>
        <time>2022-01-23T10:13:39Z</time>
      </trkpt>
      <trkpt lat="44.99524" lon="6.46275">
        <ele>1925.502</ele>
        <time>2022-01-23T10:13:44Z</time>
      </trkpt>
      <trkpt lat="44.99523" lon="6.46274">
        <ele>1925.693</ele>
        <time>2022-01-23T10:13:49Z</time>
      </trkpt>
      <trkpt lat="44.99524" lon="6.46272">
        <ele>1925.061</ele>
        <time>2022-01-23T10:13:54Z</time>
      </trkpt>
      <trkpt lat="44.99526" lon="6.46269">
        <ele>1924.984</ele>
        <time>2022-01-23T10:13:59Z</time>
      </trkpt>
      <trkpt lat="44.99528" lon="6.46268">
        <ele>1924.893</ele>
        <time>2022-01-23T10:14:04Z</time>
      </trkpt>
      <trkpt lat="44.9953" lon="6.46267">
        <ele>1926.193</ele>
        <time>2022-01-23T10:14:09Z</time>
      </trkpt>
      <trkpt lat="44.99531" lon="6.46265">
        <ele>1927.157</ele>
        <time>2022-01-23T10:14:14Z</time>
      </trkpt>
      <trkpt lat="44.99531" lon="6.46265">
        <ele>1926.43</ele>
        <time>2022-01-23T10:14:19Z</time>
      </trkpt>
      <trkpt lat="44.99531" lon="6.46263">
        <ele>1925.517</ele>
        <time>2022-01-23T10:14:24Z</time>
      </trkpt>
      <trkpt lat="44.99529" lon="6.46261">
        <ele>1926.183</ele>
        <time>2022-01-23T10:14:29Z</time>
      </trkpt>
      <trkpt lat="44.99527" lon="6.4626">
        <ele>1927.27</ele>
        <time>2022-01-23T10:14:34Z</time>
      </trkpt>
      <trkpt lat="44.99525" lon="6.4626">
        <ele>1927.894</ele>
        <time>2022-01-23T10:14:39Z</time>
      </trkpt>
      <trkpt lat="44.99522" lon="6.46259">
        <ele>1930.42</ele>
        <time>2022-01-23T10:14:44Z</time>
      </trkpt>
      <trkpt lat="44.9952" lon="6.4626">
        <ele>1931.146</ele>
        <time>2022-01-23T10:14:49Z</time>
      </trkpt>
      <trkpt lat="44.99517" lon="6.46261">
        <ele>1931.002</ele>
        <time>2022-01-23T10:14:54Z</time>
      </trkpt>
      <trkpt lat="44.99516" lon="6.46262">
        <ele>1930.639</ele>
        <time>2022-01-23T10:14:59Z</time>
      </trkpt>
      <trkpt lat="44.99514" lon="6.46261">
        <ele>1932.138</ele>
        <time>2022-01-23T10:15:04Z</time>
      </trkpt>
      <trkpt lat="44.99512" lon="6.46261">
        <ele>1932.962</ele>
        <time>2022-01-23T10:15:09Z</time>
      </trkpt>
      <trkpt lat="44.99512" lon="6.46261">
        <ele>1933.486</ele>
        <time>2022-01-23T10:15:14Z</time>
      </trkpt>
      <trkpt lat="44.9951" lon="6.46261">
        <ele>1934.517</ele>
        <time>2022-01-23T10:15:19Z</time>
      </trkpt>
      <trkpt lat="44.99508" lon="6.46261">
        <ele>1935.628</ele>
        <time>2022-01-23T10:15:24Z</time>
      </trkpt>
      <trkpt lat="44.99506" lon="6.46262">
        <ele>1935.84</ele>
        <time>2022-01-23T10:15:29Z</time>
      </trkpt>
      <trkpt lat="44.99506" lon="6.46263">
        <ele>1935.888</ele>
        <time>2022-01-23T10:15:34Z</time>
      </trkpt>
      <trkpt lat="44.99504" lon="6.46264">
        <ele>1936.6</ele>
        <time>2022-01-23T10:15:39Z</time>
      </trkpt>
      <trkpt lat="44.99503" lon="6.46266">
        <ele>1937.158</ele>
        <time>2022-01-23T10:15:44Z</time>
      </trkpt>
      <trkpt lat="44.99504" lon="6.46267">
        <ele>1937.103</ele>
        <time>2022-01-23T10:15:49Z</time>
      </trkpt>
      <trkpt lat="44.99504" lon="6.46266">
        <ele>1936.901</ele>
        <time>2022-01-23T10:15:54Z</time>
      </trkpt>
      <trkpt lat="44.99505" lon="6.46263">
        <ele>1935.509</ele>
        <time>2022-01-23T10:15:59Z</time>
      </trkpt>
      <trkpt lat="44.99506" lon="6.46261">
        <ele>1935.123</ele>
        <time>2022-01-23T10:16:04Z</time>
      </trkpt>
      <trkpt lat="44.99508" lon="6.4626">
        <ele>1935.405</ele>
        <time>2022-01-23T10:16:09Z</time>
      </trkpt>
      <trkpt lat="44.9951" lon="6.4626">
        <ele>1933.738</ele>
        <time>2022-01-23T10:16:14Z</time>
      </trkpt>
      <trkpt lat="44.99511" lon="6.46258">
        <ele>1933.277</ele>
        <time>2022-01-23T10:16:19Z</time>
      </trkpt>
      <trkpt lat="44.99511" lon="6.46258">
        <ele>1932.804</ele>
        <time>2022-01-23T10:16:24Z</time>
      </trkpt>
      <trkpt lat="44.99511" lon="6.46256">
        <ele>1932.927</ele>
        <time>2022-01-23T10:16:29Z</time>
      </trkpt>
      <trkpt lat="44.99513" lon="6.46254">
        <ele>1933.142</ele>
        <time>2022-01-23T10:16:34Z</time>
      </trkpt>
      <trkpt lat="44.99514" lon="6.46252">
        <ele>1932.637</ele>
        <time>2022-01-23T10:16:39Z</time>
      </trkpt>
      <trkpt lat="44.99514" lon="6.4625">
        <ele>1934.168</ele>
        <time>2022-01-23T10:16:45Z</time>
      </trkpt>
      <trkpt lat="44.99515" lon="6.46249">
        <ele>1934.077</ele>
        <time>2022-01-23T10:16:50Z</time>
      </trkpt>
      <trkpt lat="44.99516" lon="6.46248">
        <ele>1934.054</ele>
        <time>2022-01-23T10:16:55Z</time>
      </trkpt>
      <trkpt lat="44.99517" lon="6.46246">
        <ele>1933.159</ele>
        <time>2022-01-23T10:17:00Z</time>
      </trkpt>
      <trkpt lat="44.99517" lon="6.46246">
        <ele>1932.895</ele>
        <time>2022-01-23T10:17:05Z</time>
      </trkpt>
      <trkpt lat="44.99518" lon="6.46243">
        <ele>1932.703</ele>
        <time>2022-01-23T10:17:10Z</time>
      </trkpt>
      <trkpt lat="44.9952" lon="6.46241">
        <ele>1932.955</ele>
        <time>2022-01-23T10:17:15Z</time>
      </trkpt>
      <trkpt lat="44.99521" lon="6.46239">
        <ele>1934.319</ele>
        <time>2022-01-23T10:17:20Z</time>
      </trkpt>
      <trkpt lat="44.99522" lon="6.46237">
        <ele>1934.709</ele>
        <time>2022-01-23T10:17:25Z</time>
      </trkpt>
      <trkpt lat="44.99523" lon="6.46235">
        <ele>1934.922</ele>
        <time>2022-01-23T10:17:30Z</time>
      </trkpt>
      <trkpt lat="44.99524" lon="6.46234">
        <ele>1936.074</ele>
        <time>2022-01-23T10:17:35Z</time>
      </trkpt>
      <trkpt lat="44.99525" lon="6.46232">
        <ele>1937.675</ele>
        <time>2022-01-23T10:17:40Z</time>
      </trkpt>
      <trkpt lat="44.99525" lon="6.46231">
        <ele>1937.141</ele>
        <time>2022-01-23T10:17:45Z</time>
      </trkpt>
      <trkpt lat="44.99525" lon="6.4623">
        <ele>1938.345</ele>
        <time>2022-01-23T10:17:50Z</time>
      </trkpt>
      <trkpt lat="44.99525" lon="6.46228">
        <ele>1938.721</ele>
        <time>2022-01-23T10:17:55Z</time>
      </trkpt>
      <trkpt lat="44.99523" lon="6.46228">
        <ele>1939.168</ele>
        <time>2022-01-23T10:18:00Z</time>
      </trkpt>
      <trkpt lat="44.99519" lon="6.46228">
        <ele>1939.63</ele>
        <time>2022-01-23T10:18:05Z</time>
      </trkpt>
      <trkpt lat="44.99518" lon="6.46228">
        <ele>1940.212</ele>
        <time>2022-01-23T10:18:10Z</time>
      </trkpt>
      <trkpt lat="44.99516" lon="6.46226">
        <ele>1942.869</ele>
        <time>2022-01-23T10:18:15Z</time>
      </trkpt>
      <trkpt lat="44.99513" lon="6.46226">
        <ele>1944.471</ele>
        <time>2022-01-23T10:18:20Z</time>
      </trkpt>
      <trkpt lat="44.99511" lon="6.46226">
        <ele>1945.602</ele>
        <time>2022-01-23T10:18:25Z</time>
      </trkpt>
      <trkpt lat="44.99508" lon="6.46226">
        <ele>1946.489</ele>
        <time>2022-01-23T10:18:30Z</time>
      </trkpt>
      <trkpt lat="44.99506" lon="6.46225">
        <ele>1945.905</ele>
        <time>2022-01-23T10:18:35Z</time>
      </trkpt>
      <trkpt lat="44.99504" lon="6.46226">
        <ele>1946.127</ele>
        <time>2022-01-23T10:18:40Z</time>
      </trkpt>
      <trkpt lat="44.99502" lon="6.46226">
        <ele>1947.707</ele>
        <time>2022-01-23T10:18:45Z</time>
      </trkpt>
      <trkpt lat="44.99501" lon="6.46227">
        <ele>1949.11</ele>
        <time>2022-01-23T10:18:50Z</time>
      </trkpt>
      <trkpt lat="44.99499" lon="6.46227">
        <ele>1948.685</ele>
        <time>2022-01-23T10:18:55Z</time>
      </trkpt>
      <trkpt lat="44.99496" lon="6.46227">
        <ele>1949.203</ele>
        <time>2022-01-23T10:19:00Z</time>
      </trkpt>
      <trkpt lat="44.99494" lon="6.46228">
        <ele>1949.538</ele>
        <time>2022-01-23T10:19:05Z</time>
      </trkpt>
      <trkpt lat="44.99492" lon="6.46228">
        <ele>1950.637</ele>
        <time>2022-01-23T10:19:10Z</time>
      </trkpt>
      <trkpt lat="44.9949" lon="6.46228">
        <ele>1950.936</ele>
        <time>2022-01-23T10:19:15Z</time>
      </trkpt>
      <trkpt lat="44.99488" lon="6.46228">
        <ele>1951.331</ele>
        <time>2022-01-23T10:19:20Z</time>
      </trkpt>
      <trkpt lat="44.99487" lon="6.46229">
        <ele>1951.431</ele>
        <time>2022-01-23T10:19:25Z</time>
      </trkpt>
      <trkpt lat="44.99485" lon="6.46229">
        <ele>1952.645</ele>
        <time>2022-01-23T10:19:30Z</time>
      </trkpt>
      <trkpt lat="44.99484" lon="6.46228">
        <ele>1955.787</ele>
        <time>2022-01-23T10:19:35Z</time>
      </trkpt>
      <trkpt lat="44.99482" lon="6.46227">
        <ele>1956.671</ele>
        <time>2022-01-23T10:19:40Z</time>
      </trkpt>
      <trkpt lat="44.99481" lon="6.46227">
        <ele>1957.155</ele>
        <time>2022-01-23T10:19:45Z</time>
      </trkpt>
      <trkpt lat="44.9948" lon="6.46224">
        <ele>1959.49</ele>
        <time>2022-01-23T10:19:50Z</time>
      </trkpt>
      <trkpt lat="44.99481" lon="6.46225">
        <ele>1958.709</ele>
        <time>2022-01-23T10:19:55Z</time>
      </trkpt>
      <trkpt lat="44.99482" lon="6.46224">
        <ele>1958.577</ele>
        <time>2022-01-23T10:20:00Z</time>
      </trkpt>
      <trkpt lat="44.99483" lon="6.46222">
        <ele>1957.402</ele>
        <time>2022-01-23T10:20:05Z</time>
      </trkpt>
      <trkpt lat="44.99484" lon="6.46219">
        <ele>1957.238</ele>
        <time>2022-01-23T10:20:10Z</time>
      </trkpt>
      <trkpt lat="44.99486" lon="6.46217">
        <ele>1955.417</ele>
        <time>2022-01-23T10:20:15Z</time>
      </trkpt>
      <trkpt lat="44.99487" lon="6.46217">
        <ele>1955.883</ele>
        <time>2022-01-23T10:20:20Z</time>
      </trkpt>
      <trkpt lat="44.99489" lon="6.46214">
        <ele>1955.702</ele>
        <time>2022-01-23T10:20:25Z</time>
      </trkpt>
      <trkpt lat="44.99489" lon="6.46211">
        <ele>1954.072</ele>
        <time>2022-01-23T10:20:30Z</time>
      </trkpt>
      <trkpt lat="44.9949" lon="6.4621">
        <ele>1956.162</ele>
        <time>2022-01-23T10:20:35Z</time>
      </trkpt>
      <trkpt lat="44.9949" lon="6.4621">
        <ele>1955.271</ele>
        <time>2022-01-23T10:20:40Z</time>
      </trkpt>
      <trkpt lat="44.99488" lon="6.46209">
        <ele>1956.721</ele>
        <time>2022-01-23T10:20:45Z</time>
      </trkpt>
      <trkpt lat="44.99488" lon="6.46209">
        <ele>1957.051</ele>
        <time>2022-01-23T10:20:50Z</time>
      </trkpt>
      <trkpt lat="44.99489" lon="6.46208">
        <ele>1955.915</ele>
        <time>2022-01-23T10:20:55Z</time>
      </trkpt>
      <trkpt lat="44.9949" lon="6.46206">
        <ele>1955.562</ele>
        <time>2022-01-23T10:21:00Z</time>
      </trkpt>
      <trkpt lat="44.99491" lon="6.46204">
        <ele>1956.097</ele>
        <time>2022-01-23T10:21:05Z</time>
      </trkpt>
      <trkpt lat="44.99491" lon="6.46202">
        <ele>1955.019</ele>
        <time>2022-01-23T10:21:10Z</time>
      </trkpt>
      <trkpt lat="44.99491" lon="6.46202">
        <ele>1954.455</ele>
        <time>2022-01-23T10:21:15Z</time>
      </trkpt>
      <trkpt lat="44.99492" lon="6.46201">
        <ele>1955.117</ele>
        <time>2022-01-23T10:21:20Z</time>
      </trkpt>
      <trkpt lat="44.99493" lon="6.462">
        <ele>1954.342</ele>
        <time>2022-01-23T10:21:25Z</time>
      </trkpt>
      <trkpt lat="44.99493" lon="6.46199">
        <ele>1954.046</ele>
        <time>2022-01-23T10:21:30Z</time>
      </trkpt>
      <trkpt lat="44.99495" lon="6.46196">
        <ele>1954.679</ele>
        <time>2022-01-23T10:21:35Z</time>
      </trkpt>
      <trkpt lat="44.99496" lon="6.46194">
        <ele>1955.975</ele>
        <time>2022-01-23T10:21:40Z</time>
      </trkpt>
      <trkpt lat="44.99497" lon="6.46193">
        <ele>1958.679</ele>
        <time>2022-01-23T10:21:45Z</time>
      </trkpt>
      <trkpt lat="44.99497" lon="6.46192">
        <ele>1959.181</ele>
        <time>2022-01-23T10:21:50Z</time>
      </trkpt>
      <trkpt lat="44.99498" lon="6.46188">
        <ele>1960.335</ele>
        <time>2022-01-23T10:21:55Z</time>
      </trkpt>
      <trkpt lat="44.995" lon="6.46186">
        <ele>1962.261</ele>
        <time>2022-01-23T10:22:00Z</time>
      </trkpt>
      <trkpt lat="44.99501" lon="6.46185">
        <ele>1963.33</ele>
        <time>2022-01-23T10:22:05Z</time>
      </trkpt>
      <trkpt lat="44.99502" lon="6.46183">
        <ele>1962.88</ele>
        <time>2022-01-23T10:22:10Z</time>
      </trkpt>
      <trkpt lat="44.99503" lon="6.46181">
        <ele>1964.037</ele>
        <time>2022-01-23T10:22:15Z</time>
      </trkpt>
      <trkpt lat="44.99505" lon="6.46179">
        <ele>1965.178</ele>
        <time>2022-01-23T10:22:20Z</time>
      </trkpt>
      <trkpt lat="44.99506" lon="6.46177">
        <ele>1965.241</ele>
        <time>2022-01-23T10:22:25Z</time>
      </trkpt>
      <trkpt lat="44.99507" lon="6.46175">
        <ele>1964.96</ele>
        <time>2022-01-23T10:22:30Z</time>
      </trkpt>
      <trkpt lat="44.99508" lon="6.46175">
        <ele>1966.893</ele>
        <time>2022-01-23T10:22:35Z</time>
      </trkpt>
      <trkpt lat="44.99509" lon="6.46173">
        <ele>1966.325</ele>
        <time>2022-01-23T10:22:40Z</time>
      </trkpt>
      <trkpt lat="44.9951" lon="6.46171">
        <ele>1967.197</ele>
        <time>2022-01-23T10:22:45Z</time>
      </trkpt>
      <trkpt lat="44.99512" lon="6.46168">
        <ele>1968.007</ele>
        <time>2022-01-23T10:22:50Z</time>
      </trkpt>
      <trkpt lat="44.99514" lon="6.46167">
        <ele>1967.797</ele>
        <time>2022-01-23T10:22:55Z</time>
      </trkpt>
      <trkpt lat="44.99516" lon="6.46166">
        <ele>1968.069</ele>
        <time>2022-01-23T10:23:00Z</time>
      </trkpt>
      <trkpt lat="44.99517" lon="6.46164">
        <ele>1967.562</ele>
        <time>2022-01-23T10:23:05Z</time>
      </trkpt>
      <trkpt lat="44.99518" lon="6.46162">
        <ele>1967.989</ele>
        <time>2022-01-23T10:23:10Z</time>
      </trkpt>
      <trkpt lat="44.99521" lon="6.46161">
        <ele>1967.35</ele>
        <time>2022-01-23T10:23:15Z</time>
      </trkpt>
      <trkpt lat="44.99524" lon="6.46159">
        <ele>1968.488</ele>
        <time>2022-01-23T10:23:20Z</time>
      </trkpt>
      <trkpt lat="44.99527" lon="6.46158">
        <ele>1967.882</ele>
        <time>2022-01-23T10:23:25Z</time>
      </trkpt>
      <trkpt lat="44.99529" lon="6.46156">
        <ele>1969.691</ele>
        <time>2022-01-23T10:23:30Z</time>
      </trkpt>
      <trkpt lat="44.9953" lon="6.46155">
        <ele>1968.759</ele>
        <time>2022-01-23T10:23:35Z</time>
      </trkpt>
      <trkpt lat="44.99531" lon="6.46154">
        <ele>1968.35</ele>
        <time>2022-01-23T10:23:40Z</time>
      </trkpt>
      <trkpt lat="44.99532" lon="6.46152">
        <ele>1969.306</ele>
        <time>2022-01-23T10:23:45Z</time>
      </trkpt>
      <trkpt lat="44.99534" lon="6.4615">
        <ele>1968.749</ele>
        <time>2022-01-23T10:23:50Z</time>
      </trkpt>
      <trkpt lat="44.99536" lon="6.46147">
        <ele>1969.839</ele>
        <time>2022-01-23T10:23:55Z</time>
      </trkpt>
      <trkpt lat="44.99537" lon="6.46146">
        <ele>1970.278</ele>
        <time>2022-01-23T10:24:00Z</time>
      </trkpt>
      <trkpt lat="44.99538" lon="6.46145">
        <ele>1970.298</ele>
        <time>2022-01-23T10:24:05Z</time>
      </trkpt>
      <trkpt lat="44.99539" lon="6.46144">
        <ele>1972.079</ele>
        <time>2022-01-23T10:24:10Z</time>
      </trkpt>
      <trkpt lat="44.99541" lon="6.46142">
        <ele>1972.51</ele>
        <time>2022-01-23T10:24:15Z</time>
      </trkpt>
      <trkpt lat="44.99541" lon="6.46142">
        <ele>1972.719</ele>
        <time>2022-01-23T10:24:20Z</time>
      </trkpt>
      <trkpt lat="44.99541" lon="6.46142">
        <ele>1972.667</ele>
        <time>2022-01-23T10:24:25Z</time>
      </trkpt>
      <trkpt lat="44.9954" lon="6.46141">
        <ele>1972.803</ele>
        <time>2022-01-23T10:24:30Z</time>
      </trkpt>
      <trkpt lat="44.99541" lon="6.46141">
        <ele>1973.416</ele>
        <time>2022-01-23T10:24:35Z</time>
      </trkpt>
      <trkpt lat="44.99541" lon="6.46139">
        <ele>1973.548</ele>
        <time>2022-01-23T10:24:40Z</time>
      </trkpt>
      <trkpt lat="44.99542" lon="6.46137">
        <ele>1974.614</ele>
        <time>2022-01-23T10:24:45Z</time>
      </trkpt>
      <trkpt lat="44.99543" lon="6.46136">
        <ele>1972.926</ele>
        <time>2022-01-23T10:24:50Z</time>
      </trkpt>
      <trkpt lat="44.99544" lon="6.46135">
        <ele>1971.772</ele>
        <time>2022-01-23T10:24:55Z</time>
      </trkpt>
      <trkpt lat="44.99545" lon="6.46133">
        <ele>1972.58</ele>
        <time>2022-01-23T10:25:00Z</time>
      </trkpt>
      <trkpt lat="44.99544" lon="6.46132">
        <ele>1973.687</ele>
        <time>2022-01-23T10:25:05Z</time>
      </trkpt>
      <trkpt lat="44.99541" lon="6.46132">
        <ele>1975.63</ele>
        <time>2022-01-23T10:25:10Z</time>
      </trkpt>
      <trkpt lat="44.99538" lon="6.46133">
        <ele>1976.624</ele>
        <time>2022-01-23T10:25:15Z</time>
      </trkpt>
      <trkpt lat="44.99535" lon="6.46133">
        <ele>1979.16</ele>
        <time>2022-01-23T10:25:20Z</time>
      </trkpt>
      <trkpt lat="44.99533" lon="6.46134">
        <ele>1979.02</ele>
        <time>2022-01-23T10:25:25Z</time>
      </trkpt>
      <trkpt lat="44.99532" lon="6.46135">
        <ele>1980.456</ele>
        <time>2022-01-23T10:25:30Z</time>
      </trkpt>
      <trkpt lat="44.99532" lon="6.46135">
        <ele>1979.683</ele>
        <time>2022-01-23T10:25:35Z</time>
      </trkpt>
      <trkpt lat="44.99531" lon="6.46135">
        <ele>1981.239</ele>
        <time>2022-01-23T10:25:40Z</time>
      </trkpt>
      <trkpt lat="44.9953" lon="6.46136">
        <ele>1983.113</ele>
        <time>2022-01-23T10:25:45Z</time>
      </trkpt>
      <trkpt lat="44.99529" lon="6.46137">
        <ele>1984.721</ele>
        <time>2022-01-23T10:25:50Z</time>
      </trkpt>
      <trkpt lat="44.99526" lon="6.46137">
        <ele>1986.248</ele>
        <time>2022-01-23T10:25:55Z</time>
      </trkpt>
      <trkpt lat="44.99524" lon="6.46137">
        <ele>1987.031</ele>
        <time>2022-01-23T10:26:00Z</time>
      </trkpt>
      <trkpt lat="44.99521" lon="6.46139">
        <ele>1986.936</ele>
        <time>2022-01-23T10:26:05Z</time>
      </trkpt>
      <trkpt lat="44.9952" lon="6.46141">
        <ele>1987.102</ele>
        <time>2022-01-23T10:26:10Z</time>
      </trkpt>
      <trkpt lat="44.99517" lon="6.46141">
        <ele>1986.505</ele>
        <time>2022-01-23T10:26:15Z</time>
      </trkpt>
      <trkpt lat="44.99515" lon="6.46142">
        <ele>1985.989</ele>
        <time>2022-01-23T10:26:20Z</time>
      </trkpt>
      <trkpt lat="44.99514" lon="6.46141">
        <ele>1987.937</ele>
        <time>2022-01-23T10:26:25Z</time>
      </trkpt>
      <trkpt lat="44.99513" lon="6.46141">
        <ele>1988.674</ele>
        <time>2022-01-23T10:26:30Z</time>
      </trkpt>
      <trkpt lat="44.9951" lon="6.4614">
        <ele>1988.058</ele>
        <time>2022-01-23T10:26:35Z</time>
      </trkpt>
      <trkpt lat="44.99508" lon="6.46141">
        <ele>1988.711</ele>
        <time>2022-01-23T10:26:40Z</time>
      </trkpt>
      <trkpt lat="44.99506" lon="6.4614">
        <ele>1989.109</ele>
        <time>2022-01-23T10:26:45Z</time>
      </trkpt>
      <trkpt lat="44.99504" lon="6.4614">
        <ele>1991.82</ele>
        <time>2022-01-23T10:26:50Z</time>
      </trkpt>
      <trkpt lat="44.99503" lon="6.4614">
        <ele>1992.192</ele>
        <time>2022-01-23T10:26:55Z</time>
      </trkpt>
      <trkpt lat="44.99502" lon="6.46141">
        <ele>1991.748</ele>
        <time>2022-01-23T10:27:00Z</time>
      </trkpt>
      <trkpt lat="44.99501" lon="6.4614">
        <ele>1993.201</ele>
        <time>2022-01-23T10:27:05Z</time>
      </trkpt>
      <trkpt lat="44.99499" lon="6.4614">
        <ele>1993.772</ele>
        <time>2022-01-23T10:27:10Z</time>
      </trkpt>
      <trkpt lat="44.99496" lon="6.4614">
        <ele>1994.724</ele>
        <time>2022-01-23T10:27:16Z</time>
      </trkpt>
      <trkpt lat="44.99495" lon="6.4614">
        <ele>1994.44</ele>
        <time>2022-01-23T10:27:21Z</time>
      </trkpt>
      <trkpt lat="44.99494" lon="6.4614">
        <ele>1993.46</ele>
        <time>2022-01-23T10:27:26Z</time>
      </trkpt>
      <trkpt lat="44.99493" lon="6.46141">
        <ele>1992.874</ele>
        <time>2022-01-23T10:27:31Z</time>
      </trkpt>
      <trkpt lat="44.99491" lon="6.46141">
        <ele>1992.892</ele>
        <time>2022-01-23T10:27:36Z</time>
      </trkpt>
      <trkpt lat="44.99489" lon="6.4614">
        <ele>1993.941</ele>
        <time>2022-01-23T10:27:41Z</time>
      </trkpt>
      <trkpt lat="44.99486" lon="6.46139">
        <ele>1995.156</ele>
        <time>2022-01-23T10:27:46Z</time>
      </trkpt>
      <trkpt lat="44.99483" lon="6.46139">
        <ele>1996.258</ele>
        <time>2022-01-23T10:27:51Z</time>
      </trkpt>
      <trkpt lat="44.99482" lon="6.4614">
        <ele>1996.401</ele>
        <time>2022-01-23T10:27:56Z</time>
      </trkpt>
      <trkpt lat="44.9948" lon="6.4614">
        <ele>1999.043</ele>
        <time>2022-01-23T10:28:01Z</time>
      </trkpt>
      <trkpt lat="44.99478" lon="6.4614">
        <ele>1999.393</ele>
        <time>2022-01-23T10:28:06Z</time>
      </trkpt>
      <trkpt lat="44.99476" lon="6.4614">
        <ele>1998.514</ele>
        <time>2022-01-23T10:28:11Z</time>
      </trkpt>
      <trkpt lat="44.99474" lon="6.4614">
        <ele>1999.811</ele>
        <time>2022-01-23T10:28:16Z</time>
      </trkpt>
      <trkpt lat="44.99472" lon="6.4614">
        <ele>2000.736</ele>
        <time>2022-01-23T10:28:21Z</time>
      </trkpt>
      <trkpt lat="44.9947" lon="6.4614">
        <ele>2003.07</ele>
        <time>2022-01-23T10:28:26Z</time>
      </trkpt>
      <trkpt lat="44.99468" lon="6.4614">
        <ele>2002.121</ele>
        <time>2022-01-23T10:28:31Z</time>
      </trkpt>
      <trkpt lat="44.99467" lon="6.4614">
        <ele>2002.245</ele>
        <time>2022-01-23T10:28:36Z</time>
      </trkpt>
      <trkpt lat="44.99464" lon="6.46141">
        <ele>2002.587</ele>
        <time>2022-01-23T10:28:41Z</time>
      </trkpt>
      <trkpt lat="44.99463" lon="6.4614">
        <ele>2001.282</ele>
        <time>2022-01-23T10:28:46Z</time>
      </trkpt>
      <trkpt lat="44.99461" lon="6.46141">
        <ele>2001.628</ele>
        <time>2022-01-23T10:28:51Z</time>
      </trkpt>
      <trkpt lat="44.99459" lon="6.46141">
        <ele>2002.087</ele>
        <time>2022-01-23T10:28:56Z</time>
      </trkpt>
      <trkpt lat="44.99457" lon="6.46141">
        <ele>2002.921</ele>
        <time>2022-01-23T10:29:01Z</time>
      </trkpt>
      <trkpt lat="44.99455" lon="6.4614">
        <ele>2003.83</ele>
        <time>2022-01-23T10:29:06Z</time>
      </trkpt>
      <trkpt lat="44.99453" lon="6.4614">
        <ele>2003.913</ele>
        <time>2022-01-23T10:29:11Z</time>
      </trkpt>
      <trkpt lat="44.99452" lon="6.46141">
        <ele>2004.504</ele>
        <time>2022-01-23T10:29:16Z</time>
      </trkpt>
      <trkpt lat="44.9945" lon="6.46141">
        <ele>2005.214</ele>
        <time>2022-01-23T10:29:21Z</time>
      </trkpt>
      <trkpt lat="44.99449" lon="6.4614">
        <ele>2007.054</ele>
        <time>2022-01-23T10:29:26Z</time>
      </trkpt>
      <trkpt lat="44.99449" lon="6.4614">
        <ele>2007.152</ele>
        <time>2022-01-23T10:29:31Z</time>
      </trkpt>
      <trkpt lat="44.9945" lon="6.46141">
        <ele>2005.052</ele>
        <time>2022-01-23T10:29:36Z</time>
      </trkpt>
      <trkpt lat="44.99453" lon="6.46141">
        <ele>2003.28</ele>
        <time>2022-01-23T10:29:41Z</time>
      </trkpt>
      <trkpt lat="44.99455" lon="6.46139">
        <ele>2000.604</ele>
        <time>2022-01-23T10:29:46Z</time>
      </trkpt>
      <trkpt lat="44.99455" lon="6.46138">
        <ele>1999.098</ele>
        <time>2022-01-23T10:29:51Z</time>
      </trkpt>
      <trkpt lat="44.99456" lon="6.46136">
        <ele>1997.748</ele>
        <time>2022-01-23T10:29:56Z</time>
      </trkpt>
      <trkpt lat="44.99456" lon="6.46136">
        <ele>1997.738</ele>
        <time>2022-01-23T10:30:01Z</time>
      </trkpt>
      <trkpt lat="44.99457" lon="6.46135">
        <ele>1997.721</ele>
        <time>2022-01-23T10:30:06Z</time>
      </trkpt>
      <trkpt lat="44.99458" lon="6.46135">
        <ele>1997.771</ele>
        <time>2022-01-23T10:30:11Z</time>
      </trkpt>
      <trkpt lat="44.99459" lon="6.46134">
        <ele>1998.252</ele>
        <time>2022-01-23T10:30:16Z</time>
      </trkpt>
      <trkpt lat="44.99461" lon="6.46133">
        <ele>1997.522</ele>
        <time>2022-01-23T10:30:21Z</time>
      </trkpt>
      <trkpt lat="44.99463" lon="6.46131">
        <ele>1997.42</ele>
        <time>2022-01-23T10:30:26Z</time>
      </trkpt>
      <trkpt lat="44.99466" lon="6.46129">
        <ele>1999.009</ele>
        <time>2022-01-23T10:30:31Z</time>
      </trkpt>
      <trkpt lat="44.99467" lon="6.46127">
        <ele>1999.227</ele>
        <time>2022-01-23T10:30:36Z</time>
      </trkpt>
      <trkpt lat="44.99469" lon="6.46124">
        <ele>1999.495</ele>
        <time>2022-01-23T10:30:41Z</time>
      </trkpt>
      <trkpt lat="44.99469" lon="6.46123">
        <ele>1999.354</ele>
        <time>2022-01-23T10:30:46Z</time>
      </trkpt>
      <trkpt lat="44.9947" lon="6.46122">
        <ele>1999.543</ele>
        <time>2022-01-23T10:30:51Z</time>
      </trkpt>
      <trkpt lat="44.99471" lon="6.4612">
        <ele>2000.335</ele>
        <time>2022-01-23T10:30:56Z</time>
      </trkpt>
      <trkpt lat="44.99472" lon="6.46119">
        <ele>2001.076</ele>
        <time>2022-01-23T10:31:01Z</time>
      </trkpt>
      <trkpt lat="44.99474" lon="6.46118">
        <ele>2000.705</ele>
        <time>2022-01-23T10:31:06Z</time>
      </trkpt>
      <trkpt lat="44.99475" lon="6.46115">
        <ele>2001.158</ele>
        <time>2022-01-23T10:31:11Z</time>
      </trkpt>
      <trkpt lat="44.99476" lon="6.46114">
        <ele>2002.242</ele>
        <time>2022-01-23T10:31:16Z</time>
      </trkpt>
      <trkpt lat="44.99477" lon="6.46112">
        <ele>2002.715</ele>
        <time>2022-01-23T10:31:21Z</time>
      </trkpt>
      <trkpt lat="44.99479" lon="6.46111">
        <ele>2002.959</ele>
        <time>2022-01-23T10:31:26Z</time>
      </trkpt>
      <trkpt lat="44.99479" lon="6.4611">
        <ele>2003.932</ele>
        <time>2022-01-23T10:31:31Z</time>
      </trkpt>
      <trkpt lat="44.99478" lon="6.4611">
        <ele>2005.967</ele>
        <time>2022-01-23T10:31:36Z</time>
      </trkpt>
      <trkpt lat="44.99475" lon="6.46109">
        <ele>2008.641</ele>
        <time>2022-01-23T10:31:41Z</time>
      </trkpt>
      <trkpt lat="44.99473" lon="6.46109">
        <ele>2010.409</ele>
        <time>2022-01-23T10:31:46Z</time>
      </trkpt>
      <trkpt lat="44.99472" lon="6.46109">
        <ele>2011.66</ele>
        <time>2022-01-23T10:31:51Z</time>
      </trkpt>
      <trkpt lat="44.99469" lon="6.46109">
        <ele>2014.15</ele>
        <time>2022-01-23T10:31:56Z</time>
      </trkpt>
      <trkpt lat="44.99467" lon="6.4611">
        <ele>2016.169</ele>
        <time>2022-01-23T10:32:01Z</time>
      </trkpt>
      <trkpt lat="44.99465" lon="6.4611">
        <ele>2017.062</ele>
        <time>2022-01-23T10:32:06Z</time>
      </trkpt>
      <trkpt lat="44.99463" lon="6.4611">
        <ele>2017.214</ele>
        <time>2022-01-23T10:32:11Z</time>
      </trkpt>
      <trkpt lat="44.99462" lon="6.4611">
        <ele>2017.037</ele>
        <time>2022-01-23T10:32:16Z</time>
      </trkpt>
      <trkpt lat="44.99462" lon="6.46109">
        <ele>2017.089</ele>
        <time>2022-01-23T10:32:21Z</time>
      </trkpt>
      <trkpt lat="44.99462" lon="6.46109">
        <ele>2017.509</ele>
        <time>2022-01-23T10:32:26Z</time>
      </trkpt>
      <trkpt lat="44.99462" lon="6.46108">
        <ele>2017.598</ele>
        <time>2022-01-23T10:32:31Z</time>
      </trkpt>
      <trkpt lat="44.99462" lon="6.46108">
        <ele>2017.606</ele>
        <time>2022-01-23T10:32:36Z</time>
      </trkpt>
      <trkpt lat="44.99462" lon="6.46108">
        <ele>2017.615</ele>
        <time>2022-01-23T10:32:41Z</time>
      </trkpt>
      <trkpt lat="44.99462" lon="6.46108">
        <ele>2017.349</ele>
        <time>2022-01-23T10:32:46Z</time>
      </trkpt>
      <trkpt lat="44.99461" lon="6.46108">
        <ele>2016.826</ele>
        <time>2022-01-23T10:32:51Z</time>
      </trkpt>
      <trkpt lat="44.99458" lon="6.46107">
        <ele>2018.28</ele>
        <time>2022-01-23T10:32:56Z</time>
      </trkpt>
      <trkpt lat="44.99456" lon="6.46107">
        <ele>2019.268</ele>
        <time>2022-01-23T10:33:01Z</time>
      </trkpt>
      <trkpt lat="44.99456" lon="6.46107">
        <ele>2018.958</ele>
        <time>2022-01-23T10:33:06Z</time>
      </trkpt>
      <trkpt lat="44.99453" lon="6.46107">
        <ele>2021.263</ele>
        <time>2022-01-23T10:33:11Z</time>
      </trkpt>
      <trkpt lat="44.99453" lon="6.46107">
        <ele>2022.256</ele>
        <time>2022-01-23T10:33:16Z</time>
      </trkpt>
      <trkpt lat="44.99454" lon="6.46107">
        <ele>2022.127</ele>
        <time>2022-01-23T10:33:21Z</time>
      </trkpt>
      <trkpt lat="44.99454" lon="6.46108">
        <ele>2022.417</ele>
        <time>2022-01-23T10:33:26Z</time>
      </trkpt>
      <trkpt lat="44.99454" lon="6.46107">
        <ele>2021.239</ele>
        <time>2022-01-23T10:33:31Z</time>
      </trkpt>
      <trkpt lat="44.99453" lon="6.46107">
        <ele>2019.409</ele>
        <time>2022-01-23T10:33:36Z</time>
      </trkpt>
      <trkpt lat="44.99452" lon="6.46106">
        <ele>2020.492</ele>
        <time>2022-01-23T10:33:41Z</time>
      </trkpt>
      <trkpt lat="44.99452" lon="6.46104">
        <ele>2017.226</ele>
        <time>2022-01-23T10:33:46Z</time>
      </trkpt>
      <trkpt lat="44.99454" lon="6.46102">
        <ele>2015.472</ele>
        <time>2022-01-23T10:33:51Z</time>
      </trkpt>
      <trkpt lat="44.99456" lon="6.461">
        <ele>2015.102</ele>
        <time>2022-01-23T10:33:56Z</time>
      </trkpt>
      <trkpt lat="44.99457" lon="6.46099">
        <ele>2016.675</ele>
        <time>2022-01-23T10:34:01Z</time>
      </trkpt>
      <trkpt lat="44.99458" lon="6.46098">
        <ele>2016.332</ele>
        <time>2022-01-23T10:34:06Z</time>
      </trkpt>
      <trkpt lat="44.99459" lon="6.46097">
        <ele>2016.147</ele>
        <time>2022-01-23T10:34:11Z</time>
      </trkpt>
      <trkpt lat="44.9946" lon="6.46096">
        <ele>2016.818</ele>
        <time>2022-01-23T10:34:16Z</time>
      </trkpt>
      <trkpt lat="44.99461" lon="6.46095">
        <ele>2018.127</ele>
        <time>2022-01-23T10:34:21Z</time>
      </trkpt>
      <trkpt lat="44.99461" lon="6.46095">
        <ele>2018.384</ele>
        <time>2022-01-23T10:34:26Z</time>
      </trkpt>
      <trkpt lat="44.99462" lon="6.46093">
        <ele>2019.807</ele>
        <time>2022-01-23T10:34:31Z</time>
      </trkpt>
      <trkpt lat="44.99463" lon="6.4609">
        <ele>2020.155</ele>
        <time>2022-01-23T10:34:36Z</time>
      </trkpt>
      <trkpt lat="44.99464" lon="6.46089">
        <ele>2019.81</ele>
        <time>2022-01-23T10:34:41Z</time>
      </trkpt>
      <trkpt lat="44.99466" lon="6.46088">
        <ele>2020.537</ele>
        <time>2022-01-23T10:34:46Z</time>
      </trkpt>
      <trkpt lat="44.99468" lon="6.46086">
        <ele>2021.751</ele>
        <time>2022-01-23T10:34:51Z</time>
      </trkpt>
      <trkpt lat="44.99469" lon="6.46086">
        <ele>2021.396</ele>
        <time>2022-01-23T10:34:56Z</time>
      </trkpt>
      <trkpt lat="44.9947" lon="6.46086">
        <ele>2021.977</ele>
        <time>2022-01-23T10:35:01Z</time>
      </trkpt>
      <trkpt lat="44.99472" lon="6.46084">
        <ele>2022.543</ele>
        <time>2022-01-23T10:35:06Z</time>
      </trkpt>
      <trkpt lat="44.99472" lon="6.46081">
        <ele>2023.017</ele>
        <time>2022-01-23T10:35:11Z</time>
      </trkpt>
      <trkpt lat="44.99473" lon="6.4608">
        <ele>2022.999</ele>
        <time>2022-01-23T10:35:16Z</time>
      </trkpt>
      <trkpt lat="44.99473" lon="6.4608">
        <ele>2022.659</ele>
        <time>2022-01-23T10:35:21Z</time>
      </trkpt>
      <trkpt lat="44.99474" lon="6.46078">
        <ele>2022.641</ele>
        <time>2022-01-23T10:35:26Z</time>
      </trkpt>
      <trkpt lat="44.99476" lon="6.46078">
        <ele>2024.491</ele>
        <time>2022-01-23T10:35:31Z</time>
      </trkpt>
      <trkpt lat="44.99476" lon="6.46076">
        <ele>2025.302</ele>
        <time>2022-01-23T10:35:36Z</time>
      </trkpt>
      <trkpt lat="44.99477" lon="6.46074">
        <ele>2026.272</ele>
        <time>2022-01-23T10:35:41Z</time>
      </trkpt>
      <trkpt lat="44.99476" lon="6.46072">
        <ele>2025.637</ele>
        <time>2022-01-23T10:35:46Z</time>
      </trkpt>
      <trkpt lat="44.99475" lon="6.46072">
        <ele>2026.834</ele>
        <time>2022-01-23T10:35:51Z</time>
      </trkpt>
      <trkpt lat="44.99474" lon="6.46072">
        <ele>2024.583</ele>
        <time>2022-01-23T10:35:56Z</time>
      </trkpt>
      <trkpt lat="44.99473" lon="6.46072">
        <ele>2025.04</ele>
        <time>2022-01-23T10:36:01Z</time>
      </trkpt>
      <trkpt lat="44.99473" lon="6.46072">
        <ele>2025.828</ele>
        <time>2022-01-23T10:36:06Z</time>
      </trkpt>
      <trkpt lat="44.99473" lon="6.46073">
        <ele>2025.05</ele>
        <time>2022-01-23T10:36:11Z</time>
      </trkpt>
      <trkpt lat="44.99474" lon="6.46074">
        <ele>2025.346</ele>
        <time>2022-01-23T10:36:16Z</time>
      </trkpt>
      <trkpt lat="44.99474" lon="6.46074">
        <ele>2025.692</ele>
        <time>2022-01-23T10:36:21Z</time>
      </trkpt>
      <trkpt lat="44.99474" lon="6.46074">
        <ele>2025.897</ele>
        <time>2022-01-23T10:36:26Z</time>
      </trkpt>
      <trkpt lat="44.99474" lon="6.46074">
        <ele>2025.912</ele>
        <time>2022-01-23T10:36:31Z</time>
      </trkpt>
      <trkpt lat="44.99474" lon="6.46074">
        <ele>2025.918</ele>
        <time>2022-01-23T10:36:36Z</time>
      </trkpt>
      <trkpt lat="44.99474" lon="6.46073">
        <ele>2027.693</ele>
        <time>2022-01-23T10:36:41Z</time>
      </trkpt>
      <trkpt lat="44.99474" lon="6.46073">
        <ele>2027.881</ele>
        <time>2022-01-23T10:36:46Z</time>
      </trkpt>
      <trkpt lat="44.99474" lon="6.46073">
        <ele>2028.191</ele>
        <time>2022-01-23T10:36:51Z</time>
      </trkpt>
      <trkpt lat="44.99474" lon="6.46073">
        <ele>2028.217</ele>
        <time>2022-01-23T10:36:56Z</time>
      </trkpt>
      <trkpt lat="44.99474" lon="6.46073">
        <ele>2028.229</ele>
        <time>2022-01-23T10:37:01Z</time>
      </trkpt>
      <trkpt lat="44.99473" lon="6.46073">
        <ele>2029.676</ele>
        <time>2022-01-23T10:37:06Z</time>
      </trkpt>
      <trkpt lat="44.99473" lon="6.46072">
        <ele>2030.474</ele>
        <time>2022-01-23T10:37:11Z</time>
      </trkpt>
      <trkpt lat="44.99473" lon="6.46072">
        <ele>2029.91</ele>
        <time>2022-01-23T10:37:16Z</time>
      </trkpt>
      <trkpt lat="44.99473" lon="6.46072">
        <ele>2029.93</ele>
        <time>2022-01-23T10:37:21Z</time>
      </trkpt>
      <trkpt lat="44.99473" lon="6.46072">
        <ele>2029.892</ele>
        <time>2022-01-23T10:37:26Z</time>
      </trkpt>
      <trkpt lat="44.99473" lon="6.46072">
        <ele>2029.887</ele>
        <time>2022-01-23T10:37:31Z</time>
      </trkpt>
      <trkpt lat="44.99471" lon="6.46072">
        <ele>2031.469</ele>
        <time>2022-01-23T10:37:36Z</time>
      </trkpt>
      <trkpt lat="44.99469" lon="6.46074">
        <ele>2031.503</ele>
        <time>2022-01-23T10:37:41Z</time>
      </trkpt>
      <trkpt lat="44.99466" lon="6.46074">
        <ele>2033.895</ele>
        <time>2022-01-23T10:37:46Z</time>
      </trkpt>
      <trkpt lat="44.99464" lon="6.46073">
        <ele>2035.427</ele>
        <time>2022-01-23T10:37:51Z</time>
      </trkpt>
      <trkpt lat="44.99461" lon="6.46073">
        <ele>2036.098</ele>
        <time>2022-01-23T10:37:56Z</time>
      </trkpt>
      <trkpt lat="44.9946" lon="6.46074">
        <ele>2035.689</ele>
        <time>2022-01-23T10:38:01Z</time>
      </trkpt>
      <trkpt lat="44.99456" lon="6.46074">
        <ele>2036.059</ele>
        <time>2022-01-23T10:38:06Z</time>
      </trkpt>
      <trkpt lat="44.99455" lon="6.46075">
        <ele>2035.982</ele>
        <time>2022-01-23T10:38:11Z</time>
      </trkpt>
      <trkpt lat="44.99453" lon="6.46075">
        <ele>2035.32</ele>
        <time>2022-01-23T10:38:16Z</time>
      </trkpt>
      <trkpt lat="44.99452" lon="6.46075">
        <ele>2035.759</ele>
        <time>2022-01-23T10:38:21Z</time>
      </trkpt>
      <trkpt lat="44.9945" lon="6.46075">
        <ele>2037.117</ele>
        <time>2022-01-23T10:38:26Z</time>
      </trkpt>
      <trkpt lat="44.99448" lon="6.46074">
        <ele>2038.04</ele>
        <time>2022-01-23T10:38:31Z</time>
      </trkpt>
      <trkpt lat="44.99446" lon="6.46075">
        <ele>2038.801</ele>
        <time>2022-01-23T10:38:36Z</time>
      </trkpt>
      <trkpt lat="44.99444" lon="6.46075">
        <ele>2040.677</ele>
        <time>2022-01-23T10:38:41Z</time>
      </trkpt>
      <trkpt lat="44.99443" lon="6.46074">
        <ele>2040.042</ele>
        <time>2022-01-23T10:38:46Z</time>
      </trkpt>
      <trkpt lat="44.99442" lon="6.46074">
        <ele>2041.335</ele>
        <time>2022-01-23T10:38:51Z</time>
      </trkpt>
      <trkpt lat="44.9944" lon="6.46074">
        <ele>2041.788</ele>
        <time>2022-01-23T10:38:56Z</time>
      </trkpt>
      <trkpt lat="44.99439" lon="6.46074">
        <ele>2040.953</ele>
        <time>2022-01-23T10:39:01Z</time>
      </trkpt>
      <trkpt lat="44.99438" lon="6.46075">
        <ele>2041.873</ele>
        <time>2022-01-23T10:39:06Z</time>
      </trkpt>
      <trkpt lat="44.99435" lon="6.46075">
        <ele>2043.075</ele>
        <time>2022-01-23T10:39:11Z</time>
      </trkpt>
      <trkpt lat="44.99435" lon="6.46074">
        <ele>2042.84</ele>
        <time>2022-01-23T10:39:16Z</time>
      </trkpt>
      <trkpt lat="44.99435" lon="6.46073">
        <ele>2041.238</ele>
        <time>2022-01-23T10:39:21Z</time>
      </trkpt>
      <trkpt lat="44.99436" lon="6.46072">
        <ele>2039.391</ele>
        <time>2022-01-23T10:39:26Z</time>
      </trkpt>
      <trkpt lat="44.99437" lon="6.4607">
        <ele>2038.351</ele>
        <time>2022-01-23T10:39:31Z</time>
      </trkpt>
      <trkpt lat="44.9944" lon="6.46069">
        <ele>2038.507</ele>
        <time>2022-01-23T10:39:36Z</time>
      </trkpt>
      <trkpt lat="44.99441" lon="6.4607">
        <ele>2038.112</ele>
        <time>2022-01-23T10:39:41Z</time>
      </trkpt>
      <trkpt lat="44.99441" lon="6.4607">
        <ele>2036.814</ele>
        <time>2022-01-23T10:39:46Z</time>
      </trkpt>
      <trkpt lat="44.99442" lon="6.4607">
        <ele>2036.493</ele>
        <time>2022-01-23T10:39:51Z</time>
      </trkpt>
      <trkpt lat="44.99442" lon="6.4607">
        <ele>2036.491</ele>
        <time>2022-01-23T10:39:56Z</time>
      </trkpt>
      <trkpt lat="44.99443" lon="6.46069">
        <ele>2036.633</ele>
        <time>2022-01-23T10:40:01Z</time>
      </trkpt>
      <trkpt lat="44.99444" lon="6.46068">
        <ele>2037.219</ele>
        <time>2022-01-23T10:40:06Z</time>
      </trkpt>
      <trkpt lat="44.99445" lon="6.46066">
        <ele>2036.435</ele>
        <time>2022-01-23T10:40:11Z</time>
      </trkpt>
      <trkpt lat="44.99446" lon="6.46064">
        <ele>2036.324</ele>
        <time>2022-01-23T10:40:16Z</time>
      </trkpt>
      <trkpt lat="44.99447" lon="6.46063">
        <ele>2035.668</ele>
        <time>2022-01-23T10:40:21Z</time>
      </trkpt>
      <trkpt lat="44.99448" lon="6.46062">
        <ele>2035.136</ele>
        <time>2022-01-23T10:40:26Z</time>
      </trkpt>
      <trkpt lat="44.99449" lon="6.46059">
        <ele>2035.097</ele>
        <time>2022-01-23T10:40:31Z</time>
      </trkpt>
      <trkpt lat="44.9945" lon="6.46058">
        <ele>2035.802</ele>
        <time>2022-01-23T10:40:36Z</time>
      </trkpt>
      <trkpt lat="44.99451" lon="6.46058">
        <ele>2037.172</ele>
        <time>2022-01-23T10:40:41Z</time>
      </trkpt>
      <trkpt lat="44.99452" lon="6.46057">
        <ele>2038.753</ele>
        <time>2022-01-23T10:40:46Z</time>
      </trkpt>
      <trkpt lat="44.99452" lon="6.46056">
        <ele>2039.531</ele>
        <time>2022-01-23T10:40:51Z</time>
      </trkpt>
      <trkpt lat="44.99452" lon="6.46057">
        <ele>2040.224</ele>
        <time>2022-01-23T10:40:56Z</time>
      </trkpt>
      <trkpt lat="44.99453" lon="6.46055">
        <ele>2039.963</ele>
        <time>2022-01-23T10:41:01Z</time>
      </trkpt>
      <trkpt lat="44.99454" lon="6.46054">
        <ele>2040.886</ele>
        <time>2022-01-23T10:41:06Z</time>
      </trkpt>
      <trkpt lat="44.99456" lon="6.46051">
        <ele>2040.345</ele>
        <time>2022-01-23T10:41:11Z</time>
      </trkpt>
      <trkpt lat="44.99457" lon="6.4605">
        <ele>2041.147</ele>
        <time>2022-01-23T10:41:16Z</time>
      </trkpt>
      <trkpt lat="44.99459" lon="6.46048">
        <ele>2040.812</ele>
        <time>2022-01-23T10:41:21Z</time>
      </trkpt>
      <trkpt lat="44.9946" lon="6.46046">
        <ele>2041.138</ele>
        <time>2022-01-23T10:41:26Z</time>
      </trkpt>
      <trkpt lat="44.9946" lon="6.46047">
        <ele>2043.321</ele>
        <time>2022-01-23T10:41:31Z</time>
      </trkpt>
      <trkpt lat="44.9946" lon="6.46046">
        <ele>2043.555</ele>
        <time>2022-01-23T10:41:36Z</time>
      </trkpt>
      <trkpt lat="44.9946" lon="6.46046">
        <ele>2042.886</ele>
        <time>2022-01-23T10:41:41Z</time>
      </trkpt>
      <trkpt lat="44.99461" lon="6.46046">
        <ele>2041.738</ele>
        <time>2022-01-23T10:41:46Z</time>
      </trkpt>
      <trkpt lat="44.99461" lon="6.46046">
        <ele>2041.516</ele>
        <time>2022-01-23T10:41:51Z</time>
      </trkpt>
      <trkpt lat="44.99461" lon="6.46046">
        <ele>2041.509</ele>
        <time>2022-01-23T10:41:56Z</time>
      </trkpt>
      <trkpt lat="44.99462" lon="6.46045">
        <ele>2041.53</ele>
        <time>2022-01-23T10:42:01Z</time>
      </trkpt>
      <trkpt lat="44.99462" lon="6.46044">
        <ele>2041.725</ele>
        <time>2022-01-23T10:42:06Z</time>
      </trkpt>
      <trkpt lat="44.99462" lon="6.46043">
        <ele>2041.671</ele>
        <time>2022-01-23T10:42:11Z</time>
      </trkpt>
      <trkpt lat="44.99463" lon="6.46041">
        <ele>2042.702</ele>
        <time>2022-01-23T10:42:16Z</time>
      </trkpt>
      <trkpt lat="44.99463" lon="6.4604">
        <ele>2044.049</ele>
        <time>2022-01-23T10:42:21Z</time>
      </trkpt>
      <trkpt lat="44.99464" lon="6.46039">
        <ele>2045.175</ele>
        <time>2022-01-23T10:42:26Z</time>
      </trkpt>
      <trkpt lat="44.99465" lon="6.46038">
        <ele>2044.203</ele>
        <time>2022-01-23T10:42:31Z</time>
      </trkpt>
      <trkpt lat="44.99465" lon="6.46038">
        <ele>2044.075</ele>
        <time>2022-01-23T10:42:36Z</time>
      </trkpt>
      <trkpt lat="44.99465" lon="6.46038">
        <ele>2044.077</ele>
        <time>2022-01-23T10:42:41Z</time>
      </trkpt>
      <trkpt lat="44.99466" lon="6.46037">
        <ele>2045.017</ele>
        <time>2022-01-23T10:42:46Z</time>
      </trkpt>
      <trkpt lat="44.99465" lon="6.46037">
        <ele>2045.591</ele>
        <time>2022-01-23T10:42:51Z</time>
      </trkpt>
      <trkpt lat="44.99464" lon="6.46037">
        <ele>2045.602</ele>
        <time>2022-01-23T10:42:56Z</time>
      </trkpt>
      <trkpt lat="44.99463" lon="6.46037">
        <ele>2045.495</ele>
        <time>2022-01-23T10:43:01Z</time>
      </trkpt>
      <trkpt lat="44.99463" lon="6.46037">
        <ele>2045.488</ele>
        <time>2022-01-23T10:43:06Z</time>
      </trkpt>
      <trkpt lat="44.9946" lon="6.46038">
        <ele>2047.648</ele>
        <time>2022-01-23T10:43:11Z</time>
      </trkpt>
      <trkpt lat="44.99458" lon="6.46038">
        <ele>2047.454</ele>
        <time>2022-01-23T10:43:16Z</time>
      </trkpt>
      <trkpt lat="44.99458" lon="6.46038">
        <ele>2050.067</ele>
        <time>2022-01-23T10:43:21Z</time>
      </trkpt>
      <trkpt lat="44.99456" lon="6.46038">
        <ele>2049.613</ele>
        <time>2022-01-23T10:43:26Z</time>
      </trkpt>
      <trkpt lat="44.99454" lon="6.46038">
        <ele>2050.841</ele>
        <time>2022-01-23T10:43:31Z</time>
      </trkpt>
      <trkpt lat="44.99454" lon="6.46037">
        <ele>2050.164</ele>
        <time>2022-01-23T10:43:36Z</time>
      </trkpt>
      <trkpt lat="44.99454" lon="6.46036">
        <ele>2050.103</ele>
        <time>2022-01-23T10:43:41Z</time>
      </trkpt>
      <trkpt lat="44.99454" lon="6.46035">
        <ele>2050.134</ele>
        <time>2022-01-23T10:43:46Z</time>
      </trkpt>
      <trkpt lat="44.99455" lon="6.46033">
        <ele>2051.991</ele>
        <time>2022-01-23T10:43:51Z</time>
      </trkpt>
      <trkpt lat="44.99456" lon="6.46032">
        <ele>2051.1</ele>
        <time>2022-01-23T10:43:56Z</time>
      </trkpt>
      <trkpt lat="44.99458" lon="6.46032">
        <ele>2052.667</ele>
        <time>2022-01-23T10:44:01Z</time>
      </trkpt>
      <trkpt lat="44.99459" lon="6.46032">
        <ele>2053.192</ele>
        <time>2022-01-23T10:44:06Z</time>
      </trkpt>
      <trkpt lat="44.99459" lon="6.4603">
        <ele>2052.18</ele>
        <time>2022-01-23T10:44:11Z</time>
      </trkpt>
      <trkpt lat="44.9946" lon="6.46029">
        <ele>2051.63</ele>
        <time>2022-01-23T10:44:16Z</time>
      </trkpt>
      <trkpt lat="44.99461" lon="6.46027">
        <ele>2051.374</ele>
        <time>2022-01-23T10:44:21Z</time>
      </trkpt>
      <trkpt lat="44.99459" lon="6.46025">
        <ele>2051.794</ele>
        <time>2022-01-23T10:44:26Z</time>
      </trkpt>
      <trkpt lat="44.99456" lon="6.46026">
        <ele>2052.189</ele>
        <time>2022-01-23T10:44:31Z</time>
      </trkpt>
      <trkpt lat="44.99453" lon="6.46025">
        <ele>2052.771</ele>
        <time>2022-01-23T10:44:36Z</time>
      </trkpt>
      <trkpt lat="44.9945" lon="6.46026">
        <ele>2054.042</ele>
        <time>2022-01-23T10:44:41Z</time>
      </trkpt>
      <trkpt lat="44.9945" lon="6.46027">
        <ele>2054.912</ele>
        <time>2022-01-23T10:44:46Z</time>
      </trkpt>
      <trkpt lat="44.99448" lon="6.46025">
        <ele>2057.278</ele>
        <time>2022-01-23T10:44:51Z</time>
      </trkpt>
      <trkpt lat="44.99447" lon="6.46026">
        <ele>2057.083</ele>
        <time>2022-01-23T10:44:56Z</time>
      </trkpt>
      <trkpt lat="44.99446" lon="6.46027">
        <ele>2058.703</ele>
        <time>2022-01-23T10:45:01Z</time>
      </trkpt>
      <trkpt lat="44.99446" lon="6.46027">
        <ele>2059.737</ele>
        <time>2022-01-23T10:45:06Z</time>
      </trkpt>
      <trkpt lat="44.99446" lon="6.46027">
        <ele>2059.868</ele>
        <time>2022-01-23T10:45:11Z</time>
      </trkpt>
      <trkpt lat="44.99446" lon="6.46027">
        <ele>2059.869</ele>
        <time>2022-01-23T10:45:16Z</time>
      </trkpt>
      <trkpt lat="44.99446" lon="6.46027">
        <ele>2059.917</ele>
        <time>2022-01-23T10:45:21Z</time>
      </trkpt>
      <trkpt lat="44.99445" lon="6.46027">
        <ele>2059.94</ele>
        <time>2022-01-23T10:45:26Z</time>
      </trkpt>
      <trkpt lat="44.99445" lon="6.46027">
        <ele>2059.953</ele>
        <time>2022-01-23T10:45:31Z</time>
      </trkpt>
      <trkpt lat="44.99444" lon="6.46027">
        <ele>2060.261</ele>
        <time>2022-01-23T10:45:37Z</time>
      </trkpt>
      <trkpt lat="44.99441" lon="6.46027">
        <ele>2061.939</ele>
        <time>2022-01-23T10:45:42Z</time>
      </trkpt>
      <trkpt lat="44.99439" lon="6.46026">
        <ele>2061.804</ele>
        <time>2022-01-23T10:45:47Z</time>
      </trkpt>
      <trkpt lat="44.99439" lon="6.46025">
        <ele>2062.624</ele>
        <time>2022-01-23T10:45:52Z</time>
      </trkpt>
      <trkpt lat="44.99439" lon="6.46025">
        <ele>2062.521</ele>
        <time>2022-01-23T10:45:57Z</time>
      </trkpt>
      <trkpt lat="44.99437" lon="6.46024">
        <ele>2062.436</ele>
        <time>2022-01-23T10:46:02Z</time>
      </trkpt>
      <trkpt lat="44.99436" lon="6.46023">
        <ele>2063.322</ele>
        <time>2022-01-23T10:46:07Z</time>
      </trkpt>
      <trkpt lat="44.99436" lon="6.46023">
        <ele>2063.404</ele>
        <time>2022-01-23T10:46:12Z</time>
      </trkpt>
      <trkpt lat="44.99436" lon="6.46023">
        <ele>2063.61</ele>
        <time>2022-01-23T10:46:17Z</time>
      </trkpt>
      <trkpt lat="44.99436" lon="6.46023">
        <ele>2063.471</ele>
        <time>2022-01-23T10:46:22Z</time>
      </trkpt>
      <trkpt lat="44.99436" lon="6.46023">
        <ele>2063.497</ele>
        <time>2022-01-23T10:46:27Z</time>
      </trkpt>
      <trkpt lat="44.99436" lon="6.46023">
        <ele>2063.498</ele>
        <time>2022-01-23T10:46:32Z</time>
      </trkpt>
      <trkpt lat="44.99436" lon="6.46023">
        <ele>2063.493</ele>
        <time>2022-01-23T10:46:37Z</time>
      </trkpt>
      <trkpt lat="44.99436" lon="6.46023">
        <ele>2063.495</ele>
        <time>2022-01-23T10:46:42Z</time>
      </trkpt>
      <trkpt lat="44.99437" lon="6.46022">
        <ele>2061.843</ele>
        <time>2022-01-23T10:46:47Z</time>
      </trkpt>
      <trkpt lat="44.99438" lon="6.46021">
        <ele>2062.412</ele>
        <time>2022-01-23T10:46:52Z</time>
      </trkpt>
      <trkpt lat="44.9944" lon="6.4602">
        <ele>2062.316</ele>
        <time>2022-01-23T10:46:57Z</time>
      </trkpt>
      <trkpt lat="44.99441" lon="6.46018">
        <ele>2062.162</ele>
        <time>2022-01-23T10:47:02Z</time>
      </trkpt>
      <trkpt lat="44.99441" lon="6.46016">
        <ele>2061.893</ele>
        <time>2022-01-23T10:47:07Z</time>
      </trkpt>
      <trkpt lat="44.99441" lon="6.46015">
        <ele>2062.037</ele>
        <time>2022-01-23T10:47:12Z</time>
      </trkpt>
      <trkpt lat="44.99442" lon="6.46016">
        <ele>2060.969</ele>
        <time>2022-01-23T10:47:17Z</time>
      </trkpt>
      <trkpt lat="44.99442" lon="6.46016">
        <ele>2061.44</ele>
        <time>2022-01-23T10:47:22Z</time>
      </trkpt>
      <trkpt lat="44.99443" lon="6.46016">
        <ele>2061.174</ele>
        <time>2022-01-23T10:47:27Z</time>
      </trkpt>
      <trkpt lat="44.99443" lon="6.46015">
        <ele>2060.577</ele>
        <time>2022-01-23T10:47:32Z</time>
      </trkpt>
      <trkpt lat="44.99444" lon="6.46014">
        <ele>2060.698</ele>
        <time>2022-01-23T10:47:37Z</time>
      </trkpt>
      <trkpt lat="44.99445" lon="6.46012">
        <ele>2061.808</ele>
        <time>2022-01-23T10:47:42Z</time>
      </trkpt>
      <trkpt lat="44.99445" lon="6.46012">
        <ele>2062.864</ele>
        <time>2022-01-23T10:47:47Z</time>
      </trkpt>
      <trkpt lat="44.99445" lon="6.4601">
        <ele>2062.915</ele>
        <time>2022-01-23T10:47:52Z</time>
      </trkpt>
      <trkpt lat="44.99445" lon="6.46011">
        <ele>2065.095</ele>
        <time>2022-01-23T10:47:57Z</time>
      </trkpt>
      <trkpt lat="44.99445" lon="6.46012">
        <ele>2065.111</ele>
        <time>2022-01-23T10:48:02Z</time>
      </trkpt>
      <trkpt lat="44.99445" lon="6.46012">
        <ele>2065.143</ele>
        <time>2022-01-23T10:48:07Z</time>
      </trkpt>
      <trkpt lat="44.99445" lon="6.46012">
        <ele>2065.166</ele>
        <time>2022-01-23T10:48:12Z</time>
      </trkpt>
      <trkpt lat="44.99445" lon="6.46012">
        <ele>2065.188</ele>
        <time>2022-01-23T10:48:17Z</time>
      </trkpt>
      <trkpt lat="44.99445" lon="6.46012">
        <ele>2065.182</ele>
        <time>2022-01-23T10:48:22Z</time>
      </trkpt>
      <trkpt lat="44.99445" lon="6.46012">
        <ele>2065.159</ele>
        <time>2022-01-23T10:48:27Z</time>
      </trkpt>
      <trkpt lat="44.99445" lon="6.46012">
        <ele>2065.121</ele>
        <time>2022-01-23T10:48:32Z</time>
      </trkpt>
      <trkpt lat="44.99444" lon="6.46012">
        <ele>2065.118</ele>
        <time>2022-01-23T10:48:37Z</time>
      </trkpt>
      <trkpt lat="44.99445" lon="6.46011">
        <ele>2066.12</ele>
        <time>2022-01-23T10:48:42Z</time>
      </trkpt>
      <trkpt lat="44.99446" lon="6.4601">
        <ele>2066.912</ele>
        <time>2022-01-23T10:48:47Z</time>
      </trkpt>
      <trkpt lat="44.99447" lon="6.46009">
        <ele>2067.807</ele>
        <time>2022-01-23T10:48:52Z</time>
      </trkpt>
      <trkpt lat="44.99447" lon="6.46008">
        <ele>2068.198</ele>
        <time>2022-01-23T10:48:57Z</time>
      </trkpt>
      <trkpt lat="44.99448" lon="6.46008">
        <ele>2068.262</ele>
        <time>2022-01-23T10:49:02Z</time>
      </trkpt>
      <trkpt lat="44.99449" lon="6.46007">
        <ele>2070.139</ele>
        <time>2022-01-23T10:49:07Z</time>
      </trkpt>
      <trkpt lat="44.99449" lon="6.46007">
        <ele>2071.185</ele>
        <time>2022-01-23T10:49:12Z</time>
      </trkpt>
      <trkpt lat="44.99448" lon="6.46007">
        <ele>2071.934</ele>
        <time>2022-01-23T10:49:17Z</time>
      </trkpt>
      <trkpt lat="44.99448" lon="6.46006">
        <ele>2072.482</ele>
        <time>2022-01-23T10:49:22Z</time>
      </trkpt>
      <trkpt lat="44.99447" lon="6.46006">
        <ele>2073.161</ele>
        <time>2022-01-23T10:49:27Z</time>
      </trkpt>
      <trkpt lat="44.99445" lon="6.46004">
        <ele>2073.738</ele>
        <time>2022-01-23T10:49:32Z</time>
      </trkpt>
      <trkpt lat="44.99444" lon="6.46004">
        <ele>2076.68</ele>
        <time>2022-01-23T10:49:37Z</time>
      </trkpt>
      <trkpt lat="44.99443" lon="6.46004">
        <ele>2077.244</ele>
        <time>2022-01-23T10:49:42Z</time>
      </trkpt>
      <trkpt lat="44.99441" lon="6.46006">
        <ele>2076.354</ele>
        <time>2022-01-23T10:49:47Z</time>
      </trkpt>
      <trkpt lat="44.99438" lon="6.46004">
        <ele>2075.832</ele>
        <time>2022-01-23T10:49:52Z</time>
      </trkpt>
      <trkpt lat="44.99437" lon="6.46004">
        <ele>2076.146</ele>
        <time>2022-01-23T10:49:57Z</time>
      </trkpt>
      <trkpt lat="44.99436" lon="6.46004">
        <ele>2076.947</ele>
        <time>2022-01-23T10:50:02Z</time>
      </trkpt>
      <trkpt lat="44.99435" lon="6.46005">
        <ele>2078.018</ele>
        <time>2022-01-23T10:50:07Z</time>
      </trkpt>
      <trkpt lat="44.99433" lon="6.46003">
        <ele>2078.616</ele>
        <time>2022-01-23T10:50:12Z</time>
      </trkpt>
      <trkpt lat="44.9943" lon="6.46001">
        <ele>2078.543</ele>
        <time>2022-01-23T10:50:17Z</time>
      </trkpt>
      <trkpt lat="44.99429" lon="6.46">
        <ele>2078.449</ele>
        <time>2022-01-23T10:50:22Z</time>
      </trkpt>
      <trkpt lat="44.99428" lon="6.46">
        <ele>2078.101</ele>
        <time>2022-01-23T10:50:27Z</time>
      </trkpt>
      <trkpt lat="44.99428" lon="6.45999">
        <ele>2079.251</ele>
        <time>2022-01-23T10:50:32Z</time>
      </trkpt>
      <trkpt lat="44.99427" lon="6.45999">
        <ele>2078.945</ele>
        <time>2022-01-23T10:50:37Z</time>
      </trkpt>
      <trkpt lat="44.99428" lon="6.46">
        <ele>2079.46</ele>
        <time>2022-01-23T10:50:42Z</time>
      </trkpt>
      <trkpt lat="44.99428" lon="6.46">
        <ele>2079.471</ele>
        <time>2022-01-23T10:50:47Z</time>
      </trkpt>
      <trkpt lat="44.99425" lon="6.46">
        <ele>2079.676</ele>
        <time>2022-01-23T10:50:52Z</time>
      </trkpt>
      <trkpt lat="44.99423" lon="6.45998">
        <ele>2078.924</ele>
        <time>2022-01-23T10:50:57Z</time>
      </trkpt>
      <trkpt lat="44.99423" lon="6.45997">
        <ele>2077.213</ele>
        <time>2022-01-23T10:51:02Z</time>
      </trkpt>
      <trkpt lat="44.99423" lon="6.45994">
        <ele>2074.177</ele>
        <time>2022-01-23T10:51:07Z</time>
      </trkpt>
      <trkpt lat="44.99422" lon="6.45994">
        <ele>2074.802</ele>
        <time>2022-01-23T10:51:12Z</time>
      </trkpt>
      <trkpt lat="44.99422" lon="6.45993">
        <ele>2073.625</ele>
        <time>2022-01-23T10:51:17Z</time>
      </trkpt>
      <trkpt lat="44.99421" lon="6.45994">
        <ele>2073.819</ele>
        <time>2022-01-23T10:51:22Z</time>
      </trkpt>
      <trkpt lat="44.99421" lon="6.45994">
        <ele>2073.237</ele>
        <time>2022-01-23T10:51:27Z</time>
      </trkpt>
      <trkpt lat="44.99421" lon="6.45994">
        <ele>2073.523</ele>
        <time>2022-01-23T10:51:32Z</time>
      </trkpt>
      <trkpt lat="44.99421" lon="6.45994">
        <ele>2073.509</ele>
        <time>2022-01-23T10:51:37Z</time>
      </trkpt>
      <trkpt lat="44.9942" lon="6.45995">
        <ele>2074.011</ele>
        <time>2022-01-23T10:51:42Z</time>
      </trkpt>
      <trkpt lat="44.99419" lon="6.45994">
        <ele>2073.141</ele>
        <time>2022-01-23T10:51:47Z</time>
      </trkpt>
      <trkpt lat="44.99418" lon="6.45993">
        <ele>2073.793</ele>
        <time>2022-01-23T10:51:52Z</time>
      </trkpt>
      <trkpt lat="44.99415" lon="6.45991">
        <ele>2075.567</ele>
        <time>2022-01-23T10:51:57Z</time>
      </trkpt>
      <trkpt lat="44.99414" lon="6.45991">
        <ele>2076.301</ele>
        <time>2022-01-23T10:52:02Z</time>
      </trkpt>
      <trkpt lat="44.99414" lon="6.45991">
        <ele>2075.745</ele>
        <time>2022-01-23T10:52:07Z</time>
      </trkpt>
      <trkpt lat="44.99415" lon="6.45991">
        <ele>2075.622</ele>
        <time>2022-01-23T10:52:12Z</time>
      </trkpt>
      <trkpt lat="44.99417" lon="6.45991">
        <ele>2076.524</ele>
        <time>2022-01-23T10:52:17Z</time>
      </trkpt>
      <trkpt lat="44.99418" lon="6.4599">
        <ele>2076.784</ele>
        <time>2022-01-23T10:52:22Z</time>
      </trkpt>
      <trkpt lat="44.99419" lon="6.45989">
        <ele>2077.149</ele>
        <time>2022-01-23T10:52:27Z</time>
      </trkpt>
      <trkpt lat="44.9942" lon="6.45988">
        <ele>2077.098</ele>
        <time>2022-01-23T10:52:32Z</time>
      </trkpt>
      <trkpt lat="44.99421" lon="6.45988">
        <ele>2079.067</ele>
        <time>2022-01-23T10:52:37Z</time>
      </trkpt>
      <trkpt lat="44.99421" lon="6.45988">
        <ele>2078.773</ele>
        <time>2022-01-23T10:52:42Z</time>
      </trkpt>
      <trkpt lat="44.99421" lon="6.45989">
        <ele>2078.684</ele>
        <time>2022-01-23T10:52:47Z</time>
      </trkpt>
      <trkpt lat="44.99422" lon="6.45988">
        <ele>2078.492</ele>
        <time>2022-01-23T10:52:52Z</time>
      </trkpt>
      <trkpt lat="44.99422" lon="6.45986">
        <ele>2079.193</ele>
        <time>2022-01-23T10:52:57Z</time>
      </trkpt>
      <trkpt lat="44.99421" lon="6.45986">
        <ele>2079.266</ele>
        <time>2022-01-23T10:53:02Z</time>
      </trkpt>
      <trkpt lat="44.99421" lon="6.45986">
        <ele>2079.12</ele>
        <time>2022-01-23T10:53:07Z</time>
      </trkpt>
      <trkpt lat="44.99423" lon="6.45985">
        <ele>2080.79</ele>
        <time>2022-01-23T10:53:12Z</time>
      </trkpt>
      <trkpt lat="44.99425" lon="6.45986">
        <ele>2082.365</ele>
        <time>2022-01-23T10:53:17Z</time>
      </trkpt>
      <trkpt lat="44.99426" lon="6.45985">
        <ele>2082.587</ele>
        <time>2022-01-23T10:53:22Z</time>
      </trkpt>
      <trkpt lat="44.99427" lon="6.45984">
        <ele>2082.522</ele>
        <time>2022-01-23T10:53:27Z</time>
      </trkpt>
      <trkpt lat="44.99427" lon="6.45983">
        <ele>2082.692</ele>
        <time>2022-01-23T10:53:32Z</time>
      </trkpt>
      <trkpt lat="44.99428" lon="6.45982">
        <ele>2082.746</ele>
        <time>2022-01-23T10:53:37Z</time>
      </trkpt>
      <trkpt lat="44.99429" lon="6.45981">
        <ele>2083.223</ele>
        <time>2022-01-23T10:53:42Z</time>
      </trkpt>
      <trkpt lat="44.99429" lon="6.45981">
        <ele>2083.322</ele>
        <time>2022-01-23T10:53:47Z</time>
      </trkpt>
      <trkpt lat="44.99429" lon="6.45981">
        <ele>2083.367</ele>
        <time>2022-01-23T10:53:52Z</time>
      </trkpt>
      <trkpt lat="44.99429" lon="6.45981">
        <ele>2083.397</ele>
        <time>2022-01-23T10:53:57Z</time>
      </trkpt>
      <trkpt lat="44.99429" lon="6.45981">
        <ele>2083.405</ele>
        <time>2022-01-23T10:54:02Z</time>
      </trkpt>
      <trkpt lat="44.99429" lon="6.45981">
        <ele>2085.081</ele>
        <time>2022-01-23T10:54:07Z</time>
      </trkpt>
      <trkpt lat="44.99429" lon="6.45982">
        <ele>2087.243</ele>
        <time>2022-01-23T10:54:12Z</time>
      </trkpt>
      <trkpt lat="44.99429" lon="6.45982">
        <ele>2089.003</ele>
        <time>2022-01-23T10:54:17Z</time>
      </trkpt>
      <trkpt lat="44.99429" lon="6.45981">
        <ele>2088.566</ele>
        <time>2022-01-23T10:54:22Z</time>
      </trkpt>
      <trkpt lat="44.9943" lon="6.4598">
        <ele>2089.223</ele>
        <time>2022-01-23T10:54:27Z</time>
      </trkpt>
      <trkpt lat="44.99431" lon="6.45978">
        <ele>2089.928</ele>
        <time>2022-01-23T10:54:32Z</time>
      </trkpt>
      <trkpt lat="44.99433" lon="6.45976">
        <ele>2090.454</ele>
        <time>2022-01-23T10:54:37Z</time>
      </trkpt>
      <trkpt lat="44.99433" lon="6.45976">
        <ele>2090.78</ele>
        <time>2022-01-23T10:54:42Z</time>
      </trkpt>
      <trkpt lat="44.99433" lon="6.45974">
        <ele>2089.737</ele>
        <time>2022-01-23T10:54:47Z</time>
      </trkpt>
      <trkpt lat="44.99433" lon="6.45972">
        <ele>2090.306</ele>
        <time>2022-01-23T10:54:52Z</time>
      </trkpt>
      <trkpt lat="44.99435" lon="6.45971">
        <ele>2090.036</ele>
        <time>2022-01-23T10:54:57Z</time>
      </trkpt>
      <trkpt lat="44.99436" lon="6.45968">
        <ele>2090.144</ele>
        <time>2022-01-23T10:55:02Z</time>
      </trkpt>
      <trkpt lat="44.99437" lon="6.45968">
        <ele>2092.411</ele>
        <time>2022-01-23T10:55:07Z</time>
      </trkpt>
      <trkpt lat="44.99437" lon="6.45968">
        <ele>2092.923</ele>
        <time>2022-01-23T10:55:12Z</time>
      </trkpt>
      <trkpt lat="44.99438" lon="6.45967">
        <ele>2093.26</ele>
        <time>2022-01-23T10:55:17Z</time>
      </trkpt>
      <trkpt lat="44.9944" lon="6.45965">
        <ele>2093.262</ele>
        <time>2022-01-23T10:55:22Z</time>
      </trkpt>
      <trkpt lat="44.9944" lon="6.45963">
        <ele>2092.802</ele>
        <time>2022-01-23T10:55:27Z</time>
      </trkpt>
      <trkpt lat="44.99442" lon="6.45962">
        <ele>2094.654</ele>
        <time>2022-01-23T10:55:32Z</time>
      </trkpt>
      <trkpt lat="44.99442" lon="6.45961">
        <ele>2094.331</ele>
        <time>2022-01-23T10:55:37Z</time>
      </trkpt>
      <trkpt lat="44.99443" lon="6.45959">
        <ele>2094.847</ele>
        <time>2022-01-23T10:55:42Z</time>
      </trkpt>
      <trkpt lat="44.99444" lon="6.45958">
        <ele>2096.055</ele>
        <time>2022-01-23T10:55:47Z</time>
      </trkpt>
      <trkpt lat="44.99444" lon="6.45958">
        <ele>2095.857</ele>
        <time>2022-01-23T10:55:52Z</time>
      </trkpt>
      <trkpt lat="44.99444" lon="6.45957">
        <ele>2095.92</ele>
        <time>2022-01-23T10:55:57Z</time>
      </trkpt>
      <trkpt lat="44.99445" lon="6.45957">
        <ele>2095.93</ele>
        <time>2022-01-23T10:56:02Z</time>
      </trkpt>
      <trkpt lat="44.99445" lon="6.45957">
        <ele>2096.032</ele>
        <time>2022-01-23T10:56:07Z</time>
      </trkpt>
      <trkpt lat="44.99445" lon="6.45957">
        <ele>2096.027</ele>
        <time>2022-01-23T10:56:12Z</time>
      </trkpt>
      <trkpt lat="44.99445" lon="6.45957">
        <ele>2096.019</ele>
        <time>2022-01-23T10:56:17Z</time>
      </trkpt>
      <trkpt lat="44.99445" lon="6.45955">
        <ele>2096.451</ele>
        <time>2022-01-23T10:56:22Z</time>
      </trkpt>
      <trkpt lat="44.99446" lon="6.45954">
        <ele>2097.008</ele>
        <time>2022-01-23T10:56:27Z</time>
      </trkpt>
      <trkpt lat="44.99446" lon="6.45953">
        <ele>2096.73</ele>
        <time>2022-01-23T10:56:32Z</time>
      </trkpt>
      <trkpt lat="44.99446" lon="6.45953">
        <ele>2096.518</ele>
        <time>2022-01-23T10:56:37Z</time>
      </trkpt>
      <trkpt lat="44.99447" lon="6.45954">
        <ele>2097.503</ele>
        <time>2022-01-23T10:56:42Z</time>
      </trkpt>
      <trkpt lat="44.99448" lon="6.45952">
        <ele>2097.298</ele>
        <time>2022-01-23T10:56:47Z</time>
      </trkpt>
      <trkpt lat="44.99448" lon="6.4595">
        <ele>2097.623</ele>
        <time>2022-01-23T10:56:52Z</time>
      </trkpt>
      <trkpt lat="44.99449" lon="6.45952">
        <ele>2098.152</ele>
        <time>2022-01-23T10:56:57Z</time>
      </trkpt>
      <trkpt lat="44.99449" lon="6.45952">
        <ele>2097.79</ele>
        <time>2022-01-23T10:57:02Z</time>
      </trkpt>
      <trkpt lat="44.99449" lon="6.45951">
        <ele>2098.283</ele>
        <time>2022-01-23T10:57:07Z</time>
      </trkpt>
      <trkpt lat="44.99449" lon="6.45952">
        <ele>2099.038</ele>
        <time>2022-01-23T10:57:12Z</time>
      </trkpt>
      <trkpt lat="44.99449" lon="6.45952">
        <ele>2099.265</ele>
        <time>2022-01-23T10:57:17Z</time>
      </trkpt>
      <trkpt lat="44.99449" lon="6.45951">
        <ele>2100.158</ele>
        <time>2022-01-23T10:57:22Z</time>
      </trkpt>
      <trkpt lat="44.99448" lon="6.45949">
        <ele>2100.209</ele>
        <time>2022-01-23T10:57:27Z</time>
      </trkpt>
      <trkpt lat="44.99447" lon="6.45949">
        <ele>2101.017</ele>
        <time>2022-01-23T10:57:32Z</time>
      </trkpt>
      <trkpt lat="44.99447" lon="6.45949">
        <ele>2101.838</ele>
        <time>2022-01-23T10:57:37Z</time>
      </trkpt>
      <trkpt lat="44.99447" lon="6.45949">
        <ele>2101.857</ele>
        <time>2022-01-23T10:57:42Z</time>
      </trkpt>
      <trkpt lat="44.99447" lon="6.45949">
        <ele>2101.848</ele>
        <time>2022-01-23T10:57:47Z</time>
      </trkpt>
      <trkpt lat="44.99447" lon="6.45949">
        <ele>2101.849</ele>
        <time>2022-01-23T10:57:52Z</time>
      </trkpt>
      <trkpt lat="44.99447" lon="6.45949">
        <ele>2101.837</ele>
        <time>2022-01-23T10:57:57Z</time>
      </trkpt>
      <trkpt lat="44.99443" lon="6.45947">
        <ele>2102.048</ele>
        <time>2022-01-23T10:58:02Z</time>
      </trkpt>
      <trkpt lat="44.99443" lon="6.45946">
        <ele>2102.146</ele>
        <time>2022-01-23T10:58:07Z</time>
      </trkpt>
      <trkpt lat="44.99442" lon="6.45946">
        <ele>2102.356</ele>
        <time>2022-01-23T10:58:12Z</time>
      </trkpt>
      <trkpt lat="44.99442" lon="6.45946">
        <ele>2102.485</ele>
        <time>2022-01-23T10:58:17Z</time>
      </trkpt>
      <trkpt lat="44.99441" lon="6.45945">
        <ele>2100.598</ele>
        <time>2022-01-23T10:58:22Z</time>
      </trkpt>
      <trkpt lat="44.99439" lon="6.45945">
        <ele>2102.097</ele>
        <time>2022-01-23T10:58:27Z</time>
      </trkpt>
      <trkpt lat="44.99439" lon="6.45946">
        <ele>2102.754</ele>
        <time>2022-01-23T10:58:32Z</time>
      </trkpt>
      <trkpt lat="44.99439" lon="6.45947">
        <ele>2103.368</ele>
        <time>2022-01-23T10:58:37Z</time>
      </trkpt>
      <trkpt lat="44.99439" lon="6.45948">
        <ele>2103.366</ele>
        <time>2022-01-23T10:58:42Z</time>
      </trkpt>
      <trkpt lat="44.99439" lon="6.45948">
        <ele>2103.366</ele>
        <time>2022-01-23T10:58:47Z</time>
      </trkpt>
      <trkpt lat="44.99439" lon="6.45948">
        <ele>2103.37</ele>
        <time>2022-01-23T10:58:52Z</time>
      </trkpt>
      <trkpt lat="44.99439" lon="6.45948">
        <ele>2103.343</ele>
        <time>2022-01-23T10:58:57Z</time>
      </trkpt>
      <trkpt lat="44.99439" lon="6.45948">
        <ele>2103.346</ele>
        <time>2022-01-23T10:59:02Z</time>
      </trkpt>
      <trkpt lat="44.99437" lon="6.45948">
        <ele>2106.057</ele>
        <time>2022-01-23T10:59:07Z</time>
      </trkpt>
      <trkpt lat="44.99437" lon="6.45948">
        <ele>2105.115</ele>
        <time>2022-01-23T10:59:12Z</time>
      </trkpt>
      <trkpt lat="44.99438" lon="6.45946">
        <ele>2104.243</ele>
        <time>2022-01-23T10:59:17Z</time>
      </trkpt>
      <trkpt lat="44.99438" lon="6.45945">
        <ele>2105.129</ele>
        <time>2022-01-23T10:59:22Z</time>
      </trkpt>
      <trkpt lat="44.99438" lon="6.45945">
        <ele>2105.28</ele>
        <time>2022-01-23T10:59:27Z</time>
      </trkpt>
      <trkpt lat="44.99439" lon="6.45943">
        <ele>2105.229</ele>
        <time>2022-01-23T10:59:32Z</time>
      </trkpt>
      <trkpt lat="44.99439" lon="6.45943">
        <ele>2105.45</ele>
        <time>2022-01-23T10:59:37Z</time>
      </trkpt>
      <trkpt lat="44.99439" lon="6.45942">
        <ele>2106.178</ele>
        <time>2022-01-23T10:59:42Z</time>
      </trkpt>
      <trkpt lat="44.9944" lon="6.45941">
        <ele>2106.056</ele>
        <time>2022-01-23T10:59:47Z</time>
      </trkpt>
      <trkpt lat="44.9944" lon="6.45941">
        <ele>2106.536</ele>
        <time>2022-01-23T10:59:52Z</time>
      </trkpt>
      <trkpt lat="44.9944" lon="6.4594">
        <ele>2107.267</ele>
        <time>2022-01-23T10:59:57Z</time>
      </trkpt>
      <trkpt lat="44.9944" lon="6.4594">
        <ele>2107.648</ele>
        <time>2022-01-23T11:00:02Z</time>
      </trkpt>
      <trkpt lat="44.99441" lon="6.45939">
        <ele>2107.295</ele>
        <time>2022-01-23T11:00:07Z</time>
      </trkpt>
      <trkpt lat="44.99442" lon="6.45937">
        <ele>2106.725</ele>
        <time>2022-01-23T11:00:12Z</time>
      </trkpt>
      <trkpt lat="44.99443" lon="6.45936">
        <ele>2105.487</ele>
        <time>2022-01-23T11:00:17Z</time>
      </trkpt>
      <trkpt lat="44.99443" lon="6.45934">
        <ele>2105.365</ele>
        <time>2022-01-23T11:00:22Z</time>
      </trkpt>
      <trkpt lat="44.99444" lon="6.45933">
        <ele>2105.953</ele>
        <time>2022-01-23T11:00:27Z</time>
      </trkpt>
      <trkpt lat="44.99442" lon="6.45934">
        <ele>2106.789</ele>
        <time>2022-01-23T11:00:32Z</time>
      </trkpt>
      <trkpt lat="44.9944" lon="6.45933">
        <ele>2108.247</ele>
        <time>2022-01-23T11:00:37Z</time>
      </trkpt>
      <trkpt lat="44.99438" lon="6.45934">
        <ele>2110.1</ele>
        <time>2022-01-23T11:00:42Z</time>
      </trkpt>
      <trkpt lat="44.99436" lon="6.45935">
        <ele>2110.971</ele>
        <time>2022-01-23T11:00:47Z</time>
      </trkpt>
      <trkpt lat="44.99433" lon="6.45934">
        <ele>2113.091</ele>
        <time>2022-01-23T11:00:52Z</time>
      </trkpt>
      <trkpt lat="44.99431" lon="6.45934">
        <ele>2113.821</ele>
        <time>2022-01-23T11:00:57Z</time>
      </trkpt>
      <trkpt lat="44.99429" lon="6.45934">
        <ele>2114.649</ele>
        <time>2022-01-23T11:01:02Z</time>
      </trkpt>
      <trkpt lat="44.99429" lon="6.45934">
        <ele>2115.071</ele>
        <time>2022-01-23T11:01:07Z</time>
      </trkpt>
      <trkpt lat="44.9943" lon="6.45935">
        <ele>2114.522</ele>
        <time>2022-01-23T11:01:12Z</time>
      </trkpt>
      <trkpt lat="44.99432" lon="6.45934">
        <ele>2112.383</ele>
        <time>2022-01-23T11:01:17Z</time>
      </trkpt>
      <trkpt lat="44.99432" lon="6.45932">
        <ele>2112.706</ele>
        <time>2022-01-23T11:01:22Z</time>
      </trkpt>
      <trkpt lat="44.99431" lon="6.4593">
        <ele>2112.844</ele>
        <time>2022-01-23T11:01:27Z</time>
      </trkpt>
      <trkpt lat="44.99432" lon="6.4593">
        <ele>2113.203</ele>
        <time>2022-01-23T11:01:32Z</time>
      </trkpt>
      <trkpt lat="44.9943" lon="6.45929">
        <ele>2115.998</ele>
        <time>2022-01-23T11:01:37Z</time>
      </trkpt>
      <trkpt lat="44.99429" lon="6.45929">
        <ele>2117.321</ele>
        <time>2022-01-23T11:01:42Z</time>
      </trkpt>
      <trkpt lat="44.99427" lon="6.45929">
        <ele>2118.074</ele>
        <time>2022-01-23T11:01:47Z</time>
      </trkpt>
      <trkpt lat="44.99427" lon="6.45929">
        <ele>2118.92</ele>
        <time>2022-01-23T11:01:52Z</time>
      </trkpt>
      <trkpt lat="44.99426" lon="6.45929">
        <ele>2119.998</ele>
        <time>2022-01-23T11:01:57Z</time>
      </trkpt>
      <trkpt lat="44.99424" lon="6.45929">
        <ele>2119.33</ele>
        <time>2022-01-23T11:02:02Z</time>
      </trkpt>
      <trkpt lat="44.99421" lon="6.45929">
        <ele>2119.834</ele>
        <time>2022-01-23T11:02:07Z</time>
      </trkpt>
      <trkpt lat="44.9942" lon="6.45929">
        <ele>2120.427</ele>
        <time>2022-01-23T11:02:12Z</time>
      </trkpt>
      <trkpt lat="44.99419" lon="6.45928">
        <ele>2119.635</ele>
        <time>2022-01-23T11:02:17Z</time>
      </trkpt>
      <trkpt lat="44.9942" lon="6.45927">
        <ele>2118.895</ele>
        <time>2022-01-23T11:02:22Z</time>
      </trkpt>
      <trkpt lat="44.99422" lon="6.45924">
        <ele>2117.829</ele>
        <time>2022-01-23T11:02:27Z</time>
      </trkpt>
      <trkpt lat="44.99423" lon="6.45921">
        <ele>2118.194</ele>
        <time>2022-01-23T11:02:32Z</time>
      </trkpt>
      <trkpt lat="44.99425" lon="6.45921">
        <ele>2117.948</ele>
        <time>2022-01-23T11:02:37Z</time>
      </trkpt>
      <trkpt lat="44.99426" lon="6.45922">
        <ele>2118.323</ele>
        <time>2022-01-23T11:02:42Z</time>
      </trkpt>
      <trkpt lat="44.99426" lon="6.45922">
        <ele>2118.403</ele>
        <time>2022-01-23T11:02:47Z</time>
      </trkpt>
      <trkpt lat="44.99426" lon="6.45922">
        <ele>2119.13</ele>
        <time>2022-01-23T11:02:52Z</time>
      </trkpt>
      <trkpt lat="44.99426" lon="6.45922">
        <ele>2119.255</ele>
        <time>2022-01-23T11:02:57Z</time>
      </trkpt>
      <trkpt lat="44.99426" lon="6.45921">
        <ele>2118.845</ele>
        <time>2022-01-23T11:03:02Z</time>
      </trkpt>
      <trkpt lat="44.99427" lon="6.4592">
        <ele>2119.054</ele>
        <time>2022-01-23T11:03:07Z</time>
      </trkpt>
      <trkpt lat="44.99428" lon="6.45919">
        <ele>2119.705</ele>
        <time>2022-01-23T11:03:12Z</time>
      </trkpt>
      <trkpt lat="44.9943" lon="6.45917">
        <ele>2118.856</ele>
        <time>2022-01-23T11:03:17Z</time>
      </trkpt>
      <trkpt lat="44.99431" lon="6.45916">
        <ele>2119.672</ele>
        <time>2022-01-23T11:03:22Z</time>
      </trkpt>
      <trkpt lat="44.99431" lon="6.45916">
        <ele>2120.682</ele>
        <time>2022-01-23T11:03:27Z</time>
      </trkpt>
      <trkpt lat="44.99431" lon="6.45916">
        <ele>2120.504</ele>
        <time>2022-01-23T11:03:32Z</time>
      </trkpt>
      <trkpt lat="44.99431" lon="6.45916">
        <ele>2121.842</ele>
        <time>2022-01-23T11:03:37Z</time>
      </trkpt>
      <trkpt lat="44.99431" lon="6.45915">
        <ele>2122.114</ele>
        <time>2022-01-23T11:03:42Z</time>
      </trkpt>
      <trkpt lat="44.99433" lon="6.45913">
        <ele>2123.253</ele>
        <time>2022-01-23T11:03:47Z</time>
      </trkpt>
      <trkpt lat="44.99434" lon="6.45911">
        <ele>2123.062</ele>
        <time>2022-01-23T11:03:52Z</time>
      </trkpt>
      <trkpt lat="44.99434" lon="6.45909">
        <ele>2123.324</ele>
        <time>2022-01-23T11:03:57Z</time>
      </trkpt>
      <trkpt lat="44.99436" lon="6.45907">
        <ele>2122.732</ele>
        <time>2022-01-23T11:04:02Z</time>
      </trkpt>
      <trkpt lat="44.99438" lon="6.45905">
        <ele>2124.186</ele>
        <time>2022-01-23T11:04:07Z</time>
      </trkpt>
      <trkpt lat="44.99439" lon="6.45904">
        <ele>2123.982</ele>
        <time>2022-01-23T11:04:12Z</time>
      </trkpt>
      <trkpt lat="44.99441" lon="6.45902">
        <ele>2124.057</ele>
        <time>2022-01-23T11:04:17Z</time>
      </trkpt>
      <trkpt lat="44.99442" lon="6.45901">
        <ele>2124.822</ele>
        <time>2022-01-23T11:04:22Z</time>
      </trkpt>
      <trkpt lat="44.99442" lon="6.45901">
        <ele>2125.628</ele>
        <time>2022-01-23T11:04:27Z</time>
      </trkpt>
      <trkpt lat="44.99442" lon="6.45901">
        <ele>2126.192</ele>
        <time>2022-01-23T11:04:32Z</time>
      </trkpt>
      <trkpt lat="44.99442" lon="6.45901">
        <ele>2127.638</ele>
        <time>2022-01-23T11:04:37Z</time>
      </trkpt>
      <trkpt lat="44.99444" lon="6.459">
        <ele>2128.435</ele>
        <time>2022-01-23T11:04:42Z</time>
      </trkpt>
      <trkpt lat="44.99445" lon="6.45898">
        <ele>2127.369</ele>
        <time>2022-01-23T11:04:47Z</time>
      </trkpt>
      <trkpt lat="44.99445" lon="6.45897">
        <ele>2127.444</ele>
        <time>2022-01-23T11:04:52Z</time>
      </trkpt>
      <trkpt lat="44.99446" lon="6.45894">
        <ele>2127.435</ele>
        <time>2022-01-23T11:04:57Z</time>
      </trkpt>
      <trkpt lat="44.99447" lon="6.45893">
        <ele>2126.546</ele>
        <time>2022-01-23T11:05:02Z</time>
      </trkpt>
      <trkpt lat="44.99447" lon="6.45893">
        <ele>2126.996</ele>
        <time>2022-01-23T11:05:07Z</time>
      </trkpt>
      <trkpt lat="44.99448" lon="6.45892">
        <ele>2127.18</ele>
        <time>2022-01-23T11:05:12Z</time>
      </trkpt>
      <trkpt lat="44.99449" lon="6.4589">
        <ele>2128.037</ele>
        <time>2022-01-23T11:05:17Z</time>
      </trkpt>
      <trkpt lat="44.99449" lon="6.45889">
        <ele>2128.911</ele>
        <time>2022-01-23T11:05:22Z</time>
      </trkpt>
      <trkpt lat="44.99449" lon="6.45889">
        <ele>2129.821</ele>
        <time>2022-01-23T11:05:27Z</time>
      </trkpt>
      <trkpt lat="44.99448" lon="6.45889">
        <ele>2129.915</ele>
        <time>2022-01-23T11:05:32Z</time>
      </trkpt>
      <trkpt lat="44.99448" lon="6.45889">
        <ele>2129.918</ele>
        <time>2022-01-23T11:05:37Z</time>
      </trkpt>
      <trkpt lat="44.99448" lon="6.45889">
        <ele>2129.913</ele>
        <time>2022-01-23T11:05:42Z</time>
      </trkpt>
      <trkpt lat="44.99448" lon="6.45889">
        <ele>2129.927</ele>
        <time>2022-01-23T11:05:47Z</time>
      </trkpt>
      <trkpt lat="44.99448" lon="6.45889">
        <ele>2129.927</ele>
        <time>2022-01-23T11:05:52Z</time>
      </trkpt>
      <trkpt lat="44.99448" lon="6.45889">
        <ele>2129.936</ele>
        <time>2022-01-23T11:05:57Z</time>
      </trkpt>
      <trkpt lat="44.99447" lon="6.45889">
        <ele>2131.472</ele>
        <time>2022-01-23T11:06:02Z</time>
      </trkpt>
      <trkpt lat="44.99446" lon="6.45889">
        <ele>2132.605</ele>
        <time>2022-01-23T11:06:07Z</time>
      </trkpt>
      <trkpt lat="44.99446" lon="6.4589">
        <ele>2134.295</ele>
        <time>2022-01-23T11:06:12Z</time>
      </trkpt>
      <trkpt lat="44.99446" lon="6.4589">
        <ele>2134.51</ele>
        <time>2022-01-23T11:06:17Z</time>
      </trkpt>
      <trkpt lat="44.99442" lon="6.45892">
        <ele>2135.045</ele>
        <time>2022-01-23T11:06:22Z</time>
      </trkpt>
      <trkpt lat="44.99439" lon="6.45892">
        <ele>2137.156</ele>
        <time>2022-01-23T11:06:27Z</time>
      </trkpt>
      <trkpt lat="44.99436" lon="6.45892">
        <ele>2137.457</ele>
        <time>2022-01-23T11:06:32Z</time>
      </trkpt>
      <trkpt lat="44.99433" lon="6.45892">
        <ele>2138.418</ele>
        <time>2022-01-23T11:06:37Z</time>
      </trkpt>
      <trkpt lat="44.99432" lon="6.45892">
        <ele>2137.81</ele>
        <time>2022-01-23T11:06:42Z</time>
      </trkpt>
      <trkpt lat="44.99433" lon="6.45893">
        <ele>2138.096</ele>
        <time>2022-01-23T11:06:47Z</time>
      </trkpt>
      <trkpt lat="44.99432" lon="6.45893">
        <ele>2139.028</ele>
        <time>2022-01-23T11:06:52Z</time>
      </trkpt>
      <trkpt lat="44.99432" lon="6.45893">
        <ele>2139.266</ele>
        <time>2022-01-23T11:06:57Z</time>
      </trkpt>
      <trkpt lat="44.99429" lon="6.45889">
        <ele>2139.786</ele>
        <time>2022-01-23T11:07:02Z</time>
      </trkpt>
      <trkpt lat="44.9943" lon="6.45891">
        <ele>2138.632</ele>
        <time>2022-01-23T11:07:07Z</time>
      </trkpt>
      <trkpt lat="44.9943" lon="6.45892">
        <ele>2138.144</ele>
        <time>2022-01-23T11:07:12Z</time>
      </trkpt>
      <trkpt lat="44.99431" lon="6.45892">
        <ele>2137.842</ele>
        <time>2022-01-23T11:07:17Z</time>
      </trkpt>
      <trkpt lat="44.9943" lon="6.45892">
        <ele>2138.298</ele>
        <time>2022-01-23T11:07:22Z</time>
      </trkpt>
      <trkpt lat="44.9943" lon="6.45891">
        <ele>2139.346</ele>
        <time>2022-01-23T11:07:27Z</time>
      </trkpt>
      <trkpt lat="44.99429" lon="6.4589">
        <ele>2138.531</ele>
        <time>2022-01-23T11:07:32Z</time>
      </trkpt>
      <trkpt lat="44.9943" lon="6.45889">
        <ele>2140.153</ele>
        <time>2022-01-23T11:07:37Z</time>
      </trkpt>
      <trkpt lat="44.99429" lon="6.45889">
        <ele>2139.349</ele>
        <time>2022-01-23T11:07:42Z</time>
      </trkpt>
      <trkpt lat="44.99429" lon="6.4589">
        <ele>2140.442</ele>
        <time>2022-01-23T11:07:47Z</time>
      </trkpt>
      <trkpt lat="44.9943" lon="6.4589">
        <ele>2142.021</ele>
        <time>2022-01-23T11:07:52Z</time>
      </trkpt>
      <trkpt lat="44.99431" lon="6.45889">
        <ele>2142.96</ele>
        <time>2022-01-23T11:07:57Z</time>
      </trkpt>
      <trkpt lat="44.9943" lon="6.45889">
        <ele>2142.755</ele>
        <time>2022-01-23T11:08:02Z</time>
      </trkpt>
      <trkpt lat="44.99429" lon="6.45888">
        <ele>2142.452</ele>
        <time>2022-01-23T11:08:07Z</time>
      </trkpt>
      <trkpt lat="44.99429" lon="6.45888">
        <ele>2142.571</ele>
        <time>2022-01-23T11:08:13Z</time>
      </trkpt>
      <trkpt lat="44.99428" lon="6.45888">
        <ele>2143.573</ele>
        <time>2022-01-23T11:08:18Z</time>
      </trkpt>
      <trkpt lat="44.99429" lon="6.45889">
        <ele>2144.151</ele>
        <time>2022-01-23T11:08:23Z</time>
      </trkpt>
      <trkpt lat="44.99429" lon="6.45888">
        <ele>2143.772</ele>
        <time>2022-01-23T11:08:28Z</time>
      </trkpt>
      <trkpt lat="44.99429" lon="6.45888">
        <ele>2143.435</ele>
        <time>2022-01-23T11:08:33Z</time>
      </trkpt>
      <trkpt lat="44.99429" lon="6.45888">
        <ele>2143.09</ele>
        <time>2022-01-23T11:08:38Z</time>
      </trkpt>
      <trkpt lat="44.99429" lon="6.45887">
        <ele>2142.356</ele>
        <time>2022-01-23T11:08:43Z</time>
      </trkpt>
      <trkpt lat="44.99429" lon="6.45887">
        <ele>2141.102</ele>
        <time>2022-01-23T11:08:48Z</time>
      </trkpt>
      <trkpt lat="44.99429" lon="6.45885">
        <ele>2140.713</ele>
        <time>2022-01-23T11:08:53Z</time>
      </trkpt>
      <trkpt lat="44.99431" lon="6.45885">
        <ele>2141.238</ele>
        <time>2022-01-23T11:08:58Z</time>
      </trkpt>
      <trkpt lat="44.99431" lon="6.45885">
        <ele>2140.709</ele>
        <time>2022-01-23T11:09:03Z</time>
      </trkpt>
      <trkpt lat="44.99432" lon="6.45884">
        <ele>2141.152</ele>
        <time>2022-01-23T11:09:08Z</time>
      </trkpt>
      <trkpt lat="44.99432" lon="6.45884">
        <ele>2141.866</ele>
        <time>2022-01-23T11:09:13Z</time>
      </trkpt>
      <trkpt lat="44.99432" lon="6.45883">
        <ele>2143.237</ele>
        <time>2022-01-23T11:09:18Z</time>
      </trkpt>
      <trkpt lat="44.99432" lon="6.45883">
        <ele>2143.61</ele>
        <time>2022-01-23T11:09:23Z</time>
      </trkpt>
      <trkpt lat="44.99431" lon="6.45882">
        <ele>2143.034</ele>
        <time>2022-01-23T11:09:28Z</time>
      </trkpt>
      <trkpt lat="44.99431" lon="6.45882">
        <ele>2143</ele>
        <time>2022-01-23T11:09:33Z</time>
      </trkpt>
      <trkpt lat="44.9943" lon="6.45881">
        <ele>2142.814</ele>
        <time>2022-01-23T11:09:38Z</time>
      </trkpt>
      <trkpt lat="44.9943" lon="6.4588">
        <ele>2143.328</ele>
        <time>2022-01-23T11:09:43Z</time>
      </trkpt>
      <trkpt lat="44.9943" lon="6.4588">
        <ele>2144.198</ele>
        <time>2022-01-23T11:09:48Z</time>
      </trkpt>
      <trkpt lat="44.9943" lon="6.4588">
        <ele>2144.207</ele>
        <time>2022-01-23T11:09:53Z</time>
      </trkpt>
      <trkpt lat="44.9943" lon="6.4588">
        <ele>2144.21</ele>
        <time>2022-01-23T11:09:58Z</time>
      </trkpt>
      <trkpt lat="44.9943" lon="6.4588">
        <ele>2144.219</ele>
        <time>2022-01-23T11:10:03Z</time>
      </trkpt>
      <trkpt lat="44.99429" lon="6.4588">
        <ele>2144.537</ele>
        <time>2022-01-23T11:10:08Z</time>
      </trkpt>
      <trkpt lat="44.99428" lon="6.4588">
        <ele>2145.808</ele>
        <time>2022-01-23T11:10:13Z</time>
      </trkpt>
      <trkpt lat="44.99427" lon="6.45879">
        <ele>2145.678</ele>
        <time>2022-01-23T11:10:18Z</time>
      </trkpt>
      <trkpt lat="44.99426" lon="6.45879">
        <ele>2147.733</ele>
        <time>2022-01-23T11:10:23Z</time>
      </trkpt>
      <trkpt lat="44.99425" lon="6.45879">
        <ele>2145.84</ele>
        <time>2022-01-23T11:10:28Z</time>
      </trkpt>
      <trkpt lat="44.99425" lon="6.45878">
        <ele>2145.693</ele>
        <time>2022-01-23T11:10:33Z</time>
      </trkpt>
      <trkpt lat="44.99425" lon="6.45878">
        <ele>2145.713</ele>
        <time>2022-01-23T11:10:38Z</time>
      </trkpt>
      <trkpt lat="44.99425" lon="6.45878">
        <ele>2145.708</ele>
        <time>2022-01-23T11:10:43Z</time>
      </trkpt>
      <trkpt lat="44.99425" lon="6.45878">
        <ele>2145.704</ele>
        <time>2022-01-23T11:10:48Z</time>
      </trkpt>
      <trkpt lat="44.99425" lon="6.45878">
        <ele>2145.696</ele>
        <time>2022-01-23T11:10:53Z</time>
      </trkpt>
      <trkpt lat="44.99425" lon="6.45878">
        <ele>2145.689</ele>
        <time>2022-01-23T11:10:58Z</time>
      </trkpt>
      <trkpt lat="44.99425" lon="6.45878">
        <ele>2145.68</ele>
        <time>2022-01-23T11:11:03Z</time>
      </trkpt>
      <trkpt lat="44.99424" lon="6.45878">
        <ele>2146.529</ele>
        <time>2022-01-23T11:11:08Z</time>
      </trkpt>
      <trkpt lat="44.99421" lon="6.45879">
        <ele>2148.062</ele>
        <time>2022-01-23T11:11:13Z</time>
      </trkpt>
      <trkpt lat="44.99421" lon="6.45879">
        <ele>2147.685</ele>
        <time>2022-01-23T11:11:18Z</time>
      </trkpt>
      <trkpt lat="44.9942" lon="6.45879">
        <ele>2147.968</ele>
        <time>2022-01-23T11:11:23Z</time>
      </trkpt>
      <trkpt lat="44.9942" lon="6.4588">
        <ele>2148.119</ele>
        <time>2022-01-23T11:11:28Z</time>
      </trkpt>
      <trkpt lat="44.99421" lon="6.45879">
        <ele>2148.531</ele>
        <time>2022-01-23T11:11:33Z</time>
      </trkpt>
      <trkpt lat="44.99423" lon="6.45878">
        <ele>2148.295</ele>
        <time>2022-01-23T11:11:38Z</time>
      </trkpt>
      <trkpt lat="44.99423" lon="6.45877">
        <ele>2147.725</ele>
        <time>2022-01-23T11:11:43Z</time>
      </trkpt>
      <trkpt lat="44.99424" lon="6.45875">
        <ele>2148.569</ele>
        <time>2022-01-23T11:11:48Z</time>
      </trkpt>
      <trkpt lat="44.99425" lon="6.45874">
        <ele>2150.071</ele>
        <time>2022-01-23T11:11:53Z</time>
      </trkpt>
      <trkpt lat="44.99426" lon="6.45873">
        <ele>2150.404</ele>
        <time>2022-01-23T11:11:58Z</time>
      </trkpt>
      <trkpt lat="44.99426" lon="6.45872">
        <ele>2151.12</ele>
        <time>2022-01-23T11:12:03Z</time>
      </trkpt>
      <trkpt lat="44.99426" lon="6.45872">
        <ele>2151.005</ele>
        <time>2022-01-23T11:12:08Z</time>
      </trkpt>
      <trkpt lat="44.99427" lon="6.4587">
        <ele>2151.015</ele>
        <time>2022-01-23T11:12:13Z</time>
      </trkpt>
      <trkpt lat="44.99427" lon="6.45869">
        <ele>2150.399</ele>
        <time>2022-01-23T11:12:18Z</time>
      </trkpt>
      <trkpt lat="44.99428" lon="6.45867">
        <ele>2150.591</ele>
        <time>2022-01-23T11:12:23Z</time>
      </trkpt>
      <trkpt lat="44.99429" lon="6.45866">
        <ele>2151.211</ele>
        <time>2022-01-23T11:12:28Z</time>
      </trkpt>
      <trkpt lat="44.99429" lon="6.45866">
        <ele>2150.828</ele>
        <time>2022-01-23T11:12:33Z</time>
      </trkpt>
      <trkpt lat="44.99429" lon="6.45865">
        <ele>2151.169</ele>
        <time>2022-01-23T11:12:38Z</time>
      </trkpt>
      <trkpt lat="44.9943" lon="6.45863">
        <ele>2153.079</ele>
        <time>2022-01-23T11:12:43Z</time>
      </trkpt>
      <trkpt lat="44.99431" lon="6.45863">
        <ele>2153.837</ele>
        <time>2022-01-23T11:12:48Z</time>
      </trkpt>
      <trkpt lat="44.99431" lon="6.45862">
        <ele>2155.052</ele>
        <time>2022-01-23T11:12:53Z</time>
      </trkpt>
      <trkpt lat="44.99431" lon="6.45861">
        <ele>2154.942</ele>
        <time>2022-01-23T11:12:58Z</time>
      </trkpt>
      <trkpt lat="44.99431" lon="6.4586">
        <ele>2154.93</ele>
        <time>2022-01-23T11:13:03Z</time>
      </trkpt>
      <trkpt lat="44.99431" lon="6.45859">
        <ele>2154.537</ele>
        <time>2022-01-23T11:13:08Z</time>
      </trkpt>
      <trkpt lat="44.99431" lon="6.45858">
        <ele>2155.447</ele>
        <time>2022-01-23T11:13:13Z</time>
      </trkpt>
      <trkpt lat="44.99431" lon="6.45858">
        <ele>2156.039</ele>
        <time>2022-01-23T11:13:18Z</time>
      </trkpt>
      <trkpt lat="44.9943" lon="6.45858">
        <ele>2157.858</ele>
        <time>2022-01-23T11:13:23Z</time>
      </trkpt>
      <trkpt lat="44.9943" lon="6.45856">
        <ele>2161.311</ele>
        <time>2022-01-23T11:13:28Z</time>
      </trkpt>
      <trkpt lat="44.99429" lon="6.45856">
        <ele>2159.076</ele>
        <time>2022-01-23T11:13:33Z</time>
      </trkpt>
      <trkpt lat="44.99428" lon="6.45857">
        <ele>2158.961</ele>
        <time>2022-01-23T11:13:38Z</time>
      </trkpt>
      <trkpt lat="44.99427" lon="6.45856">
        <ele>2161.359</ele>
        <time>2022-01-23T11:13:43Z</time>
      </trkpt>
      <trkpt lat="44.99428" lon="6.45855">
        <ele>2162.253</ele>
        <time>2022-01-23T11:13:48Z</time>
      </trkpt>
      <trkpt lat="44.99428" lon="6.45855">
        <ele>2161.964</ele>
        <time>2022-01-23T11:13:53Z</time>
      </trkpt>
      <trkpt lat="44.99429" lon="6.45854">
        <ele>2161.544</ele>
        <time>2022-01-23T11:13:58Z</time>
      </trkpt>
      <trkpt lat="44.99429" lon="6.45854">
        <ele>2161.901</ele>
        <time>2022-01-23T11:14:03Z</time>
      </trkpt>
      <trkpt lat="44.99428" lon="6.45853">
        <ele>2160.743</ele>
        <time>2022-01-23T11:14:08Z</time>
      </trkpt>
      <trkpt lat="44.99429" lon="6.45852">
        <ele>2160.94</ele>
        <time>2022-01-23T11:14:13Z</time>
      </trkpt>
      <trkpt lat="44.99429" lon="6.45851">
        <ele>2162.503</ele>
        <time>2022-01-23T11:14:18Z</time>
      </trkpt>
      <trkpt lat="44.99429" lon="6.4585">
        <ele>2161.504</ele>
        <time>2022-01-23T11:14:24Z</time>
      </trkpt>
      <trkpt lat="44.9943" lon="6.45848">
        <ele>2161.721</ele>
        <time>2022-01-23T11:14:29Z</time>
      </trkpt>
      <trkpt lat="44.9943" lon="6.45848">
        <ele>2161.001</ele>
        <time>2022-01-23T11:14:34Z</time>
      </trkpt>
      <trkpt lat="44.9943" lon="6.45846">
        <ele>2161.323</ele>
        <time>2022-01-23T11:14:39Z</time>
      </trkpt>
      <trkpt lat="44.99429" lon="6.45845">
        <ele>2161.679</ele>
        <time>2022-01-23T11:14:44Z</time>
      </trkpt>
      <trkpt lat="44.99429" lon="6.45845">
        <ele>2162.734</ele>
        <time>2022-01-23T11:14:49Z</time>
      </trkpt>
      <trkpt lat="44.99429" lon="6.45845">
        <ele>2162.965</ele>
        <time>2022-01-23T11:14:54Z</time>
      </trkpt>
      <trkpt lat="44.99427" lon="6.45843">
        <ele>2164.685</ele>
        <time>2022-01-23T11:14:59Z</time>
      </trkpt>
      <trkpt lat="44.99426" lon="6.45843">
        <ele>2164.319</ele>
        <time>2022-01-23T11:15:04Z</time>
      </trkpt>
      <trkpt lat="44.99425" lon="6.45843">
        <ele>2165.591</ele>
        <time>2022-01-23T11:15:09Z</time>
      </trkpt>
      <trkpt lat="44.99422" lon="6.45842">
        <ele>2165.557</ele>
        <time>2022-01-23T11:15:14Z</time>
      </trkpt>
      <trkpt lat="44.99423" lon="6.45842">
        <ele>2166.694</ele>
        <time>2022-01-23T11:15:19Z</time>
      </trkpt>
      <trkpt lat="44.99424" lon="6.45842">
        <ele>2169.272</ele>
        <time>2022-01-23T11:15:24Z</time>
      </trkpt>
      <trkpt lat="44.99423" lon="6.45842">
        <ele>2169.042</ele>
        <time>2022-01-23T11:15:29Z</time>
      </trkpt>
      <trkpt lat="44.99421" lon="6.4584">
        <ele>2166.355</ele>
        <time>2022-01-23T11:15:34Z</time>
      </trkpt>
      <trkpt lat="44.9942" lon="6.45841">
        <ele>2167.35</ele>
        <time>2022-01-23T11:15:39Z</time>
      </trkpt>
      <trkpt lat="44.9942" lon="6.45841">
        <ele>2168.025</ele>
        <time>2022-01-23T11:15:44Z</time>
      </trkpt>
      <trkpt lat="44.99419" lon="6.45841">
        <ele>2168.076</ele>
        <time>2022-01-23T11:15:49Z</time>
      </trkpt>
      <trkpt lat="44.99418" lon="6.45841">
        <ele>2170.326</ele>
        <time>2022-01-23T11:15:54Z</time>
      </trkpt>
      <trkpt lat="44.99418" lon="6.45842">
        <ele>2168.912</ele>
        <time>2022-01-23T11:15:59Z</time>
      </trkpt>
      <trkpt lat="44.99418" lon="6.45842">
        <ele>2169.591</ele>
        <time>2022-01-23T11:16:04Z</time>
      </trkpt>
      <trkpt lat="44.99417" lon="6.45842">
        <ele>2169.495</ele>
        <time>2022-01-23T11:16:09Z</time>
      </trkpt>
      <trkpt lat="44.99417" lon="6.45841">
        <ele>2170.483</ele>
        <time>2022-01-23T11:16:14Z</time>
      </trkpt>
      <trkpt lat="44.99416" lon="6.45842">
        <ele>2172.308</ele>
        <time>2022-01-23T11:16:19Z</time>
      </trkpt>
      <trkpt lat="44.99415" lon="6.45842">
        <ele>2172.676</ele>
        <time>2022-01-23T11:16:24Z</time>
      </trkpt>
      <trkpt lat="44.99416" lon="6.45844">
        <ele>2173.961</ele>
        <time>2022-01-23T11:16:29Z</time>
      </trkpt>
      <trkpt lat="44.99416" lon="6.45844">
        <ele>2172.598</ele>
        <time>2022-01-23T11:16:34Z</time>
      </trkpt>
      <trkpt lat="44.99416" lon="6.45843">
        <ele>2172.149</ele>
        <time>2022-01-23T11:16:39Z</time>
      </trkpt>
      <trkpt lat="44.99417" lon="6.45842">
        <ele>2171.347</ele>
        <time>2022-01-23T11:16:44Z</time>
      </trkpt>
      <trkpt lat="44.99417" lon="6.45842">
        <ele>2170.254</ele>
        <time>2022-01-23T11:16:49Z</time>
      </trkpt>
      <trkpt lat="44.99418" lon="6.45841">
        <ele>2170.023</ele>
        <time>2022-01-23T11:16:54Z</time>
      </trkpt>
      <trkpt lat="44.99418" lon="6.45841">
        <ele>2169.9</ele>
        <time>2022-01-23T11:16:59Z</time>
      </trkpt>
      <trkpt lat="44.99419" lon="6.4584">
        <ele>2169.756</ele>
        <time>2022-01-23T11:17:04Z</time>
      </trkpt>
      <trkpt lat="44.9942" lon="6.45839">
        <ele>2169.981</ele>
        <time>2022-01-23T11:17:09Z</time>
      </trkpt>
      <trkpt lat="44.99421" lon="6.45838">
        <ele>2170.061</ele>
        <time>2022-01-23T11:17:14Z</time>
      </trkpt>
      <trkpt lat="44.99422" lon="6.45836">
        <ele>2170.036</ele>
        <time>2022-01-23T11:17:19Z</time>
      </trkpt>
      <trkpt lat="44.99423" lon="6.45835">
        <ele>2171.415</ele>
        <time>2022-01-23T11:17:24Z</time>
      </trkpt>
      <trkpt lat="44.99423" lon="6.45835">
        <ele>2170.833</ele>
        <time>2022-01-23T11:17:29Z</time>
      </trkpt>
      <trkpt lat="44.99423" lon="6.45835">
        <ele>2170.14</ele>
        <time>2022-01-23T11:17:34Z</time>
      </trkpt>
      <trkpt lat="44.99423" lon="6.45835">
        <ele>2169.318</ele>
        <time>2022-01-23T11:17:39Z</time>
      </trkpt>
      <trkpt lat="44.99423" lon="6.45834">
        <ele>2168.743</ele>
        <time>2022-01-23T11:17:44Z</time>
      </trkpt>
      <trkpt lat="44.99424" lon="6.45833">
        <ele>2168.754</ele>
        <time>2022-01-23T11:17:49Z</time>
      </trkpt>
      <trkpt lat="44.99424" lon="6.45831">
        <ele>2168.804</ele>
        <time>2022-01-23T11:17:54Z</time>
      </trkpt>
      <trkpt lat="44.99424" lon="6.45831">
        <ele>2170.028</ele>
        <time>2022-01-23T11:17:59Z</time>
      </trkpt>
      <trkpt lat="44.99425" lon="6.45831">
        <ele>2169.872</ele>
        <time>2022-01-23T11:18:04Z</time>
      </trkpt>
      <trkpt lat="44.99425" lon="6.45831">
        <ele>2170.833</ele>
        <time>2022-01-23T11:18:09Z</time>
      </trkpt>
      <trkpt lat="44.99426" lon="6.45829">
        <ele>2172.931</ele>
        <time>2022-01-23T11:18:14Z</time>
      </trkpt>
      <trkpt lat="44.99427" lon="6.45828">
        <ele>2172.27</ele>
        <time>2022-01-23T11:18:19Z</time>
      </trkpt>
      <trkpt lat="44.99427" lon="6.45828">
        <ele>2173.414</ele>
        <time>2022-01-23T11:18:24Z</time>
      </trkpt>
      <trkpt lat="44.99427" lon="6.45826">
        <ele>2174.945</ele>
        <time>2022-01-23T11:18:29Z</time>
      </trkpt>
      <trkpt lat="44.99427" lon="6.45825">
        <ele>2174.704</ele>
        <time>2022-01-23T11:18:34Z</time>
      </trkpt>
      <trkpt lat="44.99427" lon="6.45825">
        <ele>2174.739</ele>
        <time>2022-01-23T11:18:39Z</time>
      </trkpt>
      <trkpt lat="44.99427" lon="6.45825">
        <ele>2175.153</ele>
        <time>2022-01-23T11:18:44Z</time>
      </trkpt>
      <trkpt lat="44.99428" lon="6.45824">
        <ele>2175.863</ele>
        <time>2022-01-23T11:18:49Z</time>
      </trkpt>
      <trkpt lat="44.99428" lon="6.45824">
        <ele>2175.671</ele>
        <time>2022-01-23T11:18:54Z</time>
      </trkpt>
      <trkpt lat="44.99427" lon="6.45823">
        <ele>2175.997</ele>
        <time>2022-01-23T11:18:59Z</time>
      </trkpt>
      <trkpt lat="44.99426" lon="6.45822">
        <ele>2176.448</ele>
        <time>2022-01-23T11:19:04Z</time>
      </trkpt>
      <trkpt lat="44.99425" lon="6.45822">
        <ele>2176.787</ele>
        <time>2022-01-23T11:19:09Z</time>
      </trkpt>
      <trkpt lat="44.99424" lon="6.45821">
        <ele>2176.613</ele>
        <time>2022-01-23T11:19:14Z</time>
      </trkpt>
      <trkpt lat="44.99424" lon="6.4582">
        <ele>2176.977</ele>
        <time>2022-01-23T11:19:19Z</time>
      </trkpt>
      <trkpt lat="44.99424" lon="6.4582">
        <ele>2177.607</ele>
        <time>2022-01-23T11:19:24Z</time>
      </trkpt>
      <trkpt lat="44.99422" lon="6.45819">
        <ele>2178.886</ele>
        <time>2022-01-23T11:19:29Z</time>
      </trkpt>
      <trkpt lat="44.99422" lon="6.45818">
        <ele>2178.949</ele>
        <time>2022-01-23T11:19:34Z</time>
      </trkpt>
      <trkpt lat="44.99421" lon="6.45818">
        <ele>2179.271</ele>
        <time>2022-01-23T11:19:39Z</time>
      </trkpt>
      <trkpt lat="44.99419" lon="6.45818">
        <ele>2179.631</ele>
        <time>2022-01-23T11:19:44Z</time>
      </trkpt>
      <trkpt lat="44.99418" lon="6.45818">
        <ele>2179.925</ele>
        <time>2022-01-23T11:19:49Z</time>
      </trkpt>
      <trkpt lat="44.99417" lon="6.45819">
        <ele>2179.118</ele>
        <time>2022-01-23T11:19:54Z</time>
      </trkpt>
      <trkpt lat="44.99416" lon="6.4582">
        <ele>2181.228</ele>
        <time>2022-01-23T11:19:59Z</time>
      </trkpt>
      <trkpt lat="44.99415" lon="6.45819">
        <ele>2181.933</ele>
        <time>2022-01-23T11:20:04Z</time>
      </trkpt>
      <trkpt lat="44.99415" lon="6.45819">
        <ele>2182.767</ele>
        <time>2022-01-23T11:20:09Z</time>
      </trkpt>
      <trkpt lat="44.99415" lon="6.45818">
        <ele>2185.518</ele>
        <time>2022-01-23T11:20:14Z</time>
      </trkpt>
      <trkpt lat="44.99415" lon="6.45818">
        <ele>2186.067</ele>
        <time>2022-01-23T11:20:19Z</time>
      </trkpt>
      <trkpt lat="44.99414" lon="6.45818">
        <ele>2185.472</ele>
        <time>2022-01-23T11:20:24Z</time>
      </trkpt>
      <trkpt lat="44.99415" lon="6.4582">
        <ele>2182.92</ele>
        <time>2022-01-23T11:20:29Z</time>
      </trkpt>
      <trkpt lat="44.99415" lon="6.45821">
        <ele>2182.993</ele>
        <time>2022-01-23T11:20:34Z</time>
      </trkpt>
      <trkpt lat="44.99415" lon="6.45821">
        <ele>2183.177</ele>
        <time>2022-01-23T11:20:39Z</time>
      </trkpt>
      <trkpt lat="44.99416" lon="6.4582">
        <ele>2184.812</ele>
        <time>2022-01-23T11:20:44Z</time>
      </trkpt>
      <trkpt lat="44.99417" lon="6.45819">
        <ele>2183.621</ele>
        <time>2022-01-23T11:20:49Z</time>
      </trkpt>
      <trkpt lat="44.99417" lon="6.45818">
        <ele>2183.189</ele>
        <time>2022-01-23T11:20:54Z</time>
      </trkpt>
      <trkpt lat="44.99417" lon="6.45815">
        <ele>2183.029</ele>
        <time>2022-01-23T11:20:59Z</time>
      </trkpt>
      <trkpt lat="44.99418" lon="6.45814">
        <ele>2184.457</ele>
        <time>2022-01-23T11:21:04Z</time>
      </trkpt>
      <trkpt lat="44.99419" lon="6.45813">
        <ele>2185.604</ele>
        <time>2022-01-23T11:21:09Z</time>
      </trkpt>
      <trkpt lat="44.99419" lon="6.45812">
        <ele>2185.111</ele>
        <time>2022-01-23T11:21:14Z</time>
      </trkpt>
      <trkpt lat="44.99419" lon="6.45811">
        <ele>2185.892</ele>
        <time>2022-01-23T11:21:19Z</time>
      </trkpt>
      <trkpt lat="44.99419" lon="6.45811">
        <ele>2186.097</ele>
        <time>2022-01-23T11:21:24Z</time>
      </trkpt>
      <trkpt lat="44.9942" lon="6.4581">
        <ele>2185.295</ele>
        <time>2022-01-23T11:21:29Z</time>
      </trkpt>
      <trkpt lat="44.9942" lon="6.45809">
        <ele>2186.634</ele>
        <time>2022-01-23T11:21:34Z</time>
      </trkpt>
      <trkpt lat="44.9942" lon="6.45808">
        <ele>2188.445</ele>
        <time>2022-01-23T11:21:39Z</time>
      </trkpt>
      <trkpt lat="44.9942" lon="6.45806">
        <ele>2189.318</ele>
        <time>2022-01-23T11:21:44Z</time>
      </trkpt>
      <trkpt lat="44.99421" lon="6.45805">
        <ele>2189.194</ele>
        <time>2022-01-23T11:21:49Z</time>
      </trkpt>
      <trkpt lat="44.99421" lon="6.45804">
        <ele>2189.501</ele>
        <time>2022-01-23T11:21:54Z</time>
      </trkpt>
      <trkpt lat="44.99421" lon="6.45803">
        <ele>2190.508</ele>
        <time>2022-01-23T11:21:59Z</time>
      </trkpt>
      <trkpt lat="44.99421" lon="6.45801">
        <ele>2192.457</ele>
        <time>2022-01-23T11:22:04Z</time>
      </trkpt>
      <trkpt lat="44.99422" lon="6.45799">
        <ele>2192.341</ele>
        <time>2022-01-23T11:22:09Z</time>
      </trkpt>
      <trkpt lat="44.99422" lon="6.458">
        <ele>2193.238</ele>
        <time>2022-01-23T11:22:14Z</time>
      </trkpt>
      <trkpt lat="44.99423" lon="6.45798">
        <ele>2192.987</ele>
        <time>2022-01-23T11:22:19Z</time>
      </trkpt>
      <trkpt lat="44.99423" lon="6.45796">
        <ele>2193.128</ele>
        <time>2022-01-23T11:22:24Z</time>
      </trkpt>
      <trkpt lat="44.99423" lon="6.45796">
        <ele>2193.359</ele>
        <time>2022-01-23T11:22:29Z</time>
      </trkpt>
      <trkpt lat="44.99422" lon="6.45796">
        <ele>2193.043</ele>
        <time>2022-01-23T11:22:34Z</time>
      </trkpt>
      <trkpt lat="44.99423" lon="6.45794">
        <ele>2194.18</ele>
        <time>2022-01-23T11:22:39Z</time>
      </trkpt>
      <trkpt lat="44.99422" lon="6.45793">
        <ele>2195.079</ele>
        <time>2022-01-23T11:22:44Z</time>
      </trkpt>
      <trkpt lat="44.99421" lon="6.45791">
        <ele>2195.831</ele>
        <time>2022-01-23T11:22:49Z</time>
      </trkpt>
      <trkpt lat="44.99422" lon="6.45791">
        <ele>2197.656</ele>
        <time>2022-01-23T11:22:54Z</time>
      </trkpt>
      <trkpt lat="44.99422" lon="6.45789">
        <ele>2198.466</ele>
        <time>2022-01-23T11:22:59Z</time>
      </trkpt>
      <trkpt lat="44.99421" lon="6.45786">
        <ele>2199.339</ele>
        <time>2022-01-23T11:23:04Z</time>
      </trkpt>
      <trkpt lat="44.99422" lon="6.45784">
        <ele>2198.94</ele>
        <time>2022-01-23T11:23:09Z</time>
      </trkpt>
      <trkpt lat="44.99422" lon="6.45784">
        <ele>2200.169</ele>
        <time>2022-01-23T11:23:14Z</time>
      </trkpt>
      <trkpt lat="44.99421" lon="6.45782">
        <ele>2200.354</ele>
        <time>2022-01-23T11:23:19Z</time>
      </trkpt>
      <trkpt lat="44.99419" lon="6.45779">
        <ele>2200.095</ele>
        <time>2022-01-23T11:23:24Z</time>
      </trkpt>
      <trkpt lat="44.9942" lon="6.45778">
        <ele>2200.639</ele>
        <time>2022-01-23T11:23:29Z</time>
      </trkpt>
      <trkpt lat="44.99419" lon="6.45776">
        <ele>2198.785</ele>
        <time>2022-01-23T11:23:34Z</time>
      </trkpt>
      <trkpt lat="44.99419" lon="6.45774">
        <ele>2199.77</ele>
        <time>2022-01-23T11:23:39Z</time>
      </trkpt>
      <trkpt lat="44.9942" lon="6.45771">
        <ele>2201.804</ele>
        <time>2022-01-23T11:23:44Z</time>
      </trkpt>
      <trkpt lat="44.9942" lon="6.45769">
        <ele>2201.334</ele>
        <time>2022-01-23T11:23:49Z</time>
      </trkpt>
      <trkpt lat="44.9942" lon="6.45767">
        <ele>2201.975</ele>
        <time>2022-01-23T11:23:54Z</time>
      </trkpt>
      <trkpt lat="44.9942" lon="6.45764">
        <ele>2202.365</ele>
        <time>2022-01-23T11:23:59Z</time>
      </trkpt>
      <trkpt lat="44.99421" lon="6.45762">
        <ele>2202.166</ele>
        <time>2022-01-23T11:24:04Z</time>
      </trkpt>
      <trkpt lat="44.99422" lon="6.45759">
        <ele>2202.62</ele>
        <time>2022-01-23T11:24:09Z</time>
      </trkpt>
      <trkpt lat="44.99423" lon="6.45757">
        <ele>2201.826</ele>
        <time>2022-01-23T11:24:14Z</time>
      </trkpt>
      <trkpt lat="44.99423" lon="6.45754">
        <ele>2201.443</ele>
        <time>2022-01-23T11:24:19Z</time>
      </trkpt>
      <trkpt lat="44.99423" lon="6.45754">
        <ele>2201.402</ele>
        <time>2022-01-23T11:24:24Z</time>
      </trkpt>
      <trkpt lat="44.99424" lon="6.45753">
        <ele>2202.204</ele>
        <time>2022-01-23T11:24:29Z</time>
      </trkpt>
      <trkpt lat="44.99424" lon="6.45751">
        <ele>2201.468</ele>
        <time>2022-01-23T11:24:34Z</time>
      </trkpt>
      <trkpt lat="44.99425" lon="6.45749">
        <ele>2201.806</ele>
        <time>2022-01-23T11:24:39Z</time>
      </trkpt>
      <trkpt lat="44.99425" lon="6.45746">
        <ele>2202.776</ele>
        <time>2022-01-23T11:24:44Z</time>
      </trkpt>
      <trkpt lat="44.99425" lon="6.45745">
        <ele>2203.451</ele>
        <time>2022-01-23T11:24:49Z</time>
      </trkpt>
      <trkpt lat="44.99424" lon="6.45742">
        <ele>2202.909</ele>
        <time>2022-01-23T11:24:54Z</time>
      </trkpt>
      <trkpt lat="44.99425" lon="6.45739">
        <ele>2204.475</ele>
        <time>2022-01-23T11:24:59Z</time>
      </trkpt>
      <trkpt lat="44.99426" lon="6.45737">
        <ele>2206.779</ele>
        <time>2022-01-23T11:25:04Z</time>
      </trkpt>
      <trkpt lat="44.99427" lon="6.45734">
        <ele>2207.267</ele>
        <time>2022-01-23T11:25:09Z</time>
      </trkpt>
      <trkpt lat="44.99427" lon="6.45732">
        <ele>2206.296</ele>
        <time>2022-01-23T11:25:14Z</time>
      </trkpt>
      <trkpt lat="44.99427" lon="6.45729">
        <ele>2208.247</ele>
        <time>2022-01-23T11:25:19Z</time>
      </trkpt>
      <trkpt lat="44.99427" lon="6.45729">
        <ele>2208.819</ele>
        <time>2022-01-23T11:25:24Z</time>
      </trkpt>
      <trkpt lat="44.99425" lon="6.45725">
        <ele>2211.53</ele>
        <time>2022-01-23T11:25:29Z</time>
      </trkpt>
      <trkpt lat="44.99424" lon="6.45725">
        <ele>2211.441</ele>
        <time>2022-01-23T11:25:34Z</time>
      </trkpt>
      <trkpt lat="44.99425" lon="6.45723">
        <ele>2211.413</ele>
        <time>2022-01-23T11:25:39Z</time>
      </trkpt>
      <trkpt lat="44.99426" lon="6.4572">
        <ele>2211.372</ele>
        <time>2022-01-23T11:25:44Z</time>
      </trkpt>
      <trkpt lat="44.99428" lon="6.45718">
        <ele>2208.976</ele>
        <time>2022-01-23T11:25:49Z</time>
      </trkpt>
      <trkpt lat="44.9943" lon="6.45716">
        <ele>2208.453</ele>
        <time>2022-01-23T11:25:54Z</time>
      </trkpt>
      <trkpt lat="44.99432" lon="6.45714">
        <ele>2209.041</ele>
        <time>2022-01-23T11:25:59Z</time>
      </trkpt>
      <trkpt lat="44.99433" lon="6.45712">
        <ele>2208.844</ele>
        <time>2022-01-23T11:26:04Z</time>
      </trkpt>
      <trkpt lat="44.99433" lon="6.45709">
        <ele>2208.672</ele>
        <time>2022-01-23T11:26:09Z</time>
      </trkpt>
      <trkpt lat="44.99434" lon="6.45706">
        <ele>2209.579</ele>
        <time>2022-01-23T11:26:14Z</time>
      </trkpt>
      <trkpt lat="44.99435" lon="6.45704">
        <ele>2210.008</ele>
        <time>2022-01-23T11:26:19Z</time>
      </trkpt>
      <trkpt lat="44.99436" lon="6.45701">
        <ele>2209.796</ele>
        <time>2022-01-23T11:26:24Z</time>
      </trkpt>
      <trkpt lat="44.99436" lon="6.45699">
        <ele>2210.209</ele>
        <time>2022-01-23T11:26:29Z</time>
      </trkpt>
      <trkpt lat="44.99436" lon="6.45696">
        <ele>2211.895</ele>
        <time>2022-01-23T11:26:34Z</time>
      </trkpt>
      <trkpt lat="44.99436" lon="6.45695">
        <ele>2213.722</ele>
        <time>2022-01-23T11:26:39Z</time>
      </trkpt>
      <trkpt lat="44.99436" lon="6.45693">
        <ele>2215.204</ele>
        <time>2022-01-23T11:26:44Z</time>
      </trkpt>
      <trkpt lat="44.99437" lon="6.45691">
        <ele>2215.785</ele>
        <time>2022-01-23T11:26:49Z</time>
      </trkpt>
      <trkpt lat="44.99438" lon="6.45689">
        <ele>2216.523</ele>
        <time>2022-01-23T11:26:54Z</time>
      </trkpt>
      <trkpt lat="44.99438" lon="6.45686">
        <ele>2217.036</ele>
        <time>2022-01-23T11:26:59Z</time>
      </trkpt>
      <trkpt lat="44.99438" lon="6.45685">
        <ele>2216.657</ele>
        <time>2022-01-23T11:27:04Z</time>
      </trkpt>
      <trkpt lat="44.99439" lon="6.45684">
        <ele>2217.156</ele>
        <time>2022-01-23T11:27:09Z</time>
      </trkpt>
      <trkpt lat="44.9944" lon="6.45683">
        <ele>2217.593</ele>
        <time>2022-01-23T11:27:14Z</time>
      </trkpt>
      <trkpt lat="44.99441" lon="6.45682">
        <ele>2217.544</ele>
        <time>2022-01-23T11:27:19Z</time>
      </trkpt>
      <trkpt lat="44.99443" lon="6.4568">
        <ele>2217.626</ele>
        <time>2022-01-23T11:27:24Z</time>
      </trkpt>
      <trkpt lat="44.99444" lon="6.45679">
        <ele>2217.63</ele>
        <time>2022-01-23T11:27:29Z</time>
      </trkpt>
      <trkpt lat="44.99445" lon="6.45677">
        <ele>2218.297</ele>
        <time>2022-01-23T11:27:34Z</time>
      </trkpt>
      <trkpt lat="44.99445" lon="6.45675">
        <ele>2217.807</ele>
        <time>2022-01-23T11:27:39Z</time>
      </trkpt>
      <trkpt lat="44.99444" lon="6.45672">
        <ele>2218.859</ele>
        <time>2022-01-23T11:27:44Z</time>
      </trkpt>
      <trkpt lat="44.99442" lon="6.45671">
        <ele>2219.474</ele>
        <time>2022-01-23T11:27:49Z</time>
      </trkpt>
      <trkpt lat="44.99442" lon="6.45668">
        <ele>2220.055</ele>
        <time>2022-01-23T11:27:54Z</time>
      </trkpt>
      <trkpt lat="44.99442" lon="6.45666">
        <ele>2222.21</ele>
        <time>2022-01-23T11:27:59Z</time>
      </trkpt>
      <trkpt lat="44.99442" lon="6.45663">
        <ele>2224.802</ele>
        <time>2022-01-23T11:28:04Z</time>
      </trkpt>
      <trkpt lat="44.99442" lon="6.4566">
        <ele>2225.596</ele>
        <time>2022-01-23T11:28:09Z</time>
      </trkpt>
      <trkpt lat="44.99441" lon="6.45657">
        <ele>2224.286</ele>
        <time>2022-01-23T11:28:14Z</time>
      </trkpt>
      <trkpt lat="44.99441" lon="6.45656">
        <ele>2223.712</ele>
        <time>2022-01-23T11:28:19Z</time>
      </trkpt>
      <trkpt lat="44.99443" lon="6.45656">
        <ele>2224.629</ele>
        <time>2022-01-23T11:28:24Z</time>
      </trkpt>
      <trkpt lat="44.99444" lon="6.45655">
        <ele>2224.434</ele>
        <time>2022-01-23T11:28:29Z</time>
      </trkpt>
      <trkpt lat="44.99445" lon="6.45655">
        <ele>2224.765</ele>
        <time>2022-01-23T11:28:34Z</time>
      </trkpt>
      <trkpt lat="44.99447" lon="6.45654">
        <ele>2224.817</ele>
        <time>2022-01-23T11:28:39Z</time>
      </trkpt>
      <trkpt lat="44.99449" lon="6.45653">
        <ele>2223.725</ele>
        <time>2022-01-23T11:28:44Z</time>
      </trkpt>
      <trkpt lat="44.99451" lon="6.45652">
        <ele>2224.796</ele>
        <time>2022-01-23T11:28:49Z</time>
      </trkpt>
      <trkpt lat="44.99452" lon="6.45652">
        <ele>2225.108</ele>
        <time>2022-01-23T11:28:54Z</time>
      </trkpt>
      <trkpt lat="44.99452" lon="6.45652">
        <ele>2226.186</ele>
        <time>2022-01-23T11:28:59Z</time>
      </trkpt>
      <trkpt lat="44.99454" lon="6.45652">
        <ele>2227.783</ele>
        <time>2022-01-23T11:29:04Z</time>
      </trkpt>
      <trkpt lat="44.99455" lon="6.45651">
        <ele>2228.197</ele>
        <time>2022-01-23T11:29:09Z</time>
      </trkpt>
      <trkpt lat="44.99457" lon="6.45651">
        <ele>2228.99</ele>
        <time>2022-01-23T11:29:14Z</time>
      </trkpt>
      <trkpt lat="44.99458" lon="6.45652">
        <ele>2228.832</ele>
        <time>2022-01-23T11:29:19Z</time>
      </trkpt>
      <trkpt lat="44.9946" lon="6.45652">
        <ele>2228.905</ele>
        <time>2022-01-23T11:29:24Z</time>
      </trkpt>
      <trkpt lat="44.99463" lon="6.45651">
        <ele>2229.103</ele>
        <time>2022-01-23T11:29:29Z</time>
      </trkpt>
      <trkpt lat="44.99462" lon="6.4565">
        <ele>2229.375</ele>
        <time>2022-01-23T11:29:34Z</time>
      </trkpt>
      <trkpt lat="44.99462" lon="6.4565">
        <ele>2229.37</ele>
        <time>2022-01-23T11:29:39Z</time>
      </trkpt>
      <trkpt lat="44.99462" lon="6.4565">
        <ele>2230.217</ele>
        <time>2022-01-23T11:29:44Z</time>
      </trkpt>
      <trkpt lat="44.99461" lon="6.4565">
        <ele>2230.982</ele>
        <time>2022-01-23T11:29:49Z</time>
      </trkpt>
      <trkpt lat="44.99462" lon="6.4565">
        <ele>2232.607</ele>
        <time>2022-01-23T11:29:54Z</time>
      </trkpt>
      <trkpt lat="44.99462" lon="6.45651">
        <ele>2232.595</ele>
        <time>2022-01-23T11:29:59Z</time>
      </trkpt>
      <trkpt lat="44.99462" lon="6.45651">
        <ele>2232.57</ele>
        <time>2022-01-23T11:30:04Z</time>
      </trkpt>
      <trkpt lat="44.99462" lon="6.45651">
        <ele>2232.537</ele>
        <time>2022-01-23T11:30:09Z</time>
      </trkpt>
      <trkpt lat="44.99462" lon="6.45651">
        <ele>2231.803</ele>
        <time>2022-01-23T11:30:14Z</time>
      </trkpt>
      <trkpt lat="44.99463" lon="6.45651">
        <ele>2233.05</ele>
        <time>2022-01-23T11:30:19Z</time>
      </trkpt>
      <trkpt lat="44.99463" lon="6.45651">
        <ele>2231.09</ele>
        <time>2022-01-23T11:30:24Z</time>
      </trkpt>
      <trkpt lat="44.99463" lon="6.4565">
        <ele>2230.62</ele>
        <time>2022-01-23T11:30:29Z</time>
      </trkpt>
      <trkpt lat="44.99463" lon="6.4565">
        <ele>2231.331</ele>
        <time>2022-01-23T11:30:34Z</time>
      </trkpt>
      <trkpt lat="44.99463" lon="6.4565">
        <ele>2231.018</ele>
        <time>2022-01-23T11:30:39Z</time>
      </trkpt>
      <trkpt lat="44.99463" lon="6.4565">
        <ele>2231.109</ele>
        <time>2022-01-23T11:30:44Z</time>
      </trkpt>
      <trkpt lat="44.99463" lon="6.4565">
        <ele>2231.109</ele>
        <time>2022-01-23T11:30:49Z</time>
      </trkpt>
      <trkpt lat="44.99463" lon="6.4565">
        <ele>2230.739</ele>
        <time>2022-01-23T11:30:54Z</time>
      </trkpt>
      <trkpt lat="44.99464" lon="6.4565">
        <ele>2230.834</ele>
        <time>2022-01-23T11:30:59Z</time>
      </trkpt>
      <trkpt lat="44.99464" lon="6.4565">
        <ele>2231.028</ele>
        <time>2022-01-23T11:31:04Z</time>
      </trkpt>
      <trkpt lat="44.99464" lon="6.4565">
        <ele>2231.505</ele>
        <time>2022-01-23T11:31:09Z</time>
      </trkpt>
      <trkpt lat="44.99464" lon="6.4565">
        <ele>2231.476</ele>
        <time>2022-01-23T11:31:14Z</time>
      </trkpt>
      <trkpt lat="44.99464" lon="6.4565">
        <ele>2231.49</ele>
        <time>2022-01-23T11:31:19Z</time>
      </trkpt>
      <trkpt lat="44.99464" lon="6.4565">
        <ele>2231.489</ele>
        <time>2022-01-23T11:31:24Z</time>
      </trkpt>
      <trkpt lat="44.99464" lon="6.4565">
        <ele>2231.498</ele>
        <time>2022-01-23T11:31:29Z</time>
      </trkpt>
      <trkpt lat="44.99464" lon="6.4565">
        <ele>2231.508</ele>
        <time>2022-01-23T11:31:34Z</time>
      </trkpt>
      <trkpt lat="44.99464" lon="6.4565">
        <ele>2231.527</ele>
        <time>2022-01-23T11:31:39Z</time>
      </trkpt>
      <trkpt lat="44.99464" lon="6.4565">
        <ele>2230.661</ele>
        <time>2022-01-23T11:31:44Z</time>
      </trkpt>
      <trkpt lat="44.99464" lon="6.45649">
        <ele>2230.485</ele>
        <time>2022-01-23T11:31:49Z</time>
      </trkpt>
      <trkpt lat="44.99464" lon="6.4565">
        <ele>2230.671</ele>
        <time>2022-01-23T11:31:54Z</time>
      </trkpt>
      <trkpt lat="44.99463" lon="6.45651">
        <ele>2232.045</ele>
        <time>2022-01-23T11:31:59Z</time>
      </trkpt>
      <trkpt lat="44.99464" lon="6.45651">
        <ele>2232.438</ele>
        <time>2022-01-23T11:32:04Z</time>
      </trkpt>
      <trkpt lat="44.99464" lon="6.4565">
        <ele>2232.704</ele>
        <time>2022-01-23T11:32:09Z</time>
      </trkpt>
      <trkpt lat="44.99464" lon="6.4565">
        <ele>2232.555</ele>
        <time>2022-01-23T11:32:14Z</time>
      </trkpt>
      <trkpt lat="44.99464" lon="6.4565">
        <ele>2234.895</ele>
        <time>2022-01-23T11:32:19Z</time>
      </trkpt>
      <trkpt lat="44.99463" lon="6.45651">
        <ele>2236.312</ele>
        <time>2022-01-23T11:32:24Z</time>
      </trkpt>
      <trkpt lat="44.99464" lon="6.45651">
        <ele>2236.568</ele>
        <time>2022-01-23T11:32:29Z</time>
      </trkpt>
      <trkpt lat="44.99465" lon="6.45651">
        <ele>2235.525</ele>
        <time>2022-01-23T11:32:34Z</time>
      </trkpt>
      <trkpt lat="44.99466" lon="6.45652">
        <ele>2234.167</ele>
        <time>2022-01-23T11:32:39Z</time>
      </trkpt>
      <trkpt lat="44.99468" lon="6.45649">
        <ele>2234.087</ele>
        <time>2022-01-23T11:32:44Z</time>
      </trkpt>
      <trkpt lat="44.9947" lon="6.4565">
        <ele>2233.493</ele>
        <time>2022-01-23T11:32:49Z</time>
      </trkpt>
      <trkpt lat="44.99471" lon="6.4565">
        <ele>2233.988</ele>
        <time>2022-01-23T11:32:54Z</time>
      </trkpt>
      <trkpt lat="44.99471" lon="6.45648">
        <ele>2232.001</ele>
        <time>2022-01-23T11:32:59Z</time>
      </trkpt>
      <trkpt lat="44.99472" lon="6.45647">
        <ele>2230.656</ele>
        <time>2022-01-23T11:33:04Z</time>
      </trkpt>
      <trkpt lat="44.99472" lon="6.45647">
        <ele>2230.005</ele>
        <time>2022-01-23T11:33:09Z</time>
      </trkpt>
      <trkpt lat="44.9947" lon="6.45646">
        <ele>2231.044</ele>
        <time>2022-01-23T11:33:14Z</time>
      </trkpt>
      <trkpt lat="44.99469" lon="6.45645">
        <ele>2232.365</ele>
        <time>2022-01-23T11:33:19Z</time>
      </trkpt>
      <trkpt lat="44.99469" lon="6.45644">
        <ele>2233.872</ele>
        <time>2022-01-23T11:33:24Z</time>
      </trkpt>
      <trkpt lat="44.99467" lon="6.45641">
        <ele>2234.395</ele>
        <time>2022-01-23T11:33:29Z</time>
      </trkpt>
      <trkpt lat="44.99466" lon="6.45636">
        <ele>2235.823</ele>
        <time>2022-01-23T11:33:34Z</time>
      </trkpt>
      <trkpt lat="44.99466" lon="6.45635">
        <ele>2236.246</ele>
        <time>2022-01-23T11:33:39Z</time>
      </trkpt>
      <trkpt lat="44.99464" lon="6.45634">
        <ele>2236.286</ele>
        <time>2022-01-23T11:33:44Z</time>
      </trkpt>
      <trkpt lat="44.99463" lon="6.45635">
        <ele>2235.65</ele>
        <time>2022-01-23T11:33:49Z</time>
      </trkpt>
      <trkpt lat="44.99464" lon="6.45636">
        <ele>2235.174</ele>
        <time>2022-01-23T11:33:54Z</time>
      </trkpt>
      <trkpt lat="44.99463" lon="6.45635">
        <ele>2234.403</ele>
        <time>2022-01-23T11:33:59Z</time>
      </trkpt>
      <trkpt lat="44.99464" lon="6.45634">
        <ele>2235.242</ele>
        <time>2022-01-23T11:34:04Z</time>
      </trkpt>
      <trkpt lat="44.99464" lon="6.45633">
        <ele>2235.821</ele>
        <time>2022-01-23T11:34:09Z</time>
      </trkpt>
      <trkpt lat="44.99466" lon="6.45632">
        <ele>2234.457</ele>
        <time>2022-01-23T11:34:14Z</time>
      </trkpt>
      <trkpt lat="44.99466" lon="6.45633">
        <ele>2234.644</ele>
        <time>2022-01-23T11:34:19Z</time>
      </trkpt>
      <trkpt lat="44.99466" lon="6.45635">
        <ele>2233.886</ele>
        <time>2022-01-23T11:34:24Z</time>
      </trkpt>
      <trkpt lat="44.99465" lon="6.45632">
        <ele>2234.988</ele>
        <time>2022-01-23T11:34:29Z</time>
      </trkpt>
      <trkpt lat="44.99466" lon="6.45632">
        <ele>2236.025</ele>
        <time>2022-01-23T11:34:34Z</time>
      </trkpt>
      <trkpt lat="44.99466" lon="6.45632">
        <ele>2236.317</ele>
        <time>2022-01-23T11:34:39Z</time>
      </trkpt>
      <trkpt lat="44.99467" lon="6.45631">
        <ele>2236.339</ele>
        <time>2022-01-23T11:34:44Z</time>
      </trkpt>
      <trkpt lat="44.99467" lon="6.45631">
        <ele>2236.456</ele>
        <time>2022-01-23T11:34:49Z</time>
      </trkpt>
      <trkpt lat="44.99466" lon="6.45631">
        <ele>2236.285</ele>
        <time>2022-01-23T11:34:54Z</time>
      </trkpt>
      <trkpt lat="44.99466" lon="6.45631">
        <ele>2236.391</ele>
        <time>2022-01-23T11:34:59Z</time>
      </trkpt>
      <trkpt lat="44.99466" lon="6.45631">
        <ele>2236.065</ele>
        <time>2022-01-23T11:35:04Z</time>
      </trkpt>
      <trkpt lat="44.99465" lon="6.45629">
        <ele>2236.479</ele>
        <time>2022-01-23T11:35:09Z</time>
      </trkpt>
      <trkpt lat="44.99464" lon="6.45629">
        <ele>2236.702</ele>
        <time>2022-01-23T11:35:14Z</time>
      </trkpt>
      <trkpt lat="44.99464" lon="6.45628">
        <ele>2237.111</ele>
        <time>2022-01-23T11:35:19Z</time>
      </trkpt>
      <trkpt lat="44.99464" lon="6.45628">
        <ele>2237.053</ele>
        <time>2022-01-23T11:35:24Z</time>
      </trkpt>
      <trkpt lat="44.99464" lon="6.45628">
        <ele>2237.05</ele>
        <time>2022-01-23T11:35:29Z</time>
      </trkpt>
      <trkpt lat="44.99464" lon="6.45628">
        <ele>2237.055</ele>
        <time>2022-01-23T11:35:34Z</time>
      </trkpt>
      <trkpt lat="44.99464" lon="6.45628">
        <ele>2237.055</ele>
        <time>2022-01-23T11:35:39Z</time>
      </trkpt>
      <trkpt lat="44.99464" lon="6.45628">
        <ele>2237.063</ele>
        <time>2022-01-23T11:35:44Z</time>
      </trkpt>
      <trkpt lat="44.99465" lon="6.45629">
        <ele>2236.069</ele>
        <time>2022-01-23T11:35:49Z</time>
      </trkpt>
      <trkpt lat="44.99465" lon="6.45631">
        <ele>2234.75</ele>
        <time>2022-01-23T11:35:54Z</time>
      </trkpt>
      <trkpt lat="44.99466" lon="6.45631">
        <ele>2234.921</ele>
        <time>2022-01-23T11:35:59Z</time>
      </trkpt>
      <trkpt lat="44.99466" lon="6.45631">
        <ele>2235.139</ele>
        <time>2022-01-23T11:36:04Z</time>
      </trkpt>
      <trkpt lat="44.99467" lon="6.45632">
        <ele>2236.234</ele>
        <time>2022-01-23T11:36:09Z</time>
      </trkpt>
      <trkpt lat="44.99467" lon="6.45632">
        <ele>2235.478</ele>
        <time>2022-01-23T11:36:14Z</time>
      </trkpt>
      <trkpt lat="44.99467" lon="6.45633">
        <ele>2234.398</ele>
        <time>2022-01-23T11:36:19Z</time>
      </trkpt>
      <trkpt lat="44.99465" lon="6.45639">
        <ele>2232.72</ele>
        <time>2022-01-23T11:36:24Z</time>
      </trkpt>
      <trkpt lat="44.99467" lon="6.45644">
        <ele>2231.455</ele>
        <time>2022-01-23T11:36:29Z</time>
      </trkpt>
      <trkpt lat="44.99469" lon="6.45648">
        <ele>2231.299</ele>
        <time>2022-01-23T11:36:34Z</time>
      </trkpt>
      <trkpt lat="44.99469" lon="6.45651">
        <ele>2230.703</ele>
        <time>2022-01-23T11:36:39Z</time>
      </trkpt>
      <trkpt lat="44.99467" lon="6.45651">
        <ele>2230.192</ele>
        <time>2022-01-23T11:36:44Z</time>
      </trkpt>
      <trkpt lat="44.99467" lon="6.45651">
        <ele>2230.074</ele>
        <time>2022-01-23T11:36:49Z</time>
      </trkpt>
      <trkpt lat="44.99466" lon="6.45651">
        <ele>2229.924</ele>
        <time>2022-01-23T11:36:54Z</time>
      </trkpt>
      <trkpt lat="44.99466" lon="6.45651">
        <ele>2229.906</ele>
        <time>2022-01-23T11:36:59Z</time>
      </trkpt>
      <trkpt lat="44.99466" lon="6.4565">
        <ele>2229.901</ele>
        <time>2022-01-23T11:37:04Z</time>
      </trkpt>
      <trkpt lat="44.99466" lon="6.4565">
        <ele>2229.898</ele>
        <time>2022-01-23T11:37:09Z</time>
      </trkpt>
      <trkpt lat="44.99466" lon="6.4565">
        <ele>2229.891</ele>
        <time>2022-01-23T11:37:14Z</time>
      </trkpt>
      <trkpt lat="44.99466" lon="6.4565">
        <ele>2229.883</ele>
        <time>2022-01-23T11:37:19Z</time>
      </trkpt>
      <trkpt lat="44.99466" lon="6.45649">
        <ele>2229.605</ele>
        <time>2022-01-23T11:37:24Z</time>
      </trkpt>
      <trkpt lat="44.99466" lon="6.45649">
        <ele>2228.921</ele>
        <time>2022-01-23T11:37:29Z</time>
      </trkpt>
      <trkpt lat="44.99467" lon="6.45649">
        <ele>2229.13</ele>
        <time>2022-01-23T11:37:34Z</time>
      </trkpt>
      <trkpt lat="44.99467" lon="6.45649">
        <ele>2229.123</ele>
        <time>2022-01-23T11:37:39Z</time>
      </trkpt>
      <trkpt lat="44.99467" lon="6.45649">
        <ele>2229.13</ele>
        <time>2022-01-23T11:37:44Z</time>
      </trkpt>
      <trkpt lat="44.99467" lon="6.45649">
        <ele>2229.118</ele>
        <time>2022-01-23T11:37:49Z</time>
      </trkpt>
      <trkpt lat="44.99467" lon="6.45649">
        <ele>2229.11</ele>
        <time>2022-01-23T11:37:54Z</time>
      </trkpt>
      <trkpt lat="44.99467" lon="6.45649">
        <ele>2229.097</ele>
        <time>2022-01-23T11:37:59Z</time>
      </trkpt>
      <trkpt lat="44.99467" lon="6.45649">
        <ele>2229.099</ele>
        <time>2022-01-23T11:38:04Z</time>
      </trkpt>
      <trkpt lat="44.99467" lon="6.45649">
        <ele>2228.246</ele>
        <time>2022-01-23T11:38:09Z</time>
      </trkpt>
      <trkpt lat="44.99466" lon="6.4565">
        <ele>2228.291</ele>
        <time>2022-01-23T11:38:14Z</time>
      </trkpt>
      <trkpt lat="44.99466" lon="6.45651">
        <ele>2228.925</ele>
        <time>2022-01-23T11:38:19Z</time>
      </trkpt>
      <trkpt lat="44.99466" lon="6.45652">
        <ele>2228.994</ele>
        <time>2022-01-23T11:38:24Z</time>
      </trkpt>
      <trkpt lat="44.99466" lon="6.45652">
        <ele>2229.518</ele>
        <time>2022-01-23T11:38:29Z</time>
      </trkpt>
      <trkpt lat="44.99466" lon="6.45653">
        <ele>2229.544</ele>
        <time>2022-01-23T11:38:34Z</time>
      </trkpt>
      <trkpt lat="44.99466" lon="6.45653">
        <ele>2229.517</ele>
        <time>2022-01-23T11:38:39Z</time>
      </trkpt>
      <trkpt lat="44.99465" lon="6.45652">
        <ele>2229.728</ele>
        <time>2022-01-23T11:38:44Z</time>
      </trkpt>
      <trkpt lat="44.99465" lon="6.45652">
        <ele>2228.374</ele>
        <time>2022-01-23T11:38:49Z</time>
      </trkpt>
      <trkpt lat="44.99465" lon="6.45651">
        <ele>2227.25</ele>
        <time>2022-01-23T11:38:54Z</time>
      </trkpt>
      <trkpt lat="44.99465" lon="6.45651">
        <ele>2227.374</ele>
        <time>2022-01-23T11:38:59Z</time>
      </trkpt>
      <trkpt lat="44.99466" lon="6.45651">
        <ele>2228.783</ele>
        <time>2022-01-23T11:39:04Z</time>
      </trkpt>
      <trkpt lat="44.99467" lon="6.45652">
        <ele>2230.15</ele>
        <time>2022-01-23T11:39:09Z</time>
      </trkpt>
      <trkpt lat="44.99467" lon="6.45652">
        <ele>2230.677</ele>
        <time>2022-01-23T11:39:14Z</time>
      </trkpt>
      <trkpt lat="44.99467" lon="6.45652">
        <ele>2230.879</ele>
        <time>2022-01-23T11:39:19Z</time>
      </trkpt>
      <trkpt lat="44.99467" lon="6.45652">
        <ele>2230.879</ele>
        <time>2022-01-23T11:39:24Z</time>
      </trkpt>
      <trkpt lat="44.99467" lon="6.45652">
        <ele>2230.885</ele>
        <time>2022-01-23T11:39:29Z</time>
      </trkpt>
      <trkpt lat="44.99467" lon="6.45652">
        <ele>2230.883</ele>
        <time>2022-01-23T11:39:34Z</time>
      </trkpt>
      <trkpt lat="44.99467" lon="6.45652">
        <ele>2230.878</ele>
        <time>2022-01-23T11:39:39Z</time>
      </trkpt>
      <trkpt lat="44.99467" lon="6.45652">
        <ele>2230.877</ele>
        <time>2022-01-23T11:39:44Z</time>
      </trkpt>
      <trkpt lat="44.99467" lon="6.45652">
        <ele>2230.874</ele>
        <time>2022-01-23T11:39:49Z</time>
      </trkpt>
      <trkpt lat="44.99467" lon="6.45652">
        <ele>2230.865</ele>
        <time>2022-01-23T11:39:54Z</time>
      </trkpt>
      <trkpt lat="44.99467" lon="6.45652">
        <ele>2230.855</ele>
        <time>2022-01-23T11:39:59Z</time>
      </trkpt>
      <trkpt lat="44.99467" lon="6.45652">
        <ele>2230.837</ele>
        <time>2022-01-23T11:40:04Z</time>
      </trkpt>
      <trkpt lat="44.99467" lon="6.45652">
        <ele>2230.824</ele>
        <time>2022-01-23T11:40:09Z</time>
      </trkpt>
      <trkpt lat="44.99467" lon="6.45652">
        <ele>2230.839</ele>
        <time>2022-01-23T11:40:14Z</time>
      </trkpt>
      <trkpt lat="44.99467" lon="6.45652">
        <ele>2230.826</ele>
        <time>2022-01-23T11:40:19Z</time>
      </trkpt>
      <trkpt lat="44.99467" lon="6.45652">
        <ele>2230.809</ele>
        <time>2022-01-23T11:40:24Z</time>
      </trkpt>
      <trkpt lat="44.99467" lon="6.45652">
        <ele>2230.791</ele>
        <time>2022-01-23T11:40:29Z</time>
      </trkpt>
      <trkpt lat="44.99467" lon="6.45652">
        <ele>2230.785</ele>
        <time>2022-01-23T11:40:34Z</time>
      </trkpt>
      <trkpt lat="44.99466" lon="6.45651">
        <ele>2230.129</ele>
        <time>2022-01-23T11:40:39Z</time>
      </trkpt>
      <trkpt lat="44.99466" lon="6.45651">
        <ele>2230.052</ele>
        <time>2022-01-23T11:40:44Z</time>
      </trkpt>
      <trkpt lat="44.99466" lon="6.4565">
        <ele>2229.834</ele>
        <time>2022-01-23T11:40:49Z</time>
      </trkpt>
      <trkpt lat="44.99466" lon="6.4565">
        <ele>2229.831</ele>
        <time>2022-01-23T11:40:54Z</time>
      </trkpt>
      <trkpt lat="44.99466" lon="6.4565">
        <ele>2229.834</ele>
        <time>2022-01-23T11:40:59Z</time>
      </trkpt>
      <trkpt lat="44.99466" lon="6.4565">
        <ele>2229.836</ele>
        <time>2022-01-23T11:41:04Z</time>
      </trkpt>
      <trkpt lat="44.99466" lon="6.4565">
        <ele>2229.845</ele>
        <time>2022-01-23T11:41:09Z</time>
      </trkpt>
      <trkpt lat="44.99466" lon="6.4565">
        <ele>2229.85</ele>
        <time>2022-01-23T11:41:14Z</time>
      </trkpt>
      <trkpt lat="44.99466" lon="6.4565">
        <ele>2229.855</ele>
        <time>2022-01-23T11:41:19Z</time>
      </trkpt>
      <trkpt lat="44.99466" lon="6.4565">
        <ele>2229.86</ele>
        <time>2022-01-23T11:41:24Z</time>
      </trkpt>
      <trkpt lat="44.99466" lon="6.4565">
        <ele>2229.86</ele>
        <time>2022-01-23T11:41:29Z</time>
      </trkpt>
      <trkpt lat="44.99466" lon="6.4565">
        <ele>2229.864</ele>
        <time>2022-01-23T11:41:34Z</time>
      </trkpt>
      <trkpt lat="44.99466" lon="6.4565">
        <ele>2229.868</ele>
        <time>2022-01-23T11:41:39Z</time>
      </trkpt>
      <trkpt lat="44.99466" lon="6.4565">
        <ele>2229.877</ele>
        <time>2022-01-23T11:41:44Z</time>
      </trkpt>
      <trkpt lat="44.99466" lon="6.4565">
        <ele>2229.878</ele>
        <time>2022-01-23T11:41:49Z</time>
      </trkpt>
      <trkpt lat="44.99466" lon="6.4565">
        <ele>2229.882</ele>
        <time>2022-01-23T11:41:54Z</time>
      </trkpt>
      <trkpt lat="44.99466" lon="6.4565">
        <ele>2229.887</ele>
        <time>2022-01-23T11:41:59Z</time>
      </trkpt>
      <trkpt lat="44.99466" lon="6.4565">
        <ele>2229.897</ele>
        <time>2022-01-23T11:42:05Z</time>
      </trkpt>
      <trkpt lat="44.99466" lon="6.4565">
        <ele>2229.902</ele>
        <time>2022-01-23T11:42:10Z</time>
      </trkpt>
      <trkpt lat="44.99466" lon="6.4565">
        <ele>2229.911</ele>
        <time>2022-01-23T11:42:15Z</time>
      </trkpt>
      <trkpt lat="44.99466" lon="6.4565">
        <ele>2229.912</ele>
        <time>2022-01-23T11:42:20Z</time>
      </trkpt>
      <trkpt lat="44.99466" lon="6.4565">
        <ele>2229.918</ele>
        <time>2022-01-23T11:42:25Z</time>
      </trkpt>
      <trkpt lat="44.99466" lon="6.4565">
        <ele>2229.926</ele>
        <time>2022-01-23T11:42:30Z</time>
      </trkpt>
      <trkpt lat="44.99466" lon="6.4565">
        <ele>2229.94</ele>
        <time>2022-01-23T11:42:35Z</time>
      </trkpt>
      <trkpt lat="44.99466" lon="6.4565">
        <ele>2229.943</ele>
        <time>2022-01-23T11:42:40Z</time>
      </trkpt>
      <trkpt lat="44.99466" lon="6.4565">
        <ele>2229.955</ele>
        <time>2022-01-23T11:42:45Z</time>
      </trkpt>
      <trkpt lat="44.99466" lon="6.4565">
        <ele>2229.965</ele>
        <time>2022-01-23T11:42:50Z</time>
      </trkpt>
      <trkpt lat="44.99466" lon="6.4565">
        <ele>2229.972</ele>
        <time>2022-01-23T11:42:55Z</time>
      </trkpt>
      <trkpt lat="44.99466" lon="6.4565">
        <ele>2229.98</ele>
        <time>2022-01-23T11:43:00Z</time>
      </trkpt>
      <trkpt lat="44.99466" lon="6.4565">
        <ele>2229.984</ele>
        <time>2022-01-23T11:43:05Z</time>
      </trkpt>
      <trkpt lat="44.99466" lon="6.4565">
        <ele>2229.998</ele>
        <time>2022-01-23T11:43:10Z</time>
      </trkpt>
      <trkpt lat="44.99466" lon="6.4565">
        <ele>2230.007</ele>
        <time>2022-01-23T11:43:15Z</time>
      </trkpt>
      <trkpt lat="44.99466" lon="6.4565">
        <ele>2230.015</ele>
        <time>2022-01-23T11:43:20Z</time>
      </trkpt>
      <trkpt lat="44.99466" lon="6.4565">
        <ele>2230.021</ele>
        <time>2022-01-23T11:43:25Z</time>
      </trkpt>
      <trkpt lat="44.99466" lon="6.4565">
        <ele>2230.028</ele>
        <time>2022-01-23T11:43:30Z</time>
      </trkpt>
      <trkpt lat="44.99466" lon="6.4565">
        <ele>2230.039</ele>
        <time>2022-01-23T11:43:35Z</time>
      </trkpt>
      <trkpt lat="44.99466" lon="6.4565">
        <ele>2230.047</ele>
        <time>2022-01-23T11:43:40Z</time>
      </trkpt>
      <trkpt lat="44.99466" lon="6.4565">
        <ele>2230.058</ele>
        <time>2022-01-23T11:43:45Z</time>
      </trkpt>
      <trkpt lat="44.99466" lon="6.4565">
        <ele>2230.059</ele>
        <time>2022-01-23T11:43:50Z</time>
      </trkpt>
      <trkpt lat="44.99466" lon="6.4565">
        <ele>2230.063</ele>
        <time>2022-01-23T11:43:55Z</time>
      </trkpt>
      <trkpt lat="44.99466" lon="6.4565">
        <ele>2230.066</ele>
        <time>2022-01-23T11:44:00Z</time>
      </trkpt>
      <trkpt lat="44.99466" lon="6.4565">
        <ele>2230.07</ele>
        <time>2022-01-23T11:44:05Z</time>
      </trkpt>
      <trkpt lat="44.99466" lon="6.4565">
        <ele>2230.071</ele>
        <time>2022-01-23T11:44:10Z</time>
      </trkpt>
      <trkpt lat="44.99466" lon="6.4565">
        <ele>2230.063</ele>
        <time>2022-01-23T11:44:15Z</time>
      </trkpt>
      <trkpt lat="44.99466" lon="6.4565">
        <ele>2230.064</ele>
        <time>2022-01-23T11:44:20Z</time>
      </trkpt>
      <trkpt lat="44.99466" lon="6.4565">
        <ele>2230.06</ele>
        <time>2022-01-23T11:44:25Z</time>
      </trkpt>
      <trkpt lat="44.99466" lon="6.4565">
        <ele>2230.065</ele>
        <time>2022-01-23T11:44:30Z</time>
      </trkpt>
      <trkpt lat="44.99466" lon="6.4565">
        <ele>2230.078</ele>
        <time>2022-01-23T11:44:35Z</time>
      </trkpt>
      <trkpt lat="44.99466" lon="6.4565">
        <ele>2230.081</ele>
        <time>2022-01-23T11:44:40Z</time>
      </trkpt>
      <trkpt lat="44.99466" lon="6.4565">
        <ele>2230.085</ele>
        <time>2022-01-23T11:44:45Z</time>
      </trkpt>
      <trkpt lat="44.99466" lon="6.4565">
        <ele>2230.089</ele>
        <time>2022-01-23T11:44:50Z</time>
      </trkpt>
      <trkpt lat="44.99466" lon="6.4565">
        <ele>2230.095</ele>
        <time>2022-01-23T11:44:55Z</time>
      </trkpt>
      <trkpt lat="44.99466" lon="6.4565">
        <ele>2230.097</ele>
        <time>2022-01-23T11:45:00Z</time>
      </trkpt>
      <trkpt lat="44.99466" lon="6.4565">
        <ele>2230.1</ele>
        <time>2022-01-23T11:45:05Z</time>
      </trkpt>
      <trkpt lat="44.99466" lon="6.4565">
        <ele>2230.102</ele>
        <time>2022-01-23T11:45:10Z</time>
      </trkpt>
      <trkpt lat="44.99466" lon="6.4565">
        <ele>2230.101</ele>
        <time>2022-01-23T11:45:15Z</time>
      </trkpt>
      <trkpt lat="44.99466" lon="6.4565">
        <ele>2230.104</ele>
        <time>2022-01-23T11:45:20Z</time>
      </trkpt>
      <trkpt lat="44.99466" lon="6.4565">
        <ele>2230.113</ele>
        <time>2022-01-23T11:45:25Z</time>
      </trkpt>
      <trkpt lat="44.99466" lon="6.4565">
        <ele>2230.113</ele>
        <time>2022-01-23T11:45:30Z</time>
      </trkpt>
      <trkpt lat="44.99466" lon="6.4565">
        <ele>2230.121</ele>
        <time>2022-01-23T11:45:35Z</time>
      </trkpt>
      <trkpt lat="44.99466" lon="6.4565">
        <ele>2230.121</ele>
        <time>2022-01-23T11:45:40Z</time>
      </trkpt>
      <trkpt lat="44.99466" lon="6.4565">
        <ele>2230.123</ele>
        <time>2022-01-23T11:45:45Z</time>
      </trkpt>
      <trkpt lat="44.99467" lon="6.45652">
        <ele>2231.703</ele>
        <time>2022-01-23T11:45:50Z</time>
      </trkpt>
      <trkpt lat="44.9947" lon="6.45652">
        <ele>2231.704</ele>
        <time>2022-01-23T11:45:55Z</time>
      </trkpt>
      <trkpt lat="44.99471" lon="6.45652">
        <ele>2233.203</ele>
        <time>2022-01-23T11:46:00Z</time>
      </trkpt>
      <trkpt lat="44.99471" lon="6.45652">
        <ele>2234.85</ele>
        <time>2022-01-23T11:46:06Z</time>
      </trkpt>
      <trkpt lat="44.9947" lon="6.45651">
        <ele>2234.989</ele>
        <time>2022-01-23T11:46:11Z</time>
      </trkpt>
      <trkpt lat="44.99468" lon="6.45651">
        <ele>2234.419</ele>
        <time>2022-01-23T11:46:16Z</time>
      </trkpt>
      <trkpt lat="44.99467" lon="6.45652">
        <ele>2234.667</ele>
        <time>2022-01-23T11:46:21Z</time>
      </trkpt>
      <trkpt lat="44.99466" lon="6.4565">
        <ele>2234.32</ele>
        <time>2022-01-23T11:46:26Z</time>
      </trkpt>
      <trkpt lat="44.99466" lon="6.45651">
        <ele>2234.685</ele>
        <time>2022-01-23T11:46:31Z</time>
      </trkpt>
      <trkpt lat="44.99467" lon="6.4565">
        <ele>2233.437</ele>
        <time>2022-01-23T11:46:36Z</time>
      </trkpt>
      <trkpt lat="44.99467" lon="6.45649">
        <ele>2232.473</ele>
        <time>2022-01-23T11:46:41Z</time>
      </trkpt>
      <trkpt lat="44.99467" lon="6.45649">
        <ele>2232.448</ele>
        <time>2022-01-23T11:46:46Z</time>
      </trkpt>
      <trkpt lat="44.99467" lon="6.45649">
        <ele>2232.428</ele>
        <time>2022-01-23T11:46:51Z</time>
      </trkpt>
      <trkpt lat="44.99467" lon="6.45649">
        <ele>2232.445</ele>
        <time>2022-01-23T11:46:56Z</time>
      </trkpt>
      <trkpt lat="44.99467" lon="6.45649">
        <ele>2232.466</ele>
        <time>2022-01-23T11:47:01Z</time>
      </trkpt>
      <trkpt lat="44.99467" lon="6.45649">
        <ele>2232.482</ele>
        <time>2022-01-23T11:47:06Z</time>
      </trkpt>
      <trkpt lat="44.99467" lon="6.45649">
        <ele>2232.493</ele>
        <time>2022-01-23T11:47:11Z</time>
      </trkpt>
      <trkpt lat="44.99467" lon="6.45649">
        <ele>2232.507</ele>
        <time>2022-01-23T11:47:16Z</time>
      </trkpt>
      <trkpt lat="44.99467" lon="6.45649">
        <ele>2232.494</ele>
        <time>2022-01-23T11:47:21Z</time>
      </trkpt>
      <trkpt lat="44.99467" lon="6.45649">
        <ele>2232.514</ele>
        <time>2022-01-23T11:47:26Z</time>
      </trkpt>
      <trkpt lat="44.99467" lon="6.45649">
        <ele>2232.512</ele>
        <time>2022-01-23T11:47:31Z</time>
      </trkpt>
      <trkpt lat="44.99467" lon="6.45649">
        <ele>2232.499</ele>
        <time>2022-01-23T11:47:36Z</time>
      </trkpt>
      <trkpt lat="44.99467" lon="6.45649">
        <ele>2232.506</ele>
        <time>2022-01-23T11:47:41Z</time>
      </trkpt>
      <trkpt lat="44.99467" lon="6.45649">
        <ele>2232.547</ele>
        <time>2022-01-23T11:47:46Z</time>
      </trkpt>
      <trkpt lat="44.99467" lon="6.45649">
        <ele>2233.221</ele>
        <time>2022-01-23T11:47:51Z</time>
      </trkpt>
      <trkpt lat="44.99468" lon="6.45649">
        <ele>2234.719</ele>
        <time>2022-01-23T11:47:56Z</time>
      </trkpt>
      <trkpt lat="44.99468" lon="6.45649">
        <ele>2234.632</ele>
        <time>2022-01-23T11:48:01Z</time>
      </trkpt>
      <trkpt lat="44.99468" lon="6.4565">
        <ele>2234.598</ele>
        <time>2022-01-23T11:48:06Z</time>
      </trkpt>
      <trkpt lat="44.99468" lon="6.45649">
        <ele>2234.59</ele>
        <time>2022-01-23T11:48:11Z</time>
      </trkpt>
      <trkpt lat="44.99468" lon="6.45649">
        <ele>2234.598</ele>
        <time>2022-01-23T11:48:15Z</time>
      </trkpt>
      <trkpt lat="44.99468" lon="6.45649">
        <ele>2234.59</ele>
        <time>2022-01-23T11:48:21Z</time>
      </trkpt>
      <trkpt lat="44.99468" lon="6.45649">
        <ele>2234.594</ele>
        <time>2022-01-23T11:48:26Z</time>
      </trkpt>
      <trkpt lat="44.99468" lon="6.45649">
        <ele>2234.589</ele>
        <time>2022-01-23T11:48:31Z</time>
      </trkpt>
      <trkpt lat="44.99468" lon="6.45649">
        <ele>2234.583</ele>
        <time>2022-01-23T11:48:36Z</time>
      </trkpt>
      <trkpt lat="44.99468" lon="6.45649">
        <ele>2234.56</ele>
        <time>2022-01-23T11:48:41Z</time>
      </trkpt>
      <trkpt lat="44.99468" lon="6.45649">
        <ele>2234.554</ele>
        <time>2022-01-23T11:48:46Z</time>
      </trkpt>
      <trkpt lat="44.99468" lon="6.45649">
        <ele>2234.575</ele>
        <time>2022-01-23T11:48:51Z</time>
      </trkpt>
      <trkpt lat="44.99468" lon="6.45649">
        <ele>2234.572</ele>
        <time>2022-01-23T11:48:56Z</time>
      </trkpt>
      <trkpt lat="44.99468" lon="6.45649">
        <ele>2234.568</ele>
        <time>2022-01-23T11:49:01Z</time>
      </trkpt>
      <trkpt lat="44.99468" lon="6.45649">
        <ele>2234.562</ele>
        <time>2022-01-23T11:49:06Z</time>
      </trkpt>
      <trkpt lat="44.99468" lon="6.45649">
        <ele>2234.559</ele>
        <time>2022-01-23T11:49:11Z</time>
      </trkpt>
      <trkpt lat="44.99468" lon="6.45649">
        <ele>2234.554</ele>
        <time>2022-01-23T11:49:16Z</time>
      </trkpt>
      <trkpt lat="44.99468" lon="6.45649">
        <ele>2234.54</ele>
        <time>2022-01-23T11:49:21Z</time>
      </trkpt>
      <trkpt lat="44.99468" lon="6.45649">
        <ele>2234.535</ele>
        <time>2022-01-23T11:49:26Z</time>
      </trkpt>
      <trkpt lat="44.99468" lon="6.45649">
        <ele>2234.525</ele>
        <time>2022-01-23T11:49:31Z</time>
      </trkpt>
      <trkpt lat="44.99468" lon="6.45649">
        <ele>2234.513</ele>
        <time>2022-01-23T11:49:36Z</time>
      </trkpt>
      <trkpt lat="44.99468" lon="6.45649">
        <ele>2234.499</ele>
        <time>2022-01-23T11:49:41Z</time>
      </trkpt>
      <trkpt lat="44.99468" lon="6.45649">
        <ele>2234.476</ele>
        <time>2022-01-23T11:49:47Z</time>
      </trkpt>
      <trkpt lat="44.99468" lon="6.45649">
        <ele>2234.446</ele>
        <time>2022-01-23T11:49:52Z</time>
      </trkpt>
      <trkpt lat="44.99468" lon="6.45649">
        <ele>2234.431</ele>
        <time>2022-01-23T11:49:57Z</time>
      </trkpt>
      <trkpt lat="44.99468" lon="6.45649">
        <ele>2234.427</ele>
        <time>2022-01-23T11:50:02Z</time>
      </trkpt>
      <trkpt lat="44.99468" lon="6.45649">
        <ele>2234.42</ele>
        <time>2022-01-23T11:50:07Z</time>
      </trkpt>
      <trkpt lat="44.99468" lon="6.45649">
        <ele>2234.412</ele>
        <time>2022-01-23T11:50:12Z</time>
      </trkpt>
      <trkpt lat="44.99468" lon="6.45649">
        <ele>2234.405</ele>
        <time>2022-01-23T11:50:17Z</time>
      </trkpt>
      <trkpt lat="44.99468" lon="6.45649">
        <ele>2234.391</ele>
        <time>2022-01-23T11:50:22Z</time>
      </trkpt>
      <trkpt lat="44.99468" lon="6.45649">
        <ele>2234.379</ele>
        <time>2022-01-23T11:50:27Z</time>
      </trkpt>
      <trkpt lat="44.99468" lon="6.45649">
        <ele>2234.374</ele>
        <time>2022-01-23T11:50:32Z</time>
      </trkpt>
      <trkpt lat="44.99468" lon="6.45649">
        <ele>2234.371</ele>
        <time>2022-01-23T11:50:37Z</time>
      </trkpt>
      <trkpt lat="44.99468" lon="6.45649">
        <ele>2234.352</ele>
        <time>2022-01-23T11:50:42Z</time>
      </trkpt>
      <trkpt lat="44.99468" lon="6.45649">
        <ele>2234.35</ele>
        <time>2022-01-23T11:50:47Z</time>
      </trkpt>
      <trkpt lat="44.99468" lon="6.45649">
        <ele>2234.341</ele>
        <time>2022-01-23T11:50:52Z</time>
      </trkpt>
      <trkpt lat="44.99468" lon="6.45649">
        <ele>2234.341</ele>
        <time>2022-01-23T11:50:57Z</time>
      </trkpt>
      <trkpt lat="44.99468" lon="6.45649">
        <ele>2234.333</ele>
        <time>2022-01-23T11:51:02Z</time>
      </trkpt>
      <trkpt lat="44.99468" lon="6.45649">
        <ele>2234.326</ele>
        <time>2022-01-23T11:51:07Z</time>
      </trkpt>
      <trkpt lat="44.99468" lon="6.45649">
        <ele>2234.32</ele>
        <time>2022-01-23T11:51:12Z</time>
      </trkpt>
      <trkpt lat="44.99468" lon="6.45649">
        <ele>2234.31</ele>
        <time>2022-01-23T11:51:17Z</time>
      </trkpt>
      <trkpt lat="44.99468" lon="6.45649">
        <ele>2234.312</ele>
        <time>2022-01-23T11:51:22Z</time>
      </trkpt>
      <trkpt lat="44.99468" lon="6.45649">
        <ele>2234.309</ele>
        <time>2022-01-23T11:51:27Z</time>
      </trkpt>
      <trkpt lat="44.99468" lon="6.45649">
        <ele>2234.304</ele>
        <time>2022-01-23T11:51:32Z</time>
      </trkpt>
      <trkpt lat="44.99468" lon="6.45649">
        <ele>2234.303</ele>
        <time>2022-01-23T11:51:37Z</time>
      </trkpt>
      <trkpt lat="44.99468" lon="6.45649">
        <ele>2234.294</ele>
        <time>2022-01-23T11:51:42Z</time>
      </trkpt>
      <trkpt lat="44.99468" lon="6.45649">
        <ele>2234.292</ele>
        <time>2022-01-23T11:51:47Z</time>
      </trkpt>
      <trkpt lat="44.99468" lon="6.45649">
        <ele>2234.278</ele>
        <time>2022-01-23T11:51:52Z</time>
      </trkpt>
      <trkpt lat="44.99468" lon="6.45649">
        <ele>2234.273</ele>
        <time>2022-01-23T11:51:57Z</time>
      </trkpt>
      <trkpt lat="44.99468" lon="6.45649">
        <ele>2234.284</ele>
        <time>2022-01-23T11:52:02Z</time>
      </trkpt>
      <trkpt lat="44.99468" lon="6.45649">
        <ele>2234.275</ele>
        <time>2022-01-23T11:52:07Z</time>
      </trkpt>
      <trkpt lat="44.99468" lon="6.45649">
        <ele>2234.275</ele>
        <time>2022-01-23T11:52:12Z</time>
      </trkpt>
      <trkpt lat="44.99468" lon="6.45649">
        <ele>2234.271</ele>
        <time>2022-01-23T11:52:17Z</time>
      </trkpt>
      <trkpt lat="44.99468" lon="6.45649">
        <ele>2234.27</ele>
        <time>2022-01-23T11:52:22Z</time>
      </trkpt>
      <trkpt lat="44.99468" lon="6.45649">
        <ele>2234.268</ele>
        <time>2022-01-23T11:52:27Z</time>
      </trkpt>
      <trkpt lat="44.99468" lon="6.45649">
        <ele>2234.256</ele>
        <time>2022-01-23T11:52:32Z</time>
      </trkpt>
      <trkpt lat="44.99468" lon="6.45649">
        <ele>2234.252</ele>
        <time>2022-01-23T11:52:37Z</time>
      </trkpt>
      <trkpt lat="44.99468" lon="6.45649">
        <ele>2234.239</ele>
        <time>2022-01-23T11:52:42Z</time>
      </trkpt>
      <trkpt lat="44.99468" lon="6.45649">
        <ele>2234.239</ele>
        <time>2022-01-23T11:52:47Z</time>
      </trkpt>
      <trkpt lat="44.99468" lon="6.45649">
        <ele>2234.231</ele>
        <time>2022-01-23T11:52:52Z</time>
      </trkpt>
      <trkpt lat="44.99468" lon="6.45649">
        <ele>2234.234</ele>
        <time>2022-01-23T11:52:57Z</time>
      </trkpt>
      <trkpt lat="44.99468" lon="6.45649">
        <ele>2234.235</ele>
        <time>2022-01-23T11:53:02Z</time>
      </trkpt>
      <trkpt lat="44.99468" lon="6.45649">
        <ele>2234.236</ele>
        <time>2022-01-23T11:53:07Z</time>
      </trkpt>
      <trkpt lat="44.99468" lon="6.45649">
        <ele>2234.238</ele>
        <time>2022-01-23T11:53:12Z</time>
      </trkpt>
      <trkpt lat="44.99468" lon="6.45649">
        <ele>2234.234</ele>
        <time>2022-01-23T11:53:17Z</time>
      </trkpt>
      <trkpt lat="44.99468" lon="6.45649">
        <ele>2234.224</ele>
        <time>2022-01-23T11:53:22Z</time>
      </trkpt>
      <trkpt lat="44.99468" lon="6.45649">
        <ele>2234.222</ele>
        <time>2022-01-23T11:53:27Z</time>
      </trkpt>
      <trkpt lat="44.99468" lon="6.45649">
        <ele>2234.225</ele>
        <time>2022-01-23T11:53:32Z</time>
      </trkpt>
      <trkpt lat="44.99468" lon="6.45649">
        <ele>2234.223</ele>
        <time>2022-01-23T11:53:37Z</time>
      </trkpt>
      <trkpt lat="44.99468" lon="6.45649">
        <ele>2234.216</ele>
        <time>2022-01-23T11:53:42Z</time>
      </trkpt>
      <trkpt lat="44.99468" lon="6.45649">
        <ele>2234.213</ele>
        <time>2022-01-23T11:53:47Z</time>
      </trkpt>
      <trkpt lat="44.99468" lon="6.45649">
        <ele>2234.215</ele>
        <time>2022-01-23T11:53:52Z</time>
      </trkpt>
      <trkpt lat="44.99468" lon="6.45649">
        <ele>2234.212</ele>
        <time>2022-01-23T11:53:57Z</time>
      </trkpt>
      <trkpt lat="44.99468" lon="6.45649">
        <ele>2234.189</ele>
        <time>2022-01-23T11:54:02Z</time>
      </trkpt>
      <trkpt lat="44.99468" lon="6.45649">
        <ele>2234.185</ele>
        <time>2022-01-23T11:54:07Z</time>
      </trkpt>
      <trkpt lat="44.99468" lon="6.45649">
        <ele>2234.179</ele>
        <time>2022-01-23T11:54:12Z</time>
      </trkpt>
      <trkpt lat="44.99468" lon="6.45649">
        <ele>2234.179</ele>
        <time>2022-01-23T11:54:17Z</time>
      </trkpt>
      <trkpt lat="44.99468" lon="6.45649">
        <ele>2234.174</ele>
        <time>2022-01-23T11:54:22Z</time>
      </trkpt>
      <trkpt lat="44.99468" lon="6.45649">
        <ele>2234.171</ele>
        <time>2022-01-23T11:54:27Z</time>
      </trkpt>
      <trkpt lat="44.99468" lon="6.45649">
        <ele>2234.162</ele>
        <time>2022-01-23T11:54:32Z</time>
      </trkpt>
      <trkpt lat="44.99468" lon="6.45649">
        <ele>2234.157</ele>
        <time>2022-01-23T11:54:37Z</time>
      </trkpt>
      <trkpt lat="44.99468" lon="6.45649">
        <ele>2234.15</ele>
        <time>2022-01-23T11:54:42Z</time>
      </trkpt>
      <trkpt lat="44.99468" lon="6.45649">
        <ele>2234.136</ele>
        <time>2022-01-23T11:54:47Z</time>
      </trkpt>
      <trkpt lat="44.99468" lon="6.45649">
        <ele>2234.122</ele>
        <time>2022-01-23T11:54:52Z</time>
      </trkpt>
      <trkpt lat="44.99468" lon="6.45649">
        <ele>2234.11</ele>
        <time>2022-01-23T11:54:57Z</time>
      </trkpt>
      <trkpt lat="44.99468" lon="6.45649">
        <ele>2234.12</ele>
        <time>2022-01-23T11:55:02Z</time>
      </trkpt>
      <trkpt lat="44.99468" lon="6.45649">
        <ele>2234.127</ele>
        <time>2022-01-23T11:55:07Z</time>
      </trkpt>
      <trkpt lat="44.99468" lon="6.45649">
        <ele>2234.137</ele>
        <time>2022-01-23T11:55:12Z</time>
      </trkpt>
      <trkpt lat="44.99468" lon="6.45649">
        <ele>2234.135</ele>
        <time>2022-01-23T11:55:17Z</time>
      </trkpt>
      <trkpt lat="44.99468" lon="6.45649">
        <ele>2234.136</ele>
        <time>2022-01-23T11:55:22Z</time>
      </trkpt>
      <trkpt lat="44.99468" lon="6.45649">
        <ele>2234.13</ele>
        <time>2022-01-23T11:55:27Z</time>
      </trkpt>
      <trkpt lat="44.99468" lon="6.45649">
        <ele>2234.121</ele>
        <time>2022-01-23T11:55:32Z</time>
      </trkpt>
      <trkpt lat="44.99468" lon="6.45649">
        <ele>2234.112</ele>
        <time>2022-01-23T11:55:37Z</time>
      </trkpt>
      <trkpt lat="44.99468" lon="6.45649">
        <ele>2234.114</ele>
        <time>2022-01-23T11:55:42Z</time>
      </trkpt>
      <trkpt lat="44.99469" lon="6.45649">
        <ele>2233.413</ele>
        <time>2022-01-23T11:55:47Z</time>
      </trkpt>
      <trkpt lat="44.99468" lon="6.4565">
        <ele>2234.308</ele>
        <time>2022-01-23T11:55:52Z</time>
      </trkpt>
      <trkpt lat="44.99467" lon="6.4565">
        <ele>2234.099</ele>
        <time>2022-01-23T11:55:57Z</time>
      </trkpt>
      <trkpt lat="44.99467" lon="6.4565">
        <ele>2234.072</ele>
        <time>2022-01-23T11:56:02Z</time>
      </trkpt>
      <trkpt lat="44.99467" lon="6.4565">
        <ele>2234.082</ele>
        <time>2022-01-23T11:56:07Z</time>
      </trkpt>
      <trkpt lat="44.99467" lon="6.4565">
        <ele>2234.09</ele>
        <time>2022-01-23T11:56:12Z</time>
      </trkpt>
      <trkpt lat="44.99467" lon="6.4565">
        <ele>2234.08</ele>
        <time>2022-01-23T11:56:17Z</time>
      </trkpt>
      <trkpt lat="44.99467" lon="6.4565">
        <ele>2234.057</ele>
        <time>2022-01-23T11:56:22Z</time>
      </trkpt>
      <trkpt lat="44.99467" lon="6.4565">
        <ele>2234.042</ele>
        <time>2022-01-23T11:56:27Z</time>
      </trkpt>
      <trkpt lat="44.99467" lon="6.4565">
        <ele>2234.057</ele>
        <time>2022-01-23T11:56:32Z</time>
      </trkpt>
      <trkpt lat="44.99467" lon="6.4565">
        <ele>2234.046</ele>
        <time>2022-01-23T11:56:37Z</time>
      </trkpt>
      <trkpt lat="44.99467" lon="6.4565">
        <ele>2234.054</ele>
        <time>2022-01-23T11:56:42Z</time>
      </trkpt>
      <trkpt lat="44.99467" lon="6.4565">
        <ele>2234.057</ele>
        <time>2022-01-23T11:56:47Z</time>
      </trkpt>
      <trkpt lat="44.99467" lon="6.4565">
        <ele>2234.067</ele>
        <time>2022-01-23T11:56:52Z</time>
      </trkpt>
      <trkpt lat="44.99468" lon="6.4565">
        <ele>2234.749</ele>
        <time>2022-01-23T11:56:57Z</time>
      </trkpt>
      <trkpt lat="44.99469" lon="6.4565">
        <ele>2235.202</ele>
        <time>2022-01-23T11:57:02Z</time>
      </trkpt>
      <trkpt lat="44.99468" lon="6.45649">
        <ele>2235.26</ele>
        <time>2022-01-23T11:57:07Z</time>
      </trkpt>
      <trkpt lat="44.99469" lon="6.45646">
        <ele>2235.058</ele>
        <time>2022-01-23T11:57:12Z</time>
      </trkpt>
      <trkpt lat="44.99469" lon="6.45643">
        <ele>2235.022</ele>
        <time>2022-01-23T11:57:17Z</time>
      </trkpt>
      <trkpt lat="44.99469" lon="6.45643">
        <ele>2234.719</ele>
        <time>2022-01-23T11:57:22Z</time>
      </trkpt>
      <trkpt lat="44.9947" lon="6.45643">
        <ele>2234.455</ele>
        <time>2022-01-23T11:57:27Z</time>
      </trkpt>
      <trkpt lat="44.9947" lon="6.45643">
        <ele>2234.454</ele>
        <time>2022-01-23T11:57:32Z</time>
      </trkpt>
      <trkpt lat="44.9947" lon="6.45643">
        <ele>2234.456</ele>
        <time>2022-01-23T11:57:37Z</time>
      </trkpt>
      <trkpt lat="44.9947" lon="6.45643">
        <ele>2234.456</ele>
        <time>2022-01-23T11:57:42Z</time>
      </trkpt>
      <trkpt lat="44.9947" lon="6.45643">
        <ele>2234.455</ele>
        <time>2022-01-23T11:57:47Z</time>
      </trkpt>
      <trkpt lat="44.9947" lon="6.45643">
        <ele>2234.455</ele>
        <time>2022-01-23T11:57:52Z</time>
      </trkpt>
      <trkpt lat="44.9947" lon="6.45643">
        <ele>2234.458</ele>
        <time>2022-01-23T11:57:57Z</time>
      </trkpt>
      <trkpt lat="44.9947" lon="6.45643">
        <ele>2234.461</ele>
        <time>2022-01-23T11:58:02Z</time>
      </trkpt>
      <trkpt lat="44.9947" lon="6.45643">
        <ele>2234.459</ele>
        <time>2022-01-23T11:58:07Z</time>
      </trkpt>
      <trkpt lat="44.9947" lon="6.45643">
        <ele>2234.46</ele>
        <time>2022-01-23T11:58:12Z</time>
      </trkpt>
      <trkpt lat="44.9947" lon="6.45643">
        <ele>2234.452</ele>
        <time>2022-01-23T11:58:17Z</time>
      </trkpt>
      <trkpt lat="44.9947" lon="6.45641">
        <ele>2234.672</ele>
        <time>2022-01-23T11:58:22Z</time>
      </trkpt>
      <trkpt lat="44.99469" lon="6.45641">
        <ele>2235.151</ele>
        <time>2022-01-23T11:58:27Z</time>
      </trkpt>
      <trkpt lat="44.99469" lon="6.45641">
        <ele>2234.906</ele>
        <time>2022-01-23T11:58:32Z</time>
      </trkpt>
      <trkpt lat="44.99469" lon="6.4564">
        <ele>2234.385</ele>
        <time>2022-01-23T11:58:37Z</time>
      </trkpt>
      <trkpt lat="44.99469" lon="6.45639">
        <ele>2233.891</ele>
        <time>2022-01-23T11:58:42Z</time>
      </trkpt>
      <trkpt lat="44.99469" lon="6.45639">
        <ele>2234.522</ele>
        <time>2022-01-23T11:58:47Z</time>
      </trkpt>
      <trkpt lat="44.99469" lon="6.45639">
        <ele>2234.376</ele>
        <time>2022-01-23T11:58:52Z</time>
      </trkpt>
      <trkpt lat="44.99469" lon="6.45639">
        <ele>2233.425</ele>
        <time>2022-01-23T11:58:57Z</time>
      </trkpt>
      <trkpt lat="44.9947" lon="6.4564">
        <ele>2233.155</ele>
        <time>2022-01-23T11:59:02Z</time>
      </trkpt>
      <trkpt lat="44.9947" lon="6.45638">
        <ele>2234.095</ele>
        <time>2022-01-23T11:59:07Z</time>
      </trkpt>
      <trkpt lat="44.9947" lon="6.45639">
        <ele>2232.731</ele>
        <time>2022-01-23T11:59:12Z</time>
      </trkpt>
      <trkpt lat="44.9947" lon="6.4564">
        <ele>2233.205</ele>
        <time>2022-01-23T11:59:17Z</time>
      </trkpt>
      <trkpt lat="44.9947" lon="6.45641">
        <ele>2233.433</ele>
        <time>2022-01-23T11:59:22Z</time>
      </trkpt>
      <trkpt lat="44.99469" lon="6.45643">
        <ele>2233.622</ele>
        <time>2022-01-23T11:59:27Z</time>
      </trkpt>
      <trkpt lat="44.99469" lon="6.45645">
        <ele>2233.362</ele>
        <time>2022-01-23T11:59:32Z</time>
      </trkpt>
      <trkpt lat="44.99468" lon="6.45647">
        <ele>2232.744</ele>
        <time>2022-01-23T11:59:37Z</time>
      </trkpt>
      <trkpt lat="44.99468" lon="6.45651">
        <ele>2232.829</ele>
        <time>2022-01-23T11:59:42Z</time>
      </trkpt>
      <trkpt lat="44.99468" lon="6.45651">
        <ele>2232.901</ele>
        <time>2022-01-23T11:59:47Z</time>
      </trkpt>
      <trkpt lat="44.99467" lon="6.4565">
        <ele>2233.175</ele>
        <time>2022-01-23T11:59:52Z</time>
      </trkpt>
      <trkpt lat="44.99464" lon="6.45651">
        <ele>2232.465</ele>
        <time>2022-01-23T11:59:57Z</time>
      </trkpt>
      <trkpt lat="44.99464" lon="6.45652">
        <ele>2231.485</ele>
        <time>2022-01-23T12:00:02Z</time>
      </trkpt>
      <trkpt lat="44.99464" lon="6.45651">
        <ele>2231.944</ele>
        <time>2022-01-23T12:00:07Z</time>
      </trkpt>
      <trkpt lat="44.99464" lon="6.45651">
        <ele>2232.064</ele>
        <time>2022-01-23T12:00:12Z</time>
      </trkpt>
      <trkpt lat="44.99464" lon="6.45651">
        <ele>2233.046</ele>
        <time>2022-01-23T12:00:17Z</time>
      </trkpt>
      <trkpt lat="44.99465" lon="6.45651">
        <ele>2233.368</ele>
        <time>2022-01-23T12:00:22Z</time>
      </trkpt>
      <trkpt lat="44.99466" lon="6.4565">
        <ele>2233.439</ele>
        <time>2022-01-23T12:00:27Z</time>
      </trkpt>
      <trkpt lat="44.99466" lon="6.4565">
        <ele>2233.076</ele>
        <time>2022-01-23T12:00:32Z</time>
      </trkpt>
      <trkpt lat="44.99467" lon="6.4565">
        <ele>2233.008</ele>
        <time>2022-01-23T12:00:37Z</time>
      </trkpt>
      <trkpt lat="44.99467" lon="6.4565">
        <ele>2233.014</ele>
        <time>2022-01-23T12:00:42Z</time>
      </trkpt>
      <trkpt lat="44.99467" lon="6.4565">
        <ele>2233.03</ele>
        <time>2022-01-23T12:00:47Z</time>
      </trkpt>
      <trkpt lat="44.99467" lon="6.4565">
        <ele>2233.038</ele>
        <time>2022-01-23T12:00:52Z</time>
      </trkpt>
      <trkpt lat="44.99467" lon="6.4565">
        <ele>2233.037</ele>
        <time>2022-01-23T12:00:57Z</time>
      </trkpt>
      <trkpt lat="44.99467" lon="6.4565">
        <ele>2233.027</ele>
        <time>2022-01-23T12:01:02Z</time>
      </trkpt>
      <trkpt lat="44.99467" lon="6.4565">
        <ele>2233.023</ele>
        <time>2022-01-23T12:01:07Z</time>
      </trkpt>
      <trkpt lat="44.99467" lon="6.4565">
        <ele>2233.022</ele>
        <time>2022-01-23T12:01:12Z</time>
      </trkpt>
      <trkpt lat="44.99467" lon="6.4565">
        <ele>2233.019</ele>
        <time>2022-01-23T12:01:17Z</time>
      </trkpt>
      <trkpt lat="44.99467" lon="6.4565">
        <ele>2233.014</ele>
        <time>2022-01-23T12:01:22Z</time>
      </trkpt>
      <trkpt lat="44.99467" lon="6.4565">
        <ele>2233.018</ele>
        <time>2022-01-23T12:01:27Z</time>
      </trkpt>
      <trkpt lat="44.99467" lon="6.4565">
        <ele>2233.02</ele>
        <time>2022-01-23T12:01:32Z</time>
      </trkpt>
      <trkpt lat="44.99467" lon="6.4565">
        <ele>2233.027</ele>
        <time>2022-01-23T12:01:37Z</time>
      </trkpt>
      <trkpt lat="44.99467" lon="6.4565">
        <ele>2233.036</ele>
        <time>2022-01-23T12:01:42Z</time>
      </trkpt>
      <trkpt lat="44.99467" lon="6.4565">
        <ele>2233.033</ele>
        <time>2022-01-23T12:01:47Z</time>
      </trkpt>
      <trkpt lat="44.99467" lon="6.4565">
        <ele>2233.028</ele>
        <time>2022-01-23T12:01:52Z</time>
      </trkpt>
      <trkpt lat="44.99467" lon="6.4565">
        <ele>2232.509</ele>
        <time>2022-01-23T12:01:57Z</time>
      </trkpt>
      <trkpt lat="44.99467" lon="6.4565">
        <ele>2232.373</ele>
        <time>2022-01-23T12:02:02Z</time>
      </trkpt>
      <trkpt lat="44.99467" lon="6.4565">
        <ele>2231.802</ele>
        <time>2022-01-23T12:02:07Z</time>
      </trkpt>
      <trkpt lat="44.99467" lon="6.4565">
        <ele>2231.591</ele>
        <time>2022-01-23T12:02:12Z</time>
      </trkpt>
      <trkpt lat="44.99467" lon="6.4565">
        <ele>2231.604</ele>
        <time>2022-01-23T12:02:17Z</time>
      </trkpt>
      <trkpt lat="44.99467" lon="6.4565">
        <ele>2231.6</ele>
        <time>2022-01-23T12:02:22Z</time>
      </trkpt>
      <trkpt lat="44.99467" lon="6.4565">
        <ele>2231.603</ele>
        <time>2022-01-23T12:02:27Z</time>
      </trkpt>
      <trkpt lat="44.99467" lon="6.4565">
        <ele>2231.611</ele>
        <time>2022-01-23T12:02:32Z</time>
      </trkpt>
      <trkpt lat="44.99467" lon="6.4565">
        <ele>2231.617</ele>
        <time>2022-01-23T12:02:37Z</time>
      </trkpt>
      <trkpt lat="44.99467" lon="6.4565">
        <ele>2231.619</ele>
        <time>2022-01-23T12:02:42Z</time>
      </trkpt>
      <trkpt lat="44.99467" lon="6.4565">
        <ele>2231.624</ele>
        <time>2022-01-23T12:02:47Z</time>
      </trkpt>
      <trkpt lat="44.99467" lon="6.4565">
        <ele>2232.917</ele>
        <time>2022-01-23T12:02:52Z</time>
      </trkpt>
      <trkpt lat="44.99468" lon="6.4565">
        <ele>2233.834</ele>
        <time>2022-01-23T12:02:57Z</time>
      </trkpt>
      <trkpt lat="44.99468" lon="6.4565">
        <ele>2233.554</ele>
        <time>2022-01-23T12:03:02Z</time>
      </trkpt>
      <trkpt lat="44.99468" lon="6.4565">
        <ele>2233.428</ele>
        <time>2022-01-23T12:03:07Z</time>
      </trkpt>
      <trkpt lat="44.99469" lon="6.4565">
        <ele>2233.551</ele>
        <time>2022-01-23T12:03:12Z</time>
      </trkpt>
      <trkpt lat="44.99469" lon="6.4565">
        <ele>2233.549</ele>
        <time>2022-01-23T12:03:17Z</time>
      </trkpt>
      <trkpt lat="44.99469" lon="6.4565">
        <ele>2233.552</ele>
        <time>2022-01-23T12:03:22Z</time>
      </trkpt>
      <trkpt lat="44.99469" lon="6.4565">
        <ele>2233.568</ele>
        <time>2022-01-23T12:03:27Z</time>
      </trkpt>
      <trkpt lat="44.99469" lon="6.4565">
        <ele>2233.587</ele>
        <time>2022-01-23T12:03:32Z</time>
      </trkpt>
      <trkpt lat="44.99469" lon="6.4565">
        <ele>2233.603</ele>
        <time>2022-01-23T12:03:37Z</time>
      </trkpt>
      <trkpt lat="44.99469" lon="6.4565">
        <ele>2233.621</ele>
        <time>2022-01-23T12:03:42Z</time>
      </trkpt>
      <trkpt lat="44.99469" lon="6.4565">
        <ele>2233.616</ele>
        <time>2022-01-23T12:03:47Z</time>
      </trkpt>
      <trkpt lat="44.99469" lon="6.4565">
        <ele>2233.61</ele>
        <time>2022-01-23T12:03:52Z</time>
      </trkpt>
      <trkpt lat="44.99469" lon="6.4565">
        <ele>2233.604</ele>
        <time>2022-01-23T12:03:57Z</time>
      </trkpt>
      <trkpt lat="44.99469" lon="6.4565">
        <ele>2233.609</ele>
        <time>2022-01-23T12:04:02Z</time>
      </trkpt>
      <trkpt lat="44.99468" lon="6.45649">
        <ele>2233.131</ele>
        <time>2022-01-23T12:04:07Z</time>
      </trkpt>
      <trkpt lat="44.99468" lon="6.4565">
        <ele>2232.73</ele>
        <time>2022-01-23T12:04:12Z</time>
      </trkpt>
      <trkpt lat="44.99468" lon="6.45649">
        <ele>2232.708</ele>
        <time>2022-01-23T12:04:17Z</time>
      </trkpt>
      <trkpt lat="44.99468" lon="6.45649">
        <ele>2232.738</ele>
        <time>2022-01-23T12:04:22Z</time>
      </trkpt>
      <trkpt lat="44.99468" lon="6.45649">
        <ele>2232.739</ele>
        <time>2022-01-23T12:04:27Z</time>
      </trkpt>
      <trkpt lat="44.99468" lon="6.45649">
        <ele>2232.745</ele>
        <time>2022-01-23T12:04:32Z</time>
      </trkpt>
      <trkpt lat="44.99468" lon="6.45649">
        <ele>2232.747</ele>
        <time>2022-01-23T12:04:37Z</time>
      </trkpt>
      <trkpt lat="44.99468" lon="6.45649">
        <ele>2232.753</ele>
        <time>2022-01-23T12:04:42Z</time>
      </trkpt>
      <trkpt lat="44.99468" lon="6.45649">
        <ele>2232.76</ele>
        <time>2022-01-23T12:04:47Z</time>
      </trkpt>
      <trkpt lat="44.99468" lon="6.45649">
        <ele>2232.761</ele>
        <time>2022-01-23T12:04:52Z</time>
      </trkpt>
      <trkpt lat="44.99468" lon="6.45649">
        <ele>2232.761</ele>
        <time>2022-01-23T12:04:57Z</time>
      </trkpt>
      <trkpt lat="44.99468" lon="6.45649">
        <ele>2232.776</ele>
        <time>2022-01-23T12:05:02Z</time>
      </trkpt>
      <trkpt lat="44.99468" lon="6.45649">
        <ele>2232.775</ele>
        <time>2022-01-23T12:05:07Z</time>
      </trkpt>
      <trkpt lat="44.99468" lon="6.45649">
        <ele>2232.768</ele>
        <time>2022-01-23T12:05:12Z</time>
      </trkpt>
      <trkpt lat="44.99468" lon="6.45649">
        <ele>2232.755</ele>
        <time>2022-01-23T12:05:17Z</time>
      </trkpt>
      <trkpt lat="44.99468" lon="6.45649">
        <ele>2232.752</ele>
        <time>2022-01-23T12:05:22Z</time>
      </trkpt>
      <trkpt lat="44.99468" lon="6.45649">
        <ele>2232.749</ele>
        <time>2022-01-23T12:05:27Z</time>
      </trkpt>
      <trkpt lat="44.99468" lon="6.45649">
        <ele>2232.743</ele>
        <time>2022-01-23T12:05:32Z</time>
      </trkpt>
      <trkpt lat="44.99468" lon="6.45649">
        <ele>2232.744</ele>
        <time>2022-01-23T12:05:37Z</time>
      </trkpt>
      <trkpt lat="44.99468" lon="6.45649">
        <ele>2232.745</ele>
        <time>2022-01-23T12:05:42Z</time>
      </trkpt>
      <trkpt lat="44.99468" lon="6.45649">
        <ele>2232.735</ele>
        <time>2022-01-23T12:05:47Z</time>
      </trkpt>
      <trkpt lat="44.99468" lon="6.45649">
        <ele>2232.726</ele>
        <time>2022-01-23T12:05:52Z</time>
      </trkpt>
      <trkpt lat="44.99468" lon="6.45649">
        <ele>2232.718</ele>
        <time>2022-01-23T12:05:57Z</time>
      </trkpt>
      <trkpt lat="44.99468" lon="6.45649">
        <ele>2232.757</ele>
        <time>2022-01-23T12:06:02Z</time>
      </trkpt>
      <trkpt lat="44.99468" lon="6.45649">
        <ele>2232.426</ele>
        <time>2022-01-23T12:06:07Z</time>
      </trkpt>
      <trkpt lat="44.99467" lon="6.45649">
        <ele>2232.704</ele>
        <time>2022-01-23T12:06:12Z</time>
      </trkpt>
      <trkpt lat="44.99467" lon="6.4565">
        <ele>2232.611</ele>
        <time>2022-01-23T12:06:17Z</time>
      </trkpt>
      <trkpt lat="44.99467" lon="6.4565">
        <ele>2232.662</ele>
        <time>2022-01-23T12:06:22Z</time>
      </trkpt>
      <trkpt lat="44.99467" lon="6.4565">
        <ele>2232.667</ele>
        <time>2022-01-23T12:06:27Z</time>
      </trkpt>
      <trkpt lat="44.99467" lon="6.4565">
        <ele>2232.671</ele>
        <time>2022-01-23T12:06:32Z</time>
      </trkpt>
      <trkpt lat="44.99466" lon="6.4565">
        <ele>2231.896</ele>
        <time>2022-01-23T12:06:37Z</time>
      </trkpt>
      <trkpt lat="44.99466" lon="6.4565">
        <ele>2232.062</ele>
        <time>2022-01-23T12:06:42Z</time>
      </trkpt>
      <trkpt lat="44.99466" lon="6.4565">
        <ele>2231.923</ele>
        <time>2022-01-23T12:06:47Z</time>
      </trkpt>
      <trkpt lat="44.99466" lon="6.4565">
        <ele>2231.919</ele>
        <time>2022-01-23T12:06:52Z</time>
      </trkpt>
      <trkpt lat="44.99466" lon="6.4565">
        <ele>2231.921</ele>
        <time>2022-01-23T12:06:57Z</time>
      </trkpt>
      <trkpt lat="44.99466" lon="6.4565">
        <ele>2231.923</ele>
        <time>2022-01-23T12:07:02Z</time>
      </trkpt>
      <trkpt lat="44.99466" lon="6.4565">
        <ele>2231.929</ele>
        <time>2022-01-23T12:07:07Z</time>
      </trkpt>
      <trkpt lat="44.99466" lon="6.4565">
        <ele>2231.937</ele>
        <time>2022-01-23T12:07:12Z</time>
      </trkpt>
      <trkpt lat="44.99466" lon="6.4565">
        <ele>2231.94</ele>
        <time>2022-01-23T12:07:17Z</time>
      </trkpt>
      <trkpt lat="44.99466" lon="6.4565">
        <ele>2231.941</ele>
        <time>2022-01-23T12:07:22Z</time>
      </trkpt>
      <trkpt lat="44.99466" lon="6.4565">
        <ele>2231.943</ele>
        <time>2022-01-23T12:07:27Z</time>
      </trkpt>
      <trkpt lat="44.99466" lon="6.4565">
        <ele>2231.946</ele>
        <time>2022-01-23T12:07:32Z</time>
      </trkpt>
      <trkpt lat="44.99466" lon="6.4565">
        <ele>2231.943</ele>
        <time>2022-01-23T12:07:37Z</time>
      </trkpt>
      <trkpt lat="44.99466" lon="6.4565">
        <ele>2231.934</ele>
        <time>2022-01-23T12:07:42Z</time>
      </trkpt>
      <trkpt lat="44.99466" lon="6.4565">
        <ele>2231.929</ele>
        <time>2022-01-23T12:07:47Z</time>
      </trkpt>
      <trkpt lat="44.99466" lon="6.4565">
        <ele>2231.924</ele>
        <time>2022-01-23T12:07:52Z</time>
      </trkpt>
      <trkpt lat="44.99466" lon="6.4565">
        <ele>2231.922</ele>
        <time>2022-01-23T12:07:57Z</time>
      </trkpt>
      <trkpt lat="44.99466" lon="6.4565">
        <ele>2231.919</ele>
        <time>2022-01-23T12:08:02Z</time>
      </trkpt>
      <trkpt lat="44.99466" lon="6.4565">
        <ele>2231.888</ele>
        <time>2022-01-23T12:08:07Z</time>
      </trkpt>
      <trkpt lat="44.99466" lon="6.4565">
        <ele>2231.887</ele>
        <time>2022-01-23T12:08:12Z</time>
      </trkpt>
      <trkpt lat="44.99466" lon="6.45651">
        <ele>2231.13</ele>
        <time>2022-01-23T12:08:17Z</time>
      </trkpt>
      <trkpt lat="44.99466" lon="6.45651">
        <ele>2231.425</ele>
        <time>2022-01-23T12:08:22Z</time>
      </trkpt>
      <trkpt lat="44.99466" lon="6.45651">
        <ele>2231.792</ele>
        <time>2022-01-23T12:08:27Z</time>
      </trkpt>
      <trkpt lat="44.99466" lon="6.45651">
        <ele>2231.652</ele>
        <time>2022-01-23T12:08:32Z</time>
      </trkpt>
      <trkpt lat="44.99466" lon="6.45651">
        <ele>2231.96</ele>
        <time>2022-01-23T12:08:37Z</time>
      </trkpt>
      <trkpt lat="44.99466" lon="6.45651">
        <ele>2231.99</ele>
        <time>2022-01-23T12:08:42Z</time>
      </trkpt>
      <trkpt lat="44.99466" lon="6.45651">
        <ele>2231.982</ele>
        <time>2022-01-23T12:08:47Z</time>
      </trkpt>
      <trkpt lat="44.99466" lon="6.45651">
        <ele>2231.983</ele>
        <time>2022-01-23T12:08:52Z</time>
      </trkpt>
      <trkpt lat="44.99466" lon="6.45651">
        <ele>2231.989</ele>
        <time>2022-01-23T12:08:57Z</time>
      </trkpt>
      <trkpt lat="44.99466" lon="6.45651">
        <ele>2231.991</ele>
        <time>2022-01-23T12:09:02Z</time>
      </trkpt>
      <trkpt lat="44.99467" lon="6.45651">
        <ele>2231.477</ele>
        <time>2022-01-23T12:09:07Z</time>
      </trkpt>
      <trkpt lat="44.99467" lon="6.45651">
        <ele>2231.623</ele>
        <time>2022-01-23T12:09:12Z</time>
      </trkpt>
      <trkpt lat="44.99467" lon="6.45651">
        <ele>2231.266</ele>
        <time>2022-01-23T12:09:17Z</time>
      </trkpt>
      <trkpt lat="44.99467" lon="6.45651">
        <ele>2231.227</ele>
        <time>2022-01-23T12:09:22Z</time>
      </trkpt>
      <trkpt lat="44.99467" lon="6.45651">
        <ele>2231.232</ele>
        <time>2022-01-23T12:09:26Z</time>
      </trkpt>
      <trkpt lat="44.99467" lon="6.45651">
        <ele>2231.224</ele>
        <time>2022-01-23T12:09:32Z</time>
      </trkpt>
      <trkpt lat="44.99467" lon="6.45651">
        <ele>2231.223</ele>
        <time>2022-01-23T12:09:37Z</time>
      </trkpt>
      <trkpt lat="44.99467" lon="6.45651">
        <ele>2231.222</ele>
        <time>2022-01-23T12:09:42Z</time>
      </trkpt>
      <trkpt lat="44.99467" lon="6.45651">
        <ele>2231.757</ele>
        <time>2022-01-23T12:09:47Z</time>
      </trkpt>
      <trkpt lat="44.99467" lon="6.4565">
        <ele>2232.079</ele>
        <time>2022-01-23T12:09:52Z</time>
      </trkpt>
      <trkpt lat="44.99467" lon="6.45649">
        <ele>2231.96</ele>
        <time>2022-01-23T12:09:57Z</time>
      </trkpt>
      <trkpt lat="44.99467" lon="6.45649">
        <ele>2231.892</ele>
        <time>2022-01-23T12:10:02Z</time>
      </trkpt>
      <trkpt lat="44.99467" lon="6.45649">
        <ele>2231.881</ele>
        <time>2022-01-23T12:10:07Z</time>
      </trkpt>
      <trkpt lat="44.99467" lon="6.45649">
        <ele>2231.885</ele>
        <time>2022-01-23T12:10:12Z</time>
      </trkpt>
      <trkpt lat="44.99467" lon="6.45649">
        <ele>2231.876</ele>
        <time>2022-01-23T12:10:17Z</time>
      </trkpt>
      <trkpt lat="44.99467" lon="6.45649">
        <ele>2231.878</ele>
        <time>2022-01-23T12:10:22Z</time>
      </trkpt>
      <trkpt lat="44.99467" lon="6.45649">
        <ele>2231.874</ele>
        <time>2022-01-23T12:10:27Z</time>
      </trkpt>
      <trkpt lat="44.99467" lon="6.45649">
        <ele>2231.88</ele>
        <time>2022-01-23T12:10:32Z</time>
      </trkpt>
      <trkpt lat="44.99467" lon="6.45649">
        <ele>2231.882</ele>
        <time>2022-01-23T12:10:37Z</time>
      </trkpt>
      <trkpt lat="44.99467" lon="6.45649">
        <ele>2231.884</ele>
        <time>2022-01-23T12:10:42Z</time>
      </trkpt>
      <trkpt lat="44.99467" lon="6.45649">
        <ele>2231.892</ele>
        <time>2022-01-23T12:10:47Z</time>
      </trkpt>
      <trkpt lat="44.99467" lon="6.45649">
        <ele>2231.89</ele>
        <time>2022-01-23T12:10:52Z</time>
      </trkpt>
      <trkpt lat="44.99467" lon="6.45649">
        <ele>2231.897</ele>
        <time>2022-01-23T12:10:57Z</time>
      </trkpt>
      <trkpt lat="44.99467" lon="6.45649">
        <ele>2231.898</ele>
        <time>2022-01-23T12:11:02Z</time>
      </trkpt>
      <trkpt lat="44.99467" lon="6.45649">
        <ele>2231.893</ele>
        <time>2022-01-23T12:11:07Z</time>
      </trkpt>
      <trkpt lat="44.99467" lon="6.45649">
        <ele>2231.898</ele>
        <time>2022-01-23T12:11:12Z</time>
      </trkpt>
      <trkpt lat="44.99467" lon="6.45649">
        <ele>2231.893</ele>
        <time>2022-01-23T12:11:17Z</time>
      </trkpt>
      <trkpt lat="44.99467" lon="6.45649">
        <ele>2231.893</ele>
        <time>2022-01-23T12:11:22Z</time>
      </trkpt>
      <trkpt lat="44.99467" lon="6.45649">
        <ele>2231.886</ele>
        <time>2022-01-23T12:11:27Z</time>
      </trkpt>
      <trkpt lat="44.99467" lon="6.45649">
        <ele>2231.896</ele>
        <time>2022-01-23T12:11:32Z</time>
      </trkpt>
      <trkpt lat="44.99467" lon="6.45649">
        <ele>2231.907</ele>
        <time>2022-01-23T12:11:37Z</time>
      </trkpt>
      <trkpt lat="44.99467" lon="6.45649">
        <ele>2231.903</ele>
        <time>2022-01-23T12:11:42Z</time>
      </trkpt>
      <trkpt lat="44.99467" lon="6.45649">
        <ele>2231.916</ele>
        <time>2022-01-23T12:11:47Z</time>
      </trkpt>
      <trkpt lat="44.99467" lon="6.45649">
        <ele>2231.917</ele>
        <time>2022-01-23T12:11:52Z</time>
      </trkpt>
      <trkpt lat="44.99467" lon="6.45649">
        <ele>2231.922</ele>
        <time>2022-01-23T12:11:57Z</time>
      </trkpt>
      <trkpt lat="44.99467" lon="6.45649">
        <ele>2231.939</ele>
        <time>2022-01-23T12:12:02Z</time>
      </trkpt>
      <trkpt lat="44.99467" lon="6.45649">
        <ele>2231.945</ele>
        <time>2022-01-23T12:12:07Z</time>
      </trkpt>
      <trkpt lat="44.99467" lon="6.45649">
        <ele>2231.942</ele>
        <time>2022-01-23T12:12:12Z</time>
      </trkpt>
      <trkpt lat="44.99467" lon="6.45649">
        <ele>2231.946</ele>
        <time>2022-01-23T12:12:17Z</time>
      </trkpt>
      <trkpt lat="44.99467" lon="6.45649">
        <ele>2231.944</ele>
        <time>2022-01-23T12:12:22Z</time>
      </trkpt>
      <trkpt lat="44.99467" lon="6.45649">
        <ele>2231.939</ele>
        <time>2022-01-23T12:12:27Z</time>
      </trkpt>
      <trkpt lat="44.99467" lon="6.45649">
        <ele>2231.937</ele>
        <time>2022-01-23T12:12:32Z</time>
      </trkpt>
      <trkpt lat="44.99467" lon="6.45649">
        <ele>2231.937</ele>
        <time>2022-01-23T12:12:37Z</time>
      </trkpt>
      <trkpt lat="44.99467" lon="6.45649">
        <ele>2231.938</ele>
        <time>2022-01-23T12:12:42Z</time>
      </trkpt>
      <trkpt lat="44.99467" lon="6.45649">
        <ele>2231.939</ele>
        <time>2022-01-23T12:12:47Z</time>
      </trkpt>
      <trkpt lat="44.99467" lon="6.45649">
        <ele>2231.938</ele>
        <time>2022-01-23T12:12:52Z</time>
      </trkpt>
      <trkpt lat="44.99467" lon="6.45649">
        <ele>2231.935</ele>
        <time>2022-01-23T12:12:57Z</time>
      </trkpt>
      <trkpt lat="44.99467" lon="6.45649">
        <ele>2231.935</ele>
        <time>2022-01-23T12:13:02Z</time>
      </trkpt>
      <trkpt lat="44.99467" lon="6.45649">
        <ele>2231.938</ele>
        <time>2022-01-23T12:13:07Z</time>
      </trkpt>
      <trkpt lat="44.99467" lon="6.45649">
        <ele>2231.941</ele>
        <time>2022-01-23T12:13:12Z</time>
      </trkpt>
      <trkpt lat="44.99467" lon="6.4565">
        <ele>2230.744</ele>
        <time>2022-01-23T12:13:17Z</time>
      </trkpt>
      <trkpt lat="44.99468" lon="6.45654">
        <ele>2229.705</ele>
        <time>2022-01-23T12:13:22Z</time>
      </trkpt>
      <trkpt lat="44.99468" lon="6.45656">
        <ele>2230.333</ele>
        <time>2022-01-23T12:13:27Z</time>
      </trkpt>
      <trkpt lat="44.99468" lon="6.45656">
        <ele>2230.156</ele>
        <time>2022-01-23T12:13:32Z</time>
      </trkpt>
      <trkpt lat="44.99468" lon="6.45656">
        <ele>2230.12</ele>
        <time>2022-01-23T12:13:37Z</time>
      </trkpt>
      <trkpt lat="44.99468" lon="6.45656">
        <ele>2230.109</ele>
        <time>2022-01-23T12:13:42Z</time>
      </trkpt>
      <trkpt lat="44.99468" lon="6.45656">
        <ele>2230.101</ele>
        <time>2022-01-23T12:13:47Z</time>
      </trkpt>
      <trkpt lat="44.99468" lon="6.45656">
        <ele>2230.091</ele>
        <time>2022-01-23T12:13:52Z</time>
      </trkpt>
      <trkpt lat="44.99468" lon="6.45656">
        <ele>2230.279</ele>
        <time>2022-01-23T12:13:57Z</time>
      </trkpt>
      <trkpt lat="44.99469" lon="6.45657">
        <ele>2230.642</ele>
        <time>2022-01-23T12:14:02Z</time>
      </trkpt>
      <trkpt lat="44.99469" lon="6.45657">
        <ele>2230.545</ele>
        <time>2022-01-23T12:14:07Z</time>
      </trkpt>
      <trkpt lat="44.99469" lon="6.45657">
        <ele>2230.53</ele>
        <time>2022-01-23T12:14:12Z</time>
      </trkpt>
      <trkpt lat="44.99468" lon="6.45657">
        <ele>2229.888</ele>
        <time>2022-01-23T12:14:17Z</time>
      </trkpt>
      <trkpt lat="44.99468" lon="6.45657">
        <ele>2230.761</ele>
        <time>2022-01-23T12:14:22Z</time>
      </trkpt>
      <trkpt lat="44.99468" lon="6.45657">
        <ele>2230.761</ele>
        <time>2022-01-23T12:14:27Z</time>
      </trkpt>
      <trkpt lat="44.99468" lon="6.45658">
        <ele>2230.863</ele>
        <time>2022-01-23T12:14:32Z</time>
      </trkpt>
      <trkpt lat="44.99468" lon="6.45658">
        <ele>2230.857</ele>
        <time>2022-01-23T12:14:37Z</time>
      </trkpt>
      <trkpt lat="44.99468" lon="6.45658">
        <ele>2230.855</ele>
        <time>2022-01-23T12:14:42Z</time>
      </trkpt>
      <trkpt lat="44.99466" lon="6.45664">
        <ele>2229.257</ele>
        <time>2022-01-23T12:14:47Z</time>
      </trkpt>
      <trkpt lat="44.99446" lon="6.45663">
        <ele>2224.597</ele>
        <time>2022-01-23T12:14:52Z</time>
      </trkpt>
      <trkpt lat="44.99434" lon="6.45699">
        <ele>2214.338</ele>
        <time>2022-01-23T12:14:57Z</time>
      </trkpt>
      <trkpt lat="44.99429" lon="6.45722">
        <ele>2208.086</ele>
        <time>2022-01-23T12:15:02Z</time>
      </trkpt>
      <trkpt lat="44.99435" lon="6.45728">
        <ele>2206.905</ele>
        <time>2022-01-23T12:15:07Z</time>
      </trkpt>
      <trkpt lat="44.99428" lon="6.45754">
        <ele>2199.518</ele>
        <time>2022-01-23T12:15:12Z</time>
      </trkpt>
      <trkpt lat="44.99419" lon="6.4578">
        <ele>2196.967</ele>
        <time>2022-01-23T12:15:17Z</time>
      </trkpt>
      <trkpt lat="44.99413" lon="6.45792">
        <ele>2194.671</ele>
        <time>2022-01-23T12:15:22Z</time>
      </trkpt>
      <trkpt lat="44.99411" lon="6.45796">
        <ele>2193.45</ele>
        <time>2022-01-23T12:15:27Z</time>
      </trkpt>
      <trkpt lat="44.99411" lon="6.45796">
        <ele>2193.519</ele>
        <time>2022-01-23T12:15:32Z</time>
      </trkpt>
      <trkpt lat="44.99411" lon="6.45796">
        <ele>2193.816</ele>
        <time>2022-01-23T12:15:37Z</time>
      </trkpt>
      <trkpt lat="44.99411" lon="6.45796">
        <ele>2193.748</ele>
        <time>2022-01-23T12:15:42Z</time>
      </trkpt>
      <trkpt lat="44.99411" lon="6.45796">
        <ele>2193.744</ele>
        <time>2022-01-23T12:15:47Z</time>
      </trkpt>
      <trkpt lat="44.99411" lon="6.45796">
        <ele>2193.746</ele>
        <time>2022-01-23T12:15:52Z</time>
      </trkpt>
      <trkpt lat="44.99411" lon="6.45796">
        <ele>2193.752</ele>
        <time>2022-01-23T12:15:57Z</time>
      </trkpt>
      <trkpt lat="44.99411" lon="6.45797">
        <ele>2193.317</ele>
        <time>2022-01-23T12:16:02Z</time>
      </trkpt>
      <trkpt lat="44.99415" lon="6.45812">
        <ele>2187.696</ele>
        <time>2022-01-23T12:16:07Z</time>
      </trkpt>
      <trkpt lat="44.99418" lon="6.45824">
        <ele>2182.604</ele>
        <time>2022-01-23T12:16:12Z</time>
      </trkpt>
      <trkpt lat="44.99417" lon="6.45837">
        <ele>2174.704</ele>
        <time>2022-01-23T12:16:17Z</time>
      </trkpt>
      <trkpt lat="44.99429" lon="6.45841">
        <ele>2166.172</ele>
        <time>2022-01-23T12:16:22Z</time>
      </trkpt>
      <trkpt lat="44.99434" lon="6.45853">
        <ele>2159.074</ele>
        <time>2022-01-23T12:16:27Z</time>
      </trkpt>
      <trkpt lat="44.9944" lon="6.4587">
        <ele>2148.198</ele>
        <time>2022-01-23T12:16:32Z</time>
      </trkpt>
      <trkpt lat="44.99446" lon="6.45884">
        <ele>2139.936</ele>
        <time>2022-01-23T12:16:37Z</time>
      </trkpt>
      <trkpt lat="44.99441" lon="6.45902">
        <ele>2131.736</ele>
        <time>2022-01-23T12:16:42Z</time>
      </trkpt>
      <trkpt lat="44.99432" lon="6.45915">
        <ele>2128.008</ele>
        <time>2022-01-23T12:16:47Z</time>
      </trkpt>
      <trkpt lat="44.99436" lon="6.45929">
        <ele>2118.533</ele>
        <time>2022-01-23T12:16:52Z</time>
      </trkpt>
      <trkpt lat="44.99427" lon="6.45941">
        <ele>2114.79</ele>
        <time>2022-01-23T12:16:57Z</time>
      </trkpt>
      <trkpt lat="44.99441" lon="6.4595">
        <ele>2106.186</ele>
        <time>2022-01-23T12:17:02Z</time>
      </trkpt>
      <trkpt lat="44.99458" lon="6.45951">
        <ele>2100.633</ele>
        <time>2022-01-23T12:17:07Z</time>
      </trkpt>
      <trkpt lat="44.99462" lon="6.45968">
        <ele>2092.263</ele>
        <time>2022-01-23T12:17:12Z</time>
      </trkpt>
      <trkpt lat="44.99471" lon="6.45983">
        <ele>2082.108</ele>
        <time>2022-01-23T12:17:17Z</time>
      </trkpt>
      <trkpt lat="44.99466" lon="6.46003">
        <ele>2071.859</ele>
        <time>2022-01-23T12:17:22Z</time>
      </trkpt>
      <trkpt lat="44.99466" lon="6.46026">
        <ele>2062.201</ele>
        <time>2022-01-23T12:17:27Z</time>
      </trkpt>
      <trkpt lat="44.99478" lon="6.4604">
        <ele>2050.078</ele>
        <time>2022-01-23T12:17:32Z</time>
      </trkpt>
      <trkpt lat="44.9949" lon="6.46054">
        <ele>2039.044</ele>
        <time>2022-01-23T12:17:37Z</time>
      </trkpt>
      <trkpt lat="44.9949" lon="6.46064">
        <ele>2033.296</ele>
        <time>2022-01-23T12:17:42Z</time>
      </trkpt>
      <trkpt lat="44.99499" lon="6.46071">
        <ele>2028.48</ele>
        <time>2022-01-23T12:17:47Z</time>
      </trkpt>
      <trkpt lat="44.99511" lon="6.46071">
        <ele>2023.548</ele>
        <time>2022-01-23T12:17:52Z</time>
      </trkpt>
      <trkpt lat="44.99512" lon="6.46074">
        <ele>2024.075</ele>
        <time>2022-01-23T12:17:57Z</time>
      </trkpt>
      <trkpt lat="44.99512" lon="6.46074">
        <ele>2024.221</ele>
        <time>2022-01-23T12:18:02Z</time>
      </trkpt>
      <trkpt lat="44.99512" lon="6.46074">
        <ele>2023.835</ele>
        <time>2022-01-23T12:18:07Z</time>
      </trkpt>
      <trkpt lat="44.99512" lon="6.46074">
        <ele>2023.826</ele>
        <time>2022-01-23T12:18:12Z</time>
      </trkpt>
      <trkpt lat="44.99512" lon="6.46074">
        <ele>2023.826</ele>
        <time>2022-01-23T12:18:17Z</time>
      </trkpt>
      <trkpt lat="44.99511" lon="6.46073">
        <ele>2024.717</ele>
        <time>2022-01-23T12:18:22Z</time>
      </trkpt>
      <trkpt lat="44.99511" lon="6.46072">
        <ele>2024.523</ele>
        <time>2022-01-23T12:18:27Z</time>
      </trkpt>
      <trkpt lat="44.99511" lon="6.46072">
        <ele>2024.391</ele>
        <time>2022-01-23T12:18:32Z</time>
      </trkpt>
      <trkpt lat="44.99511" lon="6.46072">
        <ele>2025.316</ele>
        <time>2022-01-23T12:18:37Z</time>
      </trkpt>
      <trkpt lat="44.99511" lon="6.46072">
        <ele>2024.633</ele>
        <time>2022-01-23T12:18:42Z</time>
      </trkpt>
      <trkpt lat="44.99511" lon="6.46073">
        <ele>2024.446</ele>
        <time>2022-01-23T12:18:47Z</time>
      </trkpt>
      <trkpt lat="44.99512" lon="6.46073">
        <ele>2024.225</ele>
        <time>2022-01-23T12:18:52Z</time>
      </trkpt>
      <trkpt lat="44.99512" lon="6.46072">
        <ele>2024.123</ele>
        <time>2022-01-23T12:18:57Z</time>
      </trkpt>
      <trkpt lat="44.99512" lon="6.46072">
        <ele>2024.07</ele>
        <time>2022-01-23T12:19:02Z</time>
      </trkpt>
      <trkpt lat="44.99512" lon="6.46072">
        <ele>2024.056</ele>
        <time>2022-01-23T12:19:07Z</time>
      </trkpt>
      <trkpt lat="44.99512" lon="6.46072">
        <ele>2024.894</ele>
        <time>2022-01-23T12:19:12Z</time>
      </trkpt>
      <trkpt lat="44.99512" lon="6.46073">
        <ele>2023.967</ele>
        <time>2022-01-23T12:19:17Z</time>
      </trkpt>
      <trkpt lat="44.99511" lon="6.46073">
        <ele>2025.272</ele>
        <time>2022-01-23T12:19:22Z</time>
      </trkpt>
      <trkpt lat="44.9951" lon="6.46084">
        <ele>2019.528</ele>
        <time>2022-01-23T12:19:27Z</time>
      </trkpt>
      <trkpt lat="44.99511" lon="6.46105">
        <ele>2008.589</ele>
        <time>2022-01-23T12:19:32Z</time>
      </trkpt>
      <trkpt lat="44.99511" lon="6.46128">
        <ele>2000.876</ele>
        <time>2022-01-23T12:19:37Z</time>
      </trkpt>
      <trkpt lat="44.99514" lon="6.4615">
        <ele>1987.16</ele>
        <time>2022-01-23T12:19:42Z</time>
      </trkpt>
      <trkpt lat="44.99515" lon="6.46172">
        <ele>1976.587</ele>
        <time>2022-01-23T12:19:47Z</time>
      </trkpt>
      <trkpt lat="44.99525" lon="6.46198">
        <ele>1961.978</ele>
        <time>2022-01-23T12:19:52Z</time>
      </trkpt>
      <trkpt lat="44.99512" lon="6.4623">
        <ele>1950.458</ele>
        <time>2022-01-23T12:19:57Z</time>
      </trkpt>
      <trkpt lat="44.99532" lon="6.46239">
        <ele>1940.552</ele>
        <time>2022-01-23T12:20:02Z</time>
      </trkpt>
      <trkpt lat="44.99535" lon="6.46253">
        <ele>1932.909</ele>
        <time>2022-01-23T12:20:07Z</time>
      </trkpt>
      <trkpt lat="44.99521" lon="6.4627">
        <ele>1926.999</ele>
        <time>2022-01-23T12:20:12Z</time>
      </trkpt>
      <trkpt lat="44.99518" lon="6.46294">
        <ele>1919.034</ele>
        <time>2022-01-23T12:20:17Z</time>
      </trkpt>
      <trkpt lat="44.99525" lon="6.46303">
        <ele>1912.479</ele>
        <time>2022-01-23T12:20:22Z</time>
      </trkpt>
      <trkpt lat="44.99526" lon="6.46303">
        <ele>1912.754</ele>
        <time>2022-01-23T12:20:27Z</time>
      </trkpt>
      <trkpt lat="44.99535" lon="6.46306">
        <ele>1910.036</ele>
        <time>2022-01-23T12:20:32Z</time>
      </trkpt>
      <trkpt lat="44.9955" lon="6.46312">
        <ele>1903.451</ele>
        <time>2022-01-23T12:20:37Z</time>
      </trkpt>
      <trkpt lat="44.99553" lon="6.46331">
        <ele>1896.395</ele>
        <time>2022-01-23T12:20:42Z</time>
      </trkpt>
      <trkpt lat="44.99562" lon="6.46359">
        <ele>1883.358</ele>
        <time>2022-01-23T12:20:47Z</time>
      </trkpt>
      <trkpt lat="44.99568" lon="6.4639">
        <ele>1871.101</ele>
        <time>2022-01-23T12:20:52Z</time>
      </trkpt>
      <trkpt lat="44.99582" lon="6.46419">
        <ele>1858.726</ele>
        <time>2022-01-23T12:20:57Z</time>
      </trkpt>
      <trkpt lat="44.99597" lon="6.46443">
        <ele>1848.749</ele>
        <time>2022-01-23T12:21:02Z</time>
      </trkpt>
      <trkpt lat="44.99599" lon="6.46476">
        <ele>1834.669</ele>
        <time>2022-01-23T12:21:07Z</time>
      </trkpt>
      <trkpt lat="44.99613" lon="6.4648">
        <ele>1832.591</ele>
        <time>2022-01-23T12:21:12Z</time>
      </trkpt>
      <trkpt lat="44.99615" lon="6.46479">
        <ele>1832.212</ele>
        <time>2022-01-23T12:21:17Z</time>
      </trkpt>
      <trkpt lat="44.99615" lon="6.4648">
        <ele>1831.963</ele>
        <time>2022-01-23T12:21:22Z</time>
      </trkpt>
      <trkpt lat="44.99615" lon="6.46481">
        <ele>1832.822</ele>
        <time>2022-01-23T12:21:27Z</time>
      </trkpt>
      <trkpt lat="44.99616" lon="6.46481">
        <ele>1833.225</ele>
        <time>2022-01-23T12:21:32Z</time>
      </trkpt>
      <trkpt lat="44.99616" lon="6.4648">
        <ele>1833.365</ele>
        <time>2022-01-23T12:21:37Z</time>
      </trkpt>
      <trkpt lat="44.99615" lon="6.4648">
        <ele>1832.388</ele>
        <time>2022-01-23T12:21:42Z</time>
      </trkpt>
      <trkpt lat="44.99615" lon="6.46482">
        <ele>1832.616</ele>
        <time>2022-01-23T12:21:47Z</time>
      </trkpt>
      <trkpt lat="44.99615" lon="6.46482">
        <ele>1832.794</ele>
        <time>2022-01-23T12:21:52Z</time>
      </trkpt>
      <trkpt lat="44.99615" lon="6.46483">
        <ele>1832.442</ele>
        <time>2022-01-23T12:21:57Z</time>
      </trkpt>
      <trkpt lat="44.99617" lon="6.46482">
        <ele>1832.072</ele>
        <time>2022-01-23T12:22:02Z</time>
      </trkpt>
      <trkpt lat="44.99626" lon="6.46494">
        <ele>1824.598</ele>
        <time>2022-01-23T12:22:07Z</time>
      </trkpt>
      <trkpt lat="44.9963" lon="6.46527">
        <ele>1815.633</ele>
        <time>2022-01-23T12:22:12Z</time>
      </trkpt>
      <trkpt lat="44.99635" lon="6.46568">
        <ele>1804.519</ele>
        <time>2022-01-23T12:22:17Z</time>
      </trkpt>
      <trkpt lat="44.99641" lon="6.46604">
        <ele>1792.79</ele>
        <time>2022-01-23T12:22:22Z</time>
      </trkpt>
      <trkpt lat="44.99639" lon="6.46629">
        <ele>1783.833</ele>
        <time>2022-01-23T12:22:27Z</time>
      </trkpt>
      <trkpt lat="44.99643" lon="6.4667">
        <ele>1771.4</ele>
        <time>2022-01-23T12:22:32Z</time>
      </trkpt>
      <trkpt lat="44.99647" lon="6.46709">
        <ele>1762.164</ele>
        <time>2022-01-23T12:22:37Z</time>
      </trkpt>
      <trkpt lat="44.99622" lon="6.46718">
        <ele>1756.573</ele>
        <time>2022-01-23T12:22:42Z</time>
      </trkpt>
      <trkpt lat="44.99625" lon="6.46744">
        <ele>1750.096</ele>
        <time>2022-01-23T12:22:47Z</time>
      </trkpt>
      <trkpt lat="44.99612" lon="6.46765">
        <ele>1743.822</ele>
        <time>2022-01-23T12:22:52Z</time>
      </trkpt>
      <trkpt lat="44.99612" lon="6.46784">
        <ele>1732.71</ele>
        <time>2022-01-23T12:22:57Z</time>
      </trkpt>
      <trkpt lat="44.99612" lon="6.46803">
        <ele>1728.225</ele>
        <time>2022-01-23T12:23:02Z</time>
      </trkpt>
      <trkpt lat="44.99609" lon="6.4684">
        <ele>1717.072</ele>
        <time>2022-01-23T12:23:07Z</time>
      </trkpt>
      <trkpt lat="44.99615" lon="6.46873">
        <ele>1709.859</ele>
        <time>2022-01-23T12:23:12Z</time>
      </trkpt>
      <trkpt lat="44.9961" lon="6.46896">
        <ele>1704.763</ele>
        <time>2022-01-23T12:23:17Z</time>
      </trkpt>
      <trkpt lat="44.99607" lon="6.46924">
        <ele>1696.939</ele>
        <time>2022-01-23T12:23:22Z</time>
      </trkpt>
      <trkpt lat="44.99606" lon="6.46955">
        <ele>1693.819</ele>
        <time>2022-01-23T12:23:27Z</time>
      </trkpt>
      <trkpt lat="44.99616" lon="6.46975">
        <ele>1687.449</ele>
        <time>2022-01-23T12:23:32Z</time>
      </trkpt>
      <trkpt lat="44.99623" lon="6.46988">
        <ele>1684.195</ele>
        <time>2022-01-23T12:23:37Z</time>
      </trkpt>
      <trkpt lat="44.99625" lon="6.46989">
        <ele>1683.23</ele>
        <time>2022-01-23T12:23:42Z</time>
      </trkpt>
      <trkpt lat="44.99625" lon="6.46989">
        <ele>1682.856</ele>
        <time>2022-01-23T12:23:47Z</time>
      </trkpt>
      <trkpt lat="44.99625" lon="6.46989">
        <ele>1682.506</ele>
        <time>2022-01-23T12:23:52Z</time>
      </trkpt>
      <trkpt lat="44.99627" lon="6.46991">
        <ele>1681.361</ele>
        <time>2022-01-23T12:23:57Z</time>
      </trkpt>
      <trkpt lat="44.99616" lon="6.47013">
        <ele>1676.183</ele>
        <time>2022-01-23T12:24:02Z</time>
      </trkpt>
      <trkpt lat="44.99607" lon="6.47049">
        <ele>1672.827</ele>
        <time>2022-01-23T12:24:07Z</time>
      </trkpt>
      <trkpt lat="44.99609" lon="6.47066">
        <ele>1670.474</ele>
        <time>2022-01-23T12:24:12Z</time>
      </trkpt>
      <trkpt lat="44.99619" lon="6.47072">
        <ele>1668.004</ele>
        <time>2022-01-23T12:24:17Z</time>
      </trkpt>
      <trkpt lat="44.99621" lon="6.47074">
        <ele>1664.99</ele>
        <time>2022-01-23T12:24:22Z</time>
      </trkpt>
      <trkpt lat="44.99622" lon="6.47074">
        <ele>1665.209</ele>
        <time>2022-01-23T12:24:27Z</time>
      </trkpt>
      <trkpt lat="44.99624" lon="6.47075">
        <ele>1662.69</ele>
        <time>2022-01-23T12:24:32Z</time>
      </trkpt>
      <trkpt lat="44.99626" lon="6.47076">
        <ele>1661.813</ele>
        <time>2022-01-23T12:24:37Z</time>
      </trkpt>
      <trkpt lat="44.99629" lon="6.47107">
        <ele>1653.146</ele>
        <time>2022-01-23T12:24:42Z</time>
      </trkpt>
      <trkpt lat="44.99629" lon="6.47131">
        <ele>1647.061</ele>
        <time>2022-01-23T12:24:47Z</time>
      </trkpt>
      <trkpt lat="44.9962" lon="6.47137">
        <ele>1647.654</ele>
        <time>2022-01-23T12:24:52Z</time>
      </trkpt>
      <trkpt lat="44.99614" lon="6.47164">
        <ele>1640.557</ele>
        <time>2022-01-23T12:24:57Z</time>
      </trkpt>
      <trkpt lat="44.99616" lon="6.47188">
        <ele>1636.329</ele>
        <time>2022-01-23T12:25:02Z</time>
      </trkpt>
      <trkpt lat="44.99628" lon="6.47209">
        <ele>1633.417</ele>
        <time>2022-01-23T12:25:07Z</time>
      </trkpt>
      <trkpt lat="44.99625" lon="6.47236">
        <ele>1627.752</ele>
        <time>2022-01-23T12:25:12Z</time>
      </trkpt>
      <trkpt lat="44.99629" lon="6.47272">
        <ele>1620.59</ele>
        <time>2022-01-23T12:25:17Z</time>
      </trkpt>
      <trkpt lat="44.99637" lon="6.47291">
        <ele>1616.261</ele>
        <time>2022-01-23T12:25:22Z</time>
      </trkpt>
      <trkpt lat="44.99628" lon="6.47313">
        <ele>1610.486</ele>
        <time>2022-01-23T12:25:27Z</time>
      </trkpt>
      <trkpt lat="44.99618" lon="6.47345">
        <ele>1605.854</ele>
        <time>2022-01-23T12:25:32Z</time>
      </trkpt>
      <trkpt lat="44.99623" lon="6.47365">
        <ele>1601.517</ele>
        <time>2022-01-23T12:25:37Z</time>
      </trkpt>
      <trkpt lat="44.99627" lon="6.47397">
        <ele>1593.487</ele>
        <time>2022-01-23T12:25:42Z</time>
      </trkpt>
      <trkpt lat="44.99625" lon="6.47427">
        <ele>1590.578</ele>
        <time>2022-01-23T12:25:47Z</time>
      </trkpt>
      <trkpt lat="44.99625" lon="6.47451">
        <ele>1586.735</ele>
        <time>2022-01-23T12:25:52Z</time>
      </trkpt>
      <trkpt lat="44.99625" lon="6.47452">
        <ele>1586.073</ele>
        <time>2022-01-23T12:25:57Z</time>
      </trkpt>
      <trkpt lat="44.99625" lon="6.47454">
        <ele>1585.797</ele>
        <time>2022-01-23T12:26:02Z</time>
      </trkpt>
      <trkpt lat="44.99627" lon="6.47458">
        <ele>1584.375</ele>
        <time>2022-01-23T12:26:07Z</time>
      </trkpt>
      <trkpt lat="44.99632" lon="6.47494">
        <ele>1578.198</ele>
        <time>2022-01-23T12:26:12Z</time>
      </trkpt>
      <trkpt lat="44.99633" lon="6.47532">
        <ele>1570.421</ele>
        <time>2022-01-23T12:26:17Z</time>
      </trkpt>
      <trkpt lat="44.99646" lon="6.47556">
        <ele>1566.248</ele>
        <time>2022-01-23T12:26:22Z</time>
      </trkpt>
      <trkpt lat="44.99655" lon="6.4759">
        <ele>1561.674</ele>
        <time>2022-01-23T12:26:27Z</time>
      </trkpt>
      <trkpt lat="44.99678" lon="6.47603">
        <ele>1558.37</ele>
        <time>2022-01-23T12:26:32Z</time>
      </trkpt>
      <trkpt lat="44.99681" lon="6.47607">
        <ele>1558.221</ele>
        <time>2022-01-23T12:26:37Z</time>
      </trkpt>
      <trkpt lat="44.99681" lon="6.47608">
        <ele>1557.995</ele>
        <time>2022-01-23T12:26:42Z</time>
      </trkpt>
      <trkpt lat="44.99682" lon="6.47619">
        <ele>1552.62</ele>
        <time>2022-01-23T12:26:47Z</time>
      </trkpt>
      <trkpt lat="44.99685" lon="6.47642">
        <ele>1551.003</ele>
        <time>2022-01-23T12:26:52Z</time>
      </trkpt>
      <trkpt lat="44.99696" lon="6.47643">
        <ele>1551.845</ele>
        <time>2022-01-23T12:26:57Z</time>
      </trkpt>
      <trkpt lat="44.99696" lon="6.47642">
        <ele>1552.621</ele>
        <time>2022-01-23T12:27:02Z</time>
      </trkpt>
      <trkpt lat="44.99696" lon="6.47642">
        <ele>1553.58</ele>
        <time>2022-01-23T12:27:07Z</time>
      </trkpt>
      <trkpt lat="44.99694" lon="6.4764">
        <ele>1553.236</ele>
        <time>2022-01-23T12:27:12Z</time>
      </trkpt>
      <trkpt lat="44.99694" lon="6.4764">
        <ele>1554.722</ele>
        <time>2022-01-23T12:27:17Z</time>
      </trkpt>
      <trkpt lat="44.99691" lon="6.4764">
        <ele>1554.401</ele>
        <time>2022-01-23T12:27:22Z</time>
      </trkpt>
      <trkpt lat="44.99687" lon="6.47641">
        <ele>1554.486</ele>
        <time>2022-01-23T12:27:27Z</time>
      </trkpt>
      <trkpt lat="44.99691" lon="6.47642">
        <ele>1556.036</ele>
        <time>2022-01-23T12:27:32Z</time>
      </trkpt>
      <trkpt lat="44.99694" lon="6.47642">
        <ele>1555.74</ele>
        <time>2022-01-23T12:27:37Z</time>
      </trkpt>
      <trkpt lat="44.99695" lon="6.47642">
        <ele>1556.976</ele>
        <time>2022-01-23T12:27:42Z</time>
      </trkpt>
      <trkpt lat="44.99698" lon="6.47641">
        <ele>1557.615</ele>
        <time>2022-01-23T12:27:47Z</time>
      </trkpt>
      <trkpt lat="44.99704" lon="6.47641">
        <ele>1561.349</ele>
        <time>2022-01-23T12:27:52Z</time>
      </trkpt>
      <trkpt lat="44.9971" lon="6.47642">
        <ele>1560.436</ele>
        <time>2022-01-23T12:27:57Z</time>
      </trkpt>
      <trkpt lat="44.99716" lon="6.47642">
        <ele>1560.223</ele>
        <time>2022-01-23T12:28:02Z</time>
      </trkpt>
      <trkpt lat="44.99721" lon="6.4764">
        <ele>1561.045</ele>
        <time>2022-01-23T12:28:07Z</time>
      </trkpt>
      <trkpt lat="44.99726" lon="6.4764">
        <ele>1561.116</ele>
        <time>2022-01-23T12:28:12Z</time>
      </trkpt>
      <trkpt lat="44.99732" lon="6.47641">
        <ele>1562.394</ele>
        <time>2022-01-23T12:28:17Z</time>
      </trkpt>
      <trkpt lat="44.99736" lon="6.47643">
        <ele>1561.947</ele>
        <time>2022-01-23T12:28:22Z</time>
      </trkpt>
      <trkpt lat="44.9974" lon="6.47644">
        <ele>1561.993</ele>
        <time>2022-01-23T12:28:27Z</time>
      </trkpt>
      <trkpt lat="44.99744" lon="6.47643">
        <ele>1560.161</ele>
        <time>2022-01-23T12:28:32Z</time>
      </trkpt>
      <trkpt lat="44.99746" lon="6.47642">
        <ele>1561.056</ele>
        <time>2022-01-23T12:28:37Z</time>
      </trkpt>
      <trkpt lat="44.99746" lon="6.47641">
        <ele>1561.38</ele>
        <time>2022-01-23T12:28:42Z</time>
      </trkpt>
      <trkpt lat="44.99747" lon="6.47641">
        <ele>1562.445</ele>
        <time>2022-01-23T12:28:47Z</time>
      </trkpt>
      <trkpt lat="44.99752" lon="6.47641">
        <ele>1561.637</ele>
        <time>2022-01-23T12:28:52Z</time>
      </trkpt>
      <trkpt lat="44.99758" lon="6.47643">
        <ele>1562.599</ele>
        <time>2022-01-23T12:28:57Z</time>
      </trkpt>
      <trkpt lat="44.99765" lon="6.47646">
        <ele>1560.378</ele>
        <time>2022-01-23T12:29:02Z</time>
      </trkpt>
      <trkpt lat="44.99771" lon="6.47646">
        <ele>1560.528</ele>
        <time>2022-01-23T12:29:07Z</time>
      </trkpt>
      <trkpt lat="44.99777" lon="6.47646">
        <ele>1560.674</ele>
        <time>2022-01-23T12:29:12Z</time>
      </trkpt>
      <trkpt lat="44.99781" lon="6.47647">
        <ele>1559.29</ele>
        <time>2022-01-23T12:29:17Z</time>
      </trkpt>
      <trkpt lat="44.99786" lon="6.47649">
        <ele>1559.559</ele>
        <time>2022-01-23T12:29:22Z</time>
      </trkpt>
      <trkpt lat="44.99791" lon="6.47649">
        <ele>1559.734</ele>
        <time>2022-01-23T12:29:27Z</time>
      </trkpt>
      <trkpt lat="44.99796" lon="6.47647">
        <ele>1559.556</ele>
        <time>2022-01-23T12:29:32Z</time>
      </trkpt>
      <trkpt lat="44.99801" lon="6.47647">
        <ele>1559.282</ele>
        <time>2022-01-23T12:29:37Z</time>
      </trkpt>
      <trkpt lat="44.99807" lon="6.47647">
        <ele>1560.765</ele>
        <time>2022-01-23T12:29:42Z</time>
      </trkpt>
      <trkpt lat="44.9981" lon="6.47649">
        <ele>1559.307</ele>
        <time>2022-01-23T12:29:47Z</time>
      </trkpt>
      <trkpt lat="44.99812" lon="6.47655">
        <ele>1559.308</ele>
        <time>2022-01-23T12:29:52Z</time>
      </trkpt>
      <trkpt lat="44.99814" lon="6.47664">
        <ele>1558.139</ele>
        <time>2022-01-23T12:29:57Z</time>
      </trkpt>
      <trkpt lat="44.99815" lon="6.47672">
        <ele>1557.035</ele>
        <time>2022-01-23T12:30:02Z</time>
      </trkpt>
      <trkpt lat="44.99817" lon="6.4768">
        <ele>1557.384</ele>
        <time>2022-01-23T12:30:07Z</time>
      </trkpt>
      <trkpt lat="44.99818" lon="6.47687">
        <ele>1556.927</ele>
        <time>2022-01-23T12:30:12Z</time>
      </trkpt>
      <trkpt lat="44.99818" lon="6.47693">
        <ele>1557.421</ele>
        <time>2022-01-23T12:30:17Z</time>
      </trkpt>
      <trkpt lat="44.99816" lon="6.47701">
        <ele>1559.419</ele>
        <time>2022-01-23T12:30:22Z</time>
      </trkpt>
      <trkpt lat="44.99814" lon="6.47706">
        <ele>1558.003</ele>
        <time>2022-01-23T12:30:27Z</time>
      </trkpt>
      <trkpt lat="44.9981" lon="6.4771">
        <ele>1559.331</ele>
        <time>2022-01-23T12:30:32Z</time>
      </trkpt>
      <trkpt lat="44.99805" lon="6.47713">
        <ele>1560.623</ele>
        <time>2022-01-23T12:30:37Z</time>
      </trkpt>
      <trkpt lat="44.99799" lon="6.47712">
        <ele>1560.82</ele>
        <time>2022-01-23T12:30:42Z</time>
      </trkpt>
      <trkpt lat="44.99794" lon="6.47712">
        <ele>1561.231</ele>
        <time>2022-01-23T12:30:47Z</time>
      </trkpt>
      <trkpt lat="44.99789" lon="6.47711">
        <ele>1560.267</ele>
        <time>2022-01-23T12:30:52Z</time>
      </trkpt>
      <trkpt lat="44.99783" lon="6.47712">
        <ele>1560.013</ele>
        <time>2022-01-23T12:30:57Z</time>
      </trkpt>
      <trkpt lat="44.99776" lon="6.47714">
        <ele>1560.544</ele>
        <time>2022-01-23T12:31:02Z</time>
      </trkpt>
      <trkpt lat="44.9977" lon="6.47717">
        <ele>1560.698</ele>
        <time>2022-01-23T12:31:07Z</time>
      </trkpt>
      <trkpt lat="44.99764" lon="6.4772">
        <ele>1560.337</ele>
        <time>2022-01-23T12:31:12Z</time>
      </trkpt>
      <trkpt lat="44.99759" lon="6.47724">
        <ele>1559.705</ele>
        <time>2022-01-23T12:31:17Z</time>
      </trkpt>
      <trkpt lat="44.99754" lon="6.47728">
        <ele>1559.264</ele>
        <time>2022-01-23T12:31:22Z</time>
      </trkpt>
      <trkpt lat="44.99748" lon="6.47731">
        <ele>1559.12</ele>
        <time>2022-01-23T12:31:27Z</time>
      </trkpt>
      <trkpt lat="44.99748" lon="6.47732">
        <ele>1558.87</ele>
        <time>2022-01-23T12:31:32Z</time>
      </trkpt>
      <trkpt lat="44.99749" lon="6.47732">
        <ele>1558.613</ele>
        <time>2022-01-23T12:31:37Z</time>
      </trkpt>
      <trkpt lat="44.99748" lon="6.47733">
        <ele>1558.16</ele>
        <time>2022-01-23T12:31:42Z</time>
      </trkpt>
      <trkpt lat="44.99743" lon="6.47736">
        <ele>1558.341</ele>
        <time>2022-01-23T12:31:47Z</time>
      </trkpt>
      <trkpt lat="44.99737" lon="6.4774">
        <ele>1558.252</ele>
        <time>2022-01-23T12:31:52Z</time>
      </trkpt>
      <trkpt lat="44.99732" lon="6.47744">
        <ele>1557.586</ele>
        <time>2022-01-23T12:31:57Z</time>
      </trkpt>
      <trkpt lat="44.99726" lon="6.47746">
        <ele>1557.073</ele>
        <time>2022-01-23T12:32:02Z</time>
      </trkpt>
      <trkpt lat="44.99721" lon="6.47747">
        <ele>1556.494</ele>
        <time>2022-01-23T12:32:07Z</time>
      </trkpt>
      <trkpt lat="44.99721" lon="6.47747">
        <ele>1556.079</ele>
        <time>2022-01-23T12:32:12Z</time>
      </trkpt>
      <trkpt lat="44.99715" lon="6.47746">
        <ele>1555.44</ele>
        <time>2022-01-23T12:32:17Z</time>
      </trkpt>
      <trkpt lat="44.9971" lon="6.47744">
        <ele>1555.377</ele>
        <time>2022-01-23T12:32:22Z</time>
      </trkpt>
      <trkpt lat="44.99704" lon="6.47739">
        <ele>1554.326</ele>
        <time>2022-01-23T12:32:27Z</time>
      </trkpt>
      <trkpt lat="44.99698" lon="6.47735">
        <ele>1553.887</ele>
        <time>2022-01-23T12:32:32Z</time>
      </trkpt>
      <trkpt lat="44.99691" lon="6.47732">
        <ele>1554.77</ele>
        <time>2022-01-23T12:32:37Z</time>
      </trkpt>
      <trkpt lat="44.99685" lon="6.47729">
        <ele>1553.478</ele>
        <time>2022-01-23T12:32:42Z</time>
      </trkpt>
      <trkpt lat="44.99679" lon="6.47727">
        <ele>1553.203</ele>
        <time>2022-01-23T12:32:47Z</time>
      </trkpt>
      <trkpt lat="44.99672" lon="6.47724">
        <ele>1552.96</ele>
        <time>2022-01-23T12:32:52Z</time>
      </trkpt>
      <trkpt lat="44.99666" lon="6.47722">
        <ele>1552.837</ele>
        <time>2022-01-23T12:32:57Z</time>
      </trkpt>
      <trkpt lat="44.99659" lon="6.47718">
        <ele>1552.185</ele>
        <time>2022-01-23T12:33:02Z</time>
      </trkpt>
      <trkpt lat="44.99654" lon="6.47716">
        <ele>1550.403</ele>
        <time>2022-01-23T12:33:07Z</time>
      </trkpt>
      <trkpt lat="44.99648" lon="6.47715">
        <ele>1549.404</ele>
        <time>2022-01-23T12:33:12Z</time>
      </trkpt>
      <trkpt lat="44.99641" lon="6.47712">
        <ele>1548.259</ele>
        <time>2022-01-23T12:33:17Z</time>
      </trkpt>
      <trkpt lat="44.99633" lon="6.47711">
        <ele>1548.894</ele>
        <time>2022-01-23T12:33:22Z</time>
      </trkpt>
      <trkpt lat="44.99627" lon="6.47709">
        <ele>1547.64</ele>
        <time>2022-01-23T12:33:27Z</time>
      </trkpt>
      <trkpt lat="44.9962" lon="6.47709">
        <ele>1547.748</ele>
        <time>2022-01-23T12:33:32Z</time>
      </trkpt>
      <trkpt lat="44.99617" lon="6.47711">
        <ele>1547.676</ele>
        <time>2022-01-23T12:33:37Z</time>
      </trkpt>
      <trkpt lat="44.99619" lon="6.47713">
        <ele>1545.625</ele>
        <time>2022-01-23T12:33:42Z</time>
      </trkpt>
      <trkpt lat="44.99619" lon="6.47714">
        <ele>1546.206</ele>
        <time>2022-01-23T12:33:47Z</time>
      </trkpt>
      <trkpt lat="44.99619" lon="6.47714">
        <ele>1546.463</ele>
        <time>2022-01-23T12:33:52Z</time>
      </trkpt>
      <trkpt lat="44.99619" lon="6.47714">
        <ele>1547.047</ele>
        <time>2022-01-23T12:33:57Z</time>
      </trkpt>
      <trkpt lat="44.9962" lon="6.47716">
        <ele>1548.252</ele>
        <time>2022-01-23T12:34:02Z</time>
      </trkpt>
      <trkpt lat="44.9962" lon="6.47714">
        <ele>1547.762</ele>
        <time>2022-01-23T12:34:07Z</time>
      </trkpt>
      <trkpt lat="44.9962" lon="6.47715">
        <ele>1546.62</ele>
        <time>2022-01-23T12:34:12Z</time>
      </trkpt>
      <trkpt lat="44.9962" lon="6.47716">
        <ele>1546.351</ele>
        <time>2022-01-23T12:34:17Z</time>
      </trkpt>
      <trkpt lat="44.9962" lon="6.47716">
        <ele>1546.403</ele>
        <time>2022-01-23T12:34:22Z</time>
      </trkpt>
      <trkpt lat="44.9962" lon="6.47716">
        <ele>1546.411</ele>
        <time>2022-01-23T12:34:27Z</time>
      </trkpt>
      <trkpt lat="44.9962" lon="6.47716">
        <ele>1546.724</ele>
        <time>2022-01-23T12:34:32Z</time>
      </trkpt>
      <trkpt lat="44.9962" lon="6.47715">
        <ele>1546.615</ele>
        <time>2022-01-23T12:34:37Z</time>
      </trkpt>
      <trkpt lat="44.9962" lon="6.47715">
        <ele>1546.936</ele>
        <time>2022-01-23T12:34:42Z</time>
      </trkpt>
      <trkpt lat="44.9962" lon="6.47715">
        <ele>1546.965</ele>
        <time>2022-01-23T12:34:47Z</time>
      </trkpt>
      <trkpt lat="44.9962" lon="6.47715">
        <ele>1546.959</ele>
        <time>2022-01-23T12:34:52Z</time>
      </trkpt>
      <trkpt lat="44.9962" lon="6.47715">
        <ele>1546.96</ele>
        <time>2022-01-23T12:34:57Z</time>
      </trkpt>
      <trkpt lat="44.9962" lon="6.47715">
        <ele>1546.972</ele>
        <time>2022-01-23T12:35:02Z</time>
      </trkpt>
      <trkpt lat="44.9962" lon="6.47715">
        <ele>1546.987</ele>
        <time>2022-01-23T12:35:07Z</time>
      </trkpt>
      <trkpt lat="44.9962" lon="6.47714">
        <ele>1546.714</ele>
        <time>2022-01-23T12:35:12Z</time>
      </trkpt>
      <trkpt lat="44.9962" lon="6.47714">
        <ele>1546.168</ele>
        <time>2022-01-23T12:35:17Z</time>
      </trkpt>
      <trkpt lat="44.9962" lon="6.47715">
        <ele>1545.603</ele>
        <time>2022-01-23T12:35:22Z</time>
      </trkpt>
      <trkpt lat="44.9962" lon="6.47715">
        <ele>1545.553</ele>
        <time>2022-01-23T12:35:27Z</time>
      </trkpt>
      <trkpt lat="44.9962" lon="6.47715">
        <ele>1545.554</ele>
        <time>2022-01-23T12:35:32Z</time>
      </trkpt>
      <trkpt lat="44.9962" lon="6.47715">
        <ele>1545.57</ele>
        <time>2022-01-23T12:35:37Z</time>
      </trkpt>
      <trkpt lat="44.9962" lon="6.47715">
        <ele>1545.593</ele>
        <time>2022-01-23T12:35:42Z</time>
      </trkpt>
      <trkpt lat="44.9962" lon="6.47715">
        <ele>1545.637</ele>
        <time>2022-01-23T12:35:47Z</time>
      </trkpt>
      <trkpt lat="44.9962" lon="6.47715">
        <ele>1545.678</ele>
        <time>2022-01-23T12:35:52Z</time>
      </trkpt>
      <trkpt lat="44.9962" lon="6.47714">
        <ele>1545.67</ele>
        <time>2022-01-23T12:35:57Z</time>
      </trkpt>
    </trkseg>
  </trk>
</gpx>